<?xml version="1.0" encoding="UTF-8" standalone="no" ?>
<gpx xmlns="http://www.topografix.com/GPX/1/1" xmlns:xsi="http://www.w3.org/2001/XMLSchema-instance" xsi:schemaLocation="http://www.topografix.com/GPX/1/1 http://www.topografix.com/GPX/1/1/gpx.xsd" version="1.1" creator="VisuGPX - https://www.visugpx.com">
  <metadata>
    <name>Forêt du Rouvray</name>
    <desc><![CDATA[Balade agréable avec quelques montées!
Pour Vététiste moyen.]]></desc>
  </metadata>
  <trk>
    <name><![CDATA[001-2010/04/27-16:34:51]]></name>
    <trkseg>
      <trkpt lat="49.39246" lon="1.09673">
        <ele>62</ele>
        <time>2010-04-27T14:34:51Z</time>
      </trkpt>
      <trkpt lat="49.39221" lon="1.09654">
        <ele>46</ele>
        <time>2010-04-27T14:35:03Z</time>
      </trkpt>
      <trkpt lat="49.39214" lon="1.09649">
        <ele>44</ele>
        <time>2010-04-27T14:35:06Z</time>
      </trkpt>
      <trkpt lat="49.39206" lon="1.09647">
        <ele>43</ele>
        <time>2010-04-27T14:35:09Z</time>
      </trkpt>
      <trkpt lat="49.39198" lon="1.09641">
        <ele>41</ele>
        <time>2010-04-27T14:35:12Z</time>
      </trkpt>
      <trkpt lat="49.39187" lon="1.09636">
        <ele>39</ele>
        <time>2010-04-27T14:35:15Z</time>
      </trkpt>
      <trkpt lat="49.39178" lon="1.09626">
        <ele>37</ele>
        <time>2010-04-27T14:35:18Z</time>
      </trkpt>
      <trkpt lat="49.39167" lon="1.0962">
        <ele>35</ele>
        <time>2010-04-27T14:35:21Z</time>
      </trkpt>
      <trkpt lat="49.39155" lon="1.09615">
        <ele>33</ele>
        <time>2010-04-27T14:35:24Z</time>
      </trkpt>
      <trkpt lat="49.39143" lon="1.0961">
        <ele>33</ele>
        <time>2010-04-27T14:35:27Z</time>
      </trkpt>
      <trkpt lat="49.39129" lon="1.09606">
        <ele>32</ele>
        <time>2010-04-27T14:35:30Z</time>
      </trkpt>
      <trkpt lat="49.39114" lon="1.09605">
        <ele>31</ele>
        <time>2010-04-27T14:35:33Z</time>
      </trkpt>
      <trkpt lat="49.391" lon="1.09605">
        <ele>30</ele>
        <time>2010-04-27T14:35:36Z</time>
      </trkpt>
      <trkpt lat="49.39085" lon="1.0961">
        <ele>30</ele>
        <time>2010-04-27T14:35:39Z</time>
      </trkpt>
      <trkpt lat="49.3907" lon="1.09614">
        <ele>29</ele>
        <time>2010-04-27T14:35:42Z</time>
      </trkpt>
      <trkpt lat="49.39062" lon="1.09618">
        <ele>28</ele>
        <time>2010-04-27T14:35:45Z</time>
      </trkpt>
      <trkpt lat="49.39059" lon="1.09619">
        <ele>27</ele>
        <time>2010-04-27T14:35:48Z</time>
      </trkpt>
      <trkpt lat="49.3905" lon="1.09611">
        <ele>24</ele>
        <time>2010-04-27T14:35:55Z</time>
      </trkpt>
      <trkpt lat="49.39047" lon="1.096">
        <ele>24</ele>
        <time>2010-04-27T14:35:58Z</time>
      </trkpt>
      <trkpt lat="49.39042" lon="1.09586">
        <ele>24</ele>
        <time>2010-04-27T14:36:01Z</time>
      </trkpt>
      <trkpt lat="49.39037" lon="1.09569">
        <ele>24</ele>
        <time>2010-04-27T14:36:04Z</time>
      </trkpt>
      <trkpt lat="49.39033" lon="1.09552">
        <ele>24</ele>
        <time>2010-04-27T14:36:07Z</time>
      </trkpt>
      <trkpt lat="49.39032" lon="1.09535">
        <ele>24</ele>
        <time>2010-04-27T14:36:10Z</time>
      </trkpt>
      <trkpt lat="49.39029" lon="1.0952">
        <ele>24</ele>
        <time>2010-04-27T14:36:13Z</time>
      </trkpt>
      <trkpt lat="49.39023" lon="1.09509">
        <ele>24</ele>
        <time>2010-04-27T14:36:16Z</time>
      </trkpt>
      <trkpt lat="49.39018" lon="1.09497">
        <ele>24</ele>
        <time>2010-04-27T14:36:19Z</time>
      </trkpt>
      <trkpt lat="49.39016" lon="1.09483">
        <ele>24</ele>
        <time>2010-04-27T14:36:22Z</time>
      </trkpt>
      <trkpt lat="49.39012" lon="1.09469">
        <ele>24</ele>
        <time>2010-04-27T14:36:25Z</time>
      </trkpt>
      <trkpt lat="49.39008" lon="1.09456">
        <ele>24</ele>
        <time>2010-04-27T14:36:28Z</time>
      </trkpt>
      <trkpt lat="49.39004" lon="1.09442">
        <ele>24</ele>
        <time>2010-04-27T14:36:31Z</time>
      </trkpt>
      <trkpt lat="49.39" lon="1.0943">
        <ele>25</ele>
        <time>2010-04-27T14:36:34Z</time>
      </trkpt>
      <trkpt lat="49.38997" lon="1.09417">
        <ele>26</ele>
        <time>2010-04-27T14:36:37Z</time>
      </trkpt>
      <trkpt lat="49.38993" lon="1.09404">
        <ele>26</ele>
        <time>2010-04-27T14:36:40Z</time>
      </trkpt>
      <trkpt lat="49.3899" lon="1.09391">
        <ele>26</ele>
        <time>2010-04-27T14:36:43Z</time>
      </trkpt>
      <trkpt lat="49.38986" lon="1.09379">
        <ele>27</ele>
        <time>2010-04-27T14:36:46Z</time>
      </trkpt>
      <trkpt lat="49.38982" lon="1.09365">
        <ele>28</ele>
        <time>2010-04-27T14:36:49Z</time>
      </trkpt>
      <trkpt lat="49.38977" lon="1.0935">
        <ele>28</ele>
        <time>2010-04-27T14:36:52Z</time>
      </trkpt>
      <trkpt lat="49.38973" lon="1.09336">
        <ele>28</ele>
        <time>2010-04-27T14:36:56Z</time>
      </trkpt>
      <trkpt lat="49.38968" lon="1.09319">
        <ele>29</ele>
        <time>2010-04-27T14:36:59Z</time>
      </trkpt>
      <trkpt lat="49.38964" lon="1.09306">
        <ele>29</ele>
        <time>2010-04-27T14:37:02Z</time>
      </trkpt>
      <trkpt lat="49.38961" lon="1.09293">
        <ele>30</ele>
        <time>2010-04-27T14:37:05Z</time>
      </trkpt>
      <trkpt lat="49.38958" lon="1.09281">
        <ele>31</ele>
        <time>2010-04-27T14:37:08Z</time>
      </trkpt>
      <trkpt lat="49.38954" lon="1.0927">
        <ele>31</ele>
        <time>2010-04-27T14:37:11Z</time>
      </trkpt>
      <trkpt lat="49.38953" lon="1.09259">
        <ele>31</ele>
        <time>2010-04-27T14:37:14Z</time>
      </trkpt>
      <trkpt lat="49.38949" lon="1.09246">
        <ele>31</ele>
        <time>2010-04-27T14:37:17Z</time>
      </trkpt>
      <trkpt lat="49.38945" lon="1.09233">
        <ele>31</ele>
        <time>2010-04-27T14:37:20Z</time>
      </trkpt>
      <trkpt lat="49.38941" lon="1.0922">
        <ele>31</ele>
        <time>2010-04-27T14:37:23Z</time>
      </trkpt>
      <trkpt lat="49.38937" lon="1.09206">
        <ele>31</ele>
        <time>2010-04-27T14:37:26Z</time>
      </trkpt>
      <trkpt lat="49.38934" lon="1.09193">
        <ele>31</ele>
        <time>2010-04-27T14:37:29Z</time>
      </trkpt>
      <trkpt lat="49.3893" lon="1.09181">
        <ele>31</ele>
        <time>2010-04-27T14:37:32Z</time>
      </trkpt>
      <trkpt lat="49.38928" lon="1.0917">
        <ele>32</ele>
        <time>2010-04-27T14:37:35Z</time>
      </trkpt>
      <trkpt lat="49.38925" lon="1.09158">
        <ele>32</ele>
        <time>2010-04-27T14:37:38Z</time>
      </trkpt>
      <trkpt lat="49.38921" lon="1.09147">
        <ele>32</ele>
        <time>2010-04-27T14:37:41Z</time>
      </trkpt>
      <trkpt lat="49.38916" lon="1.09134">
        <ele>32</ele>
        <time>2010-04-27T14:37:44Z</time>
      </trkpt>
      <trkpt lat="49.38913" lon="1.09122">
        <ele>32</ele>
        <time>2010-04-27T14:37:47Z</time>
      </trkpt>
      <trkpt lat="49.3891" lon="1.0911">
        <ele>32</ele>
        <time>2010-04-27T14:37:50Z</time>
      </trkpt>
      <trkpt lat="49.38906" lon="1.09098">
        <ele>32</ele>
        <time>2010-04-27T14:37:53Z</time>
      </trkpt>
      <trkpt lat="49.38902" lon="1.09084">
        <ele>32</ele>
        <time>2010-04-27T14:37:56Z</time>
      </trkpt>
      <trkpt lat="49.38898" lon="1.0907">
        <ele>32</ele>
        <time>2010-04-27T14:37:59Z</time>
      </trkpt>
      <trkpt lat="49.38895" lon="1.09057">
        <ele>32</ele>
        <time>2010-04-27T14:38:02Z</time>
      </trkpt>
      <trkpt lat="49.38891" lon="1.09045">
        <ele>32</ele>
        <time>2010-04-27T14:38:05Z</time>
      </trkpt>
      <trkpt lat="49.38889" lon="1.09034">
        <ele>32</ele>
        <time>2010-04-27T14:38:08Z</time>
      </trkpt>
      <trkpt lat="49.38888" lon="1.09027">
        <ele>32</ele>
        <time>2010-04-27T14:38:11Z</time>
      </trkpt>
      <trkpt lat="49.38886" lon="1.09022">
        <ele>32</ele>
        <time>2010-04-27T14:38:14Z</time>
      </trkpt>
      <trkpt lat="49.38884" lon="1.09015">
        <ele>32</ele>
        <time>2010-04-27T14:38:17Z</time>
      </trkpt>
      <trkpt lat="49.3888" lon="1.09003">
        <ele>32</ele>
        <time>2010-04-27T14:38:20Z</time>
      </trkpt>
      <trkpt lat="49.38877" lon="1.0899">
        <ele>32</ele>
        <time>2010-04-27T14:38:23Z</time>
      </trkpt>
      <trkpt lat="49.38872" lon="1.08976">
        <ele>32</ele>
        <time>2010-04-27T14:38:26Z</time>
      </trkpt>
      <trkpt lat="49.38869" lon="1.08961">
        <ele>32</ele>
        <time>2010-04-27T14:38:29Z</time>
      </trkpt>
      <trkpt lat="49.38867" lon="1.0895">
        <ele>32</ele>
        <time>2010-04-27T14:38:33Z</time>
      </trkpt>
      <trkpt lat="49.38865" lon="1.0894">
        <ele>32</ele>
        <time>2010-04-27T14:38:36Z</time>
      </trkpt>
      <trkpt lat="49.38863" lon="1.08929">
        <ele>32</ele>
        <time>2010-04-27T14:38:39Z</time>
      </trkpt>
      <trkpt lat="49.3886" lon="1.08918">
        <ele>32</ele>
        <time>2010-04-27T14:38:42Z</time>
      </trkpt>
      <trkpt lat="49.38857" lon="1.08907">
        <ele>32</ele>
        <time>2010-04-27T14:38:45Z</time>
      </trkpt>
      <trkpt lat="49.38854" lon="1.08895">
        <ele>32</ele>
        <time>2010-04-27T14:38:48Z</time>
      </trkpt>
      <trkpt lat="49.38852" lon="1.08882">
        <ele>32</ele>
        <time>2010-04-27T14:38:52Z</time>
      </trkpt>
      <trkpt lat="49.38847" lon="1.08866">
        <ele>32</ele>
        <time>2010-04-27T14:38:55Z</time>
      </trkpt>
      <trkpt lat="49.38844" lon="1.08852">
        <ele>32</ele>
        <time>2010-04-27T14:38:58Z</time>
      </trkpt>
      <trkpt lat="49.3884" lon="1.08838">
        <ele>32</ele>
        <time>2010-04-27T14:39:01Z</time>
      </trkpt>
      <trkpt lat="49.38838" lon="1.08825">
        <ele>32</ele>
        <time>2010-04-27T14:39:04Z</time>
      </trkpt>
      <trkpt lat="49.38835" lon="1.08811">
        <ele>32</ele>
        <time>2010-04-27T14:39:07Z</time>
      </trkpt>
      <trkpt lat="49.38832" lon="1.08798">
        <ele>32</ele>
        <time>2010-04-27T14:39:10Z</time>
      </trkpt>
      <trkpt lat="49.38829" lon="1.08785">
        <ele>32</ele>
        <time>2010-04-27T14:39:13Z</time>
      </trkpt>
      <trkpt lat="49.38826" lon="1.08773">
        <ele>32</ele>
        <time>2010-04-27T14:39:16Z</time>
      </trkpt>
      <trkpt lat="49.38823" lon="1.08761">
        <ele>33</ele>
        <time>2010-04-27T14:39:19Z</time>
      </trkpt>
      <trkpt lat="49.38821" lon="1.08749">
        <ele>33</ele>
        <time>2010-04-27T14:39:22Z</time>
      </trkpt>
      <trkpt lat="49.38818" lon="1.08739">
        <ele>34</ele>
        <time>2010-04-27T14:39:25Z</time>
      </trkpt>
      <trkpt lat="49.38816" lon="1.08727">
        <ele>35</ele>
        <time>2010-04-27T14:39:28Z</time>
      </trkpt>
      <trkpt lat="49.38814" lon="1.08715">
        <ele>35</ele>
        <time>2010-04-27T14:39:31Z</time>
      </trkpt>
      <trkpt lat="49.38811" lon="1.08703">
        <ele>35</ele>
        <time>2010-04-27T14:39:34Z</time>
      </trkpt>
      <trkpt lat="49.38807" lon="1.08691">
        <ele>35</ele>
        <time>2010-04-27T14:39:37Z</time>
      </trkpt>
      <trkpt lat="49.38805" lon="1.08679">
        <ele>35</ele>
        <time>2010-04-27T14:39:40Z</time>
      </trkpt>
      <trkpt lat="49.38802" lon="1.08667">
        <ele>36</ele>
        <time>2010-04-27T14:39:43Z</time>
      </trkpt>
      <trkpt lat="49.38799" lon="1.08655">
        <ele>36</ele>
        <time>2010-04-27T14:39:46Z</time>
      </trkpt>
      <trkpt lat="49.38796" lon="1.08643">
        <ele>36</ele>
        <time>2010-04-27T14:39:49Z</time>
      </trkpt>
      <trkpt lat="49.38794" lon="1.08632">
        <ele>36</ele>
        <time>2010-04-27T14:39:52Z</time>
      </trkpt>
      <trkpt lat="49.38791" lon="1.0862">
        <ele>37</ele>
        <time>2010-04-27T14:39:55Z</time>
      </trkpt>
      <trkpt lat="49.38787" lon="1.08609">
        <ele>37</ele>
        <time>2010-04-27T14:39:58Z</time>
      </trkpt>
      <trkpt lat="49.38783" lon="1.08597">
        <ele>37</ele>
        <time>2010-04-27T14:40:01Z</time>
      </trkpt>
      <trkpt lat="49.38779" lon="1.08585">
        <ele>37</ele>
        <time>2010-04-27T14:40:04Z</time>
      </trkpt>
      <trkpt lat="49.38774" lon="1.08574">
        <ele>38</ele>
        <time>2010-04-27T14:40:07Z</time>
      </trkpt>
      <trkpt lat="49.3877" lon="1.08562">
        <ele>38</ele>
        <time>2010-04-27T14:40:10Z</time>
      </trkpt>
      <trkpt lat="49.38766" lon="1.08551">
        <ele>38</ele>
        <time>2010-04-27T14:40:13Z</time>
      </trkpt>
      <trkpt lat="49.38762" lon="1.08539">
        <ele>39</ele>
        <time>2010-04-27T14:40:16Z</time>
      </trkpt>
      <trkpt lat="49.38758" lon="1.08527">
        <ele>39</ele>
        <time>2010-04-27T14:40:19Z</time>
      </trkpt>
      <trkpt lat="49.38753" lon="1.08515">
        <ele>39</ele>
        <time>2010-04-27T14:40:22Z</time>
      </trkpt>
      <trkpt lat="49.38749" lon="1.08504">
        <ele>40</ele>
        <time>2010-04-27T14:40:25Z</time>
      </trkpt>
      <trkpt lat="49.38744" lon="1.08492">
        <ele>40</ele>
        <time>2010-04-27T14:40:28Z</time>
      </trkpt>
      <trkpt lat="49.38739" lon="1.08481">
        <ele>41</ele>
        <time>2010-04-27T14:40:31Z</time>
      </trkpt>
      <trkpt lat="49.38734" lon="1.0847">
        <ele>41</ele>
        <time>2010-04-27T14:40:34Z</time>
      </trkpt>
      <trkpt lat="49.3873" lon="1.0846">
        <ele>42</ele>
        <time>2010-04-27T14:40:37Z</time>
      </trkpt>
      <trkpt lat="49.38725" lon="1.08449">
        <ele>42</ele>
        <time>2010-04-27T14:40:40Z</time>
      </trkpt>
      <trkpt lat="49.38721" lon="1.08438">
        <ele>43</ele>
        <time>2010-04-27T14:40:43Z</time>
      </trkpt>
      <trkpt lat="49.38716" lon="1.08428">
        <ele>43</ele>
        <time>2010-04-27T14:40:46Z</time>
      </trkpt>
      <trkpt lat="49.38714" lon="1.08421">
        <ele>43</ele>
        <time>2010-04-27T14:40:49Z</time>
      </trkpt>
      <trkpt lat="49.38712" lon="1.08415">
        <ele>43</ele>
        <time>2010-04-27T14:40:57Z</time>
      </trkpt>
      <trkpt lat="49.38711" lon="1.08405">
        <ele>43</ele>
        <time>2010-04-27T14:41:00Z</time>
      </trkpt>
      <trkpt lat="49.38713" lon="1.08393">
        <ele>43</ele>
        <time>2010-04-27T14:41:03Z</time>
      </trkpt>
      <trkpt lat="49.38711" lon="1.08381">
        <ele>43</ele>
        <time>2010-04-27T14:41:06Z</time>
      </trkpt>
      <trkpt lat="49.38705" lon="1.08371">
        <ele>43</ele>
        <time>2010-04-27T14:41:09Z</time>
      </trkpt>
      <trkpt lat="49.38697" lon="1.08365">
        <ele>43</ele>
        <time>2010-04-27T14:41:12Z</time>
      </trkpt>
      <trkpt lat="49.38686" lon="1.08359">
        <ele>43</ele>
        <time>2010-04-27T14:41:15Z</time>
      </trkpt>
      <trkpt lat="49.38684" lon="1.08346">
        <ele>43</ele>
        <time>2010-04-27T14:41:18Z</time>
      </trkpt>
      <trkpt lat="49.3868" lon="1.08332">
        <ele>43</ele>
        <time>2010-04-27T14:41:21Z</time>
      </trkpt>
      <trkpt lat="49.38674" lon="1.08318">
        <ele>44</ele>
        <time>2010-04-27T14:41:24Z</time>
      </trkpt>
      <trkpt lat="49.38668" lon="1.08305">
        <ele>44</ele>
        <time>2010-04-27T14:41:27Z</time>
      </trkpt>
      <trkpt lat="49.38662" lon="1.08292">
        <ele>45</ele>
        <time>2010-04-27T14:41:30Z</time>
      </trkpt>
      <trkpt lat="49.38657" lon="1.08279">
        <ele>45</ele>
        <time>2010-04-27T14:41:33Z</time>
      </trkpt>
      <trkpt lat="49.38651" lon="1.08266">
        <ele>46</ele>
        <time>2010-04-27T14:41:36Z</time>
      </trkpt>
      <trkpt lat="49.38645" lon="1.08252">
        <ele>46</ele>
        <time>2010-04-27T14:41:39Z</time>
      </trkpt>
      <trkpt lat="49.38638" lon="1.08238">
        <ele>47</ele>
        <time>2010-04-27T14:41:42Z</time>
      </trkpt>
      <trkpt lat="49.38632" lon="1.08226">
        <ele>47</ele>
        <time>2010-04-27T14:41:45Z</time>
      </trkpt>
      <trkpt lat="49.38626" lon="1.08213">
        <ele>48</ele>
        <time>2010-04-27T14:41:48Z</time>
      </trkpt>
      <trkpt lat="49.38619" lon="1.08201">
        <ele>48</ele>
        <time>2010-04-27T14:41:52Z</time>
      </trkpt>
      <trkpt lat="49.38611" lon="1.08187">
        <ele>49</ele>
        <time>2010-04-27T14:41:55Z</time>
      </trkpt>
      <trkpt lat="49.38603" lon="1.08175">
        <ele>49</ele>
        <time>2010-04-27T14:41:58Z</time>
      </trkpt>
      <trkpt lat="49.38595" lon="1.08163">
        <ele>49</ele>
        <time>2010-04-27T14:42:01Z</time>
      </trkpt>
      <trkpt lat="49.38588" lon="1.08152">
        <ele>49</ele>
        <time>2010-04-27T14:42:04Z</time>
      </trkpt>
      <trkpt lat="49.38581" lon="1.08142">
        <ele>49</ele>
        <time>2010-04-27T14:42:07Z</time>
      </trkpt>
      <trkpt lat="49.38573" lon="1.08132">
        <ele>50</ele>
        <time>2010-04-27T14:42:10Z</time>
      </trkpt>
      <trkpt lat="49.38565" lon="1.08122">
        <ele>51</ele>
        <time>2010-04-27T14:42:13Z</time>
      </trkpt>
      <trkpt lat="49.38557" lon="1.08113">
        <ele>51</ele>
        <time>2010-04-27T14:42:16Z</time>
      </trkpt>
      <trkpt lat="49.3855" lon="1.08105">
        <ele>51</ele>
        <time>2010-04-27T14:42:19Z</time>
      </trkpt>
      <trkpt lat="49.38542" lon="1.08097">
        <ele>51</ele>
        <time>2010-04-27T14:42:22Z</time>
      </trkpt>
      <trkpt lat="49.38534" lon="1.0809">
        <ele>52</ele>
        <time>2010-04-27T14:42:25Z</time>
      </trkpt>
      <trkpt lat="49.38527" lon="1.08083">
        <ele>52</ele>
        <time>2010-04-27T14:42:28Z</time>
      </trkpt>
      <trkpt lat="49.38522" lon="1.08077">
        <ele>52</ele>
        <time>2010-04-27T14:42:31Z</time>
      </trkpt>
      <trkpt lat="49.38518" lon="1.08072">
        <ele>52</ele>
        <time>2010-04-27T14:42:34Z</time>
      </trkpt>
      <trkpt lat="49.38512" lon="1.08068">
        <ele>52</ele>
        <time>2010-04-27T14:42:37Z</time>
      </trkpt>
      <trkpt lat="49.38504" lon="1.08061">
        <ele>52</ele>
        <time>2010-04-27T14:42:40Z</time>
      </trkpt>
      <trkpt lat="49.38495" lon="1.08053">
        <ele>53</ele>
        <time>2010-04-27T14:42:43Z</time>
      </trkpt>
      <trkpt lat="49.38487" lon="1.08043">
        <ele>54</ele>
        <time>2010-04-27T14:42:46Z</time>
      </trkpt>
      <trkpt lat="49.38479" lon="1.08035">
        <ele>54</ele>
        <time>2010-04-27T14:42:49Z</time>
      </trkpt>
      <trkpt lat="49.38471" lon="1.08027">
        <ele>55</ele>
        <time>2010-04-27T14:42:52Z</time>
      </trkpt>
      <trkpt lat="49.38462" lon="1.08018">
        <ele>55</ele>
        <time>2010-04-27T14:42:55Z</time>
      </trkpt>
      <trkpt lat="49.38453" lon="1.0801">
        <ele>55</ele>
        <time>2010-04-27T14:42:58Z</time>
      </trkpt>
      <trkpt lat="49.38443" lon="1.08">
        <ele>56</ele>
        <time>2010-04-27T14:43:01Z</time>
      </trkpt>
      <trkpt lat="49.38435" lon="1.07989">
        <ele>56</ele>
        <time>2010-04-27T14:43:04Z</time>
      </trkpt>
      <trkpt lat="49.38427" lon="1.07977">
        <ele>56</ele>
        <time>2010-04-27T14:43:07Z</time>
      </trkpt>
      <trkpt lat="49.3842" lon="1.07965">
        <ele>56</ele>
        <time>2010-04-27T14:43:10Z</time>
      </trkpt>
      <trkpt lat="49.38414" lon="1.0795">
        <ele>56</ele>
        <time>2010-04-27T14:43:13Z</time>
      </trkpt>
      <trkpt lat="49.38409" lon="1.07935">
        <ele>56</ele>
        <time>2010-04-27T14:43:16Z</time>
      </trkpt>
      <trkpt lat="49.38405" lon="1.0792">
        <ele>56</ele>
        <time>2010-04-27T14:43:19Z</time>
      </trkpt>
      <trkpt lat="49.38405" lon="1.07905">
        <ele>56</ele>
        <time>2010-04-27T14:43:22Z</time>
      </trkpt>
      <trkpt lat="49.3841" lon="1.07891">
        <ele>56</ele>
        <time>2010-04-27T14:43:25Z</time>
      </trkpt>
      <trkpt lat="49.3841" lon="1.07875">
        <ele>56</ele>
        <time>2010-04-27T14:43:28Z</time>
      </trkpt>
      <trkpt lat="49.38408" lon="1.0786">
        <ele>56</ele>
        <time>2010-04-27T14:43:31Z</time>
      </trkpt>
      <trkpt lat="49.38408" lon="1.07845">
        <ele>56</ele>
        <time>2010-04-27T14:43:34Z</time>
      </trkpt>
      <trkpt lat="49.38412" lon="1.07831">
        <ele>56</ele>
        <time>2010-04-27T14:43:37Z</time>
      </trkpt>
      <trkpt lat="49.38416" lon="1.07819">
        <ele>56</ele>
        <time>2010-04-27T14:43:40Z</time>
      </trkpt>
      <trkpt lat="49.3842" lon="1.07807">
        <ele>56</ele>
        <time>2010-04-27T14:43:43Z</time>
      </trkpt>
      <trkpt lat="49.38424" lon="1.07795">
        <ele>56</ele>
        <time>2010-04-27T14:43:46Z</time>
      </trkpt>
      <trkpt lat="49.38428" lon="1.07783">
        <ele>56</ele>
        <time>2010-04-27T14:43:49Z</time>
      </trkpt>
      <trkpt lat="49.38432" lon="1.07772">
        <ele>56</ele>
        <time>2010-04-27T14:43:52Z</time>
      </trkpt>
      <trkpt lat="49.38436" lon="1.07762">
        <ele>56</ele>
        <time>2010-04-27T14:43:55Z</time>
      </trkpt>
      <trkpt lat="49.38439" lon="1.0775">
        <ele>56</ele>
        <time>2010-04-27T14:43:58Z</time>
      </trkpt>
      <trkpt lat="49.38443" lon="1.07739">
        <ele>56</ele>
        <time>2010-04-27T14:44:01Z</time>
      </trkpt>
      <trkpt lat="49.38447" lon="1.07727">
        <ele>56</ele>
        <time>2010-04-27T14:44:04Z</time>
      </trkpt>
      <trkpt lat="49.3845" lon="1.07714">
        <ele>56</ele>
        <time>2010-04-27T14:44:07Z</time>
      </trkpt>
      <trkpt lat="49.38454" lon="1.07701">
        <ele>56</ele>
        <time>2010-04-27T14:44:10Z</time>
      </trkpt>
      <trkpt lat="49.38459" lon="1.07689">
        <ele>56</ele>
        <time>2010-04-27T14:44:13Z</time>
      </trkpt>
      <trkpt lat="49.38463" lon="1.07676">
        <ele>56</ele>
        <time>2010-04-27T14:44:16Z</time>
      </trkpt>
      <trkpt lat="49.38467" lon="1.07664">
        <ele>56</ele>
        <time>2010-04-27T14:44:19Z</time>
      </trkpt>
      <trkpt lat="49.38471" lon="1.07652">
        <ele>56</ele>
        <time>2010-04-27T14:44:22Z</time>
      </trkpt>
      <trkpt lat="49.38475" lon="1.07639">
        <ele>56</ele>
        <time>2010-04-27T14:44:25Z</time>
      </trkpt>
      <trkpt lat="49.38479" lon="1.07626">
        <ele>56</ele>
        <time>2010-04-27T14:44:28Z</time>
      </trkpt>
      <trkpt lat="49.38483" lon="1.07613">
        <ele>57</ele>
        <time>2010-04-27T14:44:31Z</time>
      </trkpt>
      <trkpt lat="49.38485" lon="1.07602">
        <ele>57</ele>
        <time>2010-04-27T14:44:34Z</time>
      </trkpt>
      <trkpt lat="49.3849" lon="1.07589">
        <ele>57</ele>
        <time>2010-04-27T14:44:37Z</time>
      </trkpt>
      <trkpt lat="49.38494" lon="1.07577">
        <ele>57</ele>
        <time>2010-04-27T14:44:40Z</time>
      </trkpt>
      <trkpt lat="49.38498" lon="1.07564">
        <ele>58</ele>
        <time>2010-04-27T14:44:43Z</time>
      </trkpt>
      <trkpt lat="49.38502" lon="1.07552">
        <ele>58</ele>
        <time>2010-04-27T14:44:46Z</time>
      </trkpt>
      <trkpt lat="49.38506" lon="1.0754">
        <ele>58</ele>
        <time>2010-04-27T14:44:49Z</time>
      </trkpt>
      <trkpt lat="49.3851" lon="1.07528">
        <ele>59</ele>
        <time>2010-04-27T14:44:52Z</time>
      </trkpt>
      <trkpt lat="49.38514" lon="1.07517">
        <ele>59</ele>
        <time>2010-04-27T14:44:55Z</time>
      </trkpt>
      <trkpt lat="49.38518" lon="1.07504">
        <ele>59</ele>
        <time>2010-04-27T14:44:58Z</time>
      </trkpt>
      <trkpt lat="49.38522" lon="1.07492">
        <ele>59</ele>
        <time>2010-04-27T14:45:01Z</time>
      </trkpt>
      <trkpt lat="49.38526" lon="1.0748">
        <ele>59</ele>
        <time>2010-04-27T14:45:04Z</time>
      </trkpt>
      <trkpt lat="49.38529" lon="1.07466">
        <ele>60</ele>
        <time>2010-04-27T14:45:07Z</time>
      </trkpt>
      <trkpt lat="49.38531" lon="1.07453">
        <ele>60</ele>
        <time>2010-04-27T14:45:10Z</time>
      </trkpt>
      <trkpt lat="49.38532" lon="1.07438">
        <ele>61</ele>
        <time>2010-04-27T14:45:13Z</time>
      </trkpt>
      <trkpt lat="49.38533" lon="1.07424">
        <ele>62</ele>
        <time>2010-04-27T14:45:16Z</time>
      </trkpt>
      <trkpt lat="49.38533" lon="1.0741">
        <ele>63</ele>
        <time>2010-04-27T14:45:19Z</time>
      </trkpt>
      <trkpt lat="49.38533" lon="1.07396">
        <ele>64</ele>
        <time>2010-04-27T14:45:22Z</time>
      </trkpt>
      <trkpt lat="49.38533" lon="1.07382">
        <ele>65</ele>
        <time>2010-04-27T14:45:25Z</time>
      </trkpt>
      <trkpt lat="49.38533" lon="1.07369">
        <ele>66</ele>
        <time>2010-04-27T14:45:28Z</time>
      </trkpt>
      <trkpt lat="49.38533" lon="1.07356">
        <ele>66</ele>
        <time>2010-04-27T14:45:31Z</time>
      </trkpt>
      <trkpt lat="49.38533" lon="1.07341">
        <ele>67</ele>
        <time>2010-04-27T14:45:34Z</time>
      </trkpt>
      <trkpt lat="49.38533" lon="1.07327">
        <ele>68</ele>
        <time>2010-04-27T14:45:37Z</time>
      </trkpt>
      <trkpt lat="49.38533" lon="1.07313">
        <ele>69</ele>
        <time>2010-04-27T14:45:40Z</time>
      </trkpt>
      <trkpt lat="49.38532" lon="1.07299">
        <ele>70</ele>
        <time>2010-04-27T14:45:43Z</time>
      </trkpt>
      <trkpt lat="49.38533" lon="1.07284">
        <ele>70</ele>
        <time>2010-04-27T14:45:46Z</time>
      </trkpt>
      <trkpt lat="49.38533" lon="1.07271">
        <ele>71</ele>
        <time>2010-04-27T14:45:49Z</time>
      </trkpt>
      <trkpt lat="49.38532" lon="1.07257">
        <ele>71</ele>
        <time>2010-04-27T14:45:52Z</time>
      </trkpt>
      <trkpt lat="49.38532" lon="1.07244">
        <ele>71</ele>
        <time>2010-04-27T14:45:55Z</time>
      </trkpt>
      <trkpt lat="49.38532" lon="1.07229">
        <ele>71</ele>
        <time>2010-04-27T14:45:58Z</time>
      </trkpt>
      <trkpt lat="49.38533" lon="1.07214">
        <ele>71</ele>
        <time>2010-04-27T14:46:01Z</time>
      </trkpt>
      <trkpt lat="49.38533" lon="1.07199">
        <ele>71</ele>
        <time>2010-04-27T14:46:04Z</time>
      </trkpt>
      <trkpt lat="49.38532" lon="1.07183">
        <ele>71</ele>
        <time>2010-04-27T14:46:07Z</time>
      </trkpt>
      <trkpt lat="49.38532" lon="1.07169">
        <ele>71</ele>
        <time>2010-04-27T14:46:10Z</time>
      </trkpt>
      <trkpt lat="49.38532" lon="1.07154">
        <ele>71</ele>
        <time>2010-04-27T14:46:13Z</time>
      </trkpt>
      <trkpt lat="49.38531" lon="1.07141">
        <ele>71</ele>
        <time>2010-04-27T14:46:16Z</time>
      </trkpt>
      <trkpt lat="49.38533" lon="1.07129">
        <ele>71</ele>
        <time>2010-04-27T14:46:19Z</time>
      </trkpt>
      <trkpt lat="49.38532" lon="1.07118">
        <ele>71</ele>
        <time>2010-04-27T14:46:22Z</time>
      </trkpt>
      <trkpt lat="49.38534" lon="1.07107">
        <ele>71</ele>
        <time>2010-04-27T14:46:25Z</time>
      </trkpt>
      <trkpt lat="49.3854" lon="1.07096">
        <ele>71</ele>
        <time>2010-04-27T14:46:28Z</time>
      </trkpt>
      <trkpt lat="49.38543" lon="1.07082">
        <ele>71</ele>
        <time>2010-04-27T14:46:31Z</time>
      </trkpt>
      <trkpt lat="49.38543" lon="1.07065">
        <ele>71</ele>
        <time>2010-04-27T14:46:34Z</time>
      </trkpt>
      <trkpt lat="49.38545" lon="1.07048">
        <ele>71</ele>
        <time>2010-04-27T14:46:37Z</time>
      </trkpt>
      <trkpt lat="49.38549" lon="1.07031">
        <ele>71</ele>
        <time>2010-04-27T14:46:40Z</time>
      </trkpt>
      <trkpt lat="49.38555" lon="1.07017">
        <ele>71</ele>
        <time>2010-04-27T14:46:43Z</time>
      </trkpt>
      <trkpt lat="49.3856" lon="1.07003">
        <ele>71</ele>
        <time>2010-04-27T14:46:46Z</time>
      </trkpt>
      <trkpt lat="49.38565" lon="1.06988">
        <ele>71</ele>
        <time>2010-04-27T14:46:49Z</time>
      </trkpt>
      <trkpt lat="49.3857" lon="1.06972">
        <ele>71</ele>
        <time>2010-04-27T14:46:52Z</time>
      </trkpt>
      <trkpt lat="49.38575" lon="1.06957">
        <ele>71</ele>
        <time>2010-04-27T14:46:55Z</time>
      </trkpt>
      <trkpt lat="49.38581" lon="1.06941">
        <ele>71</ele>
        <time>2010-04-27T14:46:58Z</time>
      </trkpt>
      <trkpt lat="49.38586" lon="1.06927">
        <ele>71</ele>
        <time>2010-04-27T14:47:01Z</time>
      </trkpt>
      <trkpt lat="49.38591" lon="1.06911">
        <ele>71</ele>
        <time>2010-04-27T14:47:04Z</time>
      </trkpt>
      <trkpt lat="49.38597" lon="1.06896">
        <ele>71</ele>
        <time>2010-04-27T14:47:07Z</time>
      </trkpt>
      <trkpt lat="49.38601" lon="1.06883">
        <ele>71</ele>
        <time>2010-04-27T14:47:10Z</time>
      </trkpt>
      <trkpt lat="49.38605" lon="1.06868">
        <ele>71</ele>
        <time>2010-04-27T14:47:13Z</time>
      </trkpt>
      <trkpt lat="49.3861" lon="1.06857">
        <ele>71</ele>
        <time>2010-04-27T14:47:16Z</time>
      </trkpt>
      <trkpt lat="49.38614" lon="1.06844">
        <ele>71</ele>
        <time>2010-04-27T14:47:19Z</time>
      </trkpt>
      <trkpt lat="49.38619" lon="1.0683">
        <ele>71</ele>
        <time>2010-04-27T14:47:22Z</time>
      </trkpt>
      <trkpt lat="49.38622" lon="1.06813">
        <ele>71</ele>
        <time>2010-04-27T14:47:25Z</time>
      </trkpt>
      <trkpt lat="49.38626" lon="1.06796">
        <ele>71</ele>
        <time>2010-04-27T14:47:28Z</time>
      </trkpt>
      <trkpt lat="49.3863" lon="1.06779">
        <ele>71</ele>
        <time>2010-04-27T14:47:31Z</time>
      </trkpt>
      <trkpt lat="49.38635" lon="1.06762">
        <ele>71</ele>
        <time>2010-04-27T14:47:34Z</time>
      </trkpt>
      <trkpt lat="49.3864" lon="1.06744">
        <ele>71</ele>
        <time>2010-04-27T14:47:37Z</time>
      </trkpt>
      <trkpt lat="49.38645" lon="1.06728">
        <ele>71</ele>
        <time>2010-04-27T14:47:40Z</time>
      </trkpt>
      <trkpt lat="49.3865" lon="1.06712">
        <ele>71</ele>
        <time>2010-04-27T14:47:43Z</time>
      </trkpt>
      <trkpt lat="49.38654" lon="1.06696">
        <ele>71</ele>
        <time>2010-04-27T14:47:46Z</time>
      </trkpt>
      <trkpt lat="49.38659" lon="1.06679">
        <ele>71</ele>
        <time>2010-04-27T14:47:49Z</time>
      </trkpt>
      <trkpt lat="49.38664" lon="1.06662">
        <ele>71</ele>
        <time>2010-04-27T14:47:52Z</time>
      </trkpt>
      <trkpt lat="49.3867" lon="1.06645">
        <ele>71</ele>
        <time>2010-04-27T14:47:55Z</time>
      </trkpt>
      <trkpt lat="49.38674" lon="1.06628">
        <ele>71</ele>
        <time>2010-04-27T14:47:58Z</time>
      </trkpt>
      <trkpt lat="49.38679" lon="1.06611">
        <ele>71</ele>
        <time>2010-04-27T14:48:01Z</time>
      </trkpt>
      <trkpt lat="49.38684" lon="1.06594">
        <ele>71</ele>
        <time>2010-04-27T14:48:04Z</time>
      </trkpt>
      <trkpt lat="49.38689" lon="1.06577">
        <ele>71</ele>
        <time>2010-04-27T14:48:07Z</time>
      </trkpt>
      <trkpt lat="49.38694" lon="1.06563">
        <ele>71</ele>
        <time>2010-04-27T14:48:10Z</time>
      </trkpt>
      <trkpt lat="49.387" lon="1.06549">
        <ele>71</ele>
        <time>2010-04-27T14:48:13Z</time>
      </trkpt>
      <trkpt lat="49.38705" lon="1.06535">
        <ele>71</ele>
        <time>2010-04-27T14:48:16Z</time>
      </trkpt>
      <trkpt lat="49.38709" lon="1.06523">
        <ele>71</ele>
        <time>2010-04-27T14:48:19Z</time>
      </trkpt>
      <trkpt lat="49.38713" lon="1.06511">
        <ele>71</ele>
        <time>2010-04-27T14:48:22Z</time>
      </trkpt>
      <trkpt lat="49.38714" lon="1.06502">
        <ele>71</ele>
        <time>2010-04-27T14:48:25Z</time>
      </trkpt>
      <trkpt lat="49.38715" lon="1.06488">
        <ele>71</ele>
        <time>2010-04-27T14:48:28Z</time>
      </trkpt>
      <trkpt lat="49.38719" lon="1.06473">
        <ele>71</ele>
        <time>2010-04-27T14:48:31Z</time>
      </trkpt>
      <trkpt lat="49.38724" lon="1.06458">
        <ele>71</ele>
        <time>2010-04-27T14:48:34Z</time>
      </trkpt>
      <trkpt lat="49.38728" lon="1.06442">
        <ele>71</ele>
        <time>2010-04-27T14:48:37Z</time>
      </trkpt>
      <trkpt lat="49.38729" lon="1.06425">
        <ele>71</ele>
        <time>2010-04-27T14:48:40Z</time>
      </trkpt>
      <trkpt lat="49.38722" lon="1.06414">
        <ele>71</ele>
        <time>2010-04-27T14:48:43Z</time>
      </trkpt>
      <trkpt lat="49.38724" lon="1.06404">
        <ele>71</ele>
        <time>2010-04-27T14:48:46Z</time>
      </trkpt>
      <trkpt lat="49.38729" lon="1.06391">
        <ele>71</ele>
        <time>2010-04-27T14:48:49Z</time>
      </trkpt>
      <trkpt lat="49.38735" lon="1.06375">
        <ele>71</ele>
        <time>2010-04-27T14:48:52Z</time>
      </trkpt>
      <trkpt lat="49.3874" lon="1.0636">
        <ele>71</ele>
        <time>2010-04-27T14:48:55Z</time>
      </trkpt>
      <trkpt lat="49.38745" lon="1.06344">
        <ele>71</ele>
        <time>2010-04-27T14:48:58Z</time>
      </trkpt>
      <trkpt lat="49.38751" lon="1.06328">
        <ele>71</ele>
        <time>2010-04-27T14:49:01Z</time>
      </trkpt>
      <trkpt lat="49.38757" lon="1.06312">
        <ele>71</ele>
        <time>2010-04-27T14:49:04Z</time>
      </trkpt>
      <trkpt lat="49.38762" lon="1.06294">
        <ele>71</ele>
        <time>2010-04-27T14:49:07Z</time>
      </trkpt>
      <trkpt lat="49.38768" lon="1.06277">
        <ele>71</ele>
        <time>2010-04-27T14:49:10Z</time>
      </trkpt>
      <trkpt lat="49.38773" lon="1.06259">
        <ele>71</ele>
        <time>2010-04-27T14:49:13Z</time>
      </trkpt>
      <trkpt lat="49.38779" lon="1.0624">
        <ele>70</ele>
        <time>2010-04-27T14:49:16Z</time>
      </trkpt>
      <trkpt lat="49.38783" lon="1.06223">
        <ele>70</ele>
        <time>2010-04-27T14:49:19Z</time>
      </trkpt>
      <trkpt lat="49.38788" lon="1.06206">
        <ele>70</ele>
        <time>2010-04-27T14:49:22Z</time>
      </trkpt>
      <trkpt lat="49.3879" lon="1.06189">
        <ele>70</ele>
        <time>2010-04-27T14:49:25Z</time>
      </trkpt>
      <trkpt lat="49.38791" lon="1.06172">
        <ele>69</ele>
        <time>2010-04-27T14:49:28Z</time>
      </trkpt>
      <trkpt lat="49.38795" lon="1.06155">
        <ele>69</ele>
        <time>2010-04-27T14:49:31Z</time>
      </trkpt>
      <trkpt lat="49.38803" lon="1.06142">
        <ele>69</ele>
        <time>2010-04-27T14:49:34Z</time>
      </trkpt>
      <trkpt lat="49.38809" lon="1.06126">
        <ele>69</ele>
        <time>2010-04-27T14:49:37Z</time>
      </trkpt>
      <trkpt lat="49.38813" lon="1.0611">
        <ele>69</ele>
        <time>2010-04-27T14:49:40Z</time>
      </trkpt>
      <trkpt lat="49.38818" lon="1.06094">
        <ele>69</ele>
        <time>2010-04-27T14:49:43Z</time>
      </trkpt>
      <trkpt lat="49.38824" lon="1.06078">
        <ele>69</ele>
        <time>2010-04-27T14:49:46Z</time>
      </trkpt>
      <trkpt lat="49.38829" lon="1.06062">
        <ele>69</ele>
        <time>2010-04-27T14:49:49Z</time>
      </trkpt>
      <trkpt lat="49.38834" lon="1.06045">
        <ele>69</ele>
        <time>2010-04-27T14:49:52Z</time>
      </trkpt>
      <trkpt lat="49.38839" lon="1.06027">
        <ele>69</ele>
        <time>2010-04-27T14:49:55Z</time>
      </trkpt>
      <trkpt lat="49.38844" lon="1.06011">
        <ele>69</ele>
        <time>2010-04-27T14:49:58Z</time>
      </trkpt>
      <trkpt lat="49.38846" lon="1.05995">
        <ele>69</ele>
        <time>2010-04-27T14:50:01Z</time>
      </trkpt>
      <trkpt lat="49.38845" lon="1.05979">
        <ele>69</ele>
        <time>2010-04-27T14:50:04Z</time>
      </trkpt>
      <trkpt lat="49.38841" lon="1.05967">
        <ele>69</ele>
        <time>2010-04-27T14:50:07Z</time>
      </trkpt>
      <trkpt lat="49.38834" lon="1.05962">
        <ele>69</ele>
        <time>2010-04-27T14:50:10Z</time>
      </trkpt>
      <trkpt lat="49.38824" lon="1.05963">
        <ele>69</ele>
        <time>2010-04-27T14:50:13Z</time>
      </trkpt>
      <trkpt lat="49.38813" lon="1.05966">
        <ele>67</ele>
        <time>2010-04-27T14:50:16Z</time>
      </trkpt>
      <trkpt lat="49.38802" lon="1.05968">
        <ele>65</ele>
        <time>2010-04-27T14:50:19Z</time>
      </trkpt>
      <trkpt lat="49.38791" lon="1.05973">
        <ele>64</ele>
        <time>2010-04-27T14:50:22Z</time>
      </trkpt>
      <trkpt lat="49.38778" lon="1.05976">
        <ele>63</ele>
        <time>2010-04-27T14:50:25Z</time>
      </trkpt>
      <trkpt lat="49.38766" lon="1.0598">
        <ele>62</ele>
        <time>2010-04-27T14:50:28Z</time>
      </trkpt>
      <trkpt lat="49.38754" lon="1.05983">
        <ele>61</ele>
        <time>2010-04-27T14:50:31Z</time>
      </trkpt>
      <trkpt lat="49.38744" lon="1.05986">
        <ele>60</ele>
        <time>2010-04-27T14:50:34Z</time>
      </trkpt>
      <trkpt lat="49.38732" lon="1.0599">
        <ele>59</ele>
        <time>2010-04-27T14:50:37Z</time>
      </trkpt>
      <trkpt lat="49.3872" lon="1.05995">
        <ele>59</ele>
        <time>2010-04-27T14:50:40Z</time>
      </trkpt>
      <trkpt lat="49.38707" lon="1.05999">
        <ele>58</ele>
        <time>2010-04-27T14:50:43Z</time>
      </trkpt>
      <trkpt lat="49.38696" lon="1.06002">
        <ele>58</ele>
        <time>2010-04-27T14:50:46Z</time>
      </trkpt>
      <trkpt lat="49.38684" lon="1.06005">
        <ele>58</ele>
        <time>2010-04-27T14:50:49Z</time>
      </trkpt>
      <trkpt lat="49.38672" lon="1.06008">
        <ele>58</ele>
        <time>2010-04-27T14:50:52Z</time>
      </trkpt>
      <trkpt lat="49.38661" lon="1.06012">
        <ele>58</ele>
        <time>2010-04-27T14:50:55Z</time>
      </trkpt>
      <trkpt lat="49.38649" lon="1.06015">
        <ele>58</ele>
        <time>2010-04-27T14:50:58Z</time>
      </trkpt>
      <trkpt lat="49.38638" lon="1.06015">
        <ele>58</ele>
        <time>2010-04-27T14:51:01Z</time>
      </trkpt>
      <trkpt lat="49.38627" lon="1.06019">
        <ele>58</ele>
        <time>2010-04-27T14:51:04Z</time>
      </trkpt>
      <trkpt lat="49.38616" lon="1.06024">
        <ele>58</ele>
        <time>2010-04-27T14:51:07Z</time>
      </trkpt>
      <trkpt lat="49.38604" lon="1.06028">
        <ele>58</ele>
        <time>2010-04-27T14:51:10Z</time>
      </trkpt>
      <trkpt lat="49.38592" lon="1.06028">
        <ele>56</ele>
        <time>2010-04-27T14:51:13Z</time>
      </trkpt>
      <trkpt lat="49.3858" lon="1.0603">
        <ele>55</ele>
        <time>2010-04-27T14:51:16Z</time>
      </trkpt>
      <trkpt lat="49.38568" lon="1.06033">
        <ele>54</ele>
        <time>2010-04-27T14:51:19Z</time>
      </trkpt>
      <trkpt lat="49.38556" lon="1.06037">
        <ele>52</ele>
        <time>2010-04-27T14:51:22Z</time>
      </trkpt>
      <trkpt lat="49.38544" lon="1.06043">
        <ele>51</ele>
        <time>2010-04-27T14:51:25Z</time>
      </trkpt>
      <trkpt lat="49.38531" lon="1.06048">
        <ele>48</ele>
        <time>2010-04-27T14:51:28Z</time>
      </trkpt>
      <trkpt lat="49.38518" lon="1.06053">
        <ele>45</ele>
        <time>2010-04-27T14:51:31Z</time>
      </trkpt>
      <trkpt lat="49.38505" lon="1.06055">
        <ele>43</ele>
        <time>2010-04-27T14:51:34Z</time>
      </trkpt>
      <trkpt lat="49.38495" lon="1.06058">
        <ele>40</ele>
        <time>2010-04-27T14:51:37Z</time>
      </trkpt>
      <trkpt lat="49.38482" lon="1.06062">
        <ele>38</ele>
        <time>2010-04-27T14:51:40Z</time>
      </trkpt>
      <trkpt lat="49.38468" lon="1.06065">
        <ele>35</ele>
        <time>2010-04-27T14:51:43Z</time>
      </trkpt>
      <trkpt lat="49.38454" lon="1.06067">
        <ele>32</ele>
        <time>2010-04-27T14:51:46Z</time>
      </trkpt>
      <trkpt lat="49.38442" lon="1.06069">
        <ele>29</ele>
        <time>2010-04-27T14:51:49Z</time>
      </trkpt>
      <trkpt lat="49.3843" lon="1.06073">
        <ele>26</ele>
        <time>2010-04-27T14:51:52Z</time>
      </trkpt>
      <trkpt lat="49.38417" lon="1.06075">
        <ele>23</ele>
        <time>2010-04-27T14:51:55Z</time>
      </trkpt>
      <trkpt lat="49.38405" lon="1.06074">
        <ele>20</ele>
        <time>2010-04-27T14:51:58Z</time>
      </trkpt>
      <trkpt lat="49.38393" lon="1.06075">
        <ele>18</ele>
        <time>2010-04-27T14:52:01Z</time>
      </trkpt>
      <trkpt lat="49.38379" lon="1.06077">
        <ele>18</ele>
        <time>2010-04-27T14:52:04Z</time>
      </trkpt>
      <trkpt lat="49.38365" lon="1.06079">
        <ele>18</ele>
        <time>2010-04-27T14:52:07Z</time>
      </trkpt>
      <trkpt lat="49.38349" lon="1.06082">
        <ele>19</ele>
        <time>2010-04-27T14:52:10Z</time>
      </trkpt>
      <trkpt lat="49.38333" lon="1.0609">
        <ele>22</ele>
        <time>2010-04-27T14:52:13Z</time>
      </trkpt>
      <trkpt lat="49.38318" lon="1.06093">
        <ele>25</ele>
        <time>2010-04-27T14:52:16Z</time>
      </trkpt>
      <trkpt lat="49.38303" lon="1.06098">
        <ele>28</ele>
        <time>2010-04-27T14:52:19Z</time>
      </trkpt>
      <trkpt lat="49.38287" lon="1.06106">
        <ele>31</ele>
        <time>2010-04-27T14:52:22Z</time>
      </trkpt>
      <trkpt lat="49.3827" lon="1.06115">
        <ele>34</ele>
        <time>2010-04-27T14:52:25Z</time>
      </trkpt>
      <trkpt lat="49.38255" lon="1.06121">
        <ele>37</ele>
        <time>2010-04-27T14:52:28Z</time>
      </trkpt>
      <trkpt lat="49.38241" lon="1.06127">
        <ele>40</ele>
        <time>2010-04-27T14:52:31Z</time>
      </trkpt>
      <trkpt lat="49.38227" lon="1.06133">
        <ele>41</ele>
        <time>2010-04-27T14:52:34Z</time>
      </trkpt>
      <trkpt lat="49.38213" lon="1.06139">
        <ele>43</ele>
        <time>2010-04-27T14:52:37Z</time>
      </trkpt>
      <trkpt lat="49.38199" lon="1.06144">
        <ele>46</ele>
        <time>2010-04-27T14:52:40Z</time>
      </trkpt>
      <trkpt lat="49.38186" lon="1.06149">
        <ele>46</ele>
        <time>2010-04-27T14:52:43Z</time>
      </trkpt>
      <trkpt lat="49.38172" lon="1.06152">
        <ele>46</ele>
        <time>2010-04-27T14:52:46Z</time>
      </trkpt>
      <trkpt lat="49.38158" lon="1.06156">
        <ele>47</ele>
        <time>2010-04-27T14:52:49Z</time>
      </trkpt>
      <trkpt lat="49.38144" lon="1.06159">
        <ele>48</ele>
        <time>2010-04-27T14:52:52Z</time>
      </trkpt>
      <trkpt lat="49.38131" lon="1.06163">
        <ele>48</ele>
        <time>2010-04-27T14:52:55Z</time>
      </trkpt>
      <trkpt lat="49.38118" lon="1.06168">
        <ele>48</ele>
        <time>2010-04-27T14:52:58Z</time>
      </trkpt>
      <trkpt lat="49.38104" lon="1.06172">
        <ele>48</ele>
        <time>2010-04-27T14:53:01Z</time>
      </trkpt>
      <trkpt lat="49.38091" lon="1.06176">
        <ele>48</ele>
        <time>2010-04-27T14:53:04Z</time>
      </trkpt>
      <trkpt lat="49.38076" lon="1.06181">
        <ele>48</ele>
        <time>2010-04-27T14:53:07Z</time>
      </trkpt>
      <trkpt lat="49.38062" lon="1.06187">
        <ele>50</ele>
        <time>2010-04-27T14:53:10Z</time>
      </trkpt>
      <trkpt lat="49.38048" lon="1.06192">
        <ele>52</ele>
        <time>2010-04-27T14:53:13Z</time>
      </trkpt>
      <trkpt lat="49.38034" lon="1.06196">
        <ele>53</ele>
        <time>2010-04-27T14:53:16Z</time>
      </trkpt>
      <trkpt lat="49.3802" lon="1.06199">
        <ele>55</ele>
        <time>2010-04-27T14:53:19Z</time>
      </trkpt>
      <trkpt lat="49.38007" lon="1.06203">
        <ele>56</ele>
        <time>2010-04-27T14:53:22Z</time>
      </trkpt>
      <trkpt lat="49.37993" lon="1.06206">
        <ele>56</ele>
        <time>2010-04-27T14:53:25Z</time>
      </trkpt>
      <trkpt lat="49.3798" lon="1.06209">
        <ele>57</ele>
        <time>2010-04-27T14:53:28Z</time>
      </trkpt>
      <trkpt lat="49.37967" lon="1.06212">
        <ele>57</ele>
        <time>2010-04-27T14:53:31Z</time>
      </trkpt>
      <trkpt lat="49.37953" lon="1.06216">
        <ele>57</ele>
        <time>2010-04-27T14:53:34Z</time>
      </trkpt>
      <trkpt lat="49.37938" lon="1.06221">
        <ele>57</ele>
        <time>2010-04-27T14:53:37Z</time>
      </trkpt>
      <trkpt lat="49.37925" lon="1.06225">
        <ele>57</ele>
        <time>2010-04-27T14:53:40Z</time>
      </trkpt>
      <trkpt lat="49.37911" lon="1.06228">
        <ele>56</ele>
        <time>2010-04-27T14:53:43Z</time>
      </trkpt>
      <trkpt lat="49.37898" lon="1.06232">
        <ele>54</ele>
        <time>2010-04-27T14:53:46Z</time>
      </trkpt>
      <trkpt lat="49.37884" lon="1.06236">
        <ele>53</ele>
        <time>2010-04-27T14:53:49Z</time>
      </trkpt>
      <trkpt lat="49.3787" lon="1.06241">
        <ele>53</ele>
        <time>2010-04-27T14:53:52Z</time>
      </trkpt>
      <trkpt lat="49.37855" lon="1.06246">
        <ele>53</ele>
        <time>2010-04-27T14:53:55Z</time>
      </trkpt>
      <trkpt lat="49.37841" lon="1.0625">
        <ele>53</ele>
        <time>2010-04-27T14:53:58Z</time>
      </trkpt>
      <trkpt lat="49.37828" lon="1.06254">
        <ele>53</ele>
        <time>2010-04-27T14:54:01Z</time>
      </trkpt>
      <trkpt lat="49.37813" lon="1.06258">
        <ele>53</ele>
        <time>2010-04-27T14:54:04Z</time>
      </trkpt>
      <trkpt lat="49.37798" lon="1.06261">
        <ele>53</ele>
        <time>2010-04-27T14:54:07Z</time>
      </trkpt>
      <trkpt lat="49.37784" lon="1.06264">
        <ele>53</ele>
        <time>2010-04-27T14:54:10Z</time>
      </trkpt>
      <trkpt lat="49.3777" lon="1.0627">
        <ele>53</ele>
        <time>2010-04-27T14:54:13Z</time>
      </trkpt>
      <trkpt lat="49.37756" lon="1.06275">
        <ele>53</ele>
        <time>2010-04-27T14:54:16Z</time>
      </trkpt>
      <trkpt lat="49.37742" lon="1.06279">
        <ele>53</ele>
        <time>2010-04-27T14:54:19Z</time>
      </trkpt>
      <trkpt lat="49.37728" lon="1.06283">
        <ele>53</ele>
        <time>2010-04-27T14:54:23Z</time>
      </trkpt>
      <trkpt lat="49.37712" lon="1.06289">
        <ele>53</ele>
        <time>2010-04-27T14:54:26Z</time>
      </trkpt>
      <trkpt lat="49.37699" lon="1.06292">
        <ele>53</ele>
        <time>2010-04-27T14:54:29Z</time>
      </trkpt>
      <trkpt lat="49.37685" lon="1.06296">
        <ele>53</ele>
        <time>2010-04-27T14:54:32Z</time>
      </trkpt>
      <trkpt lat="49.37671" lon="1.06299">
        <ele>53</ele>
        <time>2010-04-27T14:54:35Z</time>
      </trkpt>
      <trkpt lat="49.37658" lon="1.06304">
        <ele>53</ele>
        <time>2010-04-27T14:54:38Z</time>
      </trkpt>
      <trkpt lat="49.37645" lon="1.06307">
        <ele>52</ele>
        <time>2010-04-27T14:54:41Z</time>
      </trkpt>
      <trkpt lat="49.37633" lon="1.06311">
        <ele>49</ele>
        <time>2010-04-27T14:54:44Z</time>
      </trkpt>
      <trkpt lat="49.3762" lon="1.06316">
        <ele>46</ele>
        <time>2010-04-27T14:54:47Z</time>
      </trkpt>
      <trkpt lat="49.37607" lon="1.0632">
        <ele>45</ele>
        <time>2010-04-27T14:54:50Z</time>
      </trkpt>
      <trkpt lat="49.37594" lon="1.06323">
        <ele>44</ele>
        <time>2010-04-27T14:54:53Z</time>
      </trkpt>
      <trkpt lat="49.3758" lon="1.06328">
        <ele>44</ele>
        <time>2010-04-27T14:54:56Z</time>
      </trkpt>
      <trkpt lat="49.37566" lon="1.06334">
        <ele>44</ele>
        <time>2010-04-27T14:54:59Z</time>
      </trkpt>
      <trkpt lat="49.37552" lon="1.06337">
        <ele>44</ele>
        <time>2010-04-27T14:55:02Z</time>
      </trkpt>
      <trkpt lat="49.37539" lon="1.06341">
        <ele>44</ele>
        <time>2010-04-27T14:55:05Z</time>
      </trkpt>
      <trkpt lat="49.37525" lon="1.06345">
        <ele>44</ele>
        <time>2010-04-27T14:55:08Z</time>
      </trkpt>
      <trkpt lat="49.37511" lon="1.0634">
        <ele>44</ele>
        <time>2010-04-27T14:55:11Z</time>
      </trkpt>
      <trkpt lat="49.37497" lon="1.0634">
        <ele>45</ele>
        <time>2010-04-27T14:55:14Z</time>
      </trkpt>
      <trkpt lat="49.3749" lon="1.06353">
        <ele>46</ele>
        <time>2010-04-27T14:55:17Z</time>
      </trkpt>
      <trkpt lat="49.37491" lon="1.06376">
        <ele>46</ele>
        <time>2010-04-27T14:55:20Z</time>
      </trkpt>
      <trkpt lat="49.37487" lon="1.06399">
        <ele>46</ele>
        <time>2010-04-27T14:55:23Z</time>
      </trkpt>
      <trkpt lat="49.3748" lon="1.0642">
        <ele>46</ele>
        <time>2010-04-27T14:55:26Z</time>
      </trkpt>
      <trkpt lat="49.37473" lon="1.06441">
        <ele>46</ele>
        <time>2010-04-27T14:55:29Z</time>
      </trkpt>
      <trkpt lat="49.37466" lon="1.06462">
        <ele>46</ele>
        <time>2010-04-27T14:55:32Z</time>
      </trkpt>
      <trkpt lat="49.3746" lon="1.06482">
        <ele>46</ele>
        <time>2010-04-27T14:55:35Z</time>
      </trkpt>
      <trkpt lat="49.37453" lon="1.06503">
        <ele>46</ele>
        <time>2010-04-27T14:55:38Z</time>
      </trkpt>
      <trkpt lat="49.37446" lon="1.0652">
        <ele>46</ele>
        <time>2010-04-27T14:55:41Z</time>
      </trkpt>
      <trkpt lat="49.3744" lon="1.06538">
        <ele>46</ele>
        <time>2010-04-27T14:55:44Z</time>
      </trkpt>
      <trkpt lat="49.37433" lon="1.06559">
        <ele>46</ele>
        <time>2010-04-27T14:55:47Z</time>
      </trkpt>
      <trkpt lat="49.37427" lon="1.0658">
        <ele>46</ele>
        <time>2010-04-27T14:55:50Z</time>
      </trkpt>
      <trkpt lat="49.37421" lon="1.06599">
        <ele>46</ele>
        <time>2010-04-27T14:55:53Z</time>
      </trkpt>
      <trkpt lat="49.37415" lon="1.06618">
        <ele>45</ele>
        <time>2010-04-27T14:55:56Z</time>
      </trkpt>
      <trkpt lat="49.37409" lon="1.06637">
        <ele>43</ele>
        <time>2010-04-27T14:55:59Z</time>
      </trkpt>
      <trkpt lat="49.37404" lon="1.06656">
        <ele>42</ele>
        <time>2010-04-27T14:56:02Z</time>
      </trkpt>
      <trkpt lat="49.37397" lon="1.06675">
        <ele>42</ele>
        <time>2010-04-27T14:56:05Z</time>
      </trkpt>
      <trkpt lat="49.37391" lon="1.06692">
        <ele>41</ele>
        <time>2010-04-27T14:56:08Z</time>
      </trkpt>
      <trkpt lat="49.37386" lon="1.06707">
        <ele>41</ele>
        <time>2010-04-27T14:56:11Z</time>
      </trkpt>
      <trkpt lat="49.37379" lon="1.06724">
        <ele>41</ele>
        <time>2010-04-27T14:56:14Z</time>
      </trkpt>
      <trkpt lat="49.37373" lon="1.06743">
        <ele>41</ele>
        <time>2010-04-27T14:56:17Z</time>
      </trkpt>
      <trkpt lat="49.37366" lon="1.06762">
        <ele>39</ele>
        <time>2010-04-27T14:56:20Z</time>
      </trkpt>
      <trkpt lat="49.3736" lon="1.0678">
        <ele>37</ele>
        <time>2010-04-27T14:56:23Z</time>
      </trkpt>
      <trkpt lat="49.37354" lon="1.06797">
        <ele>35</ele>
        <time>2010-04-27T14:56:26Z</time>
      </trkpt>
      <trkpt lat="49.37348" lon="1.06815">
        <ele>32</ele>
        <time>2010-04-27T14:56:29Z</time>
      </trkpt>
      <trkpt lat="49.37341" lon="1.06834">
        <ele>29</ele>
        <time>2010-04-27T14:56:32Z</time>
      </trkpt>
      <trkpt lat="49.37335" lon="1.06852">
        <ele>26</ele>
        <time>2010-04-27T14:56:35Z</time>
      </trkpt>
      <trkpt lat="49.37329" lon="1.0687">
        <ele>23</ele>
        <time>2010-04-27T14:56:38Z</time>
      </trkpt>
      <trkpt lat="49.37322" lon="1.06889">
        <ele>20</ele>
        <time>2010-04-27T14:56:41Z</time>
      </trkpt>
      <trkpt lat="49.37315" lon="1.06908">
        <ele>17</ele>
        <time>2010-04-27T14:56:44Z</time>
      </trkpt>
      <trkpt lat="49.37308" lon="1.06928">
        <ele>14</ele>
        <time>2010-04-27T14:56:47Z</time>
      </trkpt>
      <trkpt lat="49.37302" lon="1.06947">
        <ele>9</ele>
        <time>2010-04-27T14:56:50Z</time>
      </trkpt>
      <trkpt lat="49.37295" lon="1.06966">
        <ele>5</ele>
        <time>2010-04-27T14:56:53Z</time>
      </trkpt>
      <trkpt lat="49.37289" lon="1.06985">
        <ele>2</ele>
        <time>2010-04-27T14:56:56Z</time>
      </trkpt>
      <trkpt lat="49.37282" lon="1.07003">
        <ele>77</ele>
        <time>2010-04-27T14:56:59Z</time>
      </trkpt>
      <trkpt lat="49.37275" lon="1.07022">
        <ele>-1</ele>
        <time>2010-04-27T14:57:02Z</time>
      </trkpt>
      <trkpt lat="49.37268" lon="1.07042">
        <ele>-4</ele>
        <time>2010-04-27T14:57:05Z</time>
      </trkpt>
      <trkpt lat="49.37262" lon="1.07062">
        <ele>-9</ele>
        <time>2010-04-27T14:57:08Z</time>
      </trkpt>
      <trkpt lat="49.37256" lon="1.07081">
        <ele>-13</ele>
        <time>2010-04-27T14:57:11Z</time>
      </trkpt>
      <trkpt lat="49.37251" lon="1.07101">
        <ele>-16</ele>
        <time>2010-04-27T14:57:14Z</time>
      </trkpt>
      <trkpt lat="49.37245" lon="1.07122">
        <ele>-19</ele>
        <time>2010-04-27T14:57:17Z</time>
      </trkpt>
      <trkpt lat="49.37239" lon="1.07144">
        <ele>-21</ele>
        <time>2010-04-27T14:57:20Z</time>
      </trkpt>
      <trkpt lat="49.37232" lon="1.07165">
        <ele>-24</ele>
        <time>2010-04-27T14:57:23Z</time>
      </trkpt>
      <trkpt lat="49.37225" lon="1.07187">
        <ele>-24</ele>
        <time>2010-04-27T14:57:26Z</time>
      </trkpt>
      <trkpt lat="49.37217" lon="1.0721">
        <ele>-24</ele>
        <time>2010-04-27T14:57:29Z</time>
      </trkpt>
      <trkpt lat="49.37209" lon="1.07232">
        <ele>-24</ele>
        <time>2010-04-27T14:57:32Z</time>
      </trkpt>
      <trkpt lat="49.37201" lon="1.07254">
        <ele>-24</ele>
        <time>2010-04-27T14:57:35Z</time>
      </trkpt>
      <trkpt lat="49.37193" lon="1.07276">
        <ele>-24</ele>
        <time>2010-04-27T14:57:38Z</time>
      </trkpt>
      <trkpt lat="49.37186" lon="1.073">
        <ele>-25</ele>
        <time>2010-04-27T14:57:41Z</time>
      </trkpt>
      <trkpt lat="49.37178" lon="1.07323">
        <ele>-25</ele>
        <time>2010-04-27T14:57:44Z</time>
      </trkpt>
      <trkpt lat="49.37171" lon="1.07344">
        <ele>-25</ele>
        <time>2010-04-27T14:57:47Z</time>
      </trkpt>
      <trkpt lat="49.37163" lon="1.07367">
        <ele>-25</ele>
        <time>2010-04-27T14:57:50Z</time>
      </trkpt>
      <trkpt lat="49.37155" lon="1.07391">
        <ele>-27</ele>
        <time>2010-04-27T14:57:53Z</time>
      </trkpt>
      <trkpt lat="49.37147" lon="1.07413">
        <ele>-31</ele>
        <time>2010-04-27T14:57:56Z</time>
      </trkpt>
      <trkpt lat="49.37139" lon="1.07433">
        <ele>-32</ele>
        <time>2010-04-27T14:57:59Z</time>
      </trkpt>
      <trkpt lat="49.37131" lon="1.07457">
        <ele>-33</ele>
        <time>2010-04-27T14:58:02Z</time>
      </trkpt>
      <trkpt lat="49.37124" lon="1.0748">
        <ele>-34</ele>
        <time>2010-04-27T14:58:05Z</time>
      </trkpt>
      <trkpt lat="49.37118" lon="1.075">
        <ele>-34</ele>
        <time>2010-04-27T14:58:08Z</time>
      </trkpt>
      <trkpt lat="49.37113" lon="1.07519">
        <ele>-34</ele>
        <time>2010-04-27T14:58:11Z</time>
      </trkpt>
      <trkpt lat="49.37107" lon="1.0754">
        <ele>-28</ele>
        <time>2010-04-27T14:58:14Z</time>
      </trkpt>
      <trkpt lat="49.371" lon="1.07565">
        <ele>-15</ele>
        <time>2010-04-27T14:58:17Z</time>
      </trkpt>
      <trkpt lat="49.37093" lon="1.07589">
        <ele>1</ele>
        <time>2010-04-27T14:58:20Z</time>
      </trkpt>
      <trkpt lat="49.37084" lon="1.07613">
        <ele>14</ele>
        <time>2010-04-27T14:58:23Z</time>
      </trkpt>
      <trkpt lat="49.37077" lon="1.07638">
        <ele>23</ele>
        <time>2010-04-27T14:58:26Z</time>
      </trkpt>
      <trkpt lat="49.37069" lon="1.07662">
        <ele>29</ele>
        <time>2010-04-27T14:58:29Z</time>
      </trkpt>
      <trkpt lat="49.37061" lon="1.07684">
        <ele>35</ele>
        <time>2010-04-27T14:58:32Z</time>
      </trkpt>
      <trkpt lat="49.37053" lon="1.07707">
        <ele>38</ele>
        <time>2010-04-27T14:58:35Z</time>
      </trkpt>
      <trkpt lat="49.37046" lon="1.07729">
        <ele>41</ele>
        <time>2010-04-27T14:58:38Z</time>
      </trkpt>
      <trkpt lat="49.37039" lon="1.0775">
        <ele>44</ele>
        <time>2010-04-27T14:58:41Z</time>
      </trkpt>
      <trkpt lat="49.37032" lon="1.07769">
        <ele>47</ele>
        <time>2010-04-27T14:58:44Z</time>
      </trkpt>
      <trkpt lat="49.37025" lon="1.07789">
        <ele>50</ele>
        <time>2010-04-27T14:58:47Z</time>
      </trkpt>
      <trkpt lat="49.37019" lon="1.0781">
        <ele>53</ele>
        <time>2010-04-27T14:58:50Z</time>
      </trkpt>
      <trkpt lat="49.37011" lon="1.07832">
        <ele>54</ele>
        <time>2010-04-27T14:58:53Z</time>
      </trkpt>
      <trkpt lat="49.37003" lon="1.07855">
        <ele>54</ele>
        <time>2010-04-27T14:58:56Z</time>
      </trkpt>
      <trkpt lat="49.36996" lon="1.07878">
        <ele>54</ele>
        <time>2010-04-27T14:58:59Z</time>
      </trkpt>
      <trkpt lat="49.36988" lon="1.079">
        <ele>54</ele>
        <time>2010-04-27T14:59:02Z</time>
      </trkpt>
      <trkpt lat="49.3698" lon="1.07922">
        <ele>54</ele>
        <time>2010-04-27T14:59:05Z</time>
      </trkpt>
      <trkpt lat="49.36972" lon="1.07945">
        <ele>54</ele>
        <time>2010-04-27T14:59:08Z</time>
      </trkpt>
      <trkpt lat="49.36966" lon="1.07967">
        <ele>54</ele>
        <time>2010-04-27T14:59:11Z</time>
      </trkpt>
      <trkpt lat="49.36959" lon="1.07987">
        <ele>54</ele>
        <time>2010-04-27T14:59:14Z</time>
      </trkpt>
      <trkpt lat="49.36953" lon="1.08006">
        <ele>54</ele>
        <time>2010-04-27T14:59:17Z</time>
      </trkpt>
      <trkpt lat="49.3695" lon="1.08018">
        <ele>54</ele>
        <time>2010-04-27T14:59:20Z</time>
      </trkpt>
      <trkpt lat="49.36953" lon="1.08022">
        <ele>54</ele>
        <time>2010-04-27T14:59:27Z</time>
      </trkpt>
      <trkpt lat="49.36954" lon="1.08019">
        <ele>55</ele>
        <time>2010-04-27T14:59:33Z</time>
      </trkpt>
      <trkpt lat="49.36953" lon="1.08024">
        <ele>57</ele>
        <time>2010-04-27T14:59:36Z</time>
      </trkpt>
      <trkpt lat="49.36945" lon="1.0802">
        <ele>76</ele>
        <time>2010-04-27T14:59:44Z</time>
      </trkpt>
      <trkpt lat="49.36944" lon="1.08022">
        <ele>79</ele>
        <time>2010-04-27T14:59:47Z</time>
      </trkpt>
      <trkpt lat="49.36945" lon="1.08017">
        <ele>79</ele>
        <time>2010-04-27T14:59:50Z</time>
      </trkpt>
      <trkpt lat="49.36946" lon="1.08017">
        <ele>76</ele>
        <time>2010-04-27T14:59:54Z</time>
      </trkpt>
      <trkpt lat="49.36946" lon="1.08014">
        <ele>69</ele>
        <time>2010-04-27T14:59:59Z</time>
      </trkpt>
      <trkpt lat="49.36944" lon="1.0802">
        <ele>69</ele>
        <time>2010-04-27T15:00:02Z</time>
      </trkpt>
      <trkpt lat="49.36944" lon="1.0803">
        <ele>69</ele>
        <time>2010-04-27T15:00:05Z</time>
      </trkpt>
      <trkpt lat="49.36941" lon="1.08042">
        <ele>68</ele>
        <time>2010-04-27T15:00:08Z</time>
      </trkpt>
      <trkpt lat="49.36936" lon="1.08056">
        <ele>67</ele>
        <time>2010-04-27T15:00:11Z</time>
      </trkpt>
      <trkpt lat="49.3693" lon="1.08072">
        <ele>65</ele>
        <time>2010-04-27T15:00:14Z</time>
      </trkpt>
      <trkpt lat="49.36924" lon="1.0809">
        <ele>64</ele>
        <time>2010-04-27T15:00:17Z</time>
      </trkpt>
      <trkpt lat="49.36918" lon="1.08109">
        <ele>62</ele>
        <time>2010-04-27T15:00:20Z</time>
      </trkpt>
      <trkpt lat="49.3691" lon="1.08129">
        <ele>61</ele>
        <time>2010-04-27T15:00:23Z</time>
      </trkpt>
      <trkpt lat="49.36903" lon="1.08151">
        <ele>59</ele>
        <time>2010-04-27T15:00:26Z</time>
      </trkpt>
      <trkpt lat="49.36896" lon="1.08173">
        <ele>58</ele>
        <time>2010-04-27T15:00:29Z</time>
      </trkpt>
      <trkpt lat="49.3689" lon="1.08195">
        <ele>56</ele>
        <time>2010-04-27T15:00:32Z</time>
      </trkpt>
      <trkpt lat="49.36883" lon="1.08216">
        <ele>54</ele>
        <time>2010-04-27T15:00:35Z</time>
      </trkpt>
      <trkpt lat="49.36876" lon="1.08237">
        <ele>53</ele>
        <time>2010-04-27T15:00:38Z</time>
      </trkpt>
      <trkpt lat="49.36869" lon="1.08258">
        <ele>52</ele>
        <time>2010-04-27T15:00:41Z</time>
      </trkpt>
      <trkpt lat="49.36862" lon="1.0828">
        <ele>51</ele>
        <time>2010-04-27T15:00:44Z</time>
      </trkpt>
      <trkpt lat="49.36855" lon="1.08302">
        <ele>50</ele>
        <time>2010-04-27T15:00:47Z</time>
      </trkpt>
      <trkpt lat="49.36847" lon="1.08325">
        <ele>49</ele>
        <time>2010-04-27T15:00:50Z</time>
      </trkpt>
      <trkpt lat="49.3684" lon="1.08349">
        <ele>48</ele>
        <time>2010-04-27T15:00:53Z</time>
      </trkpt>
      <trkpt lat="49.3683" lon="1.08374">
        <ele>48</ele>
        <time>2010-04-27T15:00:56Z</time>
      </trkpt>
      <trkpt lat="49.36822" lon="1.08401">
        <ele>47</ele>
        <time>2010-04-27T15:00:59Z</time>
      </trkpt>
      <trkpt lat="49.36814" lon="1.08426">
        <ele>46</ele>
        <time>2010-04-27T15:01:02Z</time>
      </trkpt>
      <trkpt lat="49.36806" lon="1.0845">
        <ele>46</ele>
        <time>2010-04-27T15:01:05Z</time>
      </trkpt>
      <trkpt lat="49.36798" lon="1.08473">
        <ele>46</ele>
        <time>2010-04-27T15:01:08Z</time>
      </trkpt>
      <trkpt lat="49.36791" lon="1.08498">
        <ele>46</ele>
        <time>2010-04-27T15:01:11Z</time>
      </trkpt>
      <trkpt lat="49.36783" lon="1.08523">
        <ele>46</ele>
        <time>2010-04-27T15:01:14Z</time>
      </trkpt>
      <trkpt lat="49.36775" lon="1.08549">
        <ele>46</ele>
        <time>2010-04-27T15:01:17Z</time>
      </trkpt>
      <trkpt lat="49.36766" lon="1.08575">
        <ele>46</ele>
        <time>2010-04-27T15:01:20Z</time>
      </trkpt>
      <trkpt lat="49.36757" lon="1.08603">
        <ele>46</ele>
        <time>2010-04-27T15:01:23Z</time>
      </trkpt>
      <trkpt lat="49.36748" lon="1.08629">
        <ele>46</ele>
        <time>2010-04-27T15:01:26Z</time>
      </trkpt>
      <trkpt lat="49.36739" lon="1.08654">
        <ele>46</ele>
        <time>2010-04-27T15:01:29Z</time>
      </trkpt>
      <trkpt lat="49.36731" lon="1.0868">
        <ele>46</ele>
        <time>2010-04-27T15:01:32Z</time>
      </trkpt>
      <trkpt lat="49.36723" lon="1.08703">
        <ele>46</ele>
        <time>2010-04-27T15:01:35Z</time>
      </trkpt>
      <trkpt lat="49.36714" lon="1.08727">
        <ele>44</ele>
        <time>2010-04-27T15:01:38Z</time>
      </trkpt>
      <trkpt lat="49.36706" lon="1.0875">
        <ele>43</ele>
        <time>2010-04-27T15:01:41Z</time>
      </trkpt>
      <trkpt lat="49.36699" lon="1.0877">
        <ele>43</ele>
        <time>2010-04-27T15:01:44Z</time>
      </trkpt>
      <trkpt lat="49.36692" lon="1.0879">
        <ele>42</ele>
        <time>2010-04-27T15:01:47Z</time>
      </trkpt>
      <trkpt lat="49.36684" lon="1.08811">
        <ele>40</ele>
        <time>2010-04-27T15:01:50Z</time>
      </trkpt>
      <trkpt lat="49.36678" lon="1.08829">
        <ele>39</ele>
        <time>2010-04-27T15:01:53Z</time>
      </trkpt>
      <trkpt lat="49.36673" lon="1.08845">
        <ele>37</ele>
        <time>2010-04-27T15:01:56Z</time>
      </trkpt>
      <trkpt lat="49.36667" lon="1.08863">
        <ele>36</ele>
        <time>2010-04-27T15:01:59Z</time>
      </trkpt>
      <trkpt lat="49.36663" lon="1.0888">
        <ele>34</ele>
        <time>2010-04-27T15:02:02Z</time>
      </trkpt>
      <trkpt lat="49.36659" lon="1.08897">
        <ele>32</ele>
        <time>2010-04-27T15:02:05Z</time>
      </trkpt>
      <trkpt lat="49.36657" lon="1.08911">
        <ele>30</ele>
        <time>2010-04-27T15:02:08Z</time>
      </trkpt>
      <trkpt lat="49.36654" lon="1.08922">
        <ele>28</ele>
        <time>2010-04-27T15:02:11Z</time>
      </trkpt>
      <trkpt lat="49.36648" lon="1.0893">
        <ele>26</ele>
        <time>2010-04-27T15:02:14Z</time>
      </trkpt>
      <trkpt lat="49.36639" lon="1.0893">
        <ele>25</ele>
        <time>2010-04-27T15:02:17Z</time>
      </trkpt>
      <trkpt lat="49.36634" lon="1.08929">
        <ele>24</ele>
        <time>2010-04-27T15:02:20Z</time>
      </trkpt>
      <trkpt lat="49.36632" lon="1.08929">
        <ele>24</ele>
        <time>2010-04-27T15:02:25Z</time>
      </trkpt>
      <trkpt lat="49.36628" lon="1.08929">
        <ele>24</ele>
        <time>2010-04-27T15:02:28Z</time>
      </trkpt>
      <trkpt lat="49.36624" lon="1.08928">
        <ele>24</ele>
        <time>2010-04-27T15:02:31Z</time>
      </trkpt>
      <trkpt lat="49.3662" lon="1.08926">
        <ele>24</ele>
        <time>2010-04-27T15:02:34Z</time>
      </trkpt>
      <trkpt lat="49.36616" lon="1.08921">
        <ele>24</ele>
        <time>2010-04-27T15:02:38Z</time>
      </trkpt>
      <trkpt lat="49.36614" lon="1.08916">
        <ele>24</ele>
        <time>2010-04-27T15:02:41Z</time>
      </trkpt>
      <trkpt lat="49.3661" lon="1.08915">
        <ele>24</ele>
        <time>2010-04-27T15:02:46Z</time>
      </trkpt>
      <trkpt lat="49.36605" lon="1.08912">
        <ele>24</ele>
        <time>2010-04-27T15:02:49Z</time>
      </trkpt>
      <trkpt lat="49.36599" lon="1.08906">
        <ele>24</ele>
        <time>2010-04-27T15:02:52Z</time>
      </trkpt>
      <trkpt lat="49.36593" lon="1.089">
        <ele>24</ele>
        <time>2010-04-27T15:02:55Z</time>
      </trkpt>
      <trkpt lat="49.36588" lon="1.08893">
        <ele>24</ele>
        <time>2010-04-27T15:02:58Z</time>
      </trkpt>
      <trkpt lat="49.36581" lon="1.08884">
        <ele>25</ele>
        <time>2010-04-27T15:03:01Z</time>
      </trkpt>
      <trkpt lat="49.36575" lon="1.08875">
        <ele>26</ele>
        <time>2010-04-27T15:03:04Z</time>
      </trkpt>
      <trkpt lat="49.36568" lon="1.08866">
        <ele>26</ele>
        <time>2010-04-27T15:03:07Z</time>
      </trkpt>
      <trkpt lat="49.36562" lon="1.08857">
        <ele>27</ele>
        <time>2010-04-27T15:03:10Z</time>
      </trkpt>
      <trkpt lat="49.36555" lon="1.08848">
        <ele>28</ele>
        <time>2010-04-27T15:03:13Z</time>
      </trkpt>
      <trkpt lat="49.36548" lon="1.08838">
        <ele>29</ele>
        <time>2010-04-27T15:03:16Z</time>
      </trkpt>
      <trkpt lat="49.36541" lon="1.0883">
        <ele>29</ele>
        <time>2010-04-27T15:03:19Z</time>
      </trkpt>
      <trkpt lat="49.36534" lon="1.08823">
        <ele>30</ele>
        <time>2010-04-27T15:03:22Z</time>
      </trkpt>
      <trkpt lat="49.36528" lon="1.08814">
        <ele>31</ele>
        <time>2010-04-27T15:03:25Z</time>
      </trkpt>
      <trkpt lat="49.3652" lon="1.08806">
        <ele>31</ele>
        <time>2010-04-27T15:03:28Z</time>
      </trkpt>
      <trkpt lat="49.36513" lon="1.08799">
        <ele>32</ele>
        <time>2010-04-27T15:03:31Z</time>
      </trkpt>
      <trkpt lat="49.36505" lon="1.08791">
        <ele>32</ele>
        <time>2010-04-27T15:03:34Z</time>
      </trkpt>
      <trkpt lat="49.36496" lon="1.08783">
        <ele>32</ele>
        <time>2010-04-27T15:03:37Z</time>
      </trkpt>
      <trkpt lat="49.36488" lon="1.08776">
        <ele>33</ele>
        <time>2010-04-27T15:03:40Z</time>
      </trkpt>
      <trkpt lat="49.36481" lon="1.08769">
        <ele>33</ele>
        <time>2010-04-27T15:03:43Z</time>
      </trkpt>
      <trkpt lat="49.36472" lon="1.08762">
        <ele>33</ele>
        <time>2010-04-27T15:03:46Z</time>
      </trkpt>
      <trkpt lat="49.36464" lon="1.08756">
        <ele>33</ele>
        <time>2010-04-27T15:03:49Z</time>
      </trkpt>
      <trkpt lat="49.36454" lon="1.0875">
        <ele>33</ele>
        <time>2010-04-27T15:03:52Z</time>
      </trkpt>
      <trkpt lat="49.36442" lon="1.08744">
        <ele>33</ele>
        <time>2010-04-27T15:03:55Z</time>
      </trkpt>
      <trkpt lat="49.3643" lon="1.08736">
        <ele>33</ele>
        <time>2010-04-27T15:03:58Z</time>
      </trkpt>
      <trkpt lat="49.36417" lon="1.08729">
        <ele>33</ele>
        <time>2010-04-27T15:04:01Z</time>
      </trkpt>
      <trkpt lat="49.36403" lon="1.0872">
        <ele>33</ele>
        <time>2010-04-27T15:04:04Z</time>
      </trkpt>
      <trkpt lat="49.3639" lon="1.08709">
        <ele>32</ele>
        <time>2010-04-27T15:04:07Z</time>
      </trkpt>
      <trkpt lat="49.36378" lon="1.08701">
        <ele>30</ele>
        <time>2010-04-27T15:04:10Z</time>
      </trkpt>
      <trkpt lat="49.36366" lon="1.08698">
        <ele>29</ele>
        <time>2010-04-27T15:04:13Z</time>
      </trkpt>
      <trkpt lat="49.36357" lon="1.08696">
        <ele>27</ele>
        <time>2010-04-27T15:04:16Z</time>
      </trkpt>
      <trkpt lat="49.36349" lon="1.08694">
        <ele>25</ele>
        <time>2010-04-27T15:04:19Z</time>
      </trkpt>
      <trkpt lat="49.3634" lon="1.08691">
        <ele>24</ele>
        <time>2010-04-27T15:04:22Z</time>
      </trkpt>
      <trkpt lat="49.36332" lon="1.08689">
        <ele>24</ele>
        <time>2010-04-27T15:04:25Z</time>
      </trkpt>
      <trkpt lat="49.36322" lon="1.08687">
        <ele>24</ele>
        <time>2010-04-27T15:04:28Z</time>
      </trkpt>
      <trkpt lat="49.36313" lon="1.08684">
        <ele>24</ele>
        <time>2010-04-27T15:04:31Z</time>
      </trkpt>
      <trkpt lat="49.36304" lon="1.0868">
        <ele>24</ele>
        <time>2010-04-27T15:04:34Z</time>
      </trkpt>
      <trkpt lat="49.36296" lon="1.08678">
        <ele>24</ele>
        <time>2010-04-27T15:04:37Z</time>
      </trkpt>
      <trkpt lat="49.36287" lon="1.08674">
        <ele>23</ele>
        <time>2010-04-27T15:04:40Z</time>
      </trkpt>
      <trkpt lat="49.36277" lon="1.08673">
        <ele>22</ele>
        <time>2010-04-27T15:04:43Z</time>
      </trkpt>
      <trkpt lat="49.36269" lon="1.0867">
        <ele>22</ele>
        <time>2010-04-27T15:04:46Z</time>
      </trkpt>
      <trkpt lat="49.36262" lon="1.08666">
        <ele>22</ele>
        <time>2010-04-27T15:04:49Z</time>
      </trkpt>
      <trkpt lat="49.36253" lon="1.08663">
        <ele>22</ele>
        <time>2010-04-27T15:04:52Z</time>
      </trkpt>
      <trkpt lat="49.36245" lon="1.0866">
        <ele>22</ele>
        <time>2010-04-27T15:04:55Z</time>
      </trkpt>
      <trkpt lat="49.36236" lon="1.08657">
        <ele>22</ele>
        <time>2010-04-27T15:04:58Z</time>
      </trkpt>
      <trkpt lat="49.36226" lon="1.08655">
        <ele>22</ele>
        <time>2010-04-27T15:05:01Z</time>
      </trkpt>
      <trkpt lat="49.36217" lon="1.08652">
        <ele>22</ele>
        <time>2010-04-27T15:05:04Z</time>
      </trkpt>
      <trkpt lat="49.36208" lon="1.08648">
        <ele>22</ele>
        <time>2010-04-27T15:05:07Z</time>
      </trkpt>
      <trkpt lat="49.36198" lon="1.08646">
        <ele>22</ele>
        <time>2010-04-27T15:05:10Z</time>
      </trkpt>
      <trkpt lat="49.36188" lon="1.08642">
        <ele>22</ele>
        <time>2010-04-27T15:05:13Z</time>
      </trkpt>
      <trkpt lat="49.36179" lon="1.08637">
        <ele>22</ele>
        <time>2010-04-27T15:05:16Z</time>
      </trkpt>
      <trkpt lat="49.36169" lon="1.08633">
        <ele>22</ele>
        <time>2010-04-27T15:05:19Z</time>
      </trkpt>
      <trkpt lat="49.36157" lon="1.08629">
        <ele>22</ele>
        <time>2010-04-27T15:05:22Z</time>
      </trkpt>
      <trkpt lat="49.36146" lon="1.08626">
        <ele>22</ele>
        <time>2010-04-27T15:05:25Z</time>
      </trkpt>
      <trkpt lat="49.36134" lon="1.08623">
        <ele>22</ele>
        <time>2010-04-27T15:05:28Z</time>
      </trkpt>
      <trkpt lat="49.36123" lon="1.08618">
        <ele>22</ele>
        <time>2010-04-27T15:05:31Z</time>
      </trkpt>
      <trkpt lat="49.36111" lon="1.08613">
        <ele>22</ele>
        <time>2010-04-27T15:05:34Z</time>
      </trkpt>
      <trkpt lat="49.361" lon="1.08608">
        <ele>22</ele>
        <time>2010-04-27T15:05:37Z</time>
      </trkpt>
      <trkpt lat="49.36088" lon="1.08603">
        <ele>22</ele>
        <time>2010-04-27T15:05:40Z</time>
      </trkpt>
      <trkpt lat="49.36076" lon="1.08597">
        <ele>22</ele>
        <time>2010-04-27T15:05:43Z</time>
      </trkpt>
      <trkpt lat="49.36065" lon="1.08591">
        <ele>22</ele>
        <time>2010-04-27T15:05:46Z</time>
      </trkpt>
      <trkpt lat="49.36052" lon="1.08586">
        <ele>22</ele>
        <time>2010-04-27T15:05:49Z</time>
      </trkpt>
      <trkpt lat="49.3604" lon="1.08579">
        <ele>24</ele>
        <time>2010-04-27T15:05:52Z</time>
      </trkpt>
      <trkpt lat="49.36028" lon="1.08574">
        <ele>24</ele>
        <time>2010-04-27T15:05:55Z</time>
      </trkpt>
      <trkpt lat="49.36016" lon="1.08568">
        <ele>24</ele>
        <time>2010-04-27T15:05:58Z</time>
      </trkpt>
      <trkpt lat="49.36004" lon="1.08561">
        <ele>24</ele>
        <time>2010-04-27T15:06:01Z</time>
      </trkpt>
      <trkpt lat="49.35991" lon="1.08554">
        <ele>24</ele>
        <time>2010-04-27T15:06:04Z</time>
      </trkpt>
      <trkpt lat="49.35979" lon="1.08547">
        <ele>24</ele>
        <time>2010-04-27T15:06:07Z</time>
      </trkpt>
      <trkpt lat="49.35967" lon="1.0854">
        <ele>24</ele>
        <time>2010-04-27T15:06:10Z</time>
      </trkpt>
      <trkpt lat="49.35955" lon="1.08534">
        <ele>24</ele>
        <time>2010-04-27T15:06:13Z</time>
      </trkpt>
      <trkpt lat="49.35942" lon="1.08527">
        <ele>24</ele>
        <time>2010-04-27T15:06:16Z</time>
      </trkpt>
      <trkpt lat="49.35929" lon="1.08521">
        <ele>24</ele>
        <time>2010-04-27T15:06:19Z</time>
      </trkpt>
      <trkpt lat="49.35917" lon="1.08515">
        <ele>24</ele>
        <time>2010-04-27T15:06:22Z</time>
      </trkpt>
      <trkpt lat="49.35905" lon="1.08507">
        <ele>24</ele>
        <time>2010-04-27T15:06:25Z</time>
      </trkpt>
      <trkpt lat="49.35892" lon="1.08499">
        <ele>24</ele>
        <time>2010-04-27T15:06:28Z</time>
      </trkpt>
      <trkpt lat="49.3588" lon="1.08492">
        <ele>24</ele>
        <time>2010-04-27T15:06:31Z</time>
      </trkpt>
      <trkpt lat="49.35867" lon="1.08487">
        <ele>25</ele>
        <time>2010-04-27T15:06:34Z</time>
      </trkpt>
      <trkpt lat="49.35855" lon="1.08481">
        <ele>28</ele>
        <time>2010-04-27T15:06:37Z</time>
      </trkpt>
      <trkpt lat="49.35844" lon="1.08473">
        <ele>31</ele>
        <time>2010-04-27T15:06:40Z</time>
      </trkpt>
      <trkpt lat="49.35833" lon="1.08465">
        <ele>31</ele>
        <time>2010-04-27T15:06:43Z</time>
      </trkpt>
      <trkpt lat="49.35821" lon="1.08458">
        <ele>32</ele>
        <time>2010-04-27T15:06:46Z</time>
      </trkpt>
      <trkpt lat="49.3581" lon="1.08451">
        <ele>32</ele>
        <time>2010-04-27T15:06:49Z</time>
      </trkpt>
      <trkpt lat="49.35798" lon="1.08445">
        <ele>33</ele>
        <time>2010-04-27T15:06:52Z</time>
      </trkpt>
      <trkpt lat="49.35788" lon="1.08439">
        <ele>35</ele>
        <time>2010-04-27T15:06:55Z</time>
      </trkpt>
      <trkpt lat="49.35777" lon="1.08433">
        <ele>37</ele>
        <time>2010-04-27T15:06:58Z</time>
      </trkpt>
      <trkpt lat="49.35766" lon="1.08424">
        <ele>38</ele>
        <time>2010-04-27T15:07:01Z</time>
      </trkpt>
      <trkpt lat="49.35755" lon="1.08416">
        <ele>39</ele>
        <time>2010-04-27T15:07:04Z</time>
      </trkpt>
      <trkpt lat="49.35745" lon="1.08409">
        <ele>39</ele>
        <time>2010-04-27T15:07:07Z</time>
      </trkpt>
      <trkpt lat="49.35735" lon="1.08402">
        <ele>39</ele>
        <time>2010-04-27T15:07:10Z</time>
      </trkpt>
      <trkpt lat="49.35725" lon="1.08394">
        <ele>39</ele>
        <time>2010-04-27T15:07:13Z</time>
      </trkpt>
      <trkpt lat="49.35715" lon="1.08386">
        <ele>39</ele>
        <time>2010-04-27T15:07:16Z</time>
      </trkpt>
      <trkpt lat="49.35704" lon="1.08378">
        <ele>39</ele>
        <time>2010-04-27T15:07:19Z</time>
      </trkpt>
      <trkpt lat="49.35695" lon="1.08368">
        <ele>39</ele>
        <time>2010-04-27T15:07:22Z</time>
      </trkpt>
      <trkpt lat="49.35687" lon="1.0836">
        <ele>39</ele>
        <time>2010-04-27T15:07:25Z</time>
      </trkpt>
      <trkpt lat="49.35677" lon="1.08352">
        <ele>39</ele>
        <time>2010-04-27T15:07:28Z</time>
      </trkpt>
      <trkpt lat="49.35666" lon="1.08345">
        <ele>40</ele>
        <time>2010-04-27T15:07:31Z</time>
      </trkpt>
      <trkpt lat="49.35655" lon="1.08337">
        <ele>41</ele>
        <time>2010-04-27T15:07:34Z</time>
      </trkpt>
      <trkpt lat="49.35643" lon="1.0833">
        <ele>42</ele>
        <time>2010-04-27T15:07:37Z</time>
      </trkpt>
      <trkpt lat="49.35631" lon="1.08322">
        <ele>43</ele>
        <time>2010-04-27T15:07:40Z</time>
      </trkpt>
      <trkpt lat="49.3562" lon="1.08314">
        <ele>43</ele>
        <time>2010-04-27T15:07:43Z</time>
      </trkpt>
      <trkpt lat="49.35611" lon="1.08308">
        <ele>43</ele>
        <time>2010-04-27T15:07:46Z</time>
      </trkpt>
      <trkpt lat="49.356" lon="1.083">
        <ele>43</ele>
        <time>2010-04-27T15:07:49Z</time>
      </trkpt>
      <trkpt lat="49.35589" lon="1.08293">
        <ele>44</ele>
        <time>2010-04-27T15:07:52Z</time>
      </trkpt>
      <trkpt lat="49.35578" lon="1.08284">
        <ele>44</ele>
        <time>2010-04-27T15:07:55Z</time>
      </trkpt>
      <trkpt lat="49.35568" lon="1.08275">
        <ele>44</ele>
        <time>2010-04-27T15:07:58Z</time>
      </trkpt>
      <trkpt lat="49.35557" lon="1.08271">
        <ele>45</ele>
        <time>2010-04-27T15:08:01Z</time>
      </trkpt>
      <trkpt lat="49.35554" lon="1.08265">
        <ele>45</ele>
        <time>2010-04-27T15:08:04Z</time>
      </trkpt>
      <trkpt lat="49.3555" lon="1.08258">
        <ele>45</ele>
        <time>2010-04-27T15:08:07Z</time>
      </trkpt>
      <trkpt lat="49.35541" lon="1.08258">
        <ele>46</ele>
        <time>2010-04-27T15:08:10Z</time>
      </trkpt>
      <trkpt lat="49.35532" lon="1.08256">
        <ele>46</ele>
        <time>2010-04-27T15:08:13Z</time>
      </trkpt>
      <trkpt lat="49.35524" lon="1.08249">
        <ele>46</ele>
        <time>2010-04-27T15:08:16Z</time>
      </trkpt>
      <trkpt lat="49.35514" lon="1.08239">
        <ele>46</ele>
        <time>2010-04-27T15:08:19Z</time>
      </trkpt>
      <trkpt lat="49.35504" lon="1.08229">
        <ele>47</ele>
        <time>2010-04-27T15:08:22Z</time>
      </trkpt>
      <trkpt lat="49.35493" lon="1.08219">
        <ele>47</ele>
        <time>2010-04-27T15:08:25Z</time>
      </trkpt>
      <trkpt lat="49.35482" lon="1.08211">
        <ele>47</ele>
        <time>2010-04-27T15:08:28Z</time>
      </trkpt>
      <trkpt lat="49.35472" lon="1.08201">
        <ele>47</ele>
        <time>2010-04-27T15:08:31Z</time>
      </trkpt>
      <trkpt lat="49.35462" lon="1.08193">
        <ele>47</ele>
        <time>2010-04-27T15:08:34Z</time>
      </trkpt>
      <trkpt lat="49.35452" lon="1.08185">
        <ele>45</ele>
        <time>2010-04-27T15:08:37Z</time>
      </trkpt>
      <trkpt lat="49.35441" lon="1.08176">
        <ele>44</ele>
        <time>2010-04-27T15:08:40Z</time>
      </trkpt>
      <trkpt lat="49.35432" lon="1.08166">
        <ele>44</ele>
        <time>2010-04-27T15:08:43Z</time>
      </trkpt>
      <trkpt lat="49.3542" lon="1.08159">
        <ele>44</ele>
        <time>2010-04-27T15:08:46Z</time>
      </trkpt>
      <trkpt lat="49.35409" lon="1.08151">
        <ele>44</ele>
        <time>2010-04-27T15:08:49Z</time>
      </trkpt>
      <trkpt lat="49.35398" lon="1.08143">
        <ele>44</ele>
        <time>2010-04-27T15:08:52Z</time>
      </trkpt>
      <trkpt lat="49.35386" lon="1.08133">
        <ele>44</ele>
        <time>2010-04-27T15:08:55Z</time>
      </trkpt>
      <trkpt lat="49.35376" lon="1.08125">
        <ele>44</ele>
        <time>2010-04-27T15:08:58Z</time>
      </trkpt>
      <trkpt lat="49.35365" lon="1.08118">
        <ele>44</ele>
        <time>2010-04-27T15:09:01Z</time>
      </trkpt>
      <trkpt lat="49.35355" lon="1.0811">
        <ele>44</ele>
        <time>2010-04-27T15:09:04Z</time>
      </trkpt>
      <trkpt lat="49.35342" lon="1.08101">
        <ele>44</ele>
        <time>2010-04-27T15:09:07Z</time>
      </trkpt>
      <trkpt lat="49.35332" lon="1.08093">
        <ele>44</ele>
        <time>2010-04-27T15:09:10Z</time>
      </trkpt>
      <trkpt lat="49.35327" lon="1.08083">
        <ele>44</ele>
        <time>2010-04-27T15:09:13Z</time>
      </trkpt>
      <trkpt lat="49.35324" lon="1.08079">
        <ele>44</ele>
        <time>2010-04-27T15:09:18Z</time>
      </trkpt>
      <trkpt lat="49.35322" lon="1.08083">
        <ele>44</ele>
        <time>2010-04-27T15:09:22Z</time>
      </trkpt>
      <trkpt lat="49.35319" lon="1.08088">
        <ele>44</ele>
        <time>2010-04-27T15:09:25Z</time>
      </trkpt>
      <trkpt lat="49.35317" lon="1.08092">
        <ele>44</ele>
        <time>2010-04-27T15:09:28Z</time>
      </trkpt>
      <trkpt lat="49.35317" lon="1.08096">
        <ele>44</ele>
        <time>2010-04-27T15:09:32Z</time>
      </trkpt>
      <trkpt lat="49.35315" lon="1.08101">
        <ele>44</ele>
        <time>2010-04-27T15:09:35Z</time>
      </trkpt>
      <trkpt lat="49.35313" lon="1.08108">
        <ele>44</ele>
        <time>2010-04-27T15:09:38Z</time>
      </trkpt>
      <trkpt lat="49.3531" lon="1.08115">
        <ele>44</ele>
        <time>2010-04-27T15:09:41Z</time>
      </trkpt>
      <trkpt lat="49.35308" lon="1.08121">
        <ele>44</ele>
        <time>2010-04-27T15:09:44Z</time>
      </trkpt>
      <trkpt lat="49.35306" lon="1.08128">
        <ele>44</ele>
        <time>2010-04-27T15:09:47Z</time>
      </trkpt>
      <trkpt lat="49.35304" lon="1.08135">
        <ele>44</ele>
        <time>2010-04-27T15:09:50Z</time>
      </trkpt>
      <trkpt lat="49.35302" lon="1.08141">
        <ele>44</ele>
        <time>2010-04-27T15:09:53Z</time>
      </trkpt>
      <trkpt lat="49.35299" lon="1.08148">
        <ele>44</ele>
        <time>2010-04-27T15:09:56Z</time>
      </trkpt>
      <trkpt lat="49.35297" lon="1.08154">
        <ele>44</ele>
        <time>2010-04-27T15:09:59Z</time>
      </trkpt>
      <trkpt lat="49.35295" lon="1.08161">
        <ele>44</ele>
        <time>2010-04-27T15:10:03Z</time>
      </trkpt>
      <trkpt lat="49.35294" lon="1.08164">
        <ele>44</ele>
        <time>2010-04-27T15:10:07Z</time>
      </trkpt>
      <trkpt lat="49.35288" lon="1.08173">
        <ele>44</ele>
        <time>2010-04-27T15:10:12Z</time>
      </trkpt>
      <trkpt lat="49.35281" lon="1.08183">
        <ele>44</ele>
        <time>2010-04-27T15:10:15Z</time>
      </trkpt>
      <trkpt lat="49.35268" lon="1.08188">
        <ele>42</ele>
        <time>2010-04-27T15:10:18Z</time>
      </trkpt>
      <trkpt lat="49.35255" lon="1.08195">
        <ele>40</ele>
        <time>2010-04-27T15:10:21Z</time>
      </trkpt>
      <trkpt lat="49.35246" lon="1.08202">
        <ele>37</ele>
        <time>2010-04-27T15:10:24Z</time>
      </trkpt>
      <trkpt lat="49.35236" lon="1.08215">
        <ele>34</ele>
        <time>2010-04-27T15:10:27Z</time>
      </trkpt>
      <trkpt lat="49.35226" lon="1.08229">
        <ele>29</ele>
        <time>2010-04-27T15:10:30Z</time>
      </trkpt>
      <trkpt lat="49.35215" lon="1.08241">
        <ele>24</ele>
        <time>2010-04-27T15:10:33Z</time>
      </trkpt>
      <trkpt lat="49.35204" lon="1.08251">
        <ele>19</ele>
        <time>2010-04-27T15:10:36Z</time>
      </trkpt>
      <trkpt lat="49.35194" lon="1.08265">
        <ele>16</ele>
        <time>2010-04-27T15:10:39Z</time>
      </trkpt>
      <trkpt lat="49.35184" lon="1.08278">
        <ele>12</ele>
        <time>2010-04-27T15:10:42Z</time>
      </trkpt>
      <trkpt lat="49.35174" lon="1.0829">
        <ele>8</ele>
        <time>2010-04-27T15:10:45Z</time>
      </trkpt>
      <trkpt lat="49.35165" lon="1.08301">
        <ele>5</ele>
        <time>2010-04-27T15:10:48Z</time>
      </trkpt>
      <trkpt lat="49.35154" lon="1.08312">
        <ele>2</ele>
        <time>2010-04-27T15:10:51Z</time>
      </trkpt>
      <trkpt lat="49.35143" lon="1.08327">
        <ele>46.1</ele>
        <time>2010-04-27T15:10:54Z</time>
      </trkpt>
      <trkpt lat="49.35131" lon="1.08342">
        <ele>45.7</ele>
        <time>2010-04-27T15:10:57Z</time>
      </trkpt>
      <trkpt lat="49.35118" lon="1.08362">
        <ele>45.2</ele>
        <time>2010-04-27T15:11:00Z</time>
      </trkpt>
      <trkpt lat="49.35104" lon="1.0838">
        <ele>43.7</ele>
        <time>2010-04-27T15:11:03Z</time>
      </trkpt>
      <trkpt lat="49.3509" lon="1.08406">
        <ele>42.3</ele>
        <time>2010-04-27T15:11:06Z</time>
      </trkpt>
      <trkpt lat="49.35076" lon="1.08437">
        <ele>40.8</ele>
        <time>2010-04-27T15:11:09Z</time>
      </trkpt>
      <trkpt lat="49.35062" lon="1.08473">
        <ele>38.2</ele>
        <time>2010-04-27T15:11:12Z</time>
      </trkpt>
      <trkpt lat="49.35049" lon="1.08511">
        <ele>36.8</ele>
        <time>2010-04-27T15:11:15Z</time>
      </trkpt>
      <trkpt lat="49.35033" lon="1.08551">
        <ele>33.5</ele>
        <time>2010-04-27T15:11:18Z</time>
      </trkpt>
      <trkpt lat="49.35009" lon="1.08604">
        <ele>29.2</ele>
        <time>2010-04-27T15:11:22Z</time>
      </trkpt>
      <trkpt lat="49.3499" lon="1.08642">
        <ele>27.6</ele>
        <time>2010-04-27T15:11:25Z</time>
      </trkpt>
      <trkpt lat="49.34971" lon="1.08677">
        <ele>26.6</ele>
        <time>2010-04-27T15:11:28Z</time>
      </trkpt>
      <trkpt lat="49.34953" lon="1.08709">
        <ele>25.5</ele>
        <time>2010-04-27T15:11:31Z</time>
      </trkpt>
      <trkpt lat="49.34937" lon="1.0874">
        <ele>25</ele>
        <time>2010-04-27T15:11:34Z</time>
      </trkpt>
      <trkpt lat="49.34922" lon="1.08768">
        <ele>24.3</ele>
        <time>2010-04-27T15:11:37Z</time>
      </trkpt>
      <trkpt lat="49.34909" lon="1.08794">
        <ele>24</ele>
        <time>2010-04-27T15:11:40Z</time>
      </trkpt>
      <trkpt lat="49.34895" lon="1.08816">
        <ele>23.6</ele>
        <time>2010-04-27T15:11:43Z</time>
      </trkpt>
      <trkpt lat="49.34883" lon="1.08839">
        <ele>22.9</ele>
        <time>2010-04-27T15:11:46Z</time>
      </trkpt>
      <trkpt lat="49.34871" lon="1.08862">
        <ele>22.6</ele>
        <time>2010-04-27T15:11:49Z</time>
      </trkpt>
      <trkpt lat="49.34858" lon="1.08885">
        <ele>22.1</ele>
        <time>2010-04-27T15:11:52Z</time>
      </trkpt>
      <trkpt lat="49.34846" lon="1.08907">
        <ele>22</ele>
        <time>2010-04-27T15:11:55Z</time>
      </trkpt>
      <trkpt lat="49.34834" lon="1.0893">
        <ele>22</ele>
        <time>2010-04-27T15:11:58Z</time>
      </trkpt>
      <trkpt lat="49.34823" lon="1.08951">
        <ele>21.6</ele>
        <time>2010-04-27T15:12:01Z</time>
      </trkpt>
      <trkpt lat="49.34812" lon="1.08972">
        <ele>21.2</ele>
        <time>2010-04-27T15:12:04Z</time>
      </trkpt>
      <trkpt lat="49.34801" lon="1.08993">
        <ele>20.2</ele>
        <time>2010-04-27T15:12:07Z</time>
      </trkpt>
      <trkpt lat="49.3479" lon="1.09013">
        <ele>20</ele>
        <time>2010-04-27T15:12:10Z</time>
      </trkpt>
      <trkpt lat="49.3478" lon="1.09034">
        <ele>20</ele>
        <time>2010-04-27T15:12:13Z</time>
      </trkpt>
      <trkpt lat="49.3477" lon="1.09054">
        <ele>19.7</ele>
        <time>2010-04-27T15:12:16Z</time>
      </trkpt>
      <trkpt lat="49.34759" lon="1.09073">
        <ele>19.3</ele>
        <time>2010-04-27T15:12:19Z</time>
      </trkpt>
      <trkpt lat="49.34747" lon="1.09092">
        <ele>19</ele>
        <time>2010-04-27T15:12:22Z</time>
      </trkpt>
      <trkpt lat="49.34737" lon="1.09111">
        <ele>18.5</ele>
        <time>2010-04-27T15:12:25Z</time>
      </trkpt>
      <trkpt lat="49.34725" lon="1.09131">
        <ele>18.7</ele>
        <time>2010-04-27T15:12:28Z</time>
      </trkpt>
      <trkpt lat="49.34713" lon="1.0915">
        <ele>18.4</ele>
        <time>2010-04-27T15:12:31Z</time>
      </trkpt>
      <trkpt lat="49.34699" lon="1.09167">
        <ele>18</ele>
        <time>2010-04-27T15:12:34Z</time>
      </trkpt>
      <trkpt lat="49.34684" lon="1.09181">
        <ele>17.8</ele>
        <time>2010-04-27T15:12:37Z</time>
      </trkpt>
      <trkpt lat="49.34668" lon="1.09193">
        <ele>18</ele>
        <time>2010-04-27T15:12:40Z</time>
      </trkpt>
      <trkpt lat="49.34654" lon="1.09205">
        <ele>17.7</ele>
        <time>2010-04-27T15:12:43Z</time>
      </trkpt>
      <trkpt lat="49.34639" lon="1.09216">
        <ele>17</ele>
        <time>2010-04-27T15:12:46Z</time>
      </trkpt>
      <trkpt lat="49.34625" lon="1.09227">
        <ele>17.1</ele>
        <time>2010-04-27T15:12:49Z</time>
      </trkpt>
      <trkpt lat="49.3461" lon="1.09238">
        <ele>17</ele>
        <time>2010-04-27T15:12:52Z</time>
      </trkpt>
      <trkpt lat="49.34596" lon="1.0925">
        <ele>16.4</ele>
        <time>2010-04-27T15:12:55Z</time>
      </trkpt>
      <trkpt lat="49.34583" lon="1.09262">
        <ele>16</ele>
        <time>2010-04-27T15:12:58Z</time>
      </trkpt>
      <trkpt lat="49.3457" lon="1.09276">
        <ele>15.5</ele>
        <time>2010-04-27T15:13:01Z</time>
      </trkpt>
      <trkpt lat="49.34559" lon="1.09291">
        <ele>15.1</ele>
        <time>2010-04-27T15:13:04Z</time>
      </trkpt>
      <trkpt lat="49.3455" lon="1.09305">
        <ele>15</ele>
        <time>2010-04-27T15:13:07Z</time>
      </trkpt>
      <trkpt lat="49.34544" lon="1.09315">
        <ele>15</ele>
        <time>2010-04-27T15:13:10Z</time>
      </trkpt>
      <trkpt lat="49.34541" lon="1.09323">
        <ele>15</ele>
        <time>2010-04-27T15:13:13Z</time>
      </trkpt>
      <trkpt lat="49.34537" lon="1.09337">
        <ele>15</ele>
        <time>2010-04-27T15:13:16Z</time>
      </trkpt>
      <trkpt lat="49.34532" lon="1.09353">
        <ele>14.9</ele>
        <time>2010-04-27T15:13:19Z</time>
      </trkpt>
      <trkpt lat="49.34526" lon="1.09371">
        <ele>14.7</ele>
        <time>2010-04-27T15:13:22Z</time>
      </trkpt>
      <trkpt lat="49.34521" lon="1.09389">
        <ele>14.7</ele>
        <time>2010-04-27T15:13:25Z</time>
      </trkpt>
      <trkpt lat="49.34516" lon="1.09406">
        <ele>14.8</ele>
        <time>2010-04-27T15:13:28Z</time>
      </trkpt>
      <trkpt lat="49.3451" lon="1.09424">
        <ele>14.4</ele>
        <time>2010-04-27T15:13:31Z</time>
      </trkpt>
      <trkpt lat="49.34505" lon="1.09441">
        <ele>13.9</ele>
        <time>2010-04-27T15:13:34Z</time>
      </trkpt>
      <trkpt lat="49.34498" lon="1.09456">
        <ele>13.7</ele>
        <time>2010-04-27T15:13:37Z</time>
      </trkpt>
      <trkpt lat="49.34489" lon="1.09472">
        <ele>13</ele>
        <time>2010-04-27T15:13:40Z</time>
      </trkpt>
      <trkpt lat="49.34479" lon="1.09484">
        <ele>13</ele>
        <time>2010-04-27T15:13:43Z</time>
      </trkpt>
      <trkpt lat="49.34469" lon="1.09493">
        <ele>13</ele>
        <time>2010-04-27T15:13:46Z</time>
      </trkpt>
      <trkpt lat="49.34458" lon="1.09499">
        <ele>13</ele>
        <time>2010-04-27T15:13:49Z</time>
      </trkpt>
      <trkpt lat="49.34447" lon="1.09506">
        <ele>12.8</ele>
        <time>2010-04-27T15:13:52Z</time>
      </trkpt>
      <trkpt lat="49.34437" lon="1.09513">
        <ele>12.5</ele>
        <time>2010-04-27T15:13:55Z</time>
      </trkpt>
      <trkpt lat="49.34426" lon="1.09518">
        <ele>12.4</ele>
        <time>2010-04-27T15:13:58Z</time>
      </trkpt>
      <trkpt lat="49.34414" lon="1.09524">
        <ele>12.1</ele>
        <time>2010-04-27T15:14:01Z</time>
      </trkpt>
      <trkpt lat="49.34402" lon="1.0953">
        <ele>12</ele>
        <time>2010-04-27T15:14:04Z</time>
      </trkpt>
      <trkpt lat="49.34388" lon="1.09536">
        <ele>12</ele>
        <time>2010-04-27T15:14:07Z</time>
      </trkpt>
      <trkpt lat="49.34375" lon="1.09544">
        <ele>11.7</ele>
        <time>2010-04-27T15:14:10Z</time>
      </trkpt>
      <trkpt lat="49.34361" lon="1.09552">
        <ele>11.1</ele>
        <time>2010-04-27T15:14:13Z</time>
      </trkpt>
      <trkpt lat="49.34347" lon="1.09561">
        <ele>11.3</ele>
        <time>2010-04-27T15:14:16Z</time>
      </trkpt>
      <trkpt lat="49.34332" lon="1.09567">
        <ele>11.2</ele>
        <time>2010-04-27T15:14:19Z</time>
      </trkpt>
      <trkpt lat="49.34318" lon="1.09575">
        <ele>10.4</ele>
        <time>2010-04-27T15:14:22Z</time>
      </trkpt>
      <trkpt lat="49.34305" lon="1.09583">
        <ele>10</ele>
        <time>2010-04-27T15:14:25Z</time>
      </trkpt>
      <trkpt lat="49.34291" lon="1.09588">
        <ele>9.9</ele>
        <time>2010-04-27T15:14:28Z</time>
      </trkpt>
      <trkpt lat="49.34276" lon="1.09595">
        <ele>9.5</ele>
        <time>2010-04-27T15:14:31Z</time>
      </trkpt>
      <trkpt lat="49.34261" lon="1.09601">
        <ele>9.1</ele>
        <time>2010-04-27T15:14:34Z</time>
      </trkpt>
      <trkpt lat="49.34246" lon="1.09607">
        <ele>-1</ele>
        <time>2010-04-27T15:14:37Z</time>
      </trkpt>
      <trkpt lat="49.34235" lon="1.09611">
        <ele>-2</ele>
        <time>2010-04-27T15:14:40Z</time>
      </trkpt>
      <trkpt lat="49.34228" lon="1.09617">
        <ele>-2</ele>
        <time>2010-04-27T15:14:43Z</time>
      </trkpt>
      <trkpt lat="49.34231" lon="1.09625">
        <ele>-2</ele>
        <time>2010-04-27T15:14:46Z</time>
      </trkpt>
      <trkpt lat="49.34235" lon="1.09633">
        <ele>-1</ele>
        <time>2010-04-27T15:14:49Z</time>
      </trkpt>
      <trkpt lat="49.34237" lon="1.09639">
        <ele>-2</ele>
        <time>2010-04-27T15:14:52Z</time>
      </trkpt>
      <trkpt lat="49.34239" lon="1.09643">
        <ele>-4</ele>
        <time>2010-04-27T15:14:58Z</time>
      </trkpt>
      <trkpt lat="49.34242" lon="1.09637">
        <ele>-4</ele>
        <time>2010-04-27T15:15:03Z</time>
      </trkpt>
      <trkpt lat="49.34228" lon="1.09644">
        <ele>8</ele>
        <time>2010-04-27T15:15:08Z</time>
      </trkpt>
      <trkpt lat="49.34224" lon="1.09636">
        <ele>8.1</ele>
        <time>2010-04-27T15:15:11Z</time>
      </trkpt>
      <trkpt lat="49.34222" lon="1.09629">
        <ele>1</ele>
        <time>2010-04-27T15:15:14Z</time>
      </trkpt>
      <trkpt lat="49.34218" lon="1.09626">
        <ele>2</ele>
        <time>2010-04-27T15:15:17Z</time>
      </trkpt>
      <trkpt lat="49.34213" lon="1.09623">
        <ele>2</ele>
        <time>2010-04-27T15:15:20Z</time>
      </trkpt>
      <trkpt lat="49.34207" lon="1.0962">
        <ele>4</ele>
        <time>2010-04-27T15:15:23Z</time>
      </trkpt>
      <trkpt lat="49.34201" lon="1.09619">
        <ele>7</ele>
        <time>2010-04-27T15:15:26Z</time>
      </trkpt>
      <trkpt lat="49.34193" lon="1.09616">
        <ele>7</ele>
        <time>2010-04-27T15:15:29Z</time>
      </trkpt>
      <trkpt lat="49.34185" lon="1.09615">
        <ele>7</ele>
        <time>2010-04-27T15:15:32Z</time>
      </trkpt>
      <trkpt lat="49.34177" lon="1.09612">
        <ele>7</ele>
        <time>2010-04-27T15:15:35Z</time>
      </trkpt>
      <trkpt lat="49.34167" lon="1.09609">
        <ele>5</ele>
        <time>2010-04-27T15:15:38Z</time>
      </trkpt>
      <trkpt lat="49.34158" lon="1.09609">
        <ele>5</ele>
        <time>2010-04-27T15:15:41Z</time>
      </trkpt>
      <trkpt lat="49.34149" lon="1.09603">
        <ele>4</ele>
        <time>2010-04-27T15:15:44Z</time>
      </trkpt>
      <trkpt lat="49.3414" lon="1.09594">
        <ele>2</ele>
        <time>2010-04-27T15:15:47Z</time>
      </trkpt>
      <trkpt lat="49.34131" lon="1.09583">
        <ele>1</ele>
        <time>2010-04-27T15:15:50Z</time>
      </trkpt>
      <trkpt lat="49.3412" lon="1.09573">
        <ele>1</ele>
        <time>2010-04-27T15:15:53Z</time>
      </trkpt>
      <trkpt lat="49.34111" lon="1.09563">
        <ele>1</ele>
        <time>2010-04-27T15:15:56Z</time>
      </trkpt>
      <trkpt lat="49.34101" lon="1.09554">
        <ele>1</ele>
        <time>2010-04-27T15:15:59Z</time>
      </trkpt>
      <trkpt lat="49.34094" lon="1.09557">
        <ele>1</ele>
        <time>2010-04-27T15:16:02Z</time>
      </trkpt>
      <trkpt lat="49.34094" lon="1.09571">
        <ele>1</ele>
        <time>2010-04-27T15:16:05Z</time>
      </trkpt>
      <trkpt lat="49.34098" lon="1.09583">
        <ele>1</ele>
        <time>2010-04-27T15:16:08Z</time>
      </trkpt>
      <trkpt lat="49.34103" lon="1.09596">
        <ele>1</ele>
        <time>2010-04-27T15:16:11Z</time>
      </trkpt>
      <trkpt lat="49.34108" lon="1.09609">
        <ele>1</ele>
        <time>2010-04-27T15:16:14Z</time>
      </trkpt>
      <trkpt lat="49.34114" lon="1.09621">
        <ele>1</ele>
        <time>2010-04-27T15:16:17Z</time>
      </trkpt>
      <trkpt lat="49.34119" lon="1.09635">
        <ele>7</ele>
        <time>2010-04-27T15:16:20Z</time>
      </trkpt>
      <trkpt lat="49.34121" lon="1.0965">
        <ele>7</ele>
        <time>2010-04-27T15:16:23Z</time>
      </trkpt>
      <trkpt lat="49.34126" lon="1.09664">
        <ele>7</ele>
        <time>2010-04-27T15:16:26Z</time>
      </trkpt>
      <trkpt lat="49.34129" lon="1.09677">
        <ele>7.4</ele>
        <time>2010-04-27T15:16:29Z</time>
      </trkpt>
      <trkpt lat="49.34131" lon="1.09691">
        <ele>7.9</ele>
        <time>2010-04-27T15:16:32Z</time>
      </trkpt>
      <trkpt lat="49.34137" lon="1.09703">
        <ele>8</ele>
        <time>2010-04-27T15:16:35Z</time>
      </trkpt>
      <trkpt lat="49.34143" lon="1.09713">
        <ele>8</ele>
        <time>2010-04-27T15:16:38Z</time>
      </trkpt>
      <trkpt lat="49.34149" lon="1.0972">
        <ele>8</ele>
        <time>2010-04-27T15:16:41Z</time>
      </trkpt>
      <trkpt lat="49.34154" lon="1.09724">
        <ele>8</ele>
        <time>2010-04-27T15:16:44Z</time>
      </trkpt>
      <trkpt lat="49.34158" lon="1.0972">
        <ele>8</ele>
        <time>2010-04-27T15:16:47Z</time>
      </trkpt>
      <trkpt lat="49.34161" lon="1.09711">
        <ele>8</ele>
        <time>2010-04-27T15:16:50Z</time>
      </trkpt>
      <trkpt lat="49.34167" lon="1.09702">
        <ele>8</ele>
        <time>2010-04-27T15:16:53Z</time>
      </trkpt>
      <trkpt lat="49.34173" lon="1.09693">
        <ele>8</ele>
        <time>2010-04-27T15:16:56Z</time>
      </trkpt>
      <trkpt lat="49.3418" lon="1.09682">
        <ele>1</ele>
        <time>2010-04-27T15:16:59Z</time>
      </trkpt>
      <trkpt lat="49.34186" lon="1.09671">
        <ele>2</ele>
        <time>2010-04-27T15:17:02Z</time>
      </trkpt>
      <trkpt lat="49.34192" lon="1.0966">
        <ele>2</ele>
        <time>2010-04-27T15:17:05Z</time>
      </trkpt>
      <trkpt lat="49.342" lon="1.09649">
        <ele>3</ele>
        <time>2010-04-27T15:17:08Z</time>
      </trkpt>
      <trkpt lat="49.34207" lon="1.09637">
        <ele>3</ele>
        <time>2010-04-27T15:17:11Z</time>
      </trkpt>
      <trkpt lat="49.34214" lon="1.09626">
        <ele>5</ele>
        <time>2010-04-27T15:17:14Z</time>
      </trkpt>
      <trkpt lat="49.34218" lon="1.09618">
        <ele>6</ele>
        <time>2010-04-27T15:17:17Z</time>
      </trkpt>
      <trkpt lat="49.34224" lon="1.09618">
        <ele>6</ele>
        <time>2010-04-27T15:17:20Z</time>
      </trkpt>
      <trkpt lat="49.34228" lon="1.09623">
        <ele>6</ele>
        <time>2010-04-27T15:17:23Z</time>
      </trkpt>
      <trkpt lat="49.34232" lon="1.09632">
        <ele>6</ele>
        <time>2010-04-27T15:17:26Z</time>
      </trkpt>
      <trkpt lat="49.34235" lon="1.09638">
        <ele>6</ele>
        <time>2010-04-27T15:17:29Z</time>
      </trkpt>
      <trkpt lat="49.34238" lon="1.09645">
        <ele>4</ele>
        <time>2010-04-27T15:17:34Z</time>
      </trkpt>
      <trkpt lat="49.34237" lon="1.09647">
        <ele>3</ele>
        <time>2010-04-27T15:17:39Z</time>
      </trkpt>
      <trkpt lat="49.34237" lon="1.09649">
        <ele>3</ele>
        <time>2010-04-27T15:17:44Z</time>
      </trkpt>
      <trkpt lat="49.34236" lon="1.09652">
        <ele>8</ele>
        <time>2010-04-27T15:17:50Z</time>
      </trkpt>
      <trkpt lat="49.34234" lon="1.09653">
        <ele>7.9</ele>
        <time>2010-04-27T15:17:53Z</time>
      </trkpt>
      <trkpt lat="49.34233" lon="1.09652">
        <ele>7.9</ele>
        <time>2010-04-27T15:17:57Z</time>
      </trkpt>
      <trkpt lat="49.34227" lon="1.09637">
        <ele>5</ele>
        <time>2010-04-27T15:18:00Z</time>
      </trkpt>
      <trkpt lat="49.34225" lon="1.0963">
        <ele>5</ele>
        <time>2010-04-27T15:18:03Z</time>
      </trkpt>
      <trkpt lat="49.34224" lon="1.09625">
        <ele>5</ele>
        <time>2010-04-27T15:18:08Z</time>
      </trkpt>
      <trkpt lat="49.34229" lon="1.09618">
        <ele>5</ele>
        <time>2010-04-27T15:18:11Z</time>
      </trkpt>
      <trkpt lat="49.34238" lon="1.09614">
        <ele>5</ele>
        <time>2010-04-27T15:18:14Z</time>
      </trkpt>
      <trkpt lat="49.34246" lon="1.09611">
        <ele>5</ele>
        <time>2010-04-27T15:18:18Z</time>
      </trkpt>
      <trkpt lat="49.34254" lon="1.09607">
        <ele>5</ele>
        <time>2010-04-27T15:18:21Z</time>
      </trkpt>
      <trkpt lat="49.3426" lon="1.09604">
        <ele>5</ele>
        <time>2010-04-27T15:18:24Z</time>
      </trkpt>
      <trkpt lat="49.34267" lon="1.096">
        <ele>5</ele>
        <time>2010-04-27T15:18:28Z</time>
      </trkpt>
      <trkpt lat="49.34276" lon="1.09596">
        <ele>5</ele>
        <time>2010-04-27T15:18:31Z</time>
      </trkpt>
      <trkpt lat="49.34282" lon="1.09593">
        <ele>5</ele>
        <time>2010-04-27T15:18:34Z</time>
      </trkpt>
      <trkpt lat="49.34287" lon="1.09591">
        <ele>5</ele>
        <time>2010-04-27T15:18:39Z</time>
      </trkpt>
      <trkpt lat="49.34295" lon="1.09586">
        <ele>5</ele>
        <time>2010-04-27T15:18:42Z</time>
      </trkpt>
      <trkpt lat="49.34302" lon="1.09584">
        <ele>5</ele>
        <time>2010-04-27T15:18:45Z</time>
      </trkpt>
      <trkpt lat="49.34309" lon="1.09581">
        <ele>5</ele>
        <time>2010-04-27T15:18:49Z</time>
      </trkpt>
      <trkpt lat="49.34315" lon="1.09577">
        <ele>5</ele>
        <time>2010-04-27T15:18:52Z</time>
      </trkpt>
      <trkpt lat="49.34324" lon="1.09573">
        <ele>5</ele>
        <time>2010-04-27T15:18:55Z</time>
      </trkpt>
      <trkpt lat="49.34332" lon="1.0957">
        <ele>5</ele>
        <time>2010-04-27T15:18:59Z</time>
      </trkpt>
      <trkpt lat="49.34341" lon="1.09565">
        <ele>5</ele>
        <time>2010-04-27T15:19:02Z</time>
      </trkpt>
      <trkpt lat="49.34348" lon="1.09561">
        <ele>5</ele>
        <time>2010-04-27T15:19:05Z</time>
      </trkpt>
      <trkpt lat="49.34354" lon="1.09558">
        <ele>5</ele>
        <time>2010-04-27T15:19:08Z</time>
      </trkpt>
      <trkpt lat="49.3436" lon="1.09555">
        <ele>5</ele>
        <time>2010-04-27T15:19:11Z</time>
      </trkpt>
      <trkpt lat="49.34367" lon="1.09552">
        <ele>5</ele>
        <time>2010-04-27T15:19:14Z</time>
      </trkpt>
      <trkpt lat="49.34373" lon="1.09549">
        <ele>5</ele>
        <time>2010-04-27T15:19:17Z</time>
      </trkpt>
      <trkpt lat="49.34379" lon="1.09546">
        <ele>5</ele>
        <time>2010-04-27T15:19:20Z</time>
      </trkpt>
      <trkpt lat="49.34386" lon="1.09542">
        <ele>5</ele>
        <time>2010-04-27T15:19:24Z</time>
      </trkpt>
      <trkpt lat="49.34395" lon="1.09537">
        <ele>5</ele>
        <time>2010-04-27T15:19:27Z</time>
      </trkpt>
      <trkpt lat="49.34401" lon="1.09534">
        <ele>6</ele>
        <time>2010-04-27T15:19:30Z</time>
      </trkpt>
      <trkpt lat="49.34407" lon="1.09532">
        <ele>6</ele>
        <time>2010-04-27T15:19:34Z</time>
      </trkpt>
      <trkpt lat="49.34415" lon="1.09526">
        <ele>7</ele>
        <time>2010-04-27T15:19:37Z</time>
      </trkpt>
      <trkpt lat="49.34421" lon="1.09522">
        <ele>7</ele>
        <time>2010-04-27T15:19:40Z</time>
      </trkpt>
      <trkpt lat="49.34427" lon="1.09518">
        <ele>8</ele>
        <time>2010-04-27T15:19:43Z</time>
      </trkpt>
      <trkpt lat="49.34433" lon="1.09515">
        <ele>8</ele>
        <time>2010-04-27T15:19:46Z</time>
      </trkpt>
      <trkpt lat="49.34439" lon="1.09511">
        <ele>9</ele>
        <time>2010-04-27T15:19:49Z</time>
      </trkpt>
      <trkpt lat="49.34445" lon="1.09507">
        <ele>9</ele>
        <time>2010-04-27T15:19:52Z</time>
      </trkpt>
      <trkpt lat="49.34451" lon="1.09503">
        <ele>9</ele>
        <time>2010-04-27T15:19:55Z</time>
      </trkpt>
      <trkpt lat="49.34457" lon="1.09499">
        <ele>10</ele>
        <time>2010-04-27T15:19:59Z</time>
      </trkpt>
      <trkpt lat="49.34465" lon="1.09494">
        <ele>10</ele>
        <time>2010-04-27T15:20:02Z</time>
      </trkpt>
      <trkpt lat="49.34471" lon="1.09491">
        <ele>10</ele>
        <time>2010-04-27T15:20:05Z</time>
      </trkpt>
      <trkpt lat="49.34477" lon="1.09487">
        <ele>10</ele>
        <time>2010-04-27T15:20:09Z</time>
      </trkpt>
      <trkpt lat="49.34485" lon="1.0948">
        <ele>10</ele>
        <time>2010-04-27T15:20:12Z</time>
      </trkpt>
      <trkpt lat="49.3449" lon="1.09474">
        <ele>10</ele>
        <time>2010-04-27T15:20:15Z</time>
      </trkpt>
      <trkpt lat="49.34495" lon="1.09467">
        <ele>10</ele>
        <time>2010-04-27T15:20:19Z</time>
      </trkpt>
      <trkpt lat="49.345" lon="1.09458">
        <ele>10</ele>
        <time>2010-04-27T15:20:22Z</time>
      </trkpt>
      <trkpt lat="49.34505" lon="1.0945">
        <ele>10</ele>
        <time>2010-04-27T15:20:25Z</time>
      </trkpt>
      <trkpt lat="49.34508" lon="1.09441">
        <ele>10</ele>
        <time>2010-04-27T15:20:29Z</time>
      </trkpt>
      <trkpt lat="49.34512" lon="1.09429">
        <ele>10</ele>
        <time>2010-04-27T15:20:32Z</time>
      </trkpt>
      <trkpt lat="49.34515" lon="1.09418">
        <ele>10</ele>
        <time>2010-04-27T15:20:35Z</time>
      </trkpt>
      <trkpt lat="49.34518" lon="1.09408">
        <ele>10</ele>
        <time>2010-04-27T15:20:39Z</time>
      </trkpt>
      <trkpt lat="49.34521" lon="1.09394">
        <ele>10</ele>
        <time>2010-04-27T15:20:42Z</time>
      </trkpt>
      <trkpt lat="49.34524" lon="1.09385">
        <ele>10</ele>
        <time>2010-04-27T15:20:45Z</time>
      </trkpt>
      <trkpt lat="49.34527" lon="1.09375">
        <ele>10</ele>
        <time>2010-04-27T15:20:49Z</time>
      </trkpt>
      <trkpt lat="49.3453" lon="1.09366">
        <ele>10</ele>
        <time>2010-04-27T15:20:52Z</time>
      </trkpt>
      <trkpt lat="49.34534" lon="1.09354">
        <ele>10</ele>
        <time>2010-04-27T15:20:55Z</time>
      </trkpt>
      <trkpt lat="49.34536" lon="1.09344">
        <ele>10</ele>
        <time>2010-04-27T15:20:59Z</time>
      </trkpt>
      <trkpt lat="49.3454" lon="1.09334">
        <ele>10</ele>
        <time>2010-04-27T15:21:02Z</time>
      </trkpt>
      <trkpt lat="49.34543" lon="1.09326">
        <ele>10</ele>
        <time>2010-04-27T15:21:05Z</time>
      </trkpt>
      <trkpt lat="49.34548" lon="1.09317">
        <ele>10</ele>
        <time>2010-04-27T15:21:09Z</time>
      </trkpt>
      <trkpt lat="49.34553" lon="1.09306">
        <ele>10</ele>
        <time>2010-04-27T15:21:12Z</time>
      </trkpt>
      <trkpt lat="49.34556" lon="1.09299">
        <ele>10</ele>
        <time>2010-04-27T15:21:15Z</time>
      </trkpt>
      <trkpt lat="49.34561" lon="1.09291">
        <ele>10</ele>
        <time>2010-04-27T15:21:19Z</time>
      </trkpt>
      <trkpt lat="49.34567" lon="1.09282">
        <ele>10</ele>
        <time>2010-04-27T15:21:22Z</time>
      </trkpt>
      <trkpt lat="49.34573" lon="1.09275">
        <ele>10</ele>
        <time>2010-04-27T15:21:25Z</time>
      </trkpt>
      <trkpt lat="49.34578" lon="1.09268">
        <ele>10</ele>
        <time>2010-04-27T15:21:29Z</time>
      </trkpt>
      <trkpt lat="49.34584" lon="1.09262">
        <ele>10</ele>
        <time>2010-04-27T15:21:32Z</time>
      </trkpt>
      <trkpt lat="49.3459" lon="1.09257">
        <ele>10</ele>
        <time>2010-04-27T15:21:35Z</time>
      </trkpt>
      <trkpt lat="49.34597" lon="1.09253">
        <ele>10</ele>
        <time>2010-04-27T15:21:38Z</time>
      </trkpt>
      <trkpt lat="49.34603" lon="1.09248">
        <ele>10</ele>
        <time>2010-04-27T15:21:41Z</time>
      </trkpt>
      <trkpt lat="49.34609" lon="1.09243">
        <ele>10</ele>
        <time>2010-04-27T15:21:45Z</time>
      </trkpt>
      <trkpt lat="49.34617" lon="1.09237">
        <ele>10</ele>
        <time>2010-04-27T15:21:48Z</time>
      </trkpt>
      <trkpt lat="49.34623" lon="1.09232">
        <ele>10</ele>
        <time>2010-04-27T15:21:52Z</time>
      </trkpt>
      <trkpt lat="49.34629" lon="1.09228">
        <ele>10</ele>
        <time>2010-04-27T15:21:55Z</time>
      </trkpt>
      <trkpt lat="49.34637" lon="1.09223">
        <ele>10</ele>
        <time>2010-04-27T15:21:58Z</time>
      </trkpt>
      <trkpt lat="49.34643" lon="1.09219">
        <ele>10</ele>
        <time>2010-04-27T15:22:01Z</time>
      </trkpt>
      <trkpt lat="49.34649" lon="1.09214">
        <ele>10</ele>
        <time>2010-04-27T15:22:04Z</time>
      </trkpt>
      <trkpt lat="49.34655" lon="1.09209">
        <ele>10</ele>
        <time>2010-04-27T15:22:07Z</time>
      </trkpt>
      <trkpt lat="49.34661" lon="1.09205">
        <ele>10</ele>
        <time>2010-04-27T15:22:10Z</time>
      </trkpt>
      <trkpt lat="49.34667" lon="1.09201">
        <ele>10</ele>
        <time>2010-04-27T15:22:13Z</time>
      </trkpt>
      <trkpt lat="49.34673" lon="1.09197">
        <ele>10</ele>
        <time>2010-04-27T15:22:16Z</time>
      </trkpt>
      <trkpt lat="49.34679" lon="1.09192">
        <ele>10</ele>
        <time>2010-04-27T15:22:20Z</time>
      </trkpt>
      <trkpt lat="49.34687" lon="1.09186">
        <ele>10</ele>
        <time>2010-04-27T15:22:23Z</time>
      </trkpt>
      <trkpt lat="49.34693" lon="1.09181">
        <ele>10</ele>
        <time>2010-04-27T15:22:26Z</time>
      </trkpt>
      <trkpt lat="49.34699" lon="1.09175">
        <ele>10</ele>
        <time>2010-04-27T15:22:30Z</time>
      </trkpt>
      <trkpt lat="49.34707" lon="1.09167">
        <ele>10</ele>
        <time>2010-04-27T15:22:33Z</time>
      </trkpt>
      <trkpt lat="49.34712" lon="1.0916">
        <ele>10</ele>
        <time>2010-04-27T15:22:36Z</time>
      </trkpt>
      <trkpt lat="49.34718" lon="1.09152">
        <ele>10</ele>
        <time>2010-04-27T15:22:40Z</time>
      </trkpt>
      <trkpt lat="49.34725" lon="1.09143">
        <ele>10</ele>
        <time>2010-04-27T15:22:43Z</time>
      </trkpt>
      <trkpt lat="49.34729" lon="1.09135">
        <ele>10</ele>
        <time>2010-04-27T15:22:46Z</time>
      </trkpt>
      <trkpt lat="49.34733" lon="1.09127">
        <ele>10</ele>
        <time>2010-04-27T15:22:50Z</time>
      </trkpt>
      <trkpt lat="49.34739" lon="1.09116">
        <ele>10</ele>
        <time>2010-04-27T15:22:53Z</time>
      </trkpt>
      <trkpt lat="49.34743" lon="1.09107">
        <ele>10</ele>
        <time>2010-04-27T15:22:56Z</time>
      </trkpt>
      <trkpt lat="49.34748" lon="1.09098">
        <ele>10</ele>
        <time>2010-04-27T15:22:59Z</time>
      </trkpt>
      <trkpt lat="49.34752" lon="1.09089">
        <ele>10</ele>
        <time>2010-04-27T15:23:02Z</time>
      </trkpt>
      <trkpt lat="49.34757" lon="1.09081">
        <ele>11</ele>
        <time>2010-04-27T15:23:05Z</time>
      </trkpt>
      <trkpt lat="49.34762" lon="1.09073">
        <ele>11</ele>
        <time>2010-04-27T15:23:08Z</time>
      </trkpt>
      <trkpt lat="49.34767" lon="1.09065">
        <ele>11</ele>
        <time>2010-04-27T15:23:11Z</time>
      </trkpt>
      <trkpt lat="49.34772" lon="1.09056">
        <ele>11</ele>
        <time>2010-04-27T15:23:15Z</time>
      </trkpt>
      <trkpt lat="49.3478" lon="1.09043">
        <ele>11</ele>
        <time>2010-04-27T15:23:18Z</time>
      </trkpt>
      <trkpt lat="49.34786" lon="1.09032">
        <ele>11</ele>
        <time>2010-04-27T15:23:21Z</time>
      </trkpt>
      <trkpt lat="49.34791" lon="1.09023">
        <ele>11</ele>
        <time>2010-04-27T15:23:24Z</time>
      </trkpt>
      <trkpt lat="49.34795" lon="1.09015">
        <ele>11</ele>
        <time>2010-04-27T15:23:27Z</time>
      </trkpt>
      <trkpt lat="49.34798" lon="1.09008">
        <ele>11</ele>
        <time>2010-04-27T15:23:30Z</time>
      </trkpt>
      <trkpt lat="49.34801" lon="1.09002">
        <ele>12</ele>
        <time>2010-04-27T15:23:33Z</time>
      </trkpt>
      <trkpt lat="49.34805" lon="1.08994">
        <ele>12</ele>
        <time>2010-04-27T15:23:36Z</time>
      </trkpt>
      <trkpt lat="49.3481" lon="1.08985">
        <ele>12</ele>
        <time>2010-04-27T15:23:40Z</time>
      </trkpt>
      <trkpt lat="49.34815" lon="1.08974">
        <ele>12</ele>
        <time>2010-04-27T15:23:43Z</time>
      </trkpt>
      <trkpt lat="49.3482" lon="1.08966">
        <ele>12</ele>
        <time>2010-04-27T15:23:46Z</time>
      </trkpt>
      <trkpt lat="49.34825" lon="1.08958">
        <ele>12</ele>
        <time>2010-04-27T15:23:50Z</time>
      </trkpt>
      <trkpt lat="49.34831" lon="1.08947">
        <ele>12</ele>
        <time>2010-04-27T15:23:53Z</time>
      </trkpt>
      <trkpt lat="49.34835" lon="1.08939">
        <ele>12</ele>
        <time>2010-04-27T15:23:56Z</time>
      </trkpt>
      <trkpt lat="49.34839" lon="1.08931">
        <ele>12</ele>
        <time>2010-04-27T15:23:59Z</time>
      </trkpt>
      <trkpt lat="49.34844" lon="1.08923">
        <ele>12</ele>
        <time>2010-04-27T15:24:02Z</time>
      </trkpt>
      <trkpt lat="49.34848" lon="1.08915">
        <ele>12</ele>
        <time>2010-04-27T15:24:05Z</time>
      </trkpt>
      <trkpt lat="49.34852" lon="1.08907">
        <ele>13</ele>
        <time>2010-04-27T15:24:08Z</time>
      </trkpt>
      <trkpt lat="49.34857" lon="1.08899">
        <ele>13</ele>
        <time>2010-04-27T15:24:11Z</time>
      </trkpt>
      <trkpt lat="49.34862" lon="1.08891">
        <ele>13</ele>
        <time>2010-04-27T15:24:14Z</time>
      </trkpt>
      <trkpt lat="49.34866" lon="1.08883">
        <ele>13</ele>
        <time>2010-04-27T15:24:17Z</time>
      </trkpt>
      <trkpt lat="49.34871" lon="1.08875">
        <ele>13</ele>
        <time>2010-04-27T15:24:20Z</time>
      </trkpt>
      <trkpt lat="49.34875" lon="1.08867">
        <ele>14</ele>
        <time>2010-04-27T15:24:23Z</time>
      </trkpt>
      <trkpt lat="49.3488" lon="1.08859">
        <ele>14</ele>
        <time>2010-04-27T15:24:26Z</time>
      </trkpt>
      <trkpt lat="49.34884" lon="1.08851">
        <ele>14</ele>
        <time>2010-04-27T15:24:30Z</time>
      </trkpt>
      <trkpt lat="49.3489" lon="1.0884">
        <ele>14</ele>
        <time>2010-04-27T15:24:33Z</time>
      </trkpt>
      <trkpt lat="49.34894" lon="1.08833">
        <ele>14</ele>
        <time>2010-04-27T15:24:36Z</time>
      </trkpt>
      <trkpt lat="49.34898" lon="1.08825">
        <ele>14</ele>
        <time>2010-04-27T15:24:40Z</time>
      </trkpt>
      <trkpt lat="49.34904" lon="1.08814">
        <ele>14</ele>
        <time>2010-04-27T15:24:43Z</time>
      </trkpt>
      <trkpt lat="49.34908" lon="1.08805">
        <ele>14</ele>
        <time>2010-04-27T15:24:46Z</time>
      </trkpt>
      <trkpt lat="49.34912" lon="1.08797">
        <ele>14</ele>
        <time>2010-04-27T15:24:50Z</time>
      </trkpt>
      <trkpt lat="49.34918" lon="1.08786">
        <ele>15</ele>
        <time>2010-04-27T15:24:53Z</time>
      </trkpt>
      <trkpt lat="49.34922" lon="1.08779">
        <ele>15</ele>
        <time>2010-04-27T15:24:56Z</time>
      </trkpt>
      <trkpt lat="49.34926" lon="1.08771">
        <ele>15</ele>
        <time>2010-04-27T15:24:59Z</time>
      </trkpt>
      <trkpt lat="49.34931" lon="1.08763">
        <ele>15</ele>
        <time>2010-04-27T15:25:02Z</time>
      </trkpt>
      <trkpt lat="49.34935" lon="1.08756">
        <ele>15</ele>
        <time>2010-04-27T15:25:05Z</time>
      </trkpt>
      <trkpt lat="49.34939" lon="1.08748">
        <ele>15</ele>
        <time>2010-04-27T15:25:08Z</time>
      </trkpt>
      <trkpt lat="49.34943" lon="1.08741">
        <ele>15</ele>
        <time>2010-04-27T15:25:11Z</time>
      </trkpt>
      <trkpt lat="49.34948" lon="1.08733">
        <ele>15</ele>
        <time>2010-04-27T15:25:14Z</time>
      </trkpt>
      <trkpt lat="49.34952" lon="1.08725">
        <ele>15</ele>
        <time>2010-04-27T15:25:17Z</time>
      </trkpt>
      <trkpt lat="49.34956" lon="1.08717">
        <ele>15</ele>
        <time>2010-04-27T15:25:20Z</time>
      </trkpt>
      <trkpt lat="49.3496" lon="1.08709">
        <ele>15</ele>
        <time>2010-04-27T15:25:23Z</time>
      </trkpt>
      <trkpt lat="49.34965" lon="1.08701">
        <ele>15</ele>
        <time>2010-04-27T15:25:26Z</time>
      </trkpt>
      <trkpt lat="49.34969" lon="1.08693">
        <ele>16</ele>
        <time>2010-04-27T15:25:29Z</time>
      </trkpt>
      <trkpt lat="49.34973" lon="1.08686">
        <ele>16</ele>
        <time>2010-04-27T15:25:32Z</time>
      </trkpt>
      <trkpt lat="49.34978" lon="1.08677">
        <ele>16</ele>
        <time>2010-04-27T15:25:35Z</time>
      </trkpt>
      <trkpt lat="49.34982" lon="1.0867">
        <ele>16</ele>
        <time>2010-04-27T15:25:38Z</time>
      </trkpt>
      <trkpt lat="49.34986" lon="1.08662">
        <ele>17</ele>
        <time>2010-04-27T15:25:41Z</time>
      </trkpt>
      <trkpt lat="49.34989" lon="1.08654">
        <ele>17</ele>
        <time>2010-04-27T15:25:44Z</time>
      </trkpt>
      <trkpt lat="49.34993" lon="1.08645">
        <ele>18</ele>
        <time>2010-04-27T15:25:47Z</time>
      </trkpt>
      <trkpt lat="49.34996" lon="1.08637">
        <ele>19</ele>
        <time>2010-04-27T15:25:50Z</time>
      </trkpt>
      <trkpt lat="49.35" lon="1.08629">
        <ele>19</ele>
        <time>2010-04-27T15:25:53Z</time>
      </trkpt>
      <trkpt lat="49.35004" lon="1.08622">
        <ele>20</ele>
        <time>2010-04-27T15:25:56Z</time>
      </trkpt>
      <trkpt lat="49.35007" lon="1.08614">
        <ele>20</ele>
        <time>2010-04-27T15:25:59Z</time>
      </trkpt>
      <trkpt lat="49.35011" lon="1.08607">
        <ele>20</ele>
        <time>2010-04-27T15:26:02Z</time>
      </trkpt>
      <trkpt lat="49.35014" lon="1.08599">
        <ele>21</ele>
        <time>2010-04-27T15:26:05Z</time>
      </trkpt>
      <trkpt lat="49.35018" lon="1.08591">
        <ele>21</ele>
        <time>2010-04-27T15:26:08Z</time>
      </trkpt>
      <trkpt lat="49.35021" lon="1.08583">
        <ele>22</ele>
        <time>2010-04-27T15:26:11Z</time>
      </trkpt>
      <trkpt lat="49.35024" lon="1.08575">
        <ele>22</ele>
        <time>2010-04-27T15:26:15Z</time>
      </trkpt>
      <trkpt lat="49.35028" lon="1.08565">
        <ele>23</ele>
        <time>2010-04-27T15:26:18Z</time>
      </trkpt>
      <trkpt lat="49.35031" lon="1.08558">
        <ele>23</ele>
        <time>2010-04-27T15:26:21Z</time>
      </trkpt>
      <trkpt lat="49.35034" lon="1.0855">
        <ele>23</ele>
        <time>2010-04-27T15:26:24Z</time>
      </trkpt>
      <trkpt lat="49.35036" lon="1.08542">
        <ele>23</ele>
        <time>2010-04-27T15:26:27Z</time>
      </trkpt>
      <trkpt lat="49.35039" lon="1.08533">
        <ele>24</ele>
        <time>2010-04-27T15:26:30Z</time>
      </trkpt>
      <trkpt lat="49.35042" lon="1.08525">
        <ele>24</ele>
        <time>2010-04-27T15:26:33Z</time>
      </trkpt>
      <trkpt lat="49.35045" lon="1.08517">
        <ele>24</ele>
        <time>2010-04-27T15:26:36Z</time>
      </trkpt>
      <trkpt lat="49.35048" lon="1.0851">
        <ele>25</ele>
        <time>2010-04-27T15:26:39Z</time>
      </trkpt>
      <trkpt lat="49.35051" lon="1.08501">
        <ele>25</ele>
        <time>2010-04-27T15:26:42Z</time>
      </trkpt>
      <trkpt lat="49.35054" lon="1.08492">
        <ele>26</ele>
        <time>2010-04-27T15:26:45Z</time>
      </trkpt>
      <trkpt lat="49.35057" lon="1.08483">
        <ele>26</ele>
        <time>2010-04-27T15:26:48Z</time>
      </trkpt>
      <trkpt lat="49.3506" lon="1.08475">
        <ele>27</ele>
        <time>2010-04-27T15:26:52Z</time>
      </trkpt>
      <trkpt lat="49.35064" lon="1.08464">
        <ele>28</ele>
        <time>2010-04-27T15:26:55Z</time>
      </trkpt>
      <trkpt lat="49.35067" lon="1.08455">
        <ele>28</ele>
        <time>2010-04-27T15:26:58Z</time>
      </trkpt>
      <trkpt lat="49.3507" lon="1.08448">
        <ele>29</ele>
        <time>2010-04-27T15:27:01Z</time>
      </trkpt>
      <trkpt lat="49.35074" lon="1.08439">
        <ele>29</ele>
        <time>2010-04-27T15:27:04Z</time>
      </trkpt>
      <trkpt lat="49.35078" lon="1.08432">
        <ele>29</ele>
        <time>2010-04-27T15:27:07Z</time>
      </trkpt>
      <trkpt lat="49.35081" lon="1.08424">
        <ele>30</ele>
        <time>2010-04-27T15:27:10Z</time>
      </trkpt>
      <trkpt lat="49.35085" lon="1.08416">
        <ele>30</ele>
        <time>2010-04-27T15:27:13Z</time>
      </trkpt>
      <trkpt lat="49.3509" lon="1.08409">
        <ele>31</ele>
        <time>2010-04-27T15:27:16Z</time>
      </trkpt>
      <trkpt lat="49.35094" lon="1.084">
        <ele>31</ele>
        <time>2010-04-27T15:27:19Z</time>
      </trkpt>
      <trkpt lat="49.35098" lon="1.08394">
        <ele>31</ele>
        <time>2010-04-27T15:27:22Z</time>
      </trkpt>
      <trkpt lat="49.35101" lon="1.08387">
        <ele>31</ele>
        <time>2010-04-27T15:27:25Z</time>
      </trkpt>
      <trkpt lat="49.35106" lon="1.0838">
        <ele>31</ele>
        <time>2010-04-27T15:27:28Z</time>
      </trkpt>
      <trkpt lat="49.35111" lon="1.08373">
        <ele>31</ele>
        <time>2010-04-27T15:27:31Z</time>
      </trkpt>
      <trkpt lat="49.35116" lon="1.08366">
        <ele>31</ele>
        <time>2010-04-27T15:27:34Z</time>
      </trkpt>
      <trkpt lat="49.35121" lon="1.0836">
        <ele>33</ele>
        <time>2010-04-27T15:27:37Z</time>
      </trkpt>
      <trkpt lat="49.35125" lon="1.08354">
        <ele>34</ele>
        <time>2010-04-27T15:27:40Z</time>
      </trkpt>
      <trkpt lat="49.3513" lon="1.08348">
        <ele>34</ele>
        <time>2010-04-27T15:27:43Z</time>
      </trkpt>
      <trkpt lat="49.35135" lon="1.08342">
        <ele>34</ele>
        <time>2010-04-27T15:27:46Z</time>
      </trkpt>
      <trkpt lat="49.35141" lon="1.08335">
        <ele>35</ele>
        <time>2010-04-27T15:27:49Z</time>
      </trkpt>
      <trkpt lat="49.35146" lon="1.08328">
        <ele>36</ele>
        <time>2010-04-27T15:27:52Z</time>
      </trkpt>
      <trkpt lat="49.35151" lon="1.08321">
        <ele>37</ele>
        <time>2010-04-27T15:27:55Z</time>
      </trkpt>
      <trkpt lat="49.35157" lon="1.08315">
        <ele>37</ele>
        <time>2010-04-27T15:27:58Z</time>
      </trkpt>
      <trkpt lat="49.35161" lon="1.08309">
        <ele>37</ele>
        <time>2010-04-27T15:28:01Z</time>
      </trkpt>
      <trkpt lat="49.35165" lon="1.08303">
        <ele>37</ele>
        <time>2010-04-27T15:28:04Z</time>
      </trkpt>
      <trkpt lat="49.3517" lon="1.08299">
        <ele>37</ele>
        <time>2010-04-27T15:28:07Z</time>
      </trkpt>
      <trkpt lat="49.35174" lon="1.08296">
        <ele>37</ele>
        <time>2010-04-27T15:28:10Z</time>
      </trkpt>
      <trkpt lat="49.3518" lon="1.08291">
        <ele>37</ele>
        <time>2010-04-27T15:28:13Z</time>
      </trkpt>
      <trkpt lat="49.35186" lon="1.08285">
        <ele>37</ele>
        <time>2010-04-27T15:28:16Z</time>
      </trkpt>
      <trkpt lat="49.35191" lon="1.0828">
        <ele>37</ele>
        <time>2010-04-27T15:28:19Z</time>
      </trkpt>
      <trkpt lat="49.35197" lon="1.08274">
        <ele>36</ele>
        <time>2010-04-27T15:28:22Z</time>
      </trkpt>
      <trkpt lat="49.35203" lon="1.08266">
        <ele>36</ele>
        <time>2010-04-27T15:28:25Z</time>
      </trkpt>
      <trkpt lat="49.35207" lon="1.08259">
        <ele>36</ele>
        <time>2010-04-27T15:28:28Z</time>
      </trkpt>
      <trkpt lat="49.35212" lon="1.08254">
        <ele>36</ele>
        <time>2010-04-27T15:28:31Z</time>
      </trkpt>
      <trkpt lat="49.35216" lon="1.08246">
        <ele>36</ele>
        <time>2010-04-27T15:28:34Z</time>
      </trkpt>
      <trkpt lat="49.35221" lon="1.08243">
        <ele>36</ele>
        <time>2010-04-27T15:28:37Z</time>
      </trkpt>
      <trkpt lat="49.35226" lon="1.08235">
        <ele>35</ele>
        <time>2010-04-27T15:28:40Z</time>
      </trkpt>
      <trkpt lat="49.35231" lon="1.08229">
        <ele>35</ele>
        <time>2010-04-27T15:28:43Z</time>
      </trkpt>
      <trkpt lat="49.35236" lon="1.08221">
        <ele>35</ele>
        <time>2010-04-27T15:28:46Z</time>
      </trkpt>
      <trkpt lat="49.35241" lon="1.08215">
        <ele>35</ele>
        <time>2010-04-27T15:28:49Z</time>
      </trkpt>
      <trkpt lat="49.35247" lon="1.08209">
        <ele>35</ele>
        <time>2010-04-27T15:28:52Z</time>
      </trkpt>
      <trkpt lat="49.35252" lon="1.08202">
        <ele>35</ele>
        <time>2010-04-27T15:28:55Z</time>
      </trkpt>
      <trkpt lat="49.35259" lon="1.08198">
        <ele>35</ele>
        <time>2010-04-27T15:28:58Z</time>
      </trkpt>
      <trkpt lat="49.35265" lon="1.08195">
        <ele>35</ele>
        <time>2010-04-27T15:29:01Z</time>
      </trkpt>
      <trkpt lat="49.35269" lon="1.08191">
        <ele>35</ele>
        <time>2010-04-27T15:29:05Z</time>
      </trkpt>
      <trkpt lat="49.35272" lon="1.08189">
        <ele>35</ele>
        <time>2010-04-27T15:29:08Z</time>
      </trkpt>
      <trkpt lat="49.35276" lon="1.08185">
        <ele>35</ele>
        <time>2010-04-27T15:29:12Z</time>
      </trkpt>
      <trkpt lat="49.3528" lon="1.08181">
        <ele>35</ele>
        <time>2010-04-27T15:29:16Z</time>
      </trkpt>
      <trkpt lat="49.35284" lon="1.08176">
        <ele>35</ele>
        <time>2010-04-27T15:29:20Z</time>
      </trkpt>
      <trkpt lat="49.35287" lon="1.0817">
        <ele>36</ele>
        <time>2010-04-27T15:29:24Z</time>
      </trkpt>
      <trkpt lat="49.35289" lon="1.08165">
        <ele>37</ele>
        <time>2010-04-27T15:29:28Z</time>
      </trkpt>
      <trkpt lat="49.35292" lon="1.08161">
        <ele>39</ele>
        <time>2010-04-27T15:29:31Z</time>
      </trkpt>
      <trkpt lat="49.35294" lon="1.08158">
        <ele>40</ele>
        <time>2010-04-27T15:29:34Z</time>
      </trkpt>
      <trkpt lat="49.35297" lon="1.08149">
        <ele>41</ele>
        <time>2010-04-27T15:29:37Z</time>
      </trkpt>
      <trkpt lat="49.353" lon="1.08142">
        <ele>43</ele>
        <time>2010-04-27T15:29:42Z</time>
      </trkpt>
      <trkpt lat="49.35303" lon="1.08135">
        <ele>43</ele>
        <time>2010-04-27T15:29:45Z</time>
      </trkpt>
      <trkpt lat="49.35306" lon="1.08125">
        <ele>44</ele>
        <time>2010-04-27T15:29:48Z</time>
      </trkpt>
      <trkpt lat="49.3531" lon="1.08114">
        <ele>44</ele>
        <time>2010-04-27T15:29:52Z</time>
      </trkpt>
      <trkpt lat="49.35315" lon="1.08103">
        <ele>44</ele>
        <time>2010-04-27T15:29:56Z</time>
      </trkpt>
      <trkpt lat="49.35317" lon="1.08097">
        <ele>44</ele>
        <time>2010-04-27T15:29:59Z</time>
      </trkpt>
      <trkpt lat="49.35323" lon="1.0808">
        <ele>44</ele>
        <time>2010-04-27T15:30:02Z</time>
      </trkpt>
      <trkpt lat="49.35333" lon="1.08058">
        <ele>44</ele>
        <time>2010-04-27T15:30:05Z</time>
      </trkpt>
      <trkpt lat="49.35346" lon="1.08038">
        <ele>44</ele>
        <time>2010-04-27T15:30:08Z</time>
      </trkpt>
      <trkpt lat="49.35354" lon="1.08024">
        <ele>44</ele>
        <time>2010-04-27T15:30:11Z</time>
      </trkpt>
      <trkpt lat="49.3536" lon="1.08014">
        <ele>44</ele>
        <time>2010-04-27T15:30:14Z</time>
      </trkpt>
      <trkpt lat="49.35366" lon="1.08007">
        <ele>44</ele>
        <time>2010-04-27T15:30:17Z</time>
      </trkpt>
      <trkpt lat="49.3537" lon="1.07997">
        <ele>44</ele>
        <time>2010-04-27T15:30:20Z</time>
      </trkpt>
      <trkpt lat="49.35374" lon="1.07986">
        <ele>44</ele>
        <time>2010-04-27T15:30:23Z</time>
      </trkpt>
      <trkpt lat="49.35379" lon="1.07976">
        <ele>44</ele>
        <time>2010-04-27T15:30:26Z</time>
      </trkpt>
      <trkpt lat="49.35382" lon="1.07967">
        <ele>44</ele>
        <time>2010-04-27T15:30:29Z</time>
      </trkpt>
      <trkpt lat="49.35386" lon="1.07959">
        <ele>44</ele>
        <time>2010-04-27T15:30:32Z</time>
      </trkpt>
      <trkpt lat="49.3539" lon="1.07952">
        <ele>44</ele>
        <time>2010-04-27T15:30:35Z</time>
      </trkpt>
      <trkpt lat="49.35393" lon="1.07945">
        <ele>44</ele>
        <time>2010-04-27T15:30:38Z</time>
      </trkpt>
      <trkpt lat="49.35397" lon="1.07938">
        <ele>44</ele>
        <time>2010-04-27T15:30:41Z</time>
      </trkpt>
      <trkpt lat="49.35401" lon="1.07931">
        <ele>44</ele>
        <time>2010-04-27T15:30:44Z</time>
      </trkpt>
      <trkpt lat="49.35405" lon="1.07925">
        <ele>44</ele>
        <time>2010-04-27T15:30:47Z</time>
      </trkpt>
      <trkpt lat="49.35409" lon="1.07917">
        <ele>44</ele>
        <time>2010-04-27T15:30:50Z</time>
      </trkpt>
      <trkpt lat="49.35413" lon="1.07911">
        <ele>44</ele>
        <time>2010-04-27T15:30:53Z</time>
      </trkpt>
      <trkpt lat="49.35418" lon="1.07906">
        <ele>44</ele>
        <time>2010-04-27T15:30:56Z</time>
      </trkpt>
      <trkpt lat="49.35422" lon="1.07896">
        <ele>44</ele>
        <time>2010-04-27T15:30:59Z</time>
      </trkpt>
      <trkpt lat="49.35427" lon="1.07887">
        <ele>44</ele>
        <time>2010-04-27T15:31:02Z</time>
      </trkpt>
      <trkpt lat="49.35431" lon="1.0788">
        <ele>44</ele>
        <time>2010-04-27T15:31:05Z</time>
      </trkpt>
      <trkpt lat="49.35436" lon="1.07871">
        <ele>44</ele>
        <time>2010-04-27T15:31:08Z</time>
      </trkpt>
      <trkpt lat="49.3544" lon="1.07863">
        <ele>44</ele>
        <time>2010-04-27T15:31:11Z</time>
      </trkpt>
      <trkpt lat="49.35445" lon="1.07856">
        <ele>45</ele>
        <time>2010-04-27T15:31:14Z</time>
      </trkpt>
      <trkpt lat="49.35449" lon="1.07847">
        <ele>46</ele>
        <time>2010-04-27T15:31:17Z</time>
      </trkpt>
      <trkpt lat="49.35455" lon="1.0784">
        <ele>47</ele>
        <time>2010-04-27T15:31:20Z</time>
      </trkpt>
      <trkpt lat="49.3546" lon="1.07833">
        <ele>49</ele>
        <time>2010-04-27T15:31:23Z</time>
      </trkpt>
      <trkpt lat="49.35465" lon="1.07826">
        <ele>50</ele>
        <time>2010-04-27T15:31:26Z</time>
      </trkpt>
      <trkpt lat="49.35469" lon="1.07817">
        <ele>51</ele>
        <time>2010-04-27T15:31:29Z</time>
      </trkpt>
      <trkpt lat="49.35473" lon="1.07809">
        <ele>52</ele>
        <time>2010-04-27T15:31:32Z</time>
      </trkpt>
      <trkpt lat="49.35477" lon="1.07801">
        <ele>52</ele>
        <time>2010-04-27T15:31:35Z</time>
      </trkpt>
      <trkpt lat="49.35483" lon="1.07795">
        <ele>53</ele>
        <time>2010-04-27T15:31:38Z</time>
      </trkpt>
      <trkpt lat="49.35488" lon="1.07788">
        <ele>53</ele>
        <time>2010-04-27T15:31:41Z</time>
      </trkpt>
      <trkpt lat="49.35492" lon="1.07782">
        <ele>53</ele>
        <time>2010-04-27T15:31:44Z</time>
      </trkpt>
      <trkpt lat="49.35497" lon="1.07775">
        <ele>53</ele>
        <time>2010-04-27T15:31:47Z</time>
      </trkpt>
      <trkpt lat="49.35502" lon="1.07769">
        <ele>53</ele>
        <time>2010-04-27T15:31:50Z</time>
      </trkpt>
      <trkpt lat="49.35507" lon="1.07764">
        <ele>53</ele>
        <time>2010-04-27T15:31:53Z</time>
      </trkpt>
      <trkpt lat="49.35511" lon="1.07758">
        <ele>53</ele>
        <time>2010-04-27T15:31:56Z</time>
      </trkpt>
      <trkpt lat="49.35517" lon="1.07751">
        <ele>53</ele>
        <time>2010-04-27T15:31:59Z</time>
      </trkpt>
      <trkpt lat="49.35522" lon="1.07744">
        <ele>53</ele>
        <time>2010-04-27T15:32:02Z</time>
      </trkpt>
      <trkpt lat="49.35527" lon="1.07736">
        <ele>52</ele>
        <time>2010-04-27T15:32:05Z</time>
      </trkpt>
      <trkpt lat="49.35531" lon="1.0773">
        <ele>50</ele>
        <time>2010-04-27T15:32:08Z</time>
      </trkpt>
      <trkpt lat="49.35534" lon="1.07723">
        <ele>49</ele>
        <time>2010-04-27T15:32:11Z</time>
      </trkpt>
      <trkpt lat="49.35539" lon="1.07717">
        <ele>48</ele>
        <time>2010-04-27T15:32:14Z</time>
      </trkpt>
      <trkpt lat="49.35542" lon="1.0771">
        <ele>48</ele>
        <time>2010-04-27T15:32:17Z</time>
      </trkpt>
      <trkpt lat="49.35547" lon="1.07702">
        <ele>47</ele>
        <time>2010-04-27T15:32:20Z</time>
      </trkpt>
      <trkpt lat="49.35551" lon="1.07695">
        <ele>45</ele>
        <time>2010-04-27T15:32:23Z</time>
      </trkpt>
      <trkpt lat="49.35556" lon="1.07688">
        <ele>44</ele>
        <time>2010-04-27T15:32:26Z</time>
      </trkpt>
      <trkpt lat="49.3556" lon="1.07681">
        <ele>43</ele>
        <time>2010-04-27T15:32:29Z</time>
      </trkpt>
      <trkpt lat="49.35565" lon="1.07674">
        <ele>42</ele>
        <time>2010-04-27T15:32:32Z</time>
      </trkpt>
      <trkpt lat="49.35568" lon="1.07668">
        <ele>41</ele>
        <time>2010-04-27T15:32:35Z</time>
      </trkpt>
      <trkpt lat="49.35571" lon="1.07661">
        <ele>40</ele>
        <time>2010-04-27T15:32:38Z</time>
      </trkpt>
      <trkpt lat="49.35575" lon="1.07656">
        <ele>37</ele>
        <time>2010-04-27T15:32:41Z</time>
      </trkpt>
      <trkpt lat="49.35579" lon="1.0765">
        <ele>34</ele>
        <time>2010-04-27T15:32:44Z</time>
      </trkpt>
      <trkpt lat="49.35582" lon="1.07644">
        <ele>32</ele>
        <time>2010-04-27T15:32:47Z</time>
      </trkpt>
      <trkpt lat="49.35585" lon="1.07638">
        <ele>29</ele>
        <time>2010-04-27T15:32:50Z</time>
      </trkpt>
      <trkpt lat="49.35588" lon="1.07631">
        <ele>26</ele>
        <time>2010-04-27T15:32:53Z</time>
      </trkpt>
      <trkpt lat="49.35591" lon="1.07624">
        <ele>23</ele>
        <time>2010-04-27T15:32:56Z</time>
      </trkpt>
      <trkpt lat="49.35595" lon="1.07619">
        <ele>20</ele>
        <time>2010-04-27T15:32:59Z</time>
      </trkpt>
      <trkpt lat="49.35598" lon="1.07614">
        <ele>18</ele>
        <time>2010-04-27T15:33:02Z</time>
      </trkpt>
      <trkpt lat="49.35602" lon="1.07608">
        <ele>15</ele>
        <time>2010-04-27T15:33:05Z</time>
      </trkpt>
      <trkpt lat="49.35605" lon="1.07602">
        <ele>12</ele>
        <time>2010-04-27T15:33:08Z</time>
      </trkpt>
      <trkpt lat="49.35608" lon="1.07597">
        <ele>9</ele>
        <time>2010-04-27T15:33:11Z</time>
      </trkpt>
      <trkpt lat="49.35612" lon="1.07591">
        <ele>6</ele>
        <time>2010-04-27T15:33:14Z</time>
      </trkpt>
      <trkpt lat="49.35616" lon="1.07585">
        <ele>3</ele>
        <time>2010-04-27T15:33:17Z</time>
      </trkpt>
      <trkpt lat="49.35619" lon="1.0758">
        <ele>67.4</ele>
        <time>2010-04-27T15:33:20Z</time>
      </trkpt>
      <trkpt lat="49.35623" lon="1.07574">
        <ele>67.6</ele>
        <time>2010-04-27T15:33:23Z</time>
      </trkpt>
      <trkpt lat="49.35627" lon="1.07568">
        <ele>67.8</ele>
        <time>2010-04-27T15:33:26Z</time>
      </trkpt>
      <trkpt lat="49.35632" lon="1.07548">
        <ele>68</ele>
        <time>2010-04-27T15:33:29Z</time>
      </trkpt>
      <trkpt lat="49.35638" lon="1.07548">
        <ele>68</ele>
        <time>2010-04-27T15:33:32Z</time>
      </trkpt>
      <trkpt lat="49.35645" lon="1.07549">
        <ele>1</ele>
        <time>2010-04-27T15:33:35Z</time>
      </trkpt>
      <trkpt lat="49.3565" lon="1.0755">
        <ele>3</ele>
        <time>2010-04-27T15:33:38Z</time>
      </trkpt>
      <trkpt lat="49.35658" lon="1.0755">
        <ele>6</ele>
        <time>2010-04-27T15:33:41Z</time>
      </trkpt>
      <trkpt lat="49.35664" lon="1.07551">
        <ele>9</ele>
        <time>2010-04-27T15:33:44Z</time>
      </trkpt>
      <trkpt lat="49.3567" lon="1.07549">
        <ele>12</ele>
        <time>2010-04-27T15:33:47Z</time>
      </trkpt>
      <trkpt lat="49.35676" lon="1.07547">
        <ele>15</ele>
        <time>2010-04-27T15:33:50Z</time>
      </trkpt>
      <trkpt lat="49.35683" lon="1.07546">
        <ele>18</ele>
        <time>2010-04-27T15:33:53Z</time>
      </trkpt>
      <trkpt lat="49.35688" lon="1.07547">
        <ele>21</ele>
        <time>2010-04-27T15:33:56Z</time>
      </trkpt>
      <trkpt lat="49.35695" lon="1.07548">
        <ele>24</ele>
        <time>2010-04-27T15:33:59Z</time>
      </trkpt>
      <trkpt lat="49.357" lon="1.07548">
        <ele>27</ele>
        <time>2010-04-27T15:34:02Z</time>
      </trkpt>
      <trkpt lat="49.35706" lon="1.07551">
        <ele>30</ele>
        <time>2010-04-27T15:34:05Z</time>
      </trkpt>
      <trkpt lat="49.35712" lon="1.07555">
        <ele>33</ele>
        <time>2010-04-27T15:34:08Z</time>
      </trkpt>
      <trkpt lat="49.35718" lon="1.07559">
        <ele>33</ele>
        <time>2010-04-27T15:34:11Z</time>
      </trkpt>
      <trkpt lat="49.35724" lon="1.07563">
        <ele>34</ele>
        <time>2010-04-27T15:34:14Z</time>
      </trkpt>
      <trkpt lat="49.35728" lon="1.07566">
        <ele>34</ele>
        <time>2010-04-27T15:34:17Z</time>
      </trkpt>
      <trkpt lat="49.35734" lon="1.07569">
        <ele>34</ele>
        <time>2010-04-27T15:34:20Z</time>
      </trkpt>
      <trkpt lat="49.35741" lon="1.07574">
        <ele>35</ele>
        <time>2010-04-27T15:34:23Z</time>
      </trkpt>
      <trkpt lat="49.35748" lon="1.07579">
        <ele>37</ele>
        <time>2010-04-27T15:34:26Z</time>
      </trkpt>
      <trkpt lat="49.35755" lon="1.07582">
        <ele>38</ele>
        <time>2010-04-27T15:34:29Z</time>
      </trkpt>
      <trkpt lat="49.3576" lon="1.07586">
        <ele>38</ele>
        <time>2010-04-27T15:34:32Z</time>
      </trkpt>
      <trkpt lat="49.35766" lon="1.0759">
        <ele>38</ele>
        <time>2010-04-27T15:34:35Z</time>
      </trkpt>
      <trkpt lat="49.35774" lon="1.07595">
        <ele>38</ele>
        <time>2010-04-27T15:34:38Z</time>
      </trkpt>
      <trkpt lat="49.35782" lon="1.07599">
        <ele>40</ele>
        <time>2010-04-27T15:34:41Z</time>
      </trkpt>
      <trkpt lat="49.35788" lon="1.07602">
        <ele>41</ele>
        <time>2010-04-27T15:34:44Z</time>
      </trkpt>
      <trkpt lat="49.35796" lon="1.07608">
        <ele>41</ele>
        <time>2010-04-27T15:34:47Z</time>
      </trkpt>
      <trkpt lat="49.35804" lon="1.07613">
        <ele>42</ele>
        <time>2010-04-27T15:34:50Z</time>
      </trkpt>
      <trkpt lat="49.35812" lon="1.07618">
        <ele>43</ele>
        <time>2010-04-27T15:34:53Z</time>
      </trkpt>
      <trkpt lat="49.3582" lon="1.07623">
        <ele>45</ele>
        <time>2010-04-27T15:34:56Z</time>
      </trkpt>
      <trkpt lat="49.35828" lon="1.07628">
        <ele>46</ele>
        <time>2010-04-27T15:34:59Z</time>
      </trkpt>
      <trkpt lat="49.35834" lon="1.07632">
        <ele>46</ele>
        <time>2010-04-27T15:35:02Z</time>
      </trkpt>
      <trkpt lat="49.35843" lon="1.07638">
        <ele>47</ele>
        <time>2010-04-27T15:35:05Z</time>
      </trkpt>
      <trkpt lat="49.35849" lon="1.07642">
        <ele>48</ele>
        <time>2010-04-27T15:35:08Z</time>
      </trkpt>
      <trkpt lat="49.35857" lon="1.07647">
        <ele>49</ele>
        <time>2010-04-27T15:35:11Z</time>
      </trkpt>
      <trkpt lat="49.35864" lon="1.07653">
        <ele>50</ele>
        <time>2010-04-27T15:35:14Z</time>
      </trkpt>
      <trkpt lat="49.35871" lon="1.07658">
        <ele>50</ele>
        <time>2010-04-27T15:35:17Z</time>
      </trkpt>
      <trkpt lat="49.35875" lon="1.07661">
        <ele>50</ele>
        <time>2010-04-27T15:35:20Z</time>
      </trkpt>
      <trkpt lat="49.35881" lon="1.07665">
        <ele>50</ele>
        <time>2010-04-27T15:35:23Z</time>
      </trkpt>
      <trkpt lat="49.35887" lon="1.07669">
        <ele>50</ele>
        <time>2010-04-27T15:35:26Z</time>
      </trkpt>
      <trkpt lat="49.35894" lon="1.07674">
        <ele>50</ele>
        <time>2010-04-27T15:35:29Z</time>
      </trkpt>
      <trkpt lat="49.359" lon="1.0768">
        <ele>50</ele>
        <time>2010-04-27T15:35:32Z</time>
      </trkpt>
      <trkpt lat="49.35905" lon="1.07684">
        <ele>50</ele>
        <time>2010-04-27T15:35:35Z</time>
      </trkpt>
      <trkpt lat="49.35912" lon="1.07689">
        <ele>50</ele>
        <time>2010-04-27T15:35:38Z</time>
      </trkpt>
      <trkpt lat="49.3592" lon="1.07694">
        <ele>51</ele>
        <time>2010-04-27T15:35:41Z</time>
      </trkpt>
      <trkpt lat="49.35928" lon="1.07698">
        <ele>53</ele>
        <time>2010-04-27T15:35:44Z</time>
      </trkpt>
      <trkpt lat="49.35935" lon="1.07703">
        <ele>53</ele>
        <time>2010-04-27T15:35:47Z</time>
      </trkpt>
      <trkpt lat="49.35941" lon="1.07709">
        <ele>54</ele>
        <time>2010-04-27T15:35:50Z</time>
      </trkpt>
      <trkpt lat="49.35949" lon="1.07714">
        <ele>54</ele>
        <time>2010-04-27T15:35:53Z</time>
      </trkpt>
      <trkpt lat="49.35954" lon="1.07717">
        <ele>54</ele>
        <time>2010-04-27T15:35:56Z</time>
      </trkpt>
      <trkpt lat="49.3596" lon="1.07721">
        <ele>54</ele>
        <time>2010-04-27T15:35:59Z</time>
      </trkpt>
      <trkpt lat="49.35964" lon="1.07725">
        <ele>54</ele>
        <time>2010-04-27T15:36:02Z</time>
      </trkpt>
      <trkpt lat="49.3597" lon="1.07729">
        <ele>54</ele>
        <time>2010-04-27T15:36:05Z</time>
      </trkpt>
      <trkpt lat="49.35976" lon="1.07734">
        <ele>54</ele>
        <time>2010-04-27T15:36:08Z</time>
      </trkpt>
      <trkpt lat="49.35983" lon="1.07738">
        <ele>54</ele>
        <time>2010-04-27T15:36:11Z</time>
      </trkpt>
      <trkpt lat="49.35989" lon="1.07742">
        <ele>54</ele>
        <time>2010-04-27T15:36:14Z</time>
      </trkpt>
      <trkpt lat="49.35997" lon="1.07747">
        <ele>54</ele>
        <time>2010-04-27T15:36:17Z</time>
      </trkpt>
      <trkpt lat="49.36003" lon="1.07752">
        <ele>54</ele>
        <time>2010-04-27T15:36:20Z</time>
      </trkpt>
      <trkpt lat="49.3601" lon="1.07757">
        <ele>54</ele>
        <time>2010-04-27T15:36:23Z</time>
      </trkpt>
      <trkpt lat="49.36016" lon="1.07762">
        <ele>54</ele>
        <time>2010-04-27T15:36:27Z</time>
      </trkpt>
      <trkpt lat="49.36023" lon="1.07767">
        <ele>54</ele>
        <time>2010-04-27T15:36:30Z</time>
      </trkpt>
      <trkpt lat="49.3603" lon="1.07772">
        <ele>54</ele>
        <time>2010-04-27T15:36:33Z</time>
      </trkpt>
      <trkpt lat="49.36036" lon="1.07776">
        <ele>54</ele>
        <time>2010-04-27T15:36:36Z</time>
      </trkpt>
      <trkpt lat="49.36042" lon="1.0778">
        <ele>54</ele>
        <time>2010-04-27T15:36:39Z</time>
      </trkpt>
      <trkpt lat="49.36049" lon="1.07785">
        <ele>54</ele>
        <time>2010-04-27T15:36:42Z</time>
      </trkpt>
      <trkpt lat="49.36056" lon="1.0779">
        <ele>54</ele>
        <time>2010-04-27T15:36:45Z</time>
      </trkpt>
      <trkpt lat="49.36063" lon="1.07795">
        <ele>54</ele>
        <time>2010-04-27T15:36:48Z</time>
      </trkpt>
      <trkpt lat="49.36067" lon="1.07799">
        <ele>54</ele>
        <time>2010-04-27T15:36:52Z</time>
      </trkpt>
      <trkpt lat="49.36075" lon="1.07804">
        <ele>54</ele>
        <time>2010-04-27T15:36:55Z</time>
      </trkpt>
      <trkpt lat="49.3608" lon="1.07803">
        <ele>54</ele>
        <time>2010-04-27T15:36:58Z</time>
      </trkpt>
      <trkpt lat="49.36084" lon="1.07797">
        <ele>54</ele>
        <time>2010-04-27T15:37:01Z</time>
      </trkpt>
      <trkpt lat="49.36086" lon="1.07792">
        <ele>54</ele>
        <time>2010-04-27T15:37:04Z</time>
      </trkpt>
      <trkpt lat="49.36088" lon="1.07785">
        <ele>54</ele>
        <time>2010-04-27T15:37:07Z</time>
      </trkpt>
      <trkpt lat="49.36091" lon="1.07777">
        <ele>54</ele>
        <time>2010-04-27T15:37:10Z</time>
      </trkpt>
      <trkpt lat="49.36094" lon="1.07769">
        <ele>54</ele>
        <time>2010-04-27T15:37:13Z</time>
      </trkpt>
      <trkpt lat="49.36096" lon="1.07762">
        <ele>54</ele>
        <time>2010-04-27T15:37:16Z</time>
      </trkpt>
      <trkpt lat="49.36098" lon="1.07754">
        <ele>54</ele>
        <time>2010-04-27T15:37:19Z</time>
      </trkpt>
      <trkpt lat="49.36099" lon="1.07745">
        <ele>54</ele>
        <time>2010-04-27T15:37:22Z</time>
      </trkpt>
      <trkpt lat="49.36101" lon="1.07737">
        <ele>53</ele>
        <time>2010-04-27T15:37:25Z</time>
      </trkpt>
      <trkpt lat="49.36105" lon="1.07728">
        <ele>53</ele>
        <time>2010-04-27T15:37:28Z</time>
      </trkpt>
      <trkpt lat="49.3611" lon="1.0772">
        <ele>53</ele>
        <time>2010-04-27T15:37:31Z</time>
      </trkpt>
      <trkpt lat="49.36112" lon="1.07711">
        <ele>53</ele>
        <time>2010-04-27T15:37:34Z</time>
      </trkpt>
      <trkpt lat="49.36114" lon="1.07703">
        <ele>53</ele>
        <time>2010-04-27T15:37:37Z</time>
      </trkpt>
      <trkpt lat="49.36117" lon="1.07695">
        <ele>53</ele>
        <time>2010-04-27T15:37:40Z</time>
      </trkpt>
      <trkpt lat="49.3612" lon="1.07688">
        <ele>53</ele>
        <time>2010-04-27T15:37:43Z</time>
      </trkpt>
      <trkpt lat="49.36123" lon="1.07682">
        <ele>53</ele>
        <time>2010-04-27T15:37:46Z</time>
      </trkpt>
      <trkpt lat="49.36126" lon="1.07675">
        <ele>53</ele>
        <time>2010-04-27T15:37:49Z</time>
      </trkpt>
      <trkpt lat="49.3613" lon="1.07669">
        <ele>53</ele>
        <time>2010-04-27T15:37:52Z</time>
      </trkpt>
      <trkpt lat="49.36135" lon="1.07662">
        <ele>53</ele>
        <time>2010-04-27T15:37:55Z</time>
      </trkpt>
      <trkpt lat="49.36138" lon="1.07656">
        <ele>53</ele>
        <time>2010-04-27T15:37:58Z</time>
      </trkpt>
      <trkpt lat="49.36142" lon="1.07649">
        <ele>53</ele>
        <time>2010-04-27T15:38:01Z</time>
      </trkpt>
      <trkpt lat="49.36146" lon="1.07643">
        <ele>53</ele>
        <time>2010-04-27T15:38:04Z</time>
      </trkpt>
      <trkpt lat="49.36149" lon="1.07636">
        <ele>53</ele>
        <time>2010-04-27T15:38:07Z</time>
      </trkpt>
      <trkpt lat="49.36152" lon="1.07629">
        <ele>53</ele>
        <time>2010-04-27T15:38:10Z</time>
      </trkpt>
      <trkpt lat="49.36154" lon="1.07623">
        <ele>52</ele>
        <time>2010-04-27T15:38:13Z</time>
      </trkpt>
      <trkpt lat="49.36156" lon="1.07615">
        <ele>50</ele>
        <time>2010-04-27T15:38:16Z</time>
      </trkpt>
      <trkpt lat="49.36157" lon="1.07609">
        <ele>48</ele>
        <time>2010-04-27T15:38:19Z</time>
      </trkpt>
      <trkpt lat="49.36158" lon="1.07602">
        <ele>45</ele>
        <time>2010-04-27T15:38:22Z</time>
      </trkpt>
      <trkpt lat="49.36159" lon="1.07589">
        <ele>43</ele>
        <time>2010-04-27T15:38:25Z</time>
      </trkpt>
      <trkpt lat="49.36162" lon="1.07583">
        <ele>41</ele>
        <time>2010-04-27T15:38:28Z</time>
      </trkpt>
      <trkpt lat="49.36165" lon="1.07576">
        <ele>39</ele>
        <time>2010-04-27T15:38:31Z</time>
      </trkpt>
      <trkpt lat="49.36168" lon="1.07568">
        <ele>37</ele>
        <time>2010-04-27T15:38:34Z</time>
      </trkpt>
      <trkpt lat="49.36172" lon="1.07562">
        <ele>36</ele>
        <time>2010-04-27T15:38:37Z</time>
      </trkpt>
      <trkpt lat="49.36174" lon="1.07554">
        <ele>35</ele>
        <time>2010-04-27T15:38:40Z</time>
      </trkpt>
      <trkpt lat="49.36176" lon="1.07547">
        <ele>33</ele>
        <time>2010-04-27T15:38:43Z</time>
      </trkpt>
      <trkpt lat="49.36178" lon="1.0754">
        <ele>31</ele>
        <time>2010-04-27T15:38:46Z</time>
      </trkpt>
      <trkpt lat="49.36182" lon="1.07534">
        <ele>30</ele>
        <time>2010-04-27T15:38:49Z</time>
      </trkpt>
      <trkpt lat="49.36184" lon="1.07527">
        <ele>29</ele>
        <time>2010-04-27T15:38:52Z</time>
      </trkpt>
      <trkpt lat="49.36186" lon="1.0752">
        <ele>28</ele>
        <time>2010-04-27T15:38:55Z</time>
      </trkpt>
      <trkpt lat="49.36188" lon="1.07513">
        <ele>27</ele>
        <time>2010-04-27T15:38:58Z</time>
      </trkpt>
      <trkpt lat="49.36191" lon="1.07506">
        <ele>25</ele>
        <time>2010-04-27T15:39:01Z</time>
      </trkpt>
      <trkpt lat="49.36193" lon="1.07499">
        <ele>23</ele>
        <time>2010-04-27T15:39:04Z</time>
      </trkpt>
      <trkpt lat="49.36195" lon="1.07491">
        <ele>22</ele>
        <time>2010-04-27T15:39:07Z</time>
      </trkpt>
      <trkpt lat="49.36198" lon="1.07482">
        <ele>21</ele>
        <time>2010-04-27T15:39:10Z</time>
      </trkpt>
      <trkpt lat="49.36201" lon="1.07475">
        <ele>20</ele>
        <time>2010-04-27T15:39:13Z</time>
      </trkpt>
      <trkpt lat="49.36203" lon="1.07466">
        <ele>19</ele>
        <time>2010-04-27T15:39:16Z</time>
      </trkpt>
      <trkpt lat="49.36205" lon="1.07458">
        <ele>18</ele>
        <time>2010-04-27T15:39:19Z</time>
      </trkpt>
      <trkpt lat="49.36207" lon="1.0745">
        <ele>16</ele>
        <time>2010-04-27T15:39:22Z</time>
      </trkpt>
      <trkpt lat="49.36209" lon="1.07443">
        <ele>14</ele>
        <time>2010-04-27T15:39:25Z</time>
      </trkpt>
      <trkpt lat="49.36211" lon="1.07436">
        <ele>13</ele>
        <time>2010-04-27T15:39:28Z</time>
      </trkpt>
      <trkpt lat="49.36214" lon="1.07427">
        <ele>11</ele>
        <time>2010-04-27T15:39:31Z</time>
      </trkpt>
      <trkpt lat="49.36217" lon="1.07419">
        <ele>10</ele>
        <time>2010-04-27T15:39:34Z</time>
      </trkpt>
      <trkpt lat="49.36219" lon="1.07412">
        <ele>8</ele>
        <time>2010-04-27T15:39:37Z</time>
      </trkpt>
      <trkpt lat="49.36222" lon="1.07403">
        <ele>6</ele>
        <time>2010-04-27T15:39:40Z</time>
      </trkpt>
      <trkpt lat="49.36224" lon="1.07393">
        <ele>5</ele>
        <time>2010-04-27T15:39:43Z</time>
      </trkpt>
      <trkpt lat="49.36227" lon="1.07385">
        <ele>3</ele>
        <time>2010-04-27T15:39:46Z</time>
      </trkpt>
      <trkpt lat="49.36229" lon="1.07378">
        <ele>1</ele>
        <time>2010-04-27T15:39:49Z</time>
      </trkpt>
      <trkpt lat="49.36232" lon="1.0737">
        <ele>74.7</ele>
        <time>2010-04-27T15:39:52Z</time>
      </trkpt>
      <trkpt lat="49.36235" lon="1.07363">
        <ele>74.9</ele>
        <time>2010-04-27T15:39:55Z</time>
      </trkpt>
      <trkpt lat="49.36237" lon="1.07355">
        <ele>75.2</ele>
        <time>2010-04-27T15:39:58Z</time>
      </trkpt>
      <trkpt lat="49.36239" lon="1.07348">
        <ele>75.5</ele>
        <time>2010-04-27T15:40:01Z</time>
      </trkpt>
      <trkpt lat="49.36241" lon="1.0734">
        <ele>-3</ele>
        <time>2010-04-27T15:40:04Z</time>
      </trkpt>
      <trkpt lat="49.36242" lon="1.07332">
        <ele>-4</ele>
        <time>2010-04-27T15:40:07Z</time>
      </trkpt>
      <trkpt lat="49.36244" lon="1.07324">
        <ele>-8</ele>
        <time>2010-04-27T15:40:10Z</time>
      </trkpt>
      <trkpt lat="49.36248" lon="1.07315">
        <ele>-10</ele>
        <time>2010-04-27T15:40:13Z</time>
      </trkpt>
      <trkpt lat="49.3625" lon="1.07307">
        <ele>-13</ele>
        <time>2010-04-27T15:40:16Z</time>
      </trkpt>
      <trkpt lat="49.36252" lon="1.07299">
        <ele>-15</ele>
        <time>2010-04-27T15:40:19Z</time>
      </trkpt>
      <trkpt lat="49.36255" lon="1.0729">
        <ele>-16</ele>
        <time>2010-04-27T15:40:22Z</time>
      </trkpt>
      <trkpt lat="49.36258" lon="1.07281">
        <ele>-19</ele>
        <time>2010-04-27T15:40:25Z</time>
      </trkpt>
      <trkpt lat="49.36261" lon="1.07272">
        <ele>-19</ele>
        <time>2010-04-27T15:40:28Z</time>
      </trkpt>
      <trkpt lat="49.36263" lon="1.07262">
        <ele>-20</ele>
        <time>2010-04-27T15:40:31Z</time>
      </trkpt>
      <trkpt lat="49.36266" lon="1.07253">
        <ele>-21</ele>
        <time>2010-04-27T15:40:34Z</time>
      </trkpt>
      <trkpt lat="49.36269" lon="1.07244">
        <ele>-21</ele>
        <time>2010-04-27T15:40:37Z</time>
      </trkpt>
      <trkpt lat="49.36272" lon="1.07234">
        <ele>-22</ele>
        <time>2010-04-27T15:40:40Z</time>
      </trkpt>
      <trkpt lat="49.36274" lon="1.07225">
        <ele>-22</ele>
        <time>2010-04-27T15:40:43Z</time>
      </trkpt>
      <trkpt lat="49.36277" lon="1.07216">
        <ele>-22</ele>
        <time>2010-04-27T15:40:46Z</time>
      </trkpt>
      <trkpt lat="49.3628" lon="1.07207">
        <ele>-24</ele>
        <time>2010-04-27T15:40:49Z</time>
      </trkpt>
      <trkpt lat="49.36283" lon="1.07197">
        <ele>-24</ele>
        <time>2010-04-27T15:40:52Z</time>
      </trkpt>
      <trkpt lat="49.36286" lon="1.07188">
        <ele>-24</ele>
        <time>2010-04-27T15:40:55Z</time>
      </trkpt>
      <trkpt lat="49.36289" lon="1.07179">
        <ele>-25</ele>
        <time>2010-04-27T15:40:58Z</time>
      </trkpt>
      <trkpt lat="49.36292" lon="1.0717">
        <ele>-25</ele>
        <time>2010-04-27T15:41:01Z</time>
      </trkpt>
      <trkpt lat="49.36295" lon="1.07161">
        <ele>-26</ele>
        <time>2010-04-27T15:41:04Z</time>
      </trkpt>
      <trkpt lat="49.36297" lon="1.07152">
        <ele>-27</ele>
        <time>2010-04-27T15:41:07Z</time>
      </trkpt>
      <trkpt lat="49.36301" lon="1.07144">
        <ele>-28</ele>
        <time>2010-04-27T15:41:10Z</time>
      </trkpt>
      <trkpt lat="49.36304" lon="1.07136">
        <ele>-30</ele>
        <time>2010-04-27T15:41:13Z</time>
      </trkpt>
      <trkpt lat="49.36308" lon="1.07127">
        <ele>-31</ele>
        <time>2010-04-27T15:41:16Z</time>
      </trkpt>
      <trkpt lat="49.3631" lon="1.07117">
        <ele>-32</ele>
        <time>2010-04-27T15:41:19Z</time>
      </trkpt>
      <trkpt lat="49.36313" lon="1.07109">
        <ele>-33</ele>
        <time>2010-04-27T15:41:22Z</time>
      </trkpt>
      <trkpt lat="49.36315" lon="1.071">
        <ele>-34</ele>
        <time>2010-04-27T15:41:25Z</time>
      </trkpt>
      <trkpt lat="49.36318" lon="1.07091">
        <ele>-36</ele>
        <time>2010-04-27T15:41:28Z</time>
      </trkpt>
      <trkpt lat="49.36321" lon="1.07082">
        <ele>-37</ele>
        <time>2010-04-27T15:41:31Z</time>
      </trkpt>
      <trkpt lat="49.36324" lon="1.07072">
        <ele>-38</ele>
        <time>2010-04-27T15:41:34Z</time>
      </trkpt>
      <trkpt lat="49.36327" lon="1.07063">
        <ele>-39</ele>
        <time>2010-04-27T15:41:37Z</time>
      </trkpt>
      <trkpt lat="49.36329" lon="1.07054">
        <ele>-39</ele>
        <time>2010-04-27T15:41:40Z</time>
      </trkpt>
      <trkpt lat="49.36332" lon="1.07044">
        <ele>-40</ele>
        <time>2010-04-27T15:41:43Z</time>
      </trkpt>
      <trkpt lat="49.36335" lon="1.07036">
        <ele>-42</ele>
        <time>2010-04-27T15:41:46Z</time>
      </trkpt>
      <trkpt lat="49.36338" lon="1.07028">
        <ele>-42</ele>
        <time>2010-04-27T15:41:49Z</time>
      </trkpt>
      <trkpt lat="49.36342" lon="1.07017">
        <ele>-42</ele>
        <time>2010-04-27T15:41:52Z</time>
      </trkpt>
      <trkpt lat="49.36345" lon="1.07008">
        <ele>-43</ele>
        <time>2010-04-27T15:41:55Z</time>
      </trkpt>
      <trkpt lat="49.36347" lon="1.06999">
        <ele>-43</ele>
        <time>2010-04-27T15:41:58Z</time>
      </trkpt>
      <trkpt lat="49.3635" lon="1.06989">
        <ele>-44</ele>
        <time>2010-04-27T15:42:01Z</time>
      </trkpt>
      <trkpt lat="49.36352" lon="1.0698">
        <ele>-44</ele>
        <time>2010-04-27T15:42:04Z</time>
      </trkpt>
      <trkpt lat="49.36355" lon="1.0697">
        <ele>-44</ele>
        <time>2010-04-27T15:42:07Z</time>
      </trkpt>
      <trkpt lat="49.36358" lon="1.06961">
        <ele>-44</ele>
        <time>2010-04-27T15:42:10Z</time>
      </trkpt>
      <trkpt lat="49.36361" lon="1.06951">
        <ele>-44</ele>
        <time>2010-04-27T15:42:13Z</time>
      </trkpt>
      <trkpt lat="49.36364" lon="1.06942">
        <ele>-44</ele>
        <time>2010-04-27T15:42:16Z</time>
      </trkpt>
      <trkpt lat="49.36366" lon="1.06931">
        <ele>-44</ele>
        <time>2010-04-27T15:42:19Z</time>
      </trkpt>
      <trkpt lat="49.36369" lon="1.06921">
        <ele>-44</ele>
        <time>2010-04-27T15:42:22Z</time>
      </trkpt>
      <trkpt lat="49.36372" lon="1.06912">
        <ele>-44</ele>
        <time>2010-04-27T15:42:25Z</time>
      </trkpt>
      <trkpt lat="49.36375" lon="1.06903">
        <ele>-44</ele>
        <time>2010-04-27T15:42:28Z</time>
      </trkpt>
      <trkpt lat="49.36377" lon="1.06893">
        <ele>-44</ele>
        <time>2010-04-27T15:42:31Z</time>
      </trkpt>
      <trkpt lat="49.3638" lon="1.06884">
        <ele>-44</ele>
        <time>2010-04-27T15:42:34Z</time>
      </trkpt>
      <trkpt lat="49.36383" lon="1.06874">
        <ele>-44</ele>
        <time>2010-04-27T15:42:37Z</time>
      </trkpt>
      <trkpt lat="49.36387" lon="1.06861">
        <ele>-44</ele>
        <time>2010-04-27T15:42:40Z</time>
      </trkpt>
      <trkpt lat="49.36389" lon="1.06852">
        <ele>-44</ele>
        <time>2010-04-27T15:42:43Z</time>
      </trkpt>
      <trkpt lat="49.36391" lon="1.06843">
        <ele>-44</ele>
        <time>2010-04-27T15:42:46Z</time>
      </trkpt>
      <trkpt lat="49.36393" lon="1.06833">
        <ele>-43</ele>
        <time>2010-04-27T15:42:49Z</time>
      </trkpt>
      <trkpt lat="49.36397" lon="1.06824">
        <ele>-43</ele>
        <time>2010-04-27T15:42:52Z</time>
      </trkpt>
      <trkpt lat="49.364" lon="1.06815">
        <ele>-43</ele>
        <time>2010-04-27T15:42:55Z</time>
      </trkpt>
      <trkpt lat="49.36403" lon="1.06806">
        <ele>-43</ele>
        <time>2010-04-27T15:42:58Z</time>
      </trkpt>
      <trkpt lat="49.36407" lon="1.06797">
        <ele>-43</ele>
        <time>2010-04-27T15:43:01Z</time>
      </trkpt>
      <trkpt lat="49.3641" lon="1.06787">
        <ele>-43</ele>
        <time>2010-04-27T15:43:04Z</time>
      </trkpt>
      <trkpt lat="49.36414" lon="1.06778">
        <ele>-43</ele>
        <time>2010-04-27T15:43:07Z</time>
      </trkpt>
      <trkpt lat="49.36417" lon="1.06769">
        <ele>-43</ele>
        <time>2010-04-27T15:43:10Z</time>
      </trkpt>
      <trkpt lat="49.36421" lon="1.0676">
        <ele>-43</ele>
        <time>2010-04-27T15:43:13Z</time>
      </trkpt>
      <trkpt lat="49.36424" lon="1.0675">
        <ele>-43</ele>
        <time>2010-04-27T15:43:16Z</time>
      </trkpt>
      <trkpt lat="49.36424" lon="1.06739">
        <ele>-43</ele>
        <time>2010-04-27T15:43:19Z</time>
      </trkpt>
      <trkpt lat="49.36428" lon="1.06718">
        <ele>-40</ele>
        <time>2010-04-27T15:43:22Z</time>
      </trkpt>
      <trkpt lat="49.36425" lon="1.06711">
        <ele>-32</ele>
        <time>2010-04-27T15:43:25Z</time>
      </trkpt>
      <trkpt lat="49.3642" lon="1.06709">
        <ele>-21</ele>
        <time>2010-04-27T15:43:28Z</time>
      </trkpt>
      <trkpt lat="49.36415" lon="1.06705">
        <ele>-14</ele>
        <time>2010-04-27T15:43:31Z</time>
      </trkpt>
      <trkpt lat="49.36412" lon="1.06696">
        <ele>-7</ele>
        <time>2010-04-27T15:43:34Z</time>
      </trkpt>
      <trkpt lat="49.36406" lon="1.06694">
        <ele>80</ele>
        <time>2010-04-27T15:43:37Z</time>
      </trkpt>
      <trkpt lat="49.36401" lon="1.06692">
        <ele>2</ele>
        <time>2010-04-27T15:43:40Z</time>
      </trkpt>
      <trkpt lat="49.36396" lon="1.06689">
        <ele>4</ele>
        <time>2010-04-27T15:43:43Z</time>
      </trkpt>
      <trkpt lat="49.36391" lon="1.06687">
        <ele>5</ele>
        <time>2010-04-27T15:43:46Z</time>
      </trkpt>
      <trkpt lat="49.36385" lon="1.06684">
        <ele>6</ele>
        <time>2010-04-27T15:43:49Z</time>
      </trkpt>
      <trkpt lat="49.36378" lon="1.06682">
        <ele>8</ele>
        <time>2010-04-27T15:43:52Z</time>
      </trkpt>
      <trkpt lat="49.36371" lon="1.06675">
        <ele>11</ele>
        <time>2010-04-27T15:43:55Z</time>
      </trkpt>
      <trkpt lat="49.36367" lon="1.0667">
        <ele>15</ele>
        <time>2010-04-27T15:43:58Z</time>
      </trkpt>
      <trkpt lat="49.36363" lon="1.06667">
        <ele>21</ele>
        <time>2010-04-27T15:44:01Z</time>
      </trkpt>
      <trkpt lat="49.36358" lon="1.06663">
        <ele>26</ele>
        <time>2010-04-27T15:44:04Z</time>
      </trkpt>
      <trkpt lat="49.36353" lon="1.0666">
        <ele>29</ele>
        <time>2010-04-27T15:44:07Z</time>
      </trkpt>
      <trkpt lat="49.36347" lon="1.06658">
        <ele>32</ele>
        <time>2010-04-27T15:44:10Z</time>
      </trkpt>
      <trkpt lat="49.36343" lon="1.06654">
        <ele>35</ele>
        <time>2010-04-27T15:44:13Z</time>
      </trkpt>
      <trkpt lat="49.36337" lon="1.06648">
        <ele>38</ele>
        <time>2010-04-27T15:44:16Z</time>
      </trkpt>
      <trkpt lat="49.36331" lon="1.06646">
        <ele>41</ele>
        <time>2010-04-27T15:44:19Z</time>
      </trkpt>
      <trkpt lat="49.36325" lon="1.06644">
        <ele>44</ele>
        <time>2010-04-27T15:44:22Z</time>
      </trkpt>
      <trkpt lat="49.36318" lon="1.0664">
        <ele>47</ele>
        <time>2010-04-27T15:44:25Z</time>
      </trkpt>
      <trkpt lat="49.36309" lon="1.0664">
        <ele>49</ele>
        <time>2010-04-27T15:44:28Z</time>
      </trkpt>
      <trkpt lat="49.36302" lon="1.06639">
        <ele>51</ele>
        <time>2010-04-27T15:44:31Z</time>
      </trkpt>
      <trkpt lat="49.36295" lon="1.06637">
        <ele>52</ele>
        <time>2010-04-27T15:44:34Z</time>
      </trkpt>
      <trkpt lat="49.36288" lon="1.06637">
        <ele>52</ele>
        <time>2010-04-27T15:44:37Z</time>
      </trkpt>
      <trkpt lat="49.3628" lon="1.06636">
        <ele>53</ele>
        <time>2010-04-27T15:44:40Z</time>
      </trkpt>
      <trkpt lat="49.36275" lon="1.06637">
        <ele>53</ele>
        <time>2010-04-27T15:44:43Z</time>
      </trkpt>
      <trkpt lat="49.36267" lon="1.06636">
        <ele>53</ele>
        <time>2010-04-27T15:44:46Z</time>
      </trkpt>
      <trkpt lat="49.36258" lon="1.06636">
        <ele>54</ele>
        <time>2010-04-27T15:44:49Z</time>
      </trkpt>
      <trkpt lat="49.36249" lon="1.06636">
        <ele>55</ele>
        <time>2010-04-27T15:44:52Z</time>
      </trkpt>
      <trkpt lat="49.3624" lon="1.06635">
        <ele>58</ele>
        <time>2010-04-27T15:44:55Z</time>
      </trkpt>
      <trkpt lat="49.36232" lon="1.06635">
        <ele>60</ele>
        <time>2010-04-27T15:44:58Z</time>
      </trkpt>
      <trkpt lat="49.36225" lon="1.06634">
        <ele>61</ele>
        <time>2010-04-27T15:45:01Z</time>
      </trkpt>
      <trkpt lat="49.36218" lon="1.06634">
        <ele>61</ele>
        <time>2010-04-27T15:45:04Z</time>
      </trkpt>
      <trkpt lat="49.36211" lon="1.06634">
        <ele>62</ele>
        <time>2010-04-27T15:45:07Z</time>
      </trkpt>
      <trkpt lat="49.36204" lon="1.06633">
        <ele>63</ele>
        <time>2010-04-27T15:45:10Z</time>
      </trkpt>
      <trkpt lat="49.36198" lon="1.06633">
        <ele>64</ele>
        <time>2010-04-27T15:45:13Z</time>
      </trkpt>
      <trkpt lat="49.36191" lon="1.06632">
        <ele>64</ele>
        <time>2010-04-27T15:45:16Z</time>
      </trkpt>
      <trkpt lat="49.36183" lon="1.06631">
        <ele>65</ele>
        <time>2010-04-27T15:45:19Z</time>
      </trkpt>
      <trkpt lat="49.36176" lon="1.06631">
        <ele>66</ele>
        <time>2010-04-27T15:45:22Z</time>
      </trkpt>
      <trkpt lat="49.36168" lon="1.0663">
        <ele>67</ele>
        <time>2010-04-27T15:45:25Z</time>
      </trkpt>
      <trkpt lat="49.3616" lon="1.0663">
        <ele>68</ele>
        <time>2010-04-27T15:45:28Z</time>
      </trkpt>
      <trkpt lat="49.36153" lon="1.0663">
        <ele>70</ele>
        <time>2010-04-27T15:45:31Z</time>
      </trkpt>
      <trkpt lat="49.36146" lon="1.06629">
        <ele>71</ele>
        <time>2010-04-27T15:45:34Z</time>
      </trkpt>
      <trkpt lat="49.36139" lon="1.0663">
        <ele>72</ele>
        <time>2010-04-27T15:45:37Z</time>
      </trkpt>
      <trkpt lat="49.36132" lon="1.0663">
        <ele>73</ele>
        <time>2010-04-27T15:45:40Z</time>
      </trkpt>
      <trkpt lat="49.36125" lon="1.06632">
        <ele>75</ele>
        <time>2010-04-27T15:45:43Z</time>
      </trkpt>
      <trkpt lat="49.36119" lon="1.06634">
        <ele>77</ele>
        <time>2010-04-27T15:45:46Z</time>
      </trkpt>
      <trkpt lat="49.36112" lon="1.06635">
        <ele>78</ele>
        <time>2010-04-27T15:45:49Z</time>
      </trkpt>
      <trkpt lat="49.36104" lon="1.06636">
        <ele>78</ele>
        <time>2010-04-27T15:45:52Z</time>
      </trkpt>
      <trkpt lat="49.36097" lon="1.06637">
        <ele>79</ele>
        <time>2010-04-27T15:45:55Z</time>
      </trkpt>
      <trkpt lat="49.3609" lon="1.06638">
        <ele>80</ele>
        <time>2010-04-27T15:45:58Z</time>
      </trkpt>
      <trkpt lat="49.36084" lon="1.06639">
        <ele>80</ele>
        <time>2010-04-27T15:46:01Z</time>
      </trkpt>
      <trkpt lat="49.36079" lon="1.06638">
        <ele>80</ele>
        <time>2010-04-27T15:46:04Z</time>
      </trkpt>
      <trkpt lat="49.36072" lon="1.06637">
        <ele>80</ele>
        <time>2010-04-27T15:46:07Z</time>
      </trkpt>
      <trkpt lat="49.36068" lon="1.06637">
        <ele>80</ele>
        <time>2010-04-27T15:46:10Z</time>
      </trkpt>
      <trkpt lat="49.36063" lon="1.06638">
        <ele>80</ele>
        <time>2010-04-27T15:46:13Z</time>
      </trkpt>
      <trkpt lat="49.36057" lon="1.06639">
        <ele>80</ele>
        <time>2010-04-27T15:46:16Z</time>
      </trkpt>
      <trkpt lat="49.36049" lon="1.06638">
        <ele>80</ele>
        <time>2010-04-27T15:46:19Z</time>
      </trkpt>
      <trkpt lat="49.36044" lon="1.06639">
        <ele>80</ele>
        <time>2010-04-27T15:46:22Z</time>
      </trkpt>
      <trkpt lat="49.36036" lon="1.06638">
        <ele>80</ele>
        <time>2010-04-27T15:46:25Z</time>
      </trkpt>
      <trkpt lat="49.36027" lon="1.06636">
        <ele>80</ele>
        <time>2010-04-27T15:46:28Z</time>
      </trkpt>
      <trkpt lat="49.3602" lon="1.06636">
        <ele>79</ele>
        <time>2010-04-27T15:46:31Z</time>
      </trkpt>
      <trkpt lat="49.36012" lon="1.06635">
        <ele>78</ele>
        <time>2010-04-27T15:46:34Z</time>
      </trkpt>
      <trkpt lat="49.36004" lon="1.06634">
        <ele>78</ele>
        <time>2010-04-27T15:46:37Z</time>
      </trkpt>
      <trkpt lat="49.35996" lon="1.06634">
        <ele>78</ele>
        <time>2010-04-27T15:46:40Z</time>
      </trkpt>
      <trkpt lat="49.35989" lon="1.06636">
        <ele>78</ele>
        <time>2010-04-27T15:46:43Z</time>
      </trkpt>
      <trkpt lat="49.35981" lon="1.06635">
        <ele>78</ele>
        <time>2010-04-27T15:46:46Z</time>
      </trkpt>
      <trkpt lat="49.35975" lon="1.06637">
        <ele>80</ele>
        <time>2010-04-27T15:46:49Z</time>
      </trkpt>
      <trkpt lat="49.35968" lon="1.06639">
        <ele>81</ele>
        <time>2010-04-27T15:46:52Z</time>
      </trkpt>
      <trkpt lat="49.35962" lon="1.06639">
        <ele>81</ele>
        <time>2010-04-27T15:46:55Z</time>
      </trkpt>
      <trkpt lat="49.35956" lon="1.06639">
        <ele>82</ele>
        <time>2010-04-27T15:46:58Z</time>
      </trkpt>
      <trkpt lat="49.35951" lon="1.0664">
        <ele>82</ele>
        <time>2010-04-27T15:47:01Z</time>
      </trkpt>
      <trkpt lat="49.35944" lon="1.06638">
        <ele>82</ele>
        <time>2010-04-27T15:47:04Z</time>
      </trkpt>
      <trkpt lat="49.35938" lon="1.06638">
        <ele>82</ele>
        <time>2010-04-27T15:47:07Z</time>
      </trkpt>
      <trkpt lat="49.35929" lon="1.06636">
        <ele>82</ele>
        <time>2010-04-27T15:47:10Z</time>
      </trkpt>
      <trkpt lat="49.35921" lon="1.06635">
        <ele>82</ele>
        <time>2010-04-27T15:47:13Z</time>
      </trkpt>
      <trkpt lat="49.35914" lon="1.06634">
        <ele>82</ele>
        <time>2010-04-27T15:47:16Z</time>
      </trkpt>
      <trkpt lat="49.35908" lon="1.06633">
        <ele>82</ele>
        <time>2010-04-27T15:47:19Z</time>
      </trkpt>
      <trkpt lat="49.35902" lon="1.06632">
        <ele>81</ele>
        <time>2010-04-27T15:47:22Z</time>
      </trkpt>
      <trkpt lat="49.35896" lon="1.06633">
        <ele>80</ele>
        <time>2010-04-27T15:47:25Z</time>
      </trkpt>
      <trkpt lat="49.35888" lon="1.06635">
        <ele>80</ele>
        <time>2010-04-27T15:47:28Z</time>
      </trkpt>
      <trkpt lat="49.3588" lon="1.06633">
        <ele>80</ele>
        <time>2010-04-27T15:47:31Z</time>
      </trkpt>
      <trkpt lat="49.35872" lon="1.06633">
        <ele>80</ele>
        <time>2010-04-27T15:47:34Z</time>
      </trkpt>
      <trkpt lat="49.35864" lon="1.06633">
        <ele>80</ele>
        <time>2010-04-27T15:47:37Z</time>
      </trkpt>
      <trkpt lat="49.35857" lon="1.06633">
        <ele>79</ele>
        <time>2010-04-27T15:47:40Z</time>
      </trkpt>
      <trkpt lat="49.3585" lon="1.06632">
        <ele>79</ele>
        <time>2010-04-27T15:47:43Z</time>
      </trkpt>
      <trkpt lat="49.35843" lon="1.06632">
        <ele>78</ele>
        <time>2010-04-27T15:47:46Z</time>
      </trkpt>
      <trkpt lat="49.35836" lon="1.06632">
        <ele>78</ele>
        <time>2010-04-27T15:47:49Z</time>
      </trkpt>
      <trkpt lat="49.3583" lon="1.06633">
        <ele>78</ele>
        <time>2010-04-27T15:47:52Z</time>
      </trkpt>
      <trkpt lat="49.35823" lon="1.06633">
        <ele>78</ele>
        <time>2010-04-27T15:47:55Z</time>
      </trkpt>
      <trkpt lat="49.35815" lon="1.06633">
        <ele>78</ele>
        <time>2010-04-27T15:47:58Z</time>
      </trkpt>
      <trkpt lat="49.35809" lon="1.06632">
        <ele>78</ele>
        <time>2010-04-27T15:48:01Z</time>
      </trkpt>
      <trkpt lat="49.358" lon="1.06631">
        <ele>78</ele>
        <time>2010-04-27T15:48:04Z</time>
      </trkpt>
      <trkpt lat="49.35792" lon="1.06633">
        <ele>78</ele>
        <time>2010-04-27T15:48:07Z</time>
      </trkpt>
      <trkpt lat="49.35786" lon="1.06635">
        <ele>78</ele>
        <time>2010-04-27T15:48:10Z</time>
      </trkpt>
      <trkpt lat="49.35779" lon="1.06634">
        <ele>78</ele>
        <time>2010-04-27T15:48:13Z</time>
      </trkpt>
      <trkpt lat="49.35773" lon="1.06635">
        <ele>78</ele>
        <time>2010-04-27T15:48:16Z</time>
      </trkpt>
      <trkpt lat="49.35766" lon="1.06634">
        <ele>78</ele>
        <time>2010-04-27T15:48:19Z</time>
      </trkpt>
      <trkpt lat="49.3576" lon="1.06635">
        <ele>78</ele>
        <time>2010-04-27T15:48:22Z</time>
      </trkpt>
      <trkpt lat="49.35752" lon="1.06633">
        <ele>78</ele>
        <time>2010-04-27T15:48:25Z</time>
      </trkpt>
      <trkpt lat="49.35745" lon="1.06632">
        <ele>78</ele>
        <time>2010-04-27T15:48:28Z</time>
      </trkpt>
      <trkpt lat="49.35739" lon="1.06634">
        <ele>78</ele>
        <time>2010-04-27T15:48:31Z</time>
      </trkpt>
      <trkpt lat="49.35732" lon="1.06634">
        <ele>78</ele>
        <time>2010-04-27T15:48:34Z</time>
      </trkpt>
      <trkpt lat="49.35724" lon="1.06634">
        <ele>78</ele>
        <time>2010-04-27T15:48:37Z</time>
      </trkpt>
      <trkpt lat="49.35717" lon="1.06632">
        <ele>78</ele>
        <time>2010-04-27T15:48:40Z</time>
      </trkpt>
      <trkpt lat="49.3571" lon="1.06632">
        <ele>78</ele>
        <time>2010-04-27T15:48:43Z</time>
      </trkpt>
      <trkpt lat="49.35702" lon="1.06631">
        <ele>78</ele>
        <time>2010-04-27T15:48:46Z</time>
      </trkpt>
      <trkpt lat="49.35694" lon="1.06631">
        <ele>78</ele>
        <time>2010-04-27T15:48:49Z</time>
      </trkpt>
      <trkpt lat="49.35686" lon="1.06632">
        <ele>78</ele>
        <time>2010-04-27T15:48:52Z</time>
      </trkpt>
      <trkpt lat="49.35677" lon="1.06632">
        <ele>78</ele>
        <time>2010-04-27T15:48:55Z</time>
      </trkpt>
      <trkpt lat="49.35669" lon="1.06633">
        <ele>78</ele>
        <time>2010-04-27T15:48:58Z</time>
      </trkpt>
      <trkpt lat="49.35664" lon="1.06634">
        <ele>78</ele>
        <time>2010-04-27T15:49:01Z</time>
      </trkpt>
      <trkpt lat="49.35658" lon="1.06634">
        <ele>78</ele>
        <time>2010-04-27T15:49:04Z</time>
      </trkpt>
      <trkpt lat="49.35653" lon="1.06636">
        <ele>78</ele>
        <time>2010-04-27T15:49:07Z</time>
      </trkpt>
      <trkpt lat="49.35647" lon="1.06636">
        <ele>78</ele>
        <time>2010-04-27T15:49:10Z</time>
      </trkpt>
      <trkpt lat="49.3564" lon="1.06636">
        <ele>78</ele>
        <time>2010-04-27T15:49:13Z</time>
      </trkpt>
      <trkpt lat="49.35634" lon="1.06637">
        <ele>78</ele>
        <time>2010-04-27T15:49:16Z</time>
      </trkpt>
      <trkpt lat="49.35629" lon="1.06638">
        <ele>78</ele>
        <time>2010-04-27T15:49:19Z</time>
      </trkpt>
      <trkpt lat="49.35623" lon="1.06638">
        <ele>78</ele>
        <time>2010-04-27T15:49:22Z</time>
      </trkpt>
      <trkpt lat="49.35616" lon="1.06637">
        <ele>78</ele>
        <time>2010-04-27T15:49:25Z</time>
      </trkpt>
      <trkpt lat="49.3561" lon="1.06643">
        <ele>78</ele>
        <time>2010-04-27T15:49:28Z</time>
      </trkpt>
      <trkpt lat="49.35605" lon="1.06651">
        <ele>78</ele>
        <time>2010-04-27T15:49:31Z</time>
      </trkpt>
      <trkpt lat="49.35602" lon="1.0666">
        <ele>78</ele>
        <time>2010-04-27T15:49:34Z</time>
      </trkpt>
      <trkpt lat="49.35597" lon="1.06673">
        <ele>78</ele>
        <time>2010-04-27T15:49:37Z</time>
      </trkpt>
      <trkpt lat="49.35593" lon="1.06685">
        <ele>80</ele>
        <time>2010-04-27T15:49:40Z</time>
      </trkpt>
      <trkpt lat="49.35588" lon="1.06697">
        <ele>82</ele>
        <time>2010-04-27T15:49:43Z</time>
      </trkpt>
      <trkpt lat="49.35585" lon="1.06706">
        <ele>83</ele>
        <time>2010-04-27T15:49:46Z</time>
      </trkpt>
      <trkpt lat="49.35581" lon="1.06714">
        <ele>84</ele>
        <time>2010-04-27T15:49:49Z</time>
      </trkpt>
      <trkpt lat="49.35579" lon="1.06723">
        <ele>84</ele>
        <time>2010-04-27T15:49:52Z</time>
      </trkpt>
      <trkpt lat="49.35577" lon="1.06732">
        <ele>84</ele>
        <time>2010-04-27T15:49:55Z</time>
      </trkpt>
      <trkpt lat="49.35576" lon="1.0674">
        <ele>84</ele>
        <time>2010-04-27T15:49:58Z</time>
      </trkpt>
      <trkpt lat="49.35575" lon="1.06748">
        <ele>84</ele>
        <time>2010-04-27T15:50:01Z</time>
      </trkpt>
      <trkpt lat="49.35572" lon="1.06758">
        <ele>86</ele>
        <time>2010-04-27T15:50:04Z</time>
      </trkpt>
      <trkpt lat="49.35569" lon="1.06766">
        <ele>87</ele>
        <time>2010-04-27T15:50:07Z</time>
      </trkpt>
      <trkpt lat="49.35569" lon="1.06776">
        <ele>88</ele>
        <time>2010-04-27T15:50:10Z</time>
      </trkpt>
      <trkpt lat="49.35565" lon="1.06787">
        <ele>91</ele>
        <time>2010-04-27T15:50:13Z</time>
      </trkpt>
      <trkpt lat="49.35565" lon="1.06797">
        <ele>92</ele>
        <time>2010-04-27T15:50:17Z</time>
      </trkpt>
      <trkpt lat="49.35562" lon="1.06806">
        <ele>92</ele>
        <time>2010-04-27T15:50:20Z</time>
      </trkpt>
      <trkpt lat="49.35556" lon="1.06818">
        <ele>92</ele>
        <time>2010-04-27T15:50:23Z</time>
      </trkpt>
      <trkpt lat="49.3555" lon="1.06828">
        <ele>92</ele>
        <time>2010-04-27T15:50:26Z</time>
      </trkpt>
      <trkpt lat="49.35547" lon="1.0684">
        <ele>92</ele>
        <time>2010-04-27T15:50:29Z</time>
      </trkpt>
      <trkpt lat="49.35542" lon="1.06851">
        <ele>91</ele>
        <time>2010-04-27T15:50:32Z</time>
      </trkpt>
      <trkpt lat="49.35537" lon="1.06862">
        <ele>91</ele>
        <time>2010-04-27T15:50:35Z</time>
      </trkpt>
      <trkpt lat="49.35532" lon="1.06873">
        <ele>91</ele>
        <time>2010-04-27T15:50:38Z</time>
      </trkpt>
      <trkpt lat="49.35528" lon="1.06885">
        <ele>91</ele>
        <time>2010-04-27T15:50:41Z</time>
      </trkpt>
      <trkpt lat="49.35525" lon="1.06894">
        <ele>91</ele>
        <time>2010-04-27T15:50:44Z</time>
      </trkpt>
      <trkpt lat="49.35521" lon="1.06902">
        <ele>91</ele>
        <time>2010-04-27T15:50:47Z</time>
      </trkpt>
      <trkpt lat="49.35518" lon="1.06912">
        <ele>90</ele>
        <time>2010-04-27T15:50:50Z</time>
      </trkpt>
      <trkpt lat="49.35514" lon="1.06924">
        <ele>89</ele>
        <time>2010-04-27T15:50:53Z</time>
      </trkpt>
      <trkpt lat="49.35511" lon="1.06934">
        <ele>87</ele>
        <time>2010-04-27T15:50:56Z</time>
      </trkpt>
      <trkpt lat="49.35509" lon="1.06943">
        <ele>86</ele>
        <time>2010-04-27T15:50:59Z</time>
      </trkpt>
      <trkpt lat="49.35507" lon="1.06951">
        <ele>86</ele>
        <time>2010-04-27T15:51:02Z</time>
      </trkpt>
      <trkpt lat="49.35505" lon="1.06958">
        <ele>85</ele>
        <time>2010-04-27T15:51:05Z</time>
      </trkpt>
      <trkpt lat="49.35503" lon="1.06966">
        <ele>84</ele>
        <time>2010-04-27T15:51:08Z</time>
      </trkpt>
      <trkpt lat="49.355" lon="1.06975">
        <ele>82</ele>
        <time>2010-04-27T15:51:11Z</time>
      </trkpt>
      <trkpt lat="49.35497" lon="1.06984">
        <ele>80</ele>
        <time>2010-04-27T15:51:14Z</time>
      </trkpt>
      <trkpt lat="49.35494" lon="1.06992">
        <ele>78</ele>
        <time>2010-04-27T15:51:17Z</time>
      </trkpt>
      <trkpt lat="49.35491" lon="1.07002">
        <ele>78</ele>
        <time>2010-04-27T15:51:20Z</time>
      </trkpt>
      <trkpt lat="49.35489" lon="1.07012">
        <ele>77</ele>
        <time>2010-04-27T15:51:23Z</time>
      </trkpt>
      <trkpt lat="49.35485" lon="1.07022">
        <ele>76</ele>
        <time>2010-04-27T15:51:26Z</time>
      </trkpt>
      <trkpt lat="49.35483" lon="1.07031">
        <ele>75</ele>
        <time>2010-04-27T15:51:29Z</time>
      </trkpt>
      <trkpt lat="49.3548" lon="1.0704">
        <ele>74</ele>
        <time>2010-04-27T15:51:32Z</time>
      </trkpt>
      <trkpt lat="49.35476" lon="1.07049">
        <ele>73</ele>
        <time>2010-04-27T15:51:35Z</time>
      </trkpt>
      <trkpt lat="49.35473" lon="1.07059">
        <ele>72</ele>
        <time>2010-04-27T15:51:38Z</time>
      </trkpt>
      <trkpt lat="49.3547" lon="1.07069">
        <ele>71</ele>
        <time>2010-04-27T15:51:41Z</time>
      </trkpt>
      <trkpt lat="49.35466" lon="1.0708">
        <ele>71</ele>
        <time>2010-04-27T15:51:44Z</time>
      </trkpt>
      <trkpt lat="49.35464" lon="1.07091">
        <ele>71</ele>
        <time>2010-04-27T15:51:47Z</time>
      </trkpt>
      <trkpt lat="49.35466" lon="1.07103">
        <ele>70</ele>
        <time>2010-04-27T15:51:50Z</time>
      </trkpt>
      <trkpt lat="49.3547" lon="1.0711">
        <ele>70</ele>
        <time>2010-04-27T15:51:53Z</time>
      </trkpt>
      <trkpt lat="49.35475" lon="1.07115">
        <ele>70</ele>
        <time>2010-04-27T15:51:56Z</time>
      </trkpt>
      <trkpt lat="49.3548" lon="1.0712">
        <ele>70</ele>
        <time>2010-04-27T15:51:59Z</time>
      </trkpt>
      <trkpt lat="49.35486" lon="1.07124">
        <ele>70</ele>
        <time>2010-04-27T15:52:02Z</time>
      </trkpt>
      <trkpt lat="49.35491" lon="1.07128">
        <ele>70</ele>
        <time>2010-04-27T15:52:05Z</time>
      </trkpt>
      <trkpt lat="49.35497" lon="1.07133">
        <ele>70</ele>
        <time>2010-04-27T15:52:08Z</time>
      </trkpt>
      <trkpt lat="49.35503" lon="1.07138">
        <ele>71</ele>
        <time>2010-04-27T15:52:11Z</time>
      </trkpt>
      <trkpt lat="49.35509" lon="1.07142">
        <ele>72</ele>
        <time>2010-04-27T15:52:14Z</time>
      </trkpt>
      <trkpt lat="49.35516" lon="1.07147">
        <ele>73</ele>
        <time>2010-04-27T15:52:17Z</time>
      </trkpt>
      <trkpt lat="49.35524" lon="1.07153">
        <ele>74</ele>
        <time>2010-04-27T15:52:20Z</time>
      </trkpt>
      <trkpt lat="49.35531" lon="1.07159">
        <ele>76</ele>
        <time>2010-04-27T15:52:23Z</time>
      </trkpt>
      <trkpt lat="49.35537" lon="1.07162">
        <ele>77</ele>
        <time>2010-04-27T15:52:26Z</time>
      </trkpt>
      <trkpt lat="49.35545" lon="1.07166">
        <ele>77</ele>
        <time>2010-04-27T15:52:29Z</time>
      </trkpt>
      <trkpt lat="49.35552" lon="1.0717">
        <ele>78</ele>
        <time>2010-04-27T15:52:32Z</time>
      </trkpt>
      <trkpt lat="49.35558" lon="1.07175">
        <ele>79</ele>
        <time>2010-04-27T15:52:35Z</time>
      </trkpt>
      <trkpt lat="49.35565" lon="1.07179">
        <ele>79</ele>
        <time>2010-04-27T15:52:38Z</time>
      </trkpt>
      <trkpt lat="49.3557" lon="1.07183">
        <ele>79</ele>
        <time>2010-04-27T15:52:41Z</time>
      </trkpt>
      <trkpt lat="49.35576" lon="1.07187">
        <ele>79</ele>
        <time>2010-04-27T15:52:44Z</time>
      </trkpt>
      <trkpt lat="49.35584" lon="1.07192">
        <ele>79</ele>
        <time>2010-04-27T15:52:47Z</time>
      </trkpt>
      <trkpt lat="49.35589" lon="1.07197">
        <ele>79</ele>
        <time>2010-04-27T15:52:50Z</time>
      </trkpt>
      <trkpt lat="49.35596" lon="1.07201">
        <ele>79</ele>
        <time>2010-04-27T15:52:53Z</time>
      </trkpt>
      <trkpt lat="49.35602" lon="1.07205">
        <ele>79</ele>
        <time>2010-04-27T15:52:56Z</time>
      </trkpt>
      <trkpt lat="49.35607" lon="1.07209">
        <ele>79</ele>
        <time>2010-04-27T15:52:59Z</time>
      </trkpt>
      <trkpt lat="49.35614" lon="1.07214">
        <ele>79</ele>
        <time>2010-04-27T15:53:02Z</time>
      </trkpt>
      <trkpt lat="49.35621" lon="1.07219">
        <ele>79</ele>
        <time>2010-04-27T15:53:05Z</time>
      </trkpt>
      <trkpt lat="49.35629" lon="1.07223">
        <ele>79</ele>
        <time>2010-04-27T15:53:08Z</time>
      </trkpt>
      <trkpt lat="49.35634" lon="1.07227">
        <ele>79</ele>
        <time>2010-04-27T15:53:11Z</time>
      </trkpt>
      <trkpt lat="49.35639" lon="1.07231">
        <ele>79</ele>
        <time>2010-04-27T15:53:14Z</time>
      </trkpt>
      <trkpt lat="49.35645" lon="1.07236">
        <ele>79</ele>
        <time>2010-04-27T15:53:17Z</time>
      </trkpt>
      <trkpt lat="49.35652" lon="1.07242">
        <ele>79</ele>
        <time>2010-04-27T15:53:20Z</time>
      </trkpt>
      <trkpt lat="49.35658" lon="1.07247">
        <ele>79</ele>
        <time>2010-04-27T15:53:23Z</time>
      </trkpt>
      <trkpt lat="49.35665" lon="1.07251">
        <ele>79</ele>
        <time>2010-04-27T15:53:26Z</time>
      </trkpt>
      <trkpt lat="49.35672" lon="1.07254">
        <ele>80</ele>
        <time>2010-04-27T15:53:29Z</time>
      </trkpt>
      <trkpt lat="49.35678" lon="1.07259">
        <ele>81</ele>
        <time>2010-04-27T15:53:32Z</time>
      </trkpt>
      <trkpt lat="49.35683" lon="1.07263">
        <ele>82</ele>
        <time>2010-04-27T15:53:35Z</time>
      </trkpt>
      <trkpt lat="49.3569" lon="1.07267">
        <ele>82</ele>
        <time>2010-04-27T15:53:38Z</time>
      </trkpt>
      <trkpt lat="49.35695" lon="1.07272">
        <ele>82</ele>
        <time>2010-04-27T15:53:41Z</time>
      </trkpt>
      <trkpt lat="49.35701" lon="1.07277">
        <ele>83</ele>
        <time>2010-04-27T15:53:44Z</time>
      </trkpt>
      <trkpt lat="49.35706" lon="1.0728">
        <ele>83</ele>
        <time>2010-04-27T15:53:47Z</time>
      </trkpt>
      <trkpt lat="49.35712" lon="1.07284">
        <ele>83</ele>
        <time>2010-04-27T15:53:50Z</time>
      </trkpt>
      <trkpt lat="49.35718" lon="1.07288">
        <ele>83</ele>
        <time>2010-04-27T15:53:53Z</time>
      </trkpt>
      <trkpt lat="49.35723" lon="1.07293">
        <ele>83</ele>
        <time>2010-04-27T15:53:56Z</time>
      </trkpt>
      <trkpt lat="49.3573" lon="1.07297">
        <ele>83</ele>
        <time>2010-04-27T15:53:59Z</time>
      </trkpt>
      <trkpt lat="49.35734" lon="1.07301">
        <ele>83</ele>
        <time>2010-04-27T15:54:02Z</time>
      </trkpt>
      <trkpt lat="49.35739" lon="1.07308">
        <ele>83</ele>
        <time>2010-04-27T15:54:05Z</time>
      </trkpt>
      <trkpt lat="49.35739" lon="1.07317">
        <ele>83</ele>
        <time>2010-04-27T15:54:08Z</time>
      </trkpt>
      <trkpt lat="49.35735" lon="1.07326">
        <ele>80</ele>
        <time>2010-04-27T15:54:11Z</time>
      </trkpt>
      <trkpt lat="49.35731" lon="1.07335">
        <ele>77</ele>
        <time>2010-04-27T15:54:14Z</time>
      </trkpt>
      <trkpt lat="49.35726" lon="1.07343">
        <ele>75</ele>
        <time>2010-04-27T15:54:17Z</time>
      </trkpt>
      <trkpt lat="49.35722" lon="1.07351">
        <ele>75</ele>
        <time>2010-04-27T15:54:20Z</time>
      </trkpt>
      <trkpt lat="49.35718" lon="1.07359">
        <ele>75</ele>
        <time>2010-04-27T15:54:23Z</time>
      </trkpt>
      <trkpt lat="49.35713" lon="1.07368">
        <ele>75</ele>
        <time>2010-04-27T15:54:26Z</time>
      </trkpt>
      <trkpt lat="49.35709" lon="1.07376">
        <ele>75</ele>
        <time>2010-04-27T15:54:29Z</time>
      </trkpt>
      <trkpt lat="49.35705" lon="1.07384">
        <ele>75</ele>
        <time>2010-04-27T15:54:32Z</time>
      </trkpt>
      <trkpt lat="49.357" lon="1.07394">
        <ele>75</ele>
        <time>2010-04-27T15:54:35Z</time>
      </trkpt>
      <trkpt lat="49.35695" lon="1.07403">
        <ele>75</ele>
        <time>2010-04-27T15:54:38Z</time>
      </trkpt>
      <trkpt lat="49.35691" lon="1.07412">
        <ele>75</ele>
        <time>2010-04-27T15:54:41Z</time>
      </trkpt>
      <trkpt lat="49.35686" lon="1.07421">
        <ele>75</ele>
        <time>2010-04-27T15:54:44Z</time>
      </trkpt>
      <trkpt lat="49.35682" lon="1.0743">
        <ele>75</ele>
        <time>2010-04-27T15:54:47Z</time>
      </trkpt>
      <trkpt lat="49.35677" lon="1.07438">
        <ele>75</ele>
        <time>2010-04-27T15:54:50Z</time>
      </trkpt>
      <trkpt lat="49.35673" lon="1.07447">
        <ele>75</ele>
        <time>2010-04-27T15:54:53Z</time>
      </trkpt>
      <trkpt lat="49.35669" lon="1.07455">
        <ele>75</ele>
        <time>2010-04-27T15:54:56Z</time>
      </trkpt>
      <trkpt lat="49.35664" lon="1.07463">
        <ele>75</ele>
        <time>2010-04-27T15:54:59Z</time>
      </trkpt>
      <trkpt lat="49.35658" lon="1.07472">
        <ele>75</ele>
        <time>2010-04-27T15:55:02Z</time>
      </trkpt>
      <trkpt lat="49.35654" lon="1.07481">
        <ele>75</ele>
        <time>2010-04-27T15:55:05Z</time>
      </trkpt>
      <trkpt lat="49.3565" lon="1.07489">
        <ele>75</ele>
        <time>2010-04-27T15:55:08Z</time>
      </trkpt>
      <trkpt lat="49.35646" lon="1.07497">
        <ele>75</ele>
        <time>2010-04-27T15:55:11Z</time>
      </trkpt>
      <trkpt lat="49.3564" lon="1.07507">
        <ele>75</ele>
        <time>2010-04-27T15:55:14Z</time>
      </trkpt>
      <trkpt lat="49.35635" lon="1.07516">
        <ele>75</ele>
        <time>2010-04-27T15:55:17Z</time>
      </trkpt>
      <trkpt lat="49.3563" lon="1.07525">
        <ele>75</ele>
        <time>2010-04-27T15:55:20Z</time>
      </trkpt>
      <trkpt lat="49.35627" lon="1.07533">
        <ele>75</ele>
        <time>2010-04-27T15:55:23Z</time>
      </trkpt>
      <trkpt lat="49.35622" lon="1.07541">
        <ele>75</ele>
        <time>2010-04-27T15:55:26Z</time>
      </trkpt>
      <trkpt lat="49.35619" lon="1.07549">
        <ele>75</ele>
        <time>2010-04-27T15:55:29Z</time>
      </trkpt>
      <trkpt lat="49.35615" lon="1.07558">
        <ele>75</ele>
        <time>2010-04-27T15:55:32Z</time>
      </trkpt>
      <trkpt lat="49.35609" lon="1.07567">
        <ele>75</ele>
        <time>2010-04-27T15:55:35Z</time>
      </trkpt>
      <trkpt lat="49.35605" lon="1.07574">
        <ele>75</ele>
        <time>2010-04-27T15:55:38Z</time>
      </trkpt>
      <trkpt lat="49.35601" lon="1.07584">
        <ele>75</ele>
        <time>2010-04-27T15:55:41Z</time>
      </trkpt>
      <trkpt lat="49.35596" lon="1.07594">
        <ele>75</ele>
        <time>2010-04-27T15:55:44Z</time>
      </trkpt>
      <trkpt lat="49.35592" lon="1.07603">
        <ele>75</ele>
        <time>2010-04-27T15:55:47Z</time>
      </trkpt>
      <trkpt lat="49.35587" lon="1.07611">
        <ele>75</ele>
        <time>2010-04-27T15:55:50Z</time>
      </trkpt>
      <trkpt lat="49.35583" lon="1.07619">
        <ele>75</ele>
        <time>2010-04-27T15:55:53Z</time>
      </trkpt>
      <trkpt lat="49.35577" lon="1.0763">
        <ele>75</ele>
        <time>2010-04-27T15:55:56Z</time>
      </trkpt>
      <trkpt lat="49.35571" lon="1.07641">
        <ele>75</ele>
        <time>2010-04-27T15:55:59Z</time>
      </trkpt>
      <trkpt lat="49.35565" lon="1.0765">
        <ele>75</ele>
        <time>2010-04-27T15:56:02Z</time>
      </trkpt>
      <trkpt lat="49.35561" lon="1.07656">
        <ele>75</ele>
        <time>2010-04-27T15:56:05Z</time>
      </trkpt>
      <trkpt lat="49.35557" lon="1.07665">
        <ele>75</ele>
        <time>2010-04-27T15:56:08Z</time>
      </trkpt>
      <trkpt lat="49.35553" lon="1.07674">
        <ele>75</ele>
        <time>2010-04-27T15:56:11Z</time>
      </trkpt>
      <trkpt lat="49.35548" lon="1.07684">
        <ele>75</ele>
        <time>2010-04-27T15:56:14Z</time>
      </trkpt>
      <trkpt lat="49.35543" lon="1.07693">
        <ele>75</ele>
        <time>2010-04-27T15:56:17Z</time>
      </trkpt>
      <trkpt lat="49.35538" lon="1.07702">
        <ele>75</ele>
        <time>2010-04-27T15:56:20Z</time>
      </trkpt>
      <trkpt lat="49.35533" lon="1.07711">
        <ele>75</ele>
        <time>2010-04-27T15:56:23Z</time>
      </trkpt>
      <trkpt lat="49.35527" lon="1.0772">
        <ele>75</ele>
        <time>2010-04-27T15:56:26Z</time>
      </trkpt>
      <trkpt lat="49.35521" lon="1.07729">
        <ele>75</ele>
        <time>2010-04-27T15:56:29Z</time>
      </trkpt>
      <trkpt lat="49.35516" lon="1.07739">
        <ele>74</ele>
        <time>2010-04-27T15:56:32Z</time>
      </trkpt>
      <trkpt lat="49.3551" lon="1.07748">
        <ele>74</ele>
        <time>2010-04-27T15:56:35Z</time>
      </trkpt>
      <trkpt lat="49.35505" lon="1.07757">
        <ele>74</ele>
        <time>2010-04-27T15:56:38Z</time>
      </trkpt>
      <trkpt lat="49.35499" lon="1.07767">
        <ele>74</ele>
        <time>2010-04-27T15:56:41Z</time>
      </trkpt>
      <trkpt lat="49.35493" lon="1.07776">
        <ele>73</ele>
        <time>2010-04-27T15:56:44Z</time>
      </trkpt>
      <trkpt lat="49.35487" lon="1.07784">
        <ele>72</ele>
        <time>2010-04-27T15:56:47Z</time>
      </trkpt>
      <trkpt lat="49.35481" lon="1.07795">
        <ele>72</ele>
        <time>2010-04-27T15:56:50Z</time>
      </trkpt>
      <trkpt lat="49.35475" lon="1.07805">
        <ele>72</ele>
        <time>2010-04-27T15:56:53Z</time>
      </trkpt>
      <trkpt lat="49.35469" lon="1.07815">
        <ele>72</ele>
        <time>2010-04-27T15:56:56Z</time>
      </trkpt>
      <trkpt lat="49.35464" lon="1.07824">
        <ele>71</ele>
        <time>2010-04-27T15:56:59Z</time>
      </trkpt>
      <trkpt lat="49.35459" lon="1.07833">
        <ele>70</ele>
        <time>2010-04-27T15:57:02Z</time>
      </trkpt>
      <trkpt lat="49.35453" lon="1.07844">
        <ele>69</ele>
        <time>2010-04-27T15:57:05Z</time>
      </trkpt>
      <trkpt lat="49.35448" lon="1.07852">
        <ele>69</ele>
        <time>2010-04-27T15:57:08Z</time>
      </trkpt>
      <trkpt lat="49.35443" lon="1.07862">
        <ele>68</ele>
        <time>2010-04-27T15:57:11Z</time>
      </trkpt>
      <trkpt lat="49.35438" lon="1.07872">
        <ele>68</ele>
        <time>2010-04-27T15:57:14Z</time>
      </trkpt>
      <trkpt lat="49.35432" lon="1.07882">
        <ele>67</ele>
        <time>2010-04-27T15:57:17Z</time>
      </trkpt>
      <trkpt lat="49.35428" lon="1.07891">
        <ele>67</ele>
        <time>2010-04-27T15:57:20Z</time>
      </trkpt>
      <trkpt lat="49.35424" lon="1.079">
        <ele>67</ele>
        <time>2010-04-27T15:57:23Z</time>
      </trkpt>
      <trkpt lat="49.35418" lon="1.0791">
        <ele>67</ele>
        <time>2010-04-27T15:57:26Z</time>
      </trkpt>
      <trkpt lat="49.35413" lon="1.07918">
        <ele>66</ele>
        <time>2010-04-27T15:57:29Z</time>
      </trkpt>
      <trkpt lat="49.35408" lon="1.0793">
        <ele>66</ele>
        <time>2010-04-27T15:57:32Z</time>
      </trkpt>
      <trkpt lat="49.35403" lon="1.07939">
        <ele>66</ele>
        <time>2010-04-27T15:57:35Z</time>
      </trkpt>
      <trkpt lat="49.35399" lon="1.07948">
        <ele>66</ele>
        <time>2010-04-27T15:57:38Z</time>
      </trkpt>
      <trkpt lat="49.35394" lon="1.07956">
        <ele>66</ele>
        <time>2010-04-27T15:57:41Z</time>
      </trkpt>
      <trkpt lat="49.35389" lon="1.07964">
        <ele>66</ele>
        <time>2010-04-27T15:57:44Z</time>
      </trkpt>
      <trkpt lat="49.35384" lon="1.07972">
        <ele>66</ele>
        <time>2010-04-27T15:57:47Z</time>
      </trkpt>
      <trkpt lat="49.35379" lon="1.07981">
        <ele>65</ele>
        <time>2010-04-27T15:57:50Z</time>
      </trkpt>
      <trkpt lat="49.35375" lon="1.0799">
        <ele>64</ele>
        <time>2010-04-27T15:57:53Z</time>
      </trkpt>
      <trkpt lat="49.35371" lon="1.07999">
        <ele>63</ele>
        <time>2010-04-27T15:57:56Z</time>
      </trkpt>
      <trkpt lat="49.35367" lon="1.08006">
        <ele>62</ele>
        <time>2010-04-27T15:57:59Z</time>
      </trkpt>
      <trkpt lat="49.35361" lon="1.08016">
        <ele>60</ele>
        <time>2010-04-27T15:58:02Z</time>
      </trkpt>
      <trkpt lat="49.35356" lon="1.08024">
        <ele>58</ele>
        <time>2010-04-27T15:58:05Z</time>
      </trkpt>
      <trkpt lat="49.35351" lon="1.08034">
        <ele>57</ele>
        <time>2010-04-27T15:58:08Z</time>
      </trkpt>
      <trkpt lat="49.35346" lon="1.08043">
        <ele>55</ele>
        <time>2010-04-27T15:58:11Z</time>
      </trkpt>
      <trkpt lat="49.35339" lon="1.08054">
        <ele>54</ele>
        <time>2010-04-27T15:58:14Z</time>
      </trkpt>
      <trkpt lat="49.35333" lon="1.08064">
        <ele>53</ele>
        <time>2010-04-27T15:58:17Z</time>
      </trkpt>
      <trkpt lat="49.35326" lon="1.08077">
        <ele>53</ele>
        <time>2010-04-27T15:58:20Z</time>
      </trkpt>
      <trkpt lat="49.35322" lon="1.08089">
        <ele>53</ele>
        <time>2010-04-27T15:58:23Z</time>
      </trkpt>
      <trkpt lat="49.35318" lon="1.08096">
        <ele>53</ele>
        <time>2010-04-27T15:58:26Z</time>
      </trkpt>
      <trkpt lat="49.35316" lon="1.08101">
        <ele>53</ele>
        <time>2010-04-27T15:58:30Z</time>
      </trkpt>
      <trkpt lat="49.35315" lon="1.08102">
        <ele>53</ele>
        <time>2010-04-27T15:58:33Z</time>
      </trkpt>
      <trkpt lat="49.35314" lon="1.08104">
        <ele>53</ele>
        <time>2010-04-27T15:58:36Z</time>
      </trkpt>
      <trkpt lat="49.35312" lon="1.08109">
        <ele>53</ele>
        <time>2010-04-27T15:58:39Z</time>
      </trkpt>
      <trkpt lat="49.35309" lon="1.08116">
        <ele>53</ele>
        <time>2010-04-27T15:58:42Z</time>
      </trkpt>
      <trkpt lat="49.35307" lon="1.08125">
        <ele>53</ele>
        <time>2010-04-27T15:58:45Z</time>
      </trkpt>
      <trkpt lat="49.35303" lon="1.08136">
        <ele>53</ele>
        <time>2010-04-27T15:58:48Z</time>
      </trkpt>
      <trkpt lat="49.353" lon="1.08148">
        <ele>53</ele>
        <time>2010-04-27T15:58:52Z</time>
      </trkpt>
      <trkpt lat="49.35295" lon="1.0816">
        <ele>53</ele>
        <time>2010-04-27T15:58:55Z</time>
      </trkpt>
      <trkpt lat="49.35294" lon="1.08165">
        <ele>53</ele>
        <time>2010-04-27T15:58:58Z</time>
      </trkpt>
      <trkpt lat="49.35291" lon="1.08172">
        <ele>53</ele>
        <time>2010-04-27T15:59:01Z</time>
      </trkpt>
      <trkpt lat="49.35288" lon="1.0818">
        <ele>53</ele>
        <time>2010-04-27T15:59:04Z</time>
      </trkpt>
      <trkpt lat="49.35284" lon="1.08186">
        <ele>53</ele>
        <time>2010-04-27T15:59:07Z</time>
      </trkpt>
      <trkpt lat="49.35276" lon="1.08192">
        <ele>52</ele>
        <time>2010-04-27T15:59:10Z</time>
      </trkpt>
      <trkpt lat="49.35266" lon="1.08197">
        <ele>51</ele>
        <time>2010-04-27T15:59:13Z</time>
      </trkpt>
      <trkpt lat="49.35258" lon="1.08202">
        <ele>51</ele>
        <time>2010-04-27T15:59:16Z</time>
      </trkpt>
      <trkpt lat="49.35251" lon="1.08207">
        <ele>51</ele>
        <time>2010-04-27T15:59:19Z</time>
      </trkpt>
      <trkpt lat="49.35246" lon="1.08212">
        <ele>49</ele>
        <time>2010-04-27T15:59:22Z</time>
      </trkpt>
      <trkpt lat="49.35241" lon="1.08219">
        <ele>48</ele>
        <time>2010-04-27T15:59:25Z</time>
      </trkpt>
      <trkpt lat="49.35236" lon="1.08226">
        <ele>48</ele>
        <time>2010-04-27T15:59:28Z</time>
      </trkpt>
      <trkpt lat="49.3523" lon="1.08233">
        <ele>48</ele>
        <time>2010-04-27T15:59:31Z</time>
      </trkpt>
      <trkpt lat="49.35225" lon="1.0824">
        <ele>48</ele>
        <time>2010-04-27T15:59:34Z</time>
      </trkpt>
      <trkpt lat="49.35219" lon="1.08247">
        <ele>48</ele>
        <time>2010-04-27T15:59:37Z</time>
      </trkpt>
      <trkpt lat="49.35213" lon="1.08255">
        <ele>48</ele>
        <time>2010-04-27T15:59:40Z</time>
      </trkpt>
      <trkpt lat="49.35206" lon="1.08261">
        <ele>48</ele>
        <time>2010-04-27T15:59:43Z</time>
      </trkpt>
      <trkpt lat="49.35201" lon="1.08268">
        <ele>48</ele>
        <time>2010-04-27T15:59:46Z</time>
      </trkpt>
      <trkpt lat="49.35195" lon="1.08276">
        <ele>48</ele>
        <time>2010-04-27T15:59:49Z</time>
      </trkpt>
      <trkpt lat="49.35189" lon="1.08284">
        <ele>48</ele>
        <time>2010-04-27T15:59:52Z</time>
      </trkpt>
      <trkpt lat="49.35183" lon="1.0829">
        <ele>48</ele>
        <time>2010-04-27T15:59:55Z</time>
      </trkpt>
      <trkpt lat="49.35179" lon="1.08297">
        <ele>48</ele>
        <time>2010-04-27T15:59:58Z</time>
      </trkpt>
      <trkpt lat="49.35174" lon="1.08303">
        <ele>48</ele>
        <time>2010-04-27T16:00:01Z</time>
      </trkpt>
      <trkpt lat="49.35169" lon="1.08309">
        <ele>48</ele>
        <time>2010-04-27T16:00:04Z</time>
      </trkpt>
      <trkpt lat="49.35166" lon="1.08314">
        <ele>48</ele>
        <time>2010-04-27T16:00:07Z</time>
      </trkpt>
      <trkpt lat="49.3516" lon="1.0832">
        <ele>48</ele>
        <time>2010-04-27T16:00:10Z</time>
      </trkpt>
      <trkpt lat="49.35154" lon="1.08326">
        <ele>48</ele>
        <time>2010-04-27T16:00:13Z</time>
      </trkpt>
      <trkpt lat="49.35149" lon="1.08334">
        <ele>48</ele>
        <time>2010-04-27T16:00:16Z</time>
      </trkpt>
      <trkpt lat="49.35142" lon="1.08341">
        <ele>48</ele>
        <time>2010-04-27T16:00:19Z</time>
      </trkpt>
      <trkpt lat="49.35137" lon="1.08348">
        <ele>48</ele>
        <time>2010-04-27T16:00:22Z</time>
      </trkpt>
      <trkpt lat="49.3513" lon="1.08356">
        <ele>48</ele>
        <time>2010-04-27T16:00:25Z</time>
      </trkpt>
      <trkpt lat="49.35125" lon="1.08364">
        <ele>48</ele>
        <time>2010-04-27T16:00:28Z</time>
      </trkpt>
      <trkpt lat="49.35119" lon="1.08371">
        <ele>48</ele>
        <time>2010-04-27T16:00:31Z</time>
      </trkpt>
      <trkpt lat="49.35114" lon="1.08379">
        <ele>48</ele>
        <time>2010-04-27T16:00:34Z</time>
      </trkpt>
      <trkpt lat="49.35107" lon="1.08387">
        <ele>48</ele>
        <time>2010-04-27T16:00:37Z</time>
      </trkpt>
      <trkpt lat="49.35102" lon="1.08395">
        <ele>48</ele>
        <time>2010-04-27T16:00:40Z</time>
      </trkpt>
      <trkpt lat="49.35096" lon="1.08403">
        <ele>48</ele>
        <time>2010-04-27T16:00:43Z</time>
      </trkpt>
      <trkpt lat="49.35091" lon="1.08412">
        <ele>48</ele>
        <time>2010-04-27T16:00:46Z</time>
      </trkpt>
      <trkpt lat="49.35086" lon="1.0842">
        <ele>47</ele>
        <time>2010-04-27T16:00:49Z</time>
      </trkpt>
      <trkpt lat="49.35082" lon="1.0843">
        <ele>47</ele>
        <time>2010-04-27T16:00:52Z</time>
      </trkpt>
      <trkpt lat="49.35077" lon="1.08439">
        <ele>46</ele>
        <time>2010-04-27T16:00:55Z</time>
      </trkpt>
      <trkpt lat="49.35073" lon="1.08448">
        <ele>45</ele>
        <time>2010-04-27T16:00:58Z</time>
      </trkpt>
      <trkpt lat="49.35069" lon="1.08457">
        <ele>45</ele>
        <time>2010-04-27T16:01:01Z</time>
      </trkpt>
      <trkpt lat="49.35065" lon="1.08466">
        <ele>44</ele>
        <time>2010-04-27T16:01:04Z</time>
      </trkpt>
      <trkpt lat="49.35061" lon="1.08475">
        <ele>43</ele>
        <time>2010-04-27T16:01:07Z</time>
      </trkpt>
      <trkpt lat="49.35058" lon="1.08485">
        <ele>43</ele>
        <time>2010-04-27T16:01:10Z</time>
      </trkpt>
      <trkpt lat="49.35054" lon="1.08495">
        <ele>41</ele>
        <time>2010-04-27T16:01:13Z</time>
      </trkpt>
      <trkpt lat="49.35051" lon="1.08504">
        <ele>41</ele>
        <time>2010-04-27T16:01:16Z</time>
      </trkpt>
      <trkpt lat="49.35047" lon="1.08514">
        <ele>40</ele>
        <time>2010-04-27T16:01:19Z</time>
      </trkpt>
      <trkpt lat="49.35044" lon="1.08524">
        <ele>39</ele>
        <time>2010-04-27T16:01:22Z</time>
      </trkpt>
      <trkpt lat="49.3504" lon="1.08534">
        <ele>38</ele>
        <time>2010-04-27T16:01:25Z</time>
      </trkpt>
      <trkpt lat="49.35037" lon="1.08544">
        <ele>37</ele>
        <time>2010-04-27T16:01:28Z</time>
      </trkpt>
      <trkpt lat="49.35033" lon="1.08554">
        <ele>36</ele>
        <time>2010-04-27T16:01:31Z</time>
      </trkpt>
      <trkpt lat="49.35029" lon="1.08564">
        <ele>36</ele>
        <time>2010-04-27T16:01:34Z</time>
      </trkpt>
      <trkpt lat="49.35025" lon="1.08574">
        <ele>35</ele>
        <time>2010-04-27T16:01:37Z</time>
      </trkpt>
      <trkpt lat="49.35021" lon="1.08584">
        <ele>34</ele>
        <time>2010-04-27T16:01:40Z</time>
      </trkpt>
      <trkpt lat="49.35017" lon="1.08593">
        <ele>33</ele>
        <time>2010-04-27T16:01:43Z</time>
      </trkpt>
      <trkpt lat="49.35012" lon="1.08602">
        <ele>33</ele>
        <time>2010-04-27T16:01:46Z</time>
      </trkpt>
      <trkpt lat="49.35008" lon="1.08612">
        <ele>32</ele>
        <time>2010-04-27T16:01:49Z</time>
      </trkpt>
      <trkpt lat="49.35003" lon="1.08622">
        <ele>32</ele>
        <time>2010-04-27T16:01:52Z</time>
      </trkpt>
      <trkpt lat="49.34999" lon="1.0863">
        <ele>31</ele>
        <time>2010-04-27T16:01:55Z</time>
      </trkpt>
      <trkpt lat="49.34994" lon="1.08639">
        <ele>31</ele>
        <time>2010-04-27T16:01:58Z</time>
      </trkpt>
      <trkpt lat="49.34989" lon="1.08648">
        <ele>31</ele>
        <time>2010-04-27T16:02:01Z</time>
      </trkpt>
      <trkpt lat="49.34984" lon="1.08657">
        <ele>30</ele>
        <time>2010-04-27T16:02:04Z</time>
      </trkpt>
      <trkpt lat="49.3498" lon="1.08666">
        <ele>29</ele>
        <time>2010-04-27T16:02:07Z</time>
      </trkpt>
      <trkpt lat="49.34974" lon="1.08675">
        <ele>29</ele>
        <time>2010-04-27T16:02:10Z</time>
      </trkpt>
      <trkpt lat="49.34969" lon="1.08684">
        <ele>29</ele>
        <time>2010-04-27T16:02:13Z</time>
      </trkpt>
      <trkpt lat="49.34964" lon="1.08693">
        <ele>28</ele>
        <time>2010-04-27T16:02:16Z</time>
      </trkpt>
      <trkpt lat="49.34959" lon="1.08702">
        <ele>28</ele>
        <time>2010-04-27T16:02:19Z</time>
      </trkpt>
      <trkpt lat="49.34955" lon="1.08711">
        <ele>28</ele>
        <time>2010-04-27T16:02:22Z</time>
      </trkpt>
      <trkpt lat="49.3495" lon="1.0872">
        <ele>28</ele>
        <time>2010-04-27T16:02:25Z</time>
      </trkpt>
      <trkpt lat="49.34945" lon="1.08728">
        <ele>27</ele>
        <time>2010-04-27T16:02:28Z</time>
      </trkpt>
      <trkpt lat="49.3494" lon="1.08737">
        <ele>27</ele>
        <time>2010-04-27T16:02:31Z</time>
      </trkpt>
      <trkpt lat="49.34935" lon="1.08746">
        <ele>27</ele>
        <time>2010-04-27T16:02:34Z</time>
      </trkpt>
      <trkpt lat="49.3493" lon="1.08754">
        <ele>26</ele>
        <time>2010-04-27T16:02:37Z</time>
      </trkpt>
      <trkpt lat="49.34926" lon="1.08763">
        <ele>26</ele>
        <time>2010-04-27T16:02:40Z</time>
      </trkpt>
      <trkpt lat="49.34922" lon="1.08771">
        <ele>26</ele>
        <time>2010-04-27T16:02:43Z</time>
      </trkpt>
      <trkpt lat="49.34917" lon="1.0878">
        <ele>25</ele>
        <time>2010-04-27T16:02:46Z</time>
      </trkpt>
      <trkpt lat="49.34912" lon="1.08788">
        <ele>25</ele>
        <time>2010-04-27T16:02:49Z</time>
      </trkpt>
      <trkpt lat="49.34907" lon="1.08796">
        <ele>25</ele>
        <time>2010-04-27T16:02:52Z</time>
      </trkpt>
      <trkpt lat="49.34902" lon="1.08804">
        <ele>25</ele>
        <time>2010-04-27T16:02:55Z</time>
      </trkpt>
      <trkpt lat="49.34898" lon="1.08813">
        <ele>25</ele>
        <time>2010-04-27T16:02:58Z</time>
      </trkpt>
      <trkpt lat="49.34893" lon="1.08821">
        <ele>25</ele>
        <time>2010-04-27T16:03:01Z</time>
      </trkpt>
      <trkpt lat="49.34888" lon="1.08831">
        <ele>25</ele>
        <time>2010-04-27T16:03:04Z</time>
      </trkpt>
      <trkpt lat="49.34884" lon="1.0884">
        <ele>25</ele>
        <time>2010-04-27T16:03:07Z</time>
      </trkpt>
      <trkpt lat="49.34879" lon="1.08848">
        <ele>25</ele>
        <time>2010-04-27T16:03:10Z</time>
      </trkpt>
      <trkpt lat="49.34875" lon="1.08857">
        <ele>25</ele>
        <time>2010-04-27T16:03:13Z</time>
      </trkpt>
      <trkpt lat="49.34871" lon="1.08867">
        <ele>25</ele>
        <time>2010-04-27T16:03:16Z</time>
      </trkpt>
      <trkpt lat="49.34866" lon="1.08876">
        <ele>25</ele>
        <time>2010-04-27T16:03:19Z</time>
      </trkpt>
      <trkpt lat="49.34861" lon="1.08885">
        <ele>25</ele>
        <time>2010-04-27T16:03:22Z</time>
      </trkpt>
      <trkpt lat="49.34856" lon="1.08893">
        <ele>25</ele>
        <time>2010-04-27T16:03:25Z</time>
      </trkpt>
      <trkpt lat="49.34851" lon="1.08902">
        <ele>25</ele>
        <time>2010-04-27T16:03:28Z</time>
      </trkpt>
      <trkpt lat="49.34847" lon="1.08912">
        <ele>25</ele>
        <time>2010-04-27T16:03:31Z</time>
      </trkpt>
      <trkpt lat="49.34841" lon="1.0892">
        <ele>24</ele>
        <time>2010-04-27T16:03:34Z</time>
      </trkpt>
      <trkpt lat="49.34836" lon="1.08929">
        <ele>24</ele>
        <time>2010-04-27T16:03:37Z</time>
      </trkpt>
      <trkpt lat="49.34831" lon="1.08937">
        <ele>24</ele>
        <time>2010-04-27T16:03:40Z</time>
      </trkpt>
      <trkpt lat="49.34826" lon="1.08946">
        <ele>24</ele>
        <time>2010-04-27T16:03:43Z</time>
      </trkpt>
      <trkpt lat="49.34821" lon="1.08954">
        <ele>24</ele>
        <time>2010-04-27T16:03:46Z</time>
      </trkpt>
      <trkpt lat="49.34817" lon="1.08963">
        <ele>24</ele>
        <time>2010-04-27T16:03:49Z</time>
      </trkpt>
      <trkpt lat="49.34812" lon="1.08971">
        <ele>23</ele>
        <time>2010-04-27T16:03:52Z</time>
      </trkpt>
      <trkpt lat="49.34807" lon="1.0898">
        <ele>23</ele>
        <time>2010-04-27T16:03:55Z</time>
      </trkpt>
      <trkpt lat="49.34802" lon="1.08989">
        <ele>23</ele>
        <time>2010-04-27T16:03:58Z</time>
      </trkpt>
      <trkpt lat="49.34797" lon="1.08998">
        <ele>23</ele>
        <time>2010-04-27T16:04:01Z</time>
      </trkpt>
      <trkpt lat="49.34792" lon="1.09007">
        <ele>23</ele>
        <time>2010-04-27T16:04:04Z</time>
      </trkpt>
      <trkpt lat="49.34788" lon="1.09016">
        <ele>22</ele>
        <time>2010-04-27T16:04:07Z</time>
      </trkpt>
      <trkpt lat="49.34783" lon="1.09024">
        <ele>22</ele>
        <time>2010-04-27T16:04:10Z</time>
      </trkpt>
      <trkpt lat="49.34778" lon="1.09033">
        <ele>22</ele>
        <time>2010-04-27T16:04:13Z</time>
      </trkpt>
      <trkpt lat="49.34774" lon="1.09042">
        <ele>22</ele>
        <time>2010-04-27T16:04:16Z</time>
      </trkpt>
      <trkpt lat="49.34768" lon="1.09051">
        <ele>21</ele>
        <time>2010-04-27T16:04:19Z</time>
      </trkpt>
      <trkpt lat="49.34764" lon="1.09059">
        <ele>21</ele>
        <time>2010-04-27T16:04:22Z</time>
      </trkpt>
      <trkpt lat="49.34759" lon="1.09068">
        <ele>21</ele>
        <time>2010-04-27T16:04:25Z</time>
      </trkpt>
      <trkpt lat="49.34755" lon="1.09078">
        <ele>21</ele>
        <time>2010-04-27T16:04:28Z</time>
      </trkpt>
      <trkpt lat="49.3475" lon="1.09086">
        <ele>21</ele>
        <time>2010-04-27T16:04:31Z</time>
      </trkpt>
      <trkpt lat="49.34745" lon="1.09094">
        <ele>21</ele>
        <time>2010-04-27T16:04:34Z</time>
      </trkpt>
      <trkpt lat="49.3474" lon="1.09103">
        <ele>21</ele>
        <time>2010-04-27T16:04:37Z</time>
      </trkpt>
      <trkpt lat="49.34736" lon="1.09112">
        <ele>21</ele>
        <time>2010-04-27T16:04:40Z</time>
      </trkpt>
      <trkpt lat="49.34731" lon="1.09121">
        <ele>20</ele>
        <time>2010-04-27T16:04:43Z</time>
      </trkpt>
      <trkpt lat="49.34726" lon="1.09131">
        <ele>20</ele>
        <time>2010-04-27T16:04:46Z</time>
      </trkpt>
      <trkpt lat="49.34721" lon="1.0914">
        <ele>20</ele>
        <time>2010-04-27T16:04:49Z</time>
      </trkpt>
      <trkpt lat="49.34716" lon="1.09148">
        <ele>20</ele>
        <time>2010-04-27T16:04:52Z</time>
      </trkpt>
      <trkpt lat="49.3471" lon="1.09155">
        <ele>20</ele>
        <time>2010-04-27T16:04:55Z</time>
      </trkpt>
      <trkpt lat="49.34704" lon="1.09163">
        <ele>20</ele>
        <time>2010-04-27T16:04:58Z</time>
      </trkpt>
      <trkpt lat="49.34697" lon="1.0917">
        <ele>20</ele>
        <time>2010-04-27T16:05:01Z</time>
      </trkpt>
      <trkpt lat="49.34691" lon="1.09176">
        <ele>20</ele>
        <time>2010-04-27T16:05:04Z</time>
      </trkpt>
      <trkpt lat="49.34684" lon="1.09182">
        <ele>20</ele>
        <time>2010-04-27T16:05:07Z</time>
      </trkpt>
      <trkpt lat="49.34678" lon="1.09187">
        <ele>20</ele>
        <time>2010-04-27T16:05:10Z</time>
      </trkpt>
      <trkpt lat="49.34671" lon="1.09192">
        <ele>20</ele>
        <time>2010-04-27T16:05:13Z</time>
      </trkpt>
      <trkpt lat="49.34665" lon="1.09197">
        <ele>20</ele>
        <time>2010-04-27T16:05:16Z</time>
      </trkpt>
      <trkpt lat="49.34658" lon="1.09203">
        <ele>20</ele>
        <time>2010-04-27T16:05:19Z</time>
      </trkpt>
      <trkpt lat="49.34652" lon="1.09209">
        <ele>20</ele>
        <time>2010-04-27T16:05:22Z</time>
      </trkpt>
      <trkpt lat="49.34646" lon="1.09214">
        <ele>19</ele>
        <time>2010-04-27T16:05:25Z</time>
      </trkpt>
      <trkpt lat="49.34639" lon="1.0922">
        <ele>19</ele>
        <time>2010-04-27T16:05:28Z</time>
      </trkpt>
      <trkpt lat="49.34632" lon="1.09224">
        <ele>19</ele>
        <time>2010-04-27T16:05:31Z</time>
      </trkpt>
      <trkpt lat="49.34626" lon="1.09229">
        <ele>19</ele>
        <time>2010-04-27T16:05:34Z</time>
      </trkpt>
      <trkpt lat="49.3462" lon="1.09235">
        <ele>19</ele>
        <time>2010-04-27T16:05:37Z</time>
      </trkpt>
      <trkpt lat="49.34614" lon="1.0924">
        <ele>18</ele>
        <time>2010-04-27T16:05:40Z</time>
      </trkpt>
      <trkpt lat="49.34608" lon="1.09245">
        <ele>18</ele>
        <time>2010-04-27T16:05:43Z</time>
      </trkpt>
      <trkpt lat="49.34601" lon="1.09251">
        <ele>18</ele>
        <time>2010-04-27T16:05:46Z</time>
      </trkpt>
      <trkpt lat="49.34594" lon="1.09256">
        <ele>18</ele>
        <time>2010-04-27T16:05:49Z</time>
      </trkpt>
      <trkpt lat="49.34588" lon="1.09261">
        <ele>18</ele>
        <time>2010-04-27T16:05:52Z</time>
      </trkpt>
      <trkpt lat="49.34581" lon="1.09267">
        <ele>18</ele>
        <time>2010-04-27T16:05:55Z</time>
      </trkpt>
      <trkpt lat="49.34575" lon="1.09274">
        <ele>18</ele>
        <time>2010-04-27T16:05:58Z</time>
      </trkpt>
      <trkpt lat="49.34568" lon="1.0928">
        <ele>18</ele>
        <time>2010-04-27T16:06:01Z</time>
      </trkpt>
      <trkpt lat="49.34562" lon="1.09288">
        <ele>18</ele>
        <time>2010-04-27T16:06:04Z</time>
      </trkpt>
      <trkpt lat="49.34557" lon="1.09296">
        <ele>17</ele>
        <time>2010-04-27T16:06:07Z</time>
      </trkpt>
      <trkpt lat="49.34551" lon="1.09304">
        <ele>17</ele>
        <time>2010-04-27T16:06:10Z</time>
      </trkpt>
      <trkpt lat="49.34547" lon="1.09313">
        <ele>17</ele>
        <time>2010-04-27T16:06:13Z</time>
      </trkpt>
      <trkpt lat="49.34542" lon="1.0932">
        <ele>17</ele>
        <time>2010-04-27T16:06:16Z</time>
      </trkpt>
      <trkpt lat="49.34539" lon="1.09328">
        <ele>17</ele>
        <time>2010-04-27T16:06:19Z</time>
      </trkpt>
      <trkpt lat="49.34536" lon="1.09339">
        <ele>17</ele>
        <time>2010-04-27T16:06:22Z</time>
      </trkpt>
      <trkpt lat="49.34533" lon="1.09349">
        <ele>17</ele>
        <time>2010-04-27T16:06:25Z</time>
      </trkpt>
      <trkpt lat="49.3453" lon="1.09358">
        <ele>16</ele>
        <time>2010-04-27T16:06:28Z</time>
      </trkpt>
      <trkpt lat="49.34527" lon="1.09368">
        <ele>16</ele>
        <time>2010-04-27T16:06:31Z</time>
      </trkpt>
      <trkpt lat="49.34524" lon="1.09378">
        <ele>15</ele>
        <time>2010-04-27T16:06:34Z</time>
      </trkpt>
      <trkpt lat="49.34521" lon="1.09389">
        <ele>15</ele>
        <time>2010-04-27T16:06:37Z</time>
      </trkpt>
      <trkpt lat="49.34518" lon="1.09399">
        <ele>15</ele>
        <time>2010-04-27T16:06:40Z</time>
      </trkpt>
      <trkpt lat="49.34515" lon="1.0941">
        <ele>14</ele>
        <time>2010-04-27T16:06:43Z</time>
      </trkpt>
      <trkpt lat="49.34512" lon="1.0942">
        <ele>14</ele>
        <time>2010-04-27T16:06:46Z</time>
      </trkpt>
      <trkpt lat="49.34508" lon="1.0943">
        <ele>14</ele>
        <time>2010-04-27T16:06:49Z</time>
      </trkpt>
      <trkpt lat="49.34505" lon="1.09441">
        <ele>14</ele>
        <time>2010-04-27T16:06:52Z</time>
      </trkpt>
      <trkpt lat="49.34502" lon="1.0945">
        <ele>14</ele>
        <time>2010-04-27T16:06:55Z</time>
      </trkpt>
      <trkpt lat="49.34497" lon="1.09459">
        <ele>14</ele>
        <time>2010-04-27T16:06:58Z</time>
      </trkpt>
      <trkpt lat="49.34491" lon="1.09468">
        <ele>14</ele>
        <time>2010-04-27T16:07:01Z</time>
      </trkpt>
      <trkpt lat="49.34487" lon="1.09476">
        <ele>14</ele>
        <time>2010-04-27T16:07:04Z</time>
      </trkpt>
      <trkpt lat="49.34481" lon="1.09483">
        <ele>13</ele>
        <time>2010-04-27T16:07:07Z</time>
      </trkpt>
      <trkpt lat="49.34475" lon="1.09488">
        <ele>13</ele>
        <time>2010-04-27T16:07:10Z</time>
      </trkpt>
      <trkpt lat="49.34469" lon="1.09493">
        <ele>13</ele>
        <time>2010-04-27T16:07:13Z</time>
      </trkpt>
      <trkpt lat="49.34462" lon="1.09498">
        <ele>13</ele>
        <time>2010-04-27T16:07:16Z</time>
      </trkpt>
      <trkpt lat="49.34454" lon="1.09502">
        <ele>13</ele>
        <time>2010-04-27T16:07:19Z</time>
      </trkpt>
      <trkpt lat="49.34447" lon="1.09506">
        <ele>12</ele>
        <time>2010-04-27T16:07:22Z</time>
      </trkpt>
      <trkpt lat="49.3444" lon="1.0951">
        <ele>12</ele>
        <time>2010-04-27T16:07:25Z</time>
      </trkpt>
      <trkpt lat="49.34432" lon="1.09514">
        <ele>12</ele>
        <time>2010-04-27T16:07:28Z</time>
      </trkpt>
      <trkpt lat="49.34426" lon="1.09518">
        <ele>12</ele>
        <time>2010-04-27T16:07:31Z</time>
      </trkpt>
      <trkpt lat="49.34419" lon="1.09521">
        <ele>12</ele>
        <time>2010-04-27T16:07:34Z</time>
      </trkpt>
      <trkpt lat="49.34412" lon="1.09526">
        <ele>11</ele>
        <time>2010-04-27T16:07:37Z</time>
      </trkpt>
      <trkpt lat="49.34405" lon="1.0953">
        <ele>11</ele>
        <time>2010-04-27T16:07:40Z</time>
      </trkpt>
      <trkpt lat="49.34397" lon="1.09535">
        <ele>11</ele>
        <time>2010-04-27T16:07:43Z</time>
      </trkpt>
      <trkpt lat="49.3439" lon="1.0954">
        <ele>11</ele>
        <time>2010-04-27T16:07:46Z</time>
      </trkpt>
      <trkpt lat="49.34382" lon="1.09544">
        <ele>11</ele>
        <time>2010-04-27T16:07:49Z</time>
      </trkpt>
      <trkpt lat="49.34374" lon="1.09549">
        <ele>11</ele>
        <time>2010-04-27T16:07:52Z</time>
      </trkpt>
      <trkpt lat="49.34366" lon="1.09553">
        <ele>11</ele>
        <time>2010-04-27T16:07:55Z</time>
      </trkpt>
      <trkpt lat="49.34359" lon="1.09557">
        <ele>11</ele>
        <time>2010-04-27T16:07:58Z</time>
      </trkpt>
      <trkpt lat="49.34352" lon="1.09562">
        <ele>11</ele>
        <time>2010-04-27T16:08:01Z</time>
      </trkpt>
      <trkpt lat="49.34344" lon="1.09567">
        <ele>11</ele>
        <time>2010-04-27T16:08:04Z</time>
      </trkpt>
      <trkpt lat="49.34337" lon="1.09572">
        <ele>11</ele>
        <time>2010-04-27T16:08:07Z</time>
      </trkpt>
      <trkpt lat="49.34327" lon="1.09576">
        <ele>11</ele>
        <time>2010-04-27T16:08:10Z</time>
      </trkpt>
      <trkpt lat="49.34318" lon="1.09581">
        <ele>11</ele>
        <time>2010-04-27T16:08:13Z</time>
      </trkpt>
      <trkpt lat="49.3431" lon="1.09585">
        <ele>11</ele>
        <time>2010-04-27T16:08:16Z</time>
      </trkpt>
      <trkpt lat="49.34302" lon="1.09586">
        <ele>11</ele>
        <time>2010-04-27T16:08:19Z</time>
      </trkpt>
      <trkpt lat="49.34295" lon="1.09587">
        <ele>10</ele>
        <time>2010-04-27T16:08:22Z</time>
      </trkpt>
      <trkpt lat="49.34288" lon="1.09591">
        <ele>8</ele>
        <time>2010-04-27T16:08:25Z</time>
      </trkpt>
      <trkpt lat="49.3428" lon="1.09595">
        <ele>7</ele>
        <time>2010-04-27T16:08:28Z</time>
      </trkpt>
      <trkpt lat="49.34271" lon="1.09599">
        <ele>6</ele>
        <time>2010-04-27T16:08:31Z</time>
      </trkpt>
      <trkpt lat="49.34262" lon="1.09603">
        <ele>6</ele>
        <time>2010-04-27T16:08:34Z</time>
      </trkpt>
      <trkpt lat="49.34252" lon="1.09608">
        <ele>6</ele>
        <time>2010-04-27T16:08:37Z</time>
      </trkpt>
      <trkpt lat="49.34243" lon="1.09611">
        <ele>6</ele>
        <time>2010-04-27T16:08:40Z</time>
      </trkpt>
      <trkpt lat="49.34236" lon="1.09615">
        <ele>6</ele>
        <time>2010-04-27T16:08:43Z</time>
      </trkpt>
      <trkpt lat="49.3423" lon="1.09622">
        <ele>6</ele>
        <time>2010-04-27T16:08:46Z</time>
      </trkpt>
      <trkpt lat="49.34228" lon="1.09628">
        <ele>6</ele>
        <time>2010-04-27T16:08:49Z</time>
      </trkpt>
      <trkpt lat="49.3423" lon="1.09635">
        <ele>6</ele>
        <time>2010-04-27T16:08:52Z</time>
      </trkpt>
      <trkpt lat="49.34233" lon="1.09641">
        <ele>6</ele>
        <time>2010-04-27T16:08:55Z</time>
      </trkpt>
      <trkpt lat="49.34236" lon="1.09645">
        <ele>6</ele>
        <time>2010-04-27T16:08:58Z</time>
      </trkpt>
      <trkpt lat="49.34237" lon="1.09642">
        <ele>6</ele>
        <time>2010-04-27T16:09:02Z</time>
      </trkpt>
      <trkpt lat="49.34234" lon="1.09644">
        <ele>6</ele>
        <time>2010-04-27T16:09:07Z</time>
      </trkpt>
      <trkpt lat="49.34232" lon="1.09643">
        <ele>6</ele>
        <time>2010-04-27T16:09:11Z</time>
      </trkpt>
      <trkpt lat="49.34235" lon="1.09644">
        <ele>6</ele>
        <time>2010-04-27T16:09:14Z</time>
      </trkpt>
      <trkpt lat="49.3423" lon="1.09636">
        <ele>6</ele>
        <time>2010-04-27T16:09:19Z</time>
      </trkpt>
      <trkpt lat="49.34225" lon="1.09629">
        <ele>6</ele>
        <time>2010-04-27T16:09:22Z</time>
      </trkpt>
      <trkpt lat="49.34222" lon="1.09624">
        <ele>4</ele>
        <time>2010-04-27T16:09:25Z</time>
      </trkpt>
      <trkpt lat="49.34225" lon="1.09619">
        <ele>1</ele>
        <time>2010-04-27T16:09:28Z</time>
      </trkpt>
      <trkpt lat="49.34231" lon="1.09615">
        <ele>8.3</ele>
        <time>2010-04-27T16:09:31Z</time>
      </trkpt>
      <trkpt lat="49.34241" lon="1.09612">
        <ele>8.7</ele>
        <time>2010-04-27T16:09:34Z</time>
      </trkpt>
      <trkpt lat="49.34251" lon="1.09608">
        <ele>9</ele>
        <time>2010-04-27T16:09:37Z</time>
      </trkpt>
      <trkpt lat="49.34259" lon="1.09603">
        <ele>9.1</ele>
        <time>2010-04-27T16:09:40Z</time>
      </trkpt>
      <trkpt lat="49.34268" lon="1.09599">
        <ele>9.3</ele>
        <time>2010-04-27T16:09:43Z</time>
      </trkpt>
      <trkpt lat="49.34277" lon="1.09594">
        <ele>9.6</ele>
        <time>2010-04-27T16:09:46Z</time>
      </trkpt>
      <trkpt lat="49.34286" lon="1.0959">
        <ele>9.8</ele>
        <time>2010-04-27T16:09:49Z</time>
      </trkpt>
      <trkpt lat="49.34297" lon="1.09587">
        <ele>1</ele>
        <time>2010-04-27T16:09:52Z</time>
      </trkpt>
      <trkpt lat="49.34306" lon="1.09583">
        <ele>3</ele>
        <time>2010-04-27T16:09:55Z</time>
      </trkpt>
      <trkpt lat="49.34315" lon="1.0958">
        <ele>5</ele>
        <time>2010-04-27T16:09:58Z</time>
      </trkpt>
      <trkpt lat="49.34324" lon="1.09575">
        <ele>7</ele>
        <time>2010-04-27T16:10:01Z</time>
      </trkpt>
      <trkpt lat="49.34335" lon="1.09571">
        <ele>7</ele>
        <time>2010-04-27T16:10:04Z</time>
      </trkpt>
      <trkpt lat="49.34344" lon="1.09567">
        <ele>7</ele>
        <time>2010-04-27T16:10:07Z</time>
      </trkpt>
      <trkpt lat="49.34352" lon="1.09562">
        <ele>7</ele>
        <time>2010-04-27T16:10:10Z</time>
      </trkpt>
      <trkpt lat="49.34361" lon="1.09558">
        <ele>7</ele>
        <time>2010-04-27T16:10:13Z</time>
      </trkpt>
      <trkpt lat="49.3437" lon="1.09552">
        <ele>7</ele>
        <time>2010-04-27T16:10:16Z</time>
      </trkpt>
      <trkpt lat="49.34379" lon="1.09547">
        <ele>7</ele>
        <time>2010-04-27T16:10:19Z</time>
      </trkpt>
      <trkpt lat="49.34387" lon="1.09543">
        <ele>7</ele>
        <time>2010-04-27T16:10:22Z</time>
      </trkpt>
      <trkpt lat="49.34397" lon="1.09538">
        <ele>7</ele>
        <time>2010-04-27T16:10:25Z</time>
      </trkpt>
      <trkpt lat="49.34406" lon="1.09534">
        <ele>7</ele>
        <time>2010-04-27T16:10:28Z</time>
      </trkpt>
      <trkpt lat="49.34417" lon="1.09528">
        <ele>7</ele>
        <time>2010-04-27T16:10:31Z</time>
      </trkpt>
      <trkpt lat="49.34426" lon="1.09523">
        <ele>7</ele>
        <time>2010-04-27T16:10:34Z</time>
      </trkpt>
      <trkpt lat="49.34435" lon="1.09518">
        <ele>7</ele>
        <time>2010-04-27T16:10:37Z</time>
      </trkpt>
      <trkpt lat="49.34443" lon="1.09513">
        <ele>7</ele>
        <time>2010-04-27T16:10:40Z</time>
      </trkpt>
      <trkpt lat="49.34453" lon="1.09507">
        <ele>7</ele>
        <time>2010-04-27T16:10:43Z</time>
      </trkpt>
      <trkpt lat="49.34462" lon="1.09502">
        <ele>7</ele>
        <time>2010-04-27T16:10:46Z</time>
      </trkpt>
      <trkpt lat="49.34471" lon="1.09496">
        <ele>7</ele>
        <time>2010-04-27T16:10:49Z</time>
      </trkpt>
      <trkpt lat="49.3448" lon="1.09489">
        <ele>7</ele>
        <time>2010-04-27T16:10:52Z</time>
      </trkpt>
      <trkpt lat="49.34488" lon="1.09481">
        <ele>7</ele>
        <time>2010-04-27T16:10:55Z</time>
      </trkpt>
      <trkpt lat="49.34494" lon="1.09469">
        <ele>7</ele>
        <time>2010-04-27T16:10:58Z</time>
      </trkpt>
      <trkpt lat="49.345" lon="1.09458">
        <ele>7</ele>
        <time>2010-04-27T16:11:01Z</time>
      </trkpt>
      <trkpt lat="49.34505" lon="1.09446">
        <ele>7</ele>
        <time>2010-04-27T16:11:04Z</time>
      </trkpt>
      <trkpt lat="49.34509" lon="1.09432">
        <ele>7</ele>
        <time>2010-04-27T16:11:07Z</time>
      </trkpt>
      <trkpt lat="49.34513" lon="1.09419">
        <ele>7</ele>
        <time>2010-04-27T16:11:10Z</time>
      </trkpt>
      <trkpt lat="49.34517" lon="1.09405">
        <ele>7</ele>
        <time>2010-04-27T16:11:13Z</time>
      </trkpt>
      <trkpt lat="49.34521" lon="1.09392">
        <ele>7</ele>
        <time>2010-04-27T16:11:16Z</time>
      </trkpt>
      <trkpt lat="49.34526" lon="1.09379">
        <ele>7</ele>
        <time>2010-04-27T16:11:19Z</time>
      </trkpt>
      <trkpt lat="49.3453" lon="1.09366">
        <ele>7</ele>
        <time>2010-04-27T16:11:22Z</time>
      </trkpt>
      <trkpt lat="49.34534" lon="1.09355">
        <ele>7</ele>
        <time>2010-04-27T16:11:25Z</time>
      </trkpt>
      <trkpt lat="49.34537" lon="1.09344">
        <ele>7</ele>
        <time>2010-04-27T16:11:28Z</time>
      </trkpt>
      <trkpt lat="49.34539" lon="1.09337">
        <ele>7</ele>
        <time>2010-04-27T16:11:31Z</time>
      </trkpt>
      <trkpt lat="49.34541" lon="1.09332">
        <ele>7</ele>
        <time>2010-04-27T16:11:35Z</time>
      </trkpt>
      <trkpt lat="49.34541" lon="1.0933">
        <ele>7</ele>
        <time>2010-04-27T16:11:39Z</time>
      </trkpt>
      <trkpt lat="49.34542" lon="1.09325">
        <ele>7</ele>
        <time>2010-04-27T16:11:42Z</time>
      </trkpt>
      <trkpt lat="49.34542" lon="1.0932">
        <ele>7</ele>
        <time>2010-04-27T16:11:45Z</time>
      </trkpt>
      <trkpt lat="49.34536" lon="1.09316">
        <ele>8</ele>
        <time>2010-04-27T16:11:48Z</time>
      </trkpt>
      <trkpt lat="49.34528" lon="1.09312">
        <ele>8</ele>
        <time>2010-04-27T16:11:52Z</time>
      </trkpt>
      <trkpt lat="49.34514" lon="1.09303">
        <ele>8</ele>
        <time>2010-04-27T16:11:55Z</time>
      </trkpt>
      <trkpt lat="49.34505" lon="1.09298">
        <ele>8</ele>
        <time>2010-04-27T16:11:58Z</time>
      </trkpt>
      <trkpt lat="49.34496" lon="1.09295">
        <ele>8</ele>
        <time>2010-04-27T16:12:01Z</time>
      </trkpt>
      <trkpt lat="49.34489" lon="1.0929">
        <ele>9</ele>
        <time>2010-04-27T16:12:04Z</time>
      </trkpt>
      <trkpt lat="49.34481" lon="1.09285">
        <ele>9</ele>
        <time>2010-04-27T16:12:07Z</time>
      </trkpt>
      <trkpt lat="49.34473" lon="1.0928">
        <ele>10</ele>
        <time>2010-04-27T16:12:10Z</time>
      </trkpt>
      <trkpt lat="49.34466" lon="1.09274">
        <ele>10</ele>
        <time>2010-04-27T16:12:13Z</time>
      </trkpt>
      <trkpt lat="49.34458" lon="1.09268">
        <ele>10</ele>
        <time>2010-04-27T16:12:16Z</time>
      </trkpt>
      <trkpt lat="49.34451" lon="1.09261">
        <ele>11</ele>
        <time>2010-04-27T16:12:19Z</time>
      </trkpt>
      <trkpt lat="49.34443" lon="1.09254">
        <ele>13</ele>
        <time>2010-04-27T16:12:22Z</time>
      </trkpt>
      <trkpt lat="49.34436" lon="1.09246">
        <ele>14</ele>
        <time>2010-04-27T16:12:25Z</time>
      </trkpt>
      <trkpt lat="49.34428" lon="1.09238">
        <ele>15</ele>
        <time>2010-04-27T16:12:28Z</time>
      </trkpt>
      <trkpt lat="49.34418" lon="1.09227">
        <ele>15</ele>
        <time>2010-04-27T16:12:31Z</time>
      </trkpt>
      <trkpt lat="49.34411" lon="1.09218">
        <ele>15</ele>
        <time>2010-04-27T16:12:34Z</time>
      </trkpt>
      <trkpt lat="49.34404" lon="1.09208">
        <ele>16</ele>
        <time>2010-04-27T16:12:37Z</time>
      </trkpt>
      <trkpt lat="49.34397" lon="1.09197">
        <ele>17</ele>
        <time>2010-04-27T16:12:40Z</time>
      </trkpt>
      <trkpt lat="49.3439" lon="1.09186">
        <ele>17</ele>
        <time>2010-04-27T16:12:43Z</time>
      </trkpt>
      <trkpt lat="49.34385" lon="1.09176">
        <ele>18</ele>
        <time>2010-04-27T16:12:46Z</time>
      </trkpt>
      <trkpt lat="49.34375" lon="1.09164">
        <ele>19</ele>
        <time>2010-04-27T16:12:49Z</time>
      </trkpt>
      <trkpt lat="49.34368" lon="1.09154">
        <ele>20</ele>
        <time>2010-04-27T16:12:52Z</time>
      </trkpt>
      <trkpt lat="49.34357" lon="1.09141">
        <ele>20</ele>
        <time>2010-04-27T16:12:55Z</time>
      </trkpt>
      <trkpt lat="49.34351" lon="1.09127">
        <ele>20</ele>
        <time>2010-04-27T16:12:58Z</time>
      </trkpt>
      <trkpt lat="49.34343" lon="1.09112">
        <ele>20</ele>
        <time>2010-04-27T16:13:01Z</time>
      </trkpt>
      <trkpt lat="49.34336" lon="1.09098">
        <ele>20</ele>
        <time>2010-04-27T16:13:04Z</time>
      </trkpt>
      <trkpt lat="49.34328" lon="1.09084">
        <ele>20</ele>
        <time>2010-04-27T16:13:07Z</time>
      </trkpt>
      <trkpt lat="49.3432" lon="1.0907">
        <ele>20</ele>
        <time>2010-04-27T16:13:10Z</time>
      </trkpt>
      <trkpt lat="49.34312" lon="1.09055">
        <ele>20</ele>
        <time>2010-04-27T16:13:13Z</time>
      </trkpt>
      <trkpt lat="49.34305" lon="1.09042">
        <ele>20</ele>
        <time>2010-04-27T16:13:16Z</time>
      </trkpt>
      <trkpt lat="49.34297" lon="1.09028">
        <ele>20</ele>
        <time>2010-04-27T16:13:19Z</time>
      </trkpt>
      <trkpt lat="49.34295" lon="1.09011">
        <ele>20</ele>
        <time>2010-04-27T16:13:22Z</time>
      </trkpt>
      <trkpt lat="49.34301" lon="1.08996">
        <ele>20</ele>
        <time>2010-04-27T16:13:25Z</time>
      </trkpt>
      <trkpt lat="49.3431" lon="1.08984">
        <ele>20</ele>
        <time>2010-04-27T16:13:28Z</time>
      </trkpt>
      <trkpt lat="49.34319" lon="1.0897">
        <ele>20</ele>
        <time>2010-04-27T16:13:31Z</time>
      </trkpt>
      <trkpt lat="49.34328" lon="1.08957">
        <ele>20</ele>
        <time>2010-04-27T16:13:34Z</time>
      </trkpt>
      <trkpt lat="49.34337" lon="1.08944">
        <ele>20</ele>
        <time>2010-04-27T16:13:37Z</time>
      </trkpt>
      <trkpt lat="49.34346" lon="1.08931">
        <ele>20</ele>
        <time>2010-04-27T16:13:40Z</time>
      </trkpt>
      <trkpt lat="49.34354" lon="1.08917">
        <ele>20</ele>
        <time>2010-04-27T16:13:43Z</time>
      </trkpt>
      <trkpt lat="49.34363" lon="1.08904">
        <ele>20</ele>
        <time>2010-04-27T16:13:46Z</time>
      </trkpt>
      <trkpt lat="49.34371" lon="1.08891">
        <ele>19</ele>
        <time>2010-04-27T16:13:49Z</time>
      </trkpt>
      <trkpt lat="49.34379" lon="1.08878">
        <ele>19</ele>
        <time>2010-04-27T16:13:52Z</time>
      </trkpt>
      <trkpt lat="49.34388" lon="1.08866">
        <ele>19</ele>
        <time>2010-04-27T16:13:55Z</time>
      </trkpt>
      <trkpt lat="49.34397" lon="1.08855">
        <ele>19</ele>
        <time>2010-04-27T16:13:58Z</time>
      </trkpt>
      <trkpt lat="49.34407" lon="1.08843">
        <ele>19</ele>
        <time>2010-04-27T16:14:01Z</time>
      </trkpt>
      <trkpt lat="49.34417" lon="1.08833">
        <ele>19</ele>
        <time>2010-04-27T16:14:04Z</time>
      </trkpt>
      <trkpt lat="49.34427" lon="1.08822">
        <ele>19</ele>
        <time>2010-04-27T16:14:07Z</time>
      </trkpt>
      <trkpt lat="49.34438" lon="1.08811">
        <ele>19</ele>
        <time>2010-04-27T16:14:10Z</time>
      </trkpt>
      <trkpt lat="49.34449" lon="1.088">
        <ele>19</ele>
        <time>2010-04-27T16:14:13Z</time>
      </trkpt>
      <trkpt lat="49.34459" lon="1.08789">
        <ele>19</ele>
        <time>2010-04-27T16:14:16Z</time>
      </trkpt>
      <trkpt lat="49.3447" lon="1.08777">
        <ele>19</ele>
        <time>2010-04-27T16:14:19Z</time>
      </trkpt>
      <trkpt lat="49.34481" lon="1.08767">
        <ele>19</ele>
        <time>2010-04-27T16:14:22Z</time>
      </trkpt>
      <trkpt lat="49.34492" lon="1.08756">
        <ele>19</ele>
        <time>2010-04-27T16:14:25Z</time>
      </trkpt>
      <trkpt lat="49.34503" lon="1.08746">
        <ele>19</ele>
        <time>2010-04-27T16:14:28Z</time>
      </trkpt>
      <trkpt lat="49.34513" lon="1.08735">
        <ele>19</ele>
        <time>2010-04-27T16:14:31Z</time>
      </trkpt>
      <trkpt lat="49.34524" lon="1.08724">
        <ele>19</ele>
        <time>2010-04-27T16:14:34Z</time>
      </trkpt>
      <trkpt lat="49.34535" lon="1.08713">
        <ele>19</ele>
        <time>2010-04-27T16:14:37Z</time>
      </trkpt>
      <trkpt lat="49.34546" lon="1.08701">
        <ele>19</ele>
        <time>2010-04-27T16:14:40Z</time>
      </trkpt>
      <trkpt lat="49.34557" lon="1.0869">
        <ele>19</ele>
        <time>2010-04-27T16:14:43Z</time>
      </trkpt>
      <trkpt lat="49.34568" lon="1.0868">
        <ele>19</ele>
        <time>2010-04-27T16:14:46Z</time>
      </trkpt>
      <trkpt lat="49.34578" lon="1.08669">
        <ele>19</ele>
        <time>2010-04-27T16:14:49Z</time>
      </trkpt>
      <trkpt lat="49.34589" lon="1.08658">
        <ele>19</ele>
        <time>2010-04-27T16:14:52Z</time>
      </trkpt>
      <trkpt lat="49.346" lon="1.08647">
        <ele>19</ele>
        <time>2010-04-27T16:14:55Z</time>
      </trkpt>
      <trkpt lat="49.3461" lon="1.08637">
        <ele>19</ele>
        <time>2010-04-27T16:14:58Z</time>
      </trkpt>
      <trkpt lat="49.3462" lon="1.08626">
        <ele>19</ele>
        <time>2010-04-27T16:15:01Z</time>
      </trkpt>
      <trkpt lat="49.34631" lon="1.08616">
        <ele>19</ele>
        <time>2010-04-27T16:15:04Z</time>
      </trkpt>
      <trkpt lat="49.34641" lon="1.08606">
        <ele>19</ele>
        <time>2010-04-27T16:15:07Z</time>
      </trkpt>
      <trkpt lat="49.34652" lon="1.08596">
        <ele>19</ele>
        <time>2010-04-27T16:15:10Z</time>
      </trkpt>
      <trkpt lat="49.34662" lon="1.08585">
        <ele>19</ele>
        <time>2010-04-27T16:15:13Z</time>
      </trkpt>
      <trkpt lat="49.34672" lon="1.08575">
        <ele>19</ele>
        <time>2010-04-27T16:15:16Z</time>
      </trkpt>
      <trkpt lat="49.34682" lon="1.08565">
        <ele>19</ele>
        <time>2010-04-27T16:15:19Z</time>
      </trkpt>
      <trkpt lat="49.34692" lon="1.08555">
        <ele>19</ele>
        <time>2010-04-27T16:15:22Z</time>
      </trkpt>
      <trkpt lat="49.34702" lon="1.08545">
        <ele>20</ele>
        <time>2010-04-27T16:15:25Z</time>
      </trkpt>
      <trkpt lat="49.34712" lon="1.08535">
        <ele>20</ele>
        <time>2010-04-27T16:15:28Z</time>
      </trkpt>
      <trkpt lat="49.34722" lon="1.08525">
        <ele>21</ele>
        <time>2010-04-27T16:15:31Z</time>
      </trkpt>
      <trkpt lat="49.34732" lon="1.08515">
        <ele>21</ele>
        <time>2010-04-27T16:15:34Z</time>
      </trkpt>
      <trkpt lat="49.34741" lon="1.08506">
        <ele>21</ele>
        <time>2010-04-27T16:15:37Z</time>
      </trkpt>
      <trkpt lat="49.3475" lon="1.08498">
        <ele>22</ele>
        <time>2010-04-27T16:15:40Z</time>
      </trkpt>
      <trkpt lat="49.34758" lon="1.08489">
        <ele>23</ele>
        <time>2010-04-27T16:15:43Z</time>
      </trkpt>
      <trkpt lat="49.34765" lon="1.08478">
        <ele>23</ele>
        <time>2010-04-27T16:15:46Z</time>
      </trkpt>
      <trkpt lat="49.34772" lon="1.08467">
        <ele>24</ele>
        <time>2010-04-27T16:15:49Z</time>
      </trkpt>
      <trkpt lat="49.34777" lon="1.08455">
        <ele>24</ele>
        <time>2010-04-27T16:15:52Z</time>
      </trkpt>
      <trkpt lat="49.34781" lon="1.08441">
        <ele>25</ele>
        <time>2010-04-27T16:15:55Z</time>
      </trkpt>
      <trkpt lat="49.34784" lon="1.08426">
        <ele>25</ele>
        <time>2010-04-27T16:15:58Z</time>
      </trkpt>
      <trkpt lat="49.34785" lon="1.08412">
        <ele>26</ele>
        <time>2010-04-27T16:16:01Z</time>
      </trkpt>
      <trkpt lat="49.34784" lon="1.08397">
        <ele>26</ele>
        <time>2010-04-27T16:16:04Z</time>
      </trkpt>
      <trkpt lat="49.34781" lon="1.08382">
        <ele>27</ele>
        <time>2010-04-27T16:16:07Z</time>
      </trkpt>
      <trkpt lat="49.34777" lon="1.08368">
        <ele>27</ele>
        <time>2010-04-27T16:16:10Z</time>
      </trkpt>
      <trkpt lat="49.34771" lon="1.08355">
        <ele>28</ele>
        <time>2010-04-27T16:16:13Z</time>
      </trkpt>
      <trkpt lat="49.34765" lon="1.08343">
        <ele>28</ele>
        <time>2010-04-27T16:16:16Z</time>
      </trkpt>
      <trkpt lat="49.34758" lon="1.08331">
        <ele>28</ele>
        <time>2010-04-27T16:16:19Z</time>
      </trkpt>
      <trkpt lat="49.34751" lon="1.08318">
        <ele>29</ele>
        <time>2010-04-27T16:16:22Z</time>
      </trkpt>
      <trkpt lat="49.34745" lon="1.08307">
        <ele>29</ele>
        <time>2010-04-27T16:16:25Z</time>
      </trkpt>
      <trkpt lat="49.34738" lon="1.08295">
        <ele>29</ele>
        <time>2010-04-27T16:16:28Z</time>
      </trkpt>
      <trkpt lat="49.34732" lon="1.08283">
        <ele>30</ele>
        <time>2010-04-27T16:16:31Z</time>
      </trkpt>
      <trkpt lat="49.34726" lon="1.08272">
        <ele>30</ele>
        <time>2010-04-27T16:16:34Z</time>
      </trkpt>
      <trkpt lat="49.34719" lon="1.0826">
        <ele>30</ele>
        <time>2010-04-27T16:16:37Z</time>
      </trkpt>
      <trkpt lat="49.34712" lon="1.08248">
        <ele>31</ele>
        <time>2010-04-27T16:16:40Z</time>
      </trkpt>
      <trkpt lat="49.34706" lon="1.08237">
        <ele>31</ele>
        <time>2010-04-27T16:16:43Z</time>
      </trkpt>
      <trkpt lat="49.34699" lon="1.08225">
        <ele>32</ele>
        <time>2010-04-27T16:16:46Z</time>
      </trkpt>
      <trkpt lat="49.34693" lon="1.08214">
        <ele>32</ele>
        <time>2010-04-27T16:16:49Z</time>
      </trkpt>
      <trkpt lat="49.34686" lon="1.08202">
        <ele>32</ele>
        <time>2010-04-27T16:16:52Z</time>
      </trkpt>
      <trkpt lat="49.3468" lon="1.0819">
        <ele>33</ele>
        <time>2010-04-27T16:16:55Z</time>
      </trkpt>
      <trkpt lat="49.34673" lon="1.08178">
        <ele>33</ele>
        <time>2010-04-27T16:16:58Z</time>
      </trkpt>
      <trkpt lat="49.34666" lon="1.08167">
        <ele>33</ele>
        <time>2010-04-27T16:17:01Z</time>
      </trkpt>
      <trkpt lat="49.3466" lon="1.08155">
        <ele>34</ele>
        <time>2010-04-27T16:17:04Z</time>
      </trkpt>
      <trkpt lat="49.34654" lon="1.08143">
        <ele>34</ele>
        <time>2010-04-27T16:17:07Z</time>
      </trkpt>
      <trkpt lat="49.34648" lon="1.0813">
        <ele>34</ele>
        <time>2010-04-27T16:17:10Z</time>
      </trkpt>
      <trkpt lat="49.34643" lon="1.08117">
        <ele>35</ele>
        <time>2010-04-27T16:17:13Z</time>
      </trkpt>
      <trkpt lat="49.34638" lon="1.08104">
        <ele>35</ele>
        <time>2010-04-27T16:17:16Z</time>
      </trkpt>
      <trkpt lat="49.34634" lon="1.0809">
        <ele>35</ele>
        <time>2010-04-27T16:17:19Z</time>
      </trkpt>
      <trkpt lat="49.3463" lon="1.08077">
        <ele>36</ele>
        <time>2010-04-27T16:17:22Z</time>
      </trkpt>
      <trkpt lat="49.34626" lon="1.08064">
        <ele>36</ele>
        <time>2010-04-27T16:17:25Z</time>
      </trkpt>
      <trkpt lat="49.34622" lon="1.0805">
        <ele>37</ele>
        <time>2010-04-27T16:17:28Z</time>
      </trkpt>
      <trkpt lat="49.34619" lon="1.08035">
        <ele>37</ele>
        <time>2010-04-27T16:17:31Z</time>
      </trkpt>
      <trkpt lat="49.34615" lon="1.08021">
        <ele>38</ele>
        <time>2010-04-27T16:17:34Z</time>
      </trkpt>
      <trkpt lat="49.34612" lon="1.08007">
        <ele>38</ele>
        <time>2010-04-27T16:17:37Z</time>
      </trkpt>
      <trkpt lat="49.34609" lon="1.07993">
        <ele>38</ele>
        <time>2010-04-27T16:17:40Z</time>
      </trkpt>
      <trkpt lat="49.34605" lon="1.07978">
        <ele>39</ele>
        <time>2010-04-27T16:17:43Z</time>
      </trkpt>
      <trkpt lat="49.34602" lon="1.07964">
        <ele>40</ele>
        <time>2010-04-27T16:17:46Z</time>
      </trkpt>
      <trkpt lat="49.34599" lon="1.0795">
        <ele>40</ele>
        <time>2010-04-27T16:17:49Z</time>
      </trkpt>
      <trkpt lat="49.34596" lon="1.07935">
        <ele>41</ele>
        <time>2010-04-27T16:17:52Z</time>
      </trkpt>
      <trkpt lat="49.34594" lon="1.0792">
        <ele>42</ele>
        <time>2010-04-27T16:17:55Z</time>
      </trkpt>
      <trkpt lat="49.34592" lon="1.07905">
        <ele>42</ele>
        <time>2010-04-27T16:17:58Z</time>
      </trkpt>
      <trkpt lat="49.34592" lon="1.0789">
        <ele>43</ele>
        <time>2010-04-27T16:18:01Z</time>
      </trkpt>
      <trkpt lat="49.34591" lon="1.07875">
        <ele>44</ele>
        <time>2010-04-27T16:18:04Z</time>
      </trkpt>
      <trkpt lat="49.34591" lon="1.07861">
        <ele>44</ele>
        <time>2010-04-27T16:18:07Z</time>
      </trkpt>
      <trkpt lat="49.34591" lon="1.07848">
        <ele>44</ele>
        <time>2010-04-27T16:18:10Z</time>
      </trkpt>
      <trkpt lat="49.34592" lon="1.07834">
        <ele>45</ele>
        <time>2010-04-27T16:18:13Z</time>
      </trkpt>
      <trkpt lat="49.34593" lon="1.07821">
        <ele>45</ele>
        <time>2010-04-27T16:18:16Z</time>
      </trkpt>
      <trkpt lat="49.34595" lon="1.07807">
        <ele>45</ele>
        <time>2010-04-27T16:18:19Z</time>
      </trkpt>
      <trkpt lat="49.34598" lon="1.07795">
        <ele>45</ele>
        <time>2010-04-27T16:18:22Z</time>
      </trkpt>
      <trkpt lat="49.346" lon="1.07784">
        <ele>45</ele>
        <time>2010-04-27T16:18:25Z</time>
      </trkpt>
      <trkpt lat="49.34603" lon="1.07778">
        <ele>45</ele>
        <time>2010-04-27T16:18:29Z</time>
      </trkpt>
      <trkpt lat="49.34612" lon="1.07764">
        <ele>46</ele>
        <time>2010-04-27T16:18:35Z</time>
      </trkpt>
      <trkpt lat="49.34621" lon="1.07751">
        <ele>46</ele>
        <time>2010-04-27T16:18:38Z</time>
      </trkpt>
      <trkpt lat="49.34626" lon="1.07733">
        <ele>46</ele>
        <time>2010-04-27T16:18:41Z</time>
      </trkpt>
      <trkpt lat="49.34624" lon="1.07714">
        <ele>46</ele>
        <time>2010-04-27T16:18:44Z</time>
      </trkpt>
      <trkpt lat="49.34619" lon="1.07696">
        <ele>46</ele>
        <time>2010-04-27T16:18:47Z</time>
      </trkpt>
      <trkpt lat="49.34613" lon="1.07678">
        <ele>46</ele>
        <time>2010-04-27T16:18:50Z</time>
      </trkpt>
      <trkpt lat="49.34609" lon="1.07657">
        <ele>46</ele>
        <time>2010-04-27T16:18:53Z</time>
      </trkpt>
      <trkpt lat="49.34605" lon="1.07637">
        <ele>47</ele>
        <time>2010-04-27T16:18:56Z</time>
      </trkpt>
      <trkpt lat="49.34602" lon="1.07619">
        <ele>48</ele>
        <time>2010-04-27T16:18:59Z</time>
      </trkpt>
      <trkpt lat="49.34598" lon="1.07603">
        <ele>48</ele>
        <time>2010-04-27T16:19:02Z</time>
      </trkpt>
      <trkpt lat="49.34592" lon="1.07587">
        <ele>48</ele>
        <time>2010-04-27T16:19:05Z</time>
      </trkpt>
      <trkpt lat="49.34584" lon="1.07573">
        <ele>49</ele>
        <time>2010-04-27T16:19:08Z</time>
      </trkpt>
      <trkpt lat="49.34576" lon="1.07561">
        <ele>49</ele>
        <time>2010-04-27T16:19:11Z</time>
      </trkpt>
      <trkpt lat="49.34566" lon="1.0755">
        <ele>50</ele>
        <time>2010-04-27T16:19:14Z</time>
      </trkpt>
      <trkpt lat="49.34556" lon="1.07542">
        <ele>52</ele>
        <time>2010-04-27T16:19:17Z</time>
      </trkpt>
      <trkpt lat="49.34546" lon="1.07536">
        <ele>55</ele>
        <time>2010-04-27T16:19:20Z</time>
      </trkpt>
      <trkpt lat="49.34535" lon="1.07532">
        <ele>58</ele>
        <time>2010-04-27T16:19:23Z</time>
      </trkpt>
      <trkpt lat="49.34524" lon="1.07528">
        <ele>59</ele>
        <time>2010-04-27T16:19:26Z</time>
      </trkpt>
      <trkpt lat="49.34513" lon="1.07526">
        <ele>62</ele>
        <time>2010-04-27T16:19:29Z</time>
      </trkpt>
      <trkpt lat="49.34501" lon="1.07521">
        <ele>64</ele>
        <time>2010-04-27T16:19:32Z</time>
      </trkpt>
      <trkpt lat="49.34491" lon="1.07518">
        <ele>66</ele>
        <time>2010-04-27T16:19:35Z</time>
      </trkpt>
      <trkpt lat="49.34481" lon="1.07515">
        <ele>67</ele>
        <time>2010-04-27T16:19:38Z</time>
      </trkpt>
      <trkpt lat="49.34472" lon="1.0751">
        <ele>68</ele>
        <time>2010-04-27T16:19:41Z</time>
      </trkpt>
      <trkpt lat="49.34463" lon="1.07506">
        <ele>69</ele>
        <time>2010-04-27T16:19:44Z</time>
      </trkpt>
      <trkpt lat="49.34452" lon="1.075">
        <ele>70</ele>
        <time>2010-04-27T16:19:47Z</time>
      </trkpt>
      <trkpt lat="49.3444" lon="1.07492">
        <ele>70</ele>
        <time>2010-04-27T16:19:50Z</time>
      </trkpt>
      <trkpt lat="49.34431" lon="1.07485">
        <ele>70</ele>
        <time>2010-04-27T16:19:53Z</time>
      </trkpt>
      <trkpt lat="49.34423" lon="1.0748">
        <ele>70</ele>
        <time>2010-04-27T16:19:56Z</time>
      </trkpt>
      <trkpt lat="49.34413" lon="1.07472">
        <ele>70</ele>
        <time>2010-04-27T16:19:59Z</time>
      </trkpt>
      <trkpt lat="49.34402" lon="1.07461">
        <ele>70</ele>
        <time>2010-04-27T16:20:02Z</time>
      </trkpt>
      <trkpt lat="49.34394" lon="1.07452">
        <ele>70</ele>
        <time>2010-04-27T16:20:05Z</time>
      </trkpt>
      <trkpt lat="49.34388" lon="1.07444">
        <ele>70</ele>
        <time>2010-04-27T16:20:08Z</time>
      </trkpt>
      <trkpt lat="49.34381" lon="1.07436">
        <ele>70</ele>
        <time>2010-04-27T16:20:11Z</time>
      </trkpt>
      <trkpt lat="49.34374" lon="1.07425">
        <ele>70</ele>
        <time>2010-04-27T16:20:14Z</time>
      </trkpt>
      <trkpt lat="49.34365" lon="1.07414">
        <ele>70</ele>
        <time>2010-04-27T16:20:17Z</time>
      </trkpt>
      <trkpt lat="49.34358" lon="1.07403">
        <ele>70</ele>
        <time>2010-04-27T16:20:20Z</time>
      </trkpt>
      <trkpt lat="49.34352" lon="1.07393">
        <ele>70</ele>
        <time>2010-04-27T16:20:23Z</time>
      </trkpt>
      <trkpt lat="49.34347" lon="1.07383">
        <ele>70</ele>
        <time>2010-04-27T16:20:26Z</time>
      </trkpt>
      <trkpt lat="49.34339" lon="1.0737">
        <ele>70</ele>
        <time>2010-04-27T16:20:29Z</time>
      </trkpt>
      <trkpt lat="49.34332" lon="1.07354">
        <ele>70</ele>
        <time>2010-04-27T16:20:32Z</time>
      </trkpt>
      <trkpt lat="49.34327" lon="1.07343">
        <ele>70</ele>
        <time>2010-04-27T16:20:35Z</time>
      </trkpt>
      <trkpt lat="49.34321" lon="1.07331">
        <ele>71</ele>
        <time>2010-04-27T16:20:38Z</time>
      </trkpt>
      <trkpt lat="49.34315" lon="1.07321">
        <ele>71</ele>
        <time>2010-04-27T16:20:41Z</time>
      </trkpt>
      <trkpt lat="49.34311" lon="1.07311">
        <ele>71</ele>
        <time>2010-04-27T16:20:44Z</time>
      </trkpt>
      <trkpt lat="49.34306" lon="1.073">
        <ele>71</ele>
        <time>2010-04-27T16:20:47Z</time>
      </trkpt>
      <trkpt lat="49.34303" lon="1.07289">
        <ele>68</ele>
        <time>2010-04-27T16:20:50Z</time>
      </trkpt>
      <trkpt lat="49.34301" lon="1.07278">
        <ele>65</ele>
        <time>2010-04-27T16:20:53Z</time>
      </trkpt>
      <trkpt lat="49.343" lon="1.07267">
        <ele>62</ele>
        <time>2010-04-27T16:20:56Z</time>
      </trkpt>
      <trkpt lat="49.34298" lon="1.07255">
        <ele>59</ele>
        <time>2010-04-27T16:20:59Z</time>
      </trkpt>
      <trkpt lat="49.34292" lon="1.07233">
        <ele>59</ele>
        <time>2010-04-27T16:21:02Z</time>
      </trkpt>
      <trkpt lat="49.3429" lon="1.07216">
        <ele>61</ele>
        <time>2010-04-27T16:21:05Z</time>
      </trkpt>
      <trkpt lat="49.34291" lon="1.07203">
        <ele>63</ele>
        <time>2010-04-27T16:21:08Z</time>
      </trkpt>
      <trkpt lat="49.34291" lon="1.07188">
        <ele>64</ele>
        <time>2010-04-27T16:21:11Z</time>
      </trkpt>
      <trkpt lat="49.34291" lon="1.07171">
        <ele>64</ele>
        <time>2010-04-27T16:21:14Z</time>
      </trkpt>
      <trkpt lat="49.34292" lon="1.07153">
        <ele>67</ele>
        <time>2010-04-27T16:21:17Z</time>
      </trkpt>
      <trkpt lat="49.34293" lon="1.07134">
        <ele>70</ele>
        <time>2010-04-27T16:21:20Z</time>
      </trkpt>
      <trkpt lat="49.34295" lon="1.07119">
        <ele>73</ele>
        <time>2010-04-27T16:21:23Z</time>
      </trkpt>
      <trkpt lat="49.34298" lon="1.07106">
        <ele>73</ele>
        <time>2010-04-27T16:21:26Z</time>
      </trkpt>
      <trkpt lat="49.343" lon="1.0709">
        <ele>73</ele>
        <time>2010-04-27T16:21:29Z</time>
      </trkpt>
      <trkpt lat="49.34303" lon="1.07076">
        <ele>74</ele>
        <time>2010-04-27T16:21:32Z</time>
      </trkpt>
      <trkpt lat="49.34305" lon="1.0706">
        <ele>74</ele>
        <time>2010-04-27T16:21:35Z</time>
      </trkpt>
      <trkpt lat="49.34307" lon="1.07044">
        <ele>75</ele>
        <time>2010-04-27T16:21:38Z</time>
      </trkpt>
      <trkpt lat="49.3431" lon="1.07027">
        <ele>76</ele>
        <time>2010-04-27T16:21:41Z</time>
      </trkpt>
      <trkpt lat="49.34313" lon="1.07013">
        <ele>76</ele>
        <time>2010-04-27T16:21:44Z</time>
      </trkpt>
      <trkpt lat="49.34315" lon="1.06998">
        <ele>76</ele>
        <time>2010-04-27T16:21:47Z</time>
      </trkpt>
      <trkpt lat="49.34319" lon="1.06982">
        <ele>76</ele>
        <time>2010-04-27T16:21:50Z</time>
      </trkpt>
      <trkpt lat="49.34322" lon="1.06966">
        <ele>76</ele>
        <time>2010-04-27T16:21:53Z</time>
      </trkpt>
      <trkpt lat="49.34325" lon="1.06951">
        <ele>76</ele>
        <time>2010-04-27T16:21:56Z</time>
      </trkpt>
      <trkpt lat="49.34328" lon="1.06935">
        <ele>76</ele>
        <time>2010-04-27T16:21:59Z</time>
      </trkpt>
      <trkpt lat="49.34331" lon="1.06917">
        <ele>76</ele>
        <time>2010-04-27T16:22:02Z</time>
      </trkpt>
      <trkpt lat="49.34335" lon="1.069">
        <ele>76</ele>
        <time>2010-04-27T16:22:05Z</time>
      </trkpt>
      <trkpt lat="49.34336" lon="1.06876">
        <ele>76</ele>
        <time>2010-04-27T16:22:08Z</time>
      </trkpt>
      <trkpt lat="49.3434" lon="1.06857">
        <ele>76</ele>
        <time>2010-04-27T16:22:11Z</time>
      </trkpt>
      <trkpt lat="49.34344" lon="1.06837">
        <ele>76</ele>
        <time>2010-04-27T16:22:14Z</time>
      </trkpt>
      <trkpt lat="49.34348" lon="1.06818">
        <ele>76</ele>
        <time>2010-04-27T16:22:17Z</time>
      </trkpt>
      <trkpt lat="49.34353" lon="1.06798">
        <ele>76</ele>
        <time>2010-04-27T16:22:20Z</time>
      </trkpt>
      <trkpt lat="49.34357" lon="1.0678">
        <ele>76</ele>
        <time>2010-04-27T16:22:23Z</time>
      </trkpt>
      <trkpt lat="49.34361" lon="1.06761">
        <ele>76</ele>
        <time>2010-04-27T16:22:26Z</time>
      </trkpt>
      <trkpt lat="49.34365" lon="1.06742">
        <ele>76</ele>
        <time>2010-04-27T16:22:29Z</time>
      </trkpt>
      <trkpt lat="49.34366" lon="1.06715">
        <ele>76</ele>
        <time>2010-04-27T16:22:32Z</time>
      </trkpt>
      <trkpt lat="49.3437" lon="1.06695">
        <ele>76</ele>
        <time>2010-04-27T16:22:35Z</time>
      </trkpt>
      <trkpt lat="49.34373" lon="1.06673">
        <ele>76</ele>
        <time>2010-04-27T16:22:38Z</time>
      </trkpt>
      <trkpt lat="49.34377" lon="1.06654">
        <ele>76</ele>
        <time>2010-04-27T16:22:41Z</time>
      </trkpt>
      <trkpt lat="49.34381" lon="1.06635">
        <ele>77</ele>
        <time>2010-04-27T16:22:44Z</time>
      </trkpt>
      <trkpt lat="49.34385" lon="1.06615">
        <ele>77</ele>
        <time>2010-04-27T16:22:47Z</time>
      </trkpt>
      <trkpt lat="49.3439" lon="1.06596">
        <ele>77</ele>
        <time>2010-04-27T16:22:50Z</time>
      </trkpt>
      <trkpt lat="49.34391" lon="1.06569">
        <ele>77</ele>
        <time>2010-04-27T16:22:53Z</time>
      </trkpt>
      <trkpt lat="49.34395" lon="1.06549">
        <ele>79</ele>
        <time>2010-04-27T16:22:56Z</time>
      </trkpt>
      <trkpt lat="49.344" lon="1.06529">
        <ele>81</ele>
        <time>2010-04-27T16:22:59Z</time>
      </trkpt>
      <trkpt lat="49.34404" lon="1.0651">
        <ele>81</ele>
        <time>2010-04-27T16:23:02Z</time>
      </trkpt>
      <trkpt lat="49.34408" lon="1.06491">
        <ele>81</ele>
        <time>2010-04-27T16:23:05Z</time>
      </trkpt>
      <trkpt lat="49.34412" lon="1.06472">
        <ele>81</ele>
        <time>2010-04-27T16:23:08Z</time>
      </trkpt>
      <trkpt lat="49.34417" lon="1.06453">
        <ele>81</ele>
        <time>2010-04-27T16:23:11Z</time>
      </trkpt>
      <trkpt lat="49.34421" lon="1.06434">
        <ele>81</ele>
        <time>2010-04-27T16:23:14Z</time>
      </trkpt>
      <trkpt lat="49.34425" lon="1.06415">
        <ele>81</ele>
        <time>2010-04-27T16:23:17Z</time>
      </trkpt>
      <trkpt lat="49.34429" lon="1.06397">
        <ele>81</ele>
        <time>2010-04-27T16:23:20Z</time>
      </trkpt>
      <trkpt lat="49.34433" lon="1.06381">
        <ele>81</ele>
        <time>2010-04-27T16:23:23Z</time>
      </trkpt>
      <trkpt lat="49.34437" lon="1.06367">
        <ele>80</ele>
        <time>2010-04-27T16:23:26Z</time>
      </trkpt>
      <trkpt lat="49.34441" lon="1.06353">
        <ele>79</ele>
        <time>2010-04-27T16:23:29Z</time>
      </trkpt>
      <trkpt lat="49.34443" lon="1.06338">
        <ele>79</ele>
        <time>2010-04-27T16:23:32Z</time>
      </trkpt>
      <trkpt lat="49.34445" lon="1.06323">
        <ele>79</ele>
        <time>2010-04-27T16:23:35Z</time>
      </trkpt>
      <trkpt lat="49.34448" lon="1.06309">
        <ele>79</ele>
        <time>2010-04-27T16:23:38Z</time>
      </trkpt>
      <trkpt lat="49.34451" lon="1.06294">
        <ele>79</ele>
        <time>2010-04-27T16:23:41Z</time>
      </trkpt>
      <trkpt lat="49.34454" lon="1.06278">
        <ele>79</ele>
        <time>2010-04-27T16:23:44Z</time>
      </trkpt>
      <trkpt lat="49.34457" lon="1.06263">
        <ele>79</ele>
        <time>2010-04-27T16:23:47Z</time>
      </trkpt>
      <trkpt lat="49.34459" lon="1.06247">
        <ele>79</ele>
        <time>2010-04-27T16:23:50Z</time>
      </trkpt>
      <trkpt lat="49.34462" lon="1.06233">
        <ele>79</ele>
        <time>2010-04-27T16:23:53Z</time>
      </trkpt>
      <trkpt lat="49.34465" lon="1.06218">
        <ele>79</ele>
        <time>2010-04-27T16:23:56Z</time>
      </trkpt>
      <trkpt lat="49.34467" lon="1.06203">
        <ele>79</ele>
        <time>2010-04-27T16:23:59Z</time>
      </trkpt>
      <trkpt lat="49.3447" lon="1.06189">
        <ele>79</ele>
        <time>2010-04-27T16:24:02Z</time>
      </trkpt>
      <trkpt lat="49.34473" lon="1.06174">
        <ele>79</ele>
        <time>2010-04-27T16:24:05Z</time>
      </trkpt>
      <trkpt lat="49.34475" lon="1.06159">
        <ele>80</ele>
        <time>2010-04-27T16:24:08Z</time>
      </trkpt>
      <trkpt lat="49.34477" lon="1.06144">
        <ele>80</ele>
        <time>2010-04-27T16:24:11Z</time>
      </trkpt>
      <trkpt lat="49.3448" lon="1.06129">
        <ele>80</ele>
        <time>2010-04-27T16:24:14Z</time>
      </trkpt>
      <trkpt lat="49.34483" lon="1.06115">
        <ele>80</ele>
        <time>2010-04-27T16:24:17Z</time>
      </trkpt>
      <trkpt lat="49.34486" lon="1.06101">
        <ele>80</ele>
        <time>2010-04-27T16:24:20Z</time>
      </trkpt>
      <trkpt lat="49.3449" lon="1.06088">
        <ele>80</ele>
        <time>2010-04-27T16:24:23Z</time>
      </trkpt>
      <trkpt lat="49.34494" lon="1.06075">
        <ele>80</ele>
        <time>2010-04-27T16:24:26Z</time>
      </trkpt>
      <trkpt lat="49.34497" lon="1.06062">
        <ele>80</ele>
        <time>2010-04-27T16:24:29Z</time>
      </trkpt>
      <trkpt lat="49.345" lon="1.06047">
        <ele>80</ele>
        <time>2010-04-27T16:24:32Z</time>
      </trkpt>
      <trkpt lat="49.34503" lon="1.06033">
        <ele>80</ele>
        <time>2010-04-27T16:24:35Z</time>
      </trkpt>
      <trkpt lat="49.34506" lon="1.06019">
        <ele>80</ele>
        <time>2010-04-27T16:24:38Z</time>
      </trkpt>
      <trkpt lat="49.34509" lon="1.06005">
        <ele>80</ele>
        <time>2010-04-27T16:24:41Z</time>
      </trkpt>
      <trkpt lat="49.34512" lon="1.05991">
        <ele>80</ele>
        <time>2010-04-27T16:24:44Z</time>
      </trkpt>
      <trkpt lat="49.34515" lon="1.05977">
        <ele>80</ele>
        <time>2010-04-27T16:24:47Z</time>
      </trkpt>
      <trkpt lat="49.34517" lon="1.05963">
        <ele>80</ele>
        <time>2010-04-27T16:24:50Z</time>
      </trkpt>
      <trkpt lat="49.34517" lon="1.05944">
        <ele>82</ele>
        <time>2010-04-27T16:24:53Z</time>
      </trkpt>
      <trkpt lat="49.34519" lon="1.05929">
        <ele>85</ele>
        <time>2010-04-27T16:24:56Z</time>
      </trkpt>
      <trkpt lat="49.34521" lon="1.05915">
        <ele>86</ele>
        <time>2010-04-27T16:24:59Z</time>
      </trkpt>
      <trkpt lat="49.34523" lon="1.059">
        <ele>87</ele>
        <time>2010-04-27T16:25:02Z</time>
      </trkpt>
      <trkpt lat="49.34525" lon="1.05885">
        <ele>89</ele>
        <time>2010-04-27T16:25:05Z</time>
      </trkpt>
      <trkpt lat="49.34528" lon="1.05871">
        <ele>89</ele>
        <time>2010-04-27T16:25:08Z</time>
      </trkpt>
      <trkpt lat="49.34531" lon="1.05857">
        <ele>90</ele>
        <time>2010-04-27T16:25:11Z</time>
      </trkpt>
      <trkpt lat="49.34534" lon="1.05843">
        <ele>90</ele>
        <time>2010-04-27T16:25:14Z</time>
      </trkpt>
      <trkpt lat="49.34537" lon="1.05828">
        <ele>90</ele>
        <time>2010-04-27T16:25:17Z</time>
      </trkpt>
      <trkpt lat="49.34539" lon="1.05813">
        <ele>90</ele>
        <time>2010-04-27T16:25:20Z</time>
      </trkpt>
      <trkpt lat="49.34543" lon="1.05799">
        <ele>90</ele>
        <time>2010-04-27T16:25:23Z</time>
      </trkpt>
      <trkpt lat="49.34546" lon="1.05784">
        <ele>91</ele>
        <time>2010-04-27T16:25:26Z</time>
      </trkpt>
      <trkpt lat="49.34549" lon="1.05769">
        <ele>91</ele>
        <time>2010-04-27T16:25:29Z</time>
      </trkpt>
      <trkpt lat="49.34552" lon="1.05754">
        <ele>91</ele>
        <time>2010-04-27T16:25:32Z</time>
      </trkpt>
      <trkpt lat="49.34555" lon="1.05739">
        <ele>91</ele>
        <time>2010-04-27T16:25:35Z</time>
      </trkpt>
      <trkpt lat="49.34558" lon="1.05725">
        <ele>91</ele>
        <time>2010-04-27T16:25:38Z</time>
      </trkpt>
      <trkpt lat="49.34561" lon="1.0571">
        <ele>91</ele>
        <time>2010-04-27T16:25:41Z</time>
      </trkpt>
      <trkpt lat="49.34564" lon="1.05695">
        <ele>91</ele>
        <time>2010-04-27T16:25:44Z</time>
      </trkpt>
      <trkpt lat="49.34567" lon="1.0568">
        <ele>91</ele>
        <time>2010-04-27T16:25:47Z</time>
      </trkpt>
      <trkpt lat="49.3457" lon="1.05665">
        <ele>91</ele>
        <time>2010-04-27T16:25:50Z</time>
      </trkpt>
      <trkpt lat="49.34574" lon="1.0565">
        <ele>91</ele>
        <time>2010-04-27T16:25:53Z</time>
      </trkpt>
      <trkpt lat="49.34576" lon="1.05635">
        <ele>92</ele>
        <time>2010-04-27T16:25:56Z</time>
      </trkpt>
      <trkpt lat="49.34578" lon="1.05617">
        <ele>93</ele>
        <time>2010-04-27T16:25:59Z</time>
      </trkpt>
      <trkpt lat="49.34581" lon="1.05601">
        <ele>94</ele>
        <time>2010-04-27T16:26:02Z</time>
      </trkpt>
      <trkpt lat="49.34584" lon="1.05586">
        <ele>94</ele>
        <time>2010-04-27T16:26:05Z</time>
      </trkpt>
      <trkpt lat="49.34586" lon="1.0557">
        <ele>94</ele>
        <time>2010-04-27T16:26:08Z</time>
      </trkpt>
      <trkpt lat="49.34588" lon="1.05554">
        <ele>95</ele>
        <time>2010-04-27T16:26:11Z</time>
      </trkpt>
      <trkpt lat="49.3459" lon="1.05539">
        <ele>96</ele>
        <time>2010-04-27T16:26:14Z</time>
      </trkpt>
      <trkpt lat="49.34593" lon="1.05524">
        <ele>97</ele>
        <time>2010-04-27T16:26:17Z</time>
      </trkpt>
      <trkpt lat="49.34596" lon="1.05509">
        <ele>97</ele>
        <time>2010-04-27T16:26:20Z</time>
      </trkpt>
      <trkpt lat="49.346" lon="1.05494">
        <ele>98</ele>
        <time>2010-04-27T16:26:23Z</time>
      </trkpt>
      <trkpt lat="49.34604" lon="1.0548">
        <ele>99</ele>
        <time>2010-04-27T16:26:26Z</time>
      </trkpt>
      <trkpt lat="49.34607" lon="1.05465">
        <ele>99</ele>
        <time>2010-04-27T16:26:29Z</time>
      </trkpt>
      <trkpt lat="49.34609" lon="1.05449">
        <ele>99</ele>
        <time>2010-04-27T16:26:32Z</time>
      </trkpt>
      <trkpt lat="49.34611" lon="1.05433">
        <ele>101</ele>
        <time>2010-04-27T16:26:35Z</time>
      </trkpt>
      <trkpt lat="49.34613" lon="1.05418">
        <ele>102</ele>
        <time>2010-04-27T16:26:38Z</time>
      </trkpt>
      <trkpt lat="49.34617" lon="1.05404">
        <ele>102</ele>
        <time>2010-04-27T16:26:41Z</time>
      </trkpt>
      <trkpt lat="49.3462" lon="1.05389">
        <ele>102</ele>
        <time>2010-04-27T16:26:44Z</time>
      </trkpt>
      <trkpt lat="49.34623" lon="1.05371">
        <ele>102</ele>
        <time>2010-04-27T16:26:47Z</time>
      </trkpt>
      <trkpt lat="49.34626" lon="1.05355">
        <ele>103</ele>
        <time>2010-04-27T16:26:50Z</time>
      </trkpt>
      <trkpt lat="49.3463" lon="1.05339">
        <ele>103</ele>
        <time>2010-04-27T16:26:53Z</time>
      </trkpt>
      <trkpt lat="49.34634" lon="1.05323">
        <ele>103</ele>
        <time>2010-04-27T16:26:56Z</time>
      </trkpt>
      <trkpt lat="49.34638" lon="1.05308">
        <ele>103</ele>
        <time>2010-04-27T16:26:59Z</time>
      </trkpt>
      <trkpt lat="49.34643" lon="1.05293">
        <ele>103</ele>
        <time>2010-04-27T16:27:02Z</time>
      </trkpt>
      <trkpt lat="49.34647" lon="1.05278">
        <ele>103</ele>
        <time>2010-04-27T16:27:05Z</time>
      </trkpt>
      <trkpt lat="49.34651" lon="1.05264">
        <ele>103</ele>
        <time>2010-04-27T16:27:08Z</time>
      </trkpt>
      <trkpt lat="49.34656" lon="1.0525">
        <ele>103</ele>
        <time>2010-04-27T16:27:11Z</time>
      </trkpt>
      <trkpt lat="49.34661" lon="1.05236">
        <ele>103</ele>
        <time>2010-04-27T16:27:14Z</time>
      </trkpt>
      <trkpt lat="49.34665" lon="1.05221">
        <ele>103</ele>
        <time>2010-04-27T16:27:17Z</time>
      </trkpt>
      <trkpt lat="49.34668" lon="1.05205">
        <ele>103</ele>
        <time>2010-04-27T16:27:20Z</time>
      </trkpt>
      <trkpt lat="49.34671" lon="1.05189">
        <ele>103</ele>
        <time>2010-04-27T16:27:23Z</time>
      </trkpt>
      <trkpt lat="49.34675" lon="1.05174">
        <ele>103</ele>
        <time>2010-04-27T16:27:26Z</time>
      </trkpt>
      <trkpt lat="49.34678" lon="1.05159">
        <ele>103</ele>
        <time>2010-04-27T16:27:29Z</time>
      </trkpt>
      <trkpt lat="49.34682" lon="1.05145">
        <ele>103</ele>
        <time>2010-04-27T16:27:32Z</time>
      </trkpt>
      <trkpt lat="49.34685" lon="1.0513">
        <ele>103</ele>
        <time>2010-04-27T16:27:35Z</time>
      </trkpt>
      <trkpt lat="49.34688" lon="1.05114">
        <ele>103</ele>
        <time>2010-04-27T16:27:38Z</time>
      </trkpt>
      <trkpt lat="49.34691" lon="1.05097">
        <ele>103</ele>
        <time>2010-04-27T16:27:41Z</time>
      </trkpt>
      <trkpt lat="49.34694" lon="1.0508">
        <ele>103</ele>
        <time>2010-04-27T16:27:44Z</time>
      </trkpt>
      <trkpt lat="49.34697" lon="1.05064">
        <ele>103</ele>
        <time>2010-04-27T16:27:47Z</time>
      </trkpt>
      <trkpt lat="49.347" lon="1.05048">
        <ele>103</ele>
        <time>2010-04-27T16:27:50Z</time>
      </trkpt>
      <trkpt lat="49.34702" lon="1.05031">
        <ele>103</ele>
        <time>2010-04-27T16:27:53Z</time>
      </trkpt>
      <trkpt lat="49.34704" lon="1.05011">
        <ele>104</ele>
        <time>2010-04-27T16:27:56Z</time>
      </trkpt>
      <trkpt lat="49.34707" lon="1.04991">
        <ele>106</ele>
        <time>2010-04-27T16:27:59Z</time>
      </trkpt>
      <trkpt lat="49.3471" lon="1.04974">
        <ele>107</ele>
        <time>2010-04-27T16:28:02Z</time>
      </trkpt>
      <trkpt lat="49.34712" lon="1.04954">
        <ele>107</ele>
        <time>2010-04-27T16:28:05Z</time>
      </trkpt>
      <trkpt lat="49.34715" lon="1.04935">
        <ele>107</ele>
        <time>2010-04-27T16:28:08Z</time>
      </trkpt>
      <trkpt lat="49.34717" lon="1.04914">
        <ele>107</ele>
        <time>2010-04-27T16:28:11Z</time>
      </trkpt>
      <trkpt lat="49.34719" lon="1.04895">
        <ele>107</ele>
        <time>2010-04-27T16:28:14Z</time>
      </trkpt>
      <trkpt lat="49.34722" lon="1.04875">
        <ele>107</ele>
        <time>2010-04-27T16:28:17Z</time>
      </trkpt>
      <trkpt lat="49.34725" lon="1.04856">
        <ele>107</ele>
        <time>2010-04-27T16:28:20Z</time>
      </trkpt>
      <trkpt lat="49.34728" lon="1.04837">
        <ele>107</ele>
        <time>2010-04-27T16:28:23Z</time>
      </trkpt>
      <trkpt lat="49.34731" lon="1.04819">
        <ele>107</ele>
        <time>2010-04-27T16:28:26Z</time>
      </trkpt>
      <trkpt lat="49.34735" lon="1.04801">
        <ele>107</ele>
        <time>2010-04-27T16:28:29Z</time>
      </trkpt>
      <trkpt lat="49.34738" lon="1.04783">
        <ele>107</ele>
        <time>2010-04-27T16:28:32Z</time>
      </trkpt>
      <trkpt lat="49.34742" lon="1.04764">
        <ele>107</ele>
        <time>2010-04-27T16:28:35Z</time>
      </trkpt>
      <trkpt lat="49.34745" lon="1.04746">
        <ele>107</ele>
        <time>2010-04-27T16:28:38Z</time>
      </trkpt>
      <trkpt lat="49.34748" lon="1.04727">
        <ele>107</ele>
        <time>2010-04-27T16:28:41Z</time>
      </trkpt>
      <trkpt lat="49.34752" lon="1.04709">
        <ele>107</ele>
        <time>2010-04-27T16:28:44Z</time>
      </trkpt>
      <trkpt lat="49.34756" lon="1.0469">
        <ele>107</ele>
        <time>2010-04-27T16:28:47Z</time>
      </trkpt>
      <trkpt lat="49.34759" lon="1.04671">
        <ele>107</ele>
        <time>2010-04-27T16:28:50Z</time>
      </trkpt>
      <trkpt lat="49.34763" lon="1.04651">
        <ele>107</ele>
        <time>2010-04-27T16:28:53Z</time>
      </trkpt>
      <trkpt lat="49.34766" lon="1.04631">
        <ele>107</ele>
        <time>2010-04-27T16:28:56Z</time>
      </trkpt>
      <trkpt lat="49.3477" lon="1.04612">
        <ele>107</ele>
        <time>2010-04-27T16:28:59Z</time>
      </trkpt>
      <trkpt lat="49.34774" lon="1.04593">
        <ele>107</ele>
        <time>2010-04-27T16:29:02Z</time>
      </trkpt>
      <trkpt lat="49.34777" lon="1.04574">
        <ele>107</ele>
        <time>2010-04-27T16:29:05Z</time>
      </trkpt>
      <trkpt lat="49.34781" lon="1.04557">
        <ele>107</ele>
        <time>2010-04-27T16:29:08Z</time>
      </trkpt>
      <trkpt lat="49.34784" lon="1.04539">
        <ele>107</ele>
        <time>2010-04-27T16:29:11Z</time>
      </trkpt>
      <trkpt lat="49.34787" lon="1.04519">
        <ele>107</ele>
        <time>2010-04-27T16:29:14Z</time>
      </trkpt>
      <trkpt lat="49.34791" lon="1.04499">
        <ele>108</ele>
        <time>2010-04-27T16:29:17Z</time>
      </trkpt>
      <trkpt lat="49.34794" lon="1.0448">
        <ele>108</ele>
        <time>2010-04-27T16:29:20Z</time>
      </trkpt>
      <trkpt lat="49.34799" lon="1.04463">
        <ele>108</ele>
        <time>2010-04-27T16:29:23Z</time>
      </trkpt>
      <trkpt lat="49.34802" lon="1.04447">
        <ele>108</ele>
        <time>2010-04-27T16:29:26Z</time>
      </trkpt>
      <trkpt lat="49.34805" lon="1.04431">
        <ele>108</ele>
        <time>2010-04-27T16:29:29Z</time>
      </trkpt>
      <trkpt lat="49.34813" lon="1.04422">
        <ele>108</ele>
        <time>2010-04-27T16:29:32Z</time>
      </trkpt>
      <trkpt lat="49.34823" lon="1.04424">
        <ele>108</ele>
        <time>2010-04-27T16:29:35Z</time>
      </trkpt>
      <trkpt lat="49.34833" lon="1.04432">
        <ele>108</ele>
        <time>2010-04-27T16:29:38Z</time>
      </trkpt>
      <trkpt lat="49.34841" lon="1.04439">
        <ele>108</ele>
        <time>2010-04-27T16:29:41Z</time>
      </trkpt>
      <trkpt lat="49.34848" lon="1.04446">
        <ele>108</ele>
        <time>2010-04-27T16:29:44Z</time>
      </trkpt>
      <trkpt lat="49.34851" lon="1.04449">
        <ele>108</ele>
        <time>2010-04-27T16:29:49Z</time>
      </trkpt>
      <trkpt lat="49.34862" lon="1.04459">
        <ele>121</ele>
        <time>2010-04-27T16:29:54Z</time>
      </trkpt>
      <trkpt lat="49.34871" lon="1.04464">
        <ele>120</ele>
        <time>2010-04-27T16:29:57Z</time>
      </trkpt>
      <trkpt lat="49.34879" lon="1.04471">
        <ele>118</ele>
        <time>2010-04-27T16:30:00Z</time>
      </trkpt>
      <trkpt lat="49.34889" lon="1.04476">
        <ele>116</ele>
        <time>2010-04-27T16:30:03Z</time>
      </trkpt>
      <trkpt lat="49.34899" lon="1.04483">
        <ele>114</ele>
        <time>2010-04-27T16:30:06Z</time>
      </trkpt>
      <trkpt lat="49.3491" lon="1.04489">
        <ele>114</ele>
        <time>2010-04-27T16:30:09Z</time>
      </trkpt>
      <trkpt lat="49.34922" lon="1.04499">
        <ele>113</ele>
        <time>2010-04-27T16:30:12Z</time>
      </trkpt>
      <trkpt lat="49.34935" lon="1.04508">
        <ele>112</ele>
        <time>2010-04-27T16:30:15Z</time>
      </trkpt>
      <trkpt lat="49.34947" lon="1.04519">
        <ele>111</ele>
        <time>2010-04-27T16:30:18Z</time>
      </trkpt>
      <trkpt lat="49.34961" lon="1.04529">
        <ele>109</ele>
        <time>2010-04-27T16:30:21Z</time>
      </trkpt>
      <trkpt lat="49.34975" lon="1.04538">
        <ele>107</ele>
        <time>2010-04-27T16:30:24Z</time>
      </trkpt>
      <trkpt lat="49.34989" lon="1.04548">
        <ele>105</ele>
        <time>2010-04-27T16:30:27Z</time>
      </trkpt>
      <trkpt lat="49.35003" lon="1.04557">
        <ele>104</ele>
        <time>2010-04-27T16:30:30Z</time>
      </trkpt>
      <trkpt lat="49.35016" lon="1.04567">
        <ele>103</ele>
        <time>2010-04-27T16:30:33Z</time>
      </trkpt>
      <trkpt lat="49.35032" lon="1.04578">
        <ele>103</ele>
        <time>2010-04-27T16:30:36Z</time>
      </trkpt>
      <trkpt lat="49.35049" lon="1.0459">
        <ele>102</ele>
        <time>2010-04-27T16:30:39Z</time>
      </trkpt>
      <trkpt lat="49.35068" lon="1.04604">
        <ele>102</ele>
        <time>2010-04-27T16:30:42Z</time>
      </trkpt>
      <trkpt lat="49.35087" lon="1.04619">
        <ele>101</ele>
        <time>2010-04-27T16:30:45Z</time>
      </trkpt>
      <trkpt lat="49.35107" lon="1.04634">
        <ele>99</ele>
        <time>2010-04-27T16:30:48Z</time>
      </trkpt>
      <trkpt lat="49.35127" lon="1.04648">
        <ele>99</ele>
        <time>2010-04-27T16:30:51Z</time>
      </trkpt>
      <trkpt lat="49.35145" lon="1.04662">
        <ele>99</ele>
        <time>2010-04-27T16:30:54Z</time>
      </trkpt>
      <trkpt lat="49.35163" lon="1.04674">
        <ele>99</ele>
        <time>2010-04-27T16:30:57Z</time>
      </trkpt>
      <trkpt lat="49.35179" lon="1.04686">
        <ele>99</ele>
        <time>2010-04-27T16:31:00Z</time>
      </trkpt>
      <trkpt lat="49.35195" lon="1.04699">
        <ele>99</ele>
        <time>2010-04-27T16:31:03Z</time>
      </trkpt>
      <trkpt lat="49.35212" lon="1.04711">
        <ele>99</ele>
        <time>2010-04-27T16:31:06Z</time>
      </trkpt>
      <trkpt lat="49.35228" lon="1.04723">
        <ele>99</ele>
        <time>2010-04-27T16:31:09Z</time>
      </trkpt>
      <trkpt lat="49.35244" lon="1.04735">
        <ele>99</ele>
        <time>2010-04-27T16:31:12Z</time>
      </trkpt>
      <trkpt lat="49.3526" lon="1.04746">
        <ele>99</ele>
        <time>2010-04-27T16:31:15Z</time>
      </trkpt>
      <trkpt lat="49.35276" lon="1.04758">
        <ele>99</ele>
        <time>2010-04-27T16:31:18Z</time>
      </trkpt>
      <trkpt lat="49.35293" lon="1.0477">
        <ele>99</ele>
        <time>2010-04-27T16:31:21Z</time>
      </trkpt>
      <trkpt lat="49.35309" lon="1.04781">
        <ele>99</ele>
        <time>2010-04-27T16:31:24Z</time>
      </trkpt>
      <trkpt lat="49.35326" lon="1.04793">
        <ele>99</ele>
        <time>2010-04-27T16:31:27Z</time>
      </trkpt>
      <trkpt lat="49.35343" lon="1.04806">
        <ele>99</ele>
        <time>2010-04-27T16:31:30Z</time>
      </trkpt>
      <trkpt lat="49.3536" lon="1.04819">
        <ele>99</ele>
        <time>2010-04-27T16:31:33Z</time>
      </trkpt>
      <trkpt lat="49.35377" lon="1.04831">
        <ele>99</ele>
        <time>2010-04-27T16:31:36Z</time>
      </trkpt>
      <trkpt lat="49.35395" lon="1.04844">
        <ele>99</ele>
        <time>2010-04-27T16:31:39Z</time>
      </trkpt>
      <trkpt lat="49.35412" lon="1.04857">
        <ele>99</ele>
        <time>2010-04-27T16:31:42Z</time>
      </trkpt>
      <trkpt lat="49.3543" lon="1.0487">
        <ele>99</ele>
        <time>2010-04-27T16:31:45Z</time>
      </trkpt>
      <trkpt lat="49.35448" lon="1.04883">
        <ele>99</ele>
        <time>2010-04-27T16:31:48Z</time>
      </trkpt>
      <trkpt lat="49.35466" lon="1.04896">
        <ele>98</ele>
        <time>2010-04-27T16:31:51Z</time>
      </trkpt>
      <trkpt lat="49.35484" lon="1.04909">
        <ele>98</ele>
        <time>2010-04-27T16:31:54Z</time>
      </trkpt>
      <trkpt lat="49.35502" lon="1.04922">
        <ele>98</ele>
        <time>2010-04-27T16:31:57Z</time>
      </trkpt>
      <trkpt lat="49.3552" lon="1.04934">
        <ele>97</ele>
        <time>2010-04-27T16:32:00Z</time>
      </trkpt>
      <trkpt lat="49.35537" lon="1.04947">
        <ele>97</ele>
        <time>2010-04-27T16:32:03Z</time>
      </trkpt>
      <trkpt lat="49.35554" lon="1.04959">
        <ele>97</ele>
        <time>2010-04-27T16:32:06Z</time>
      </trkpt>
      <trkpt lat="49.35571" lon="1.04971">
        <ele>97</ele>
        <time>2010-04-27T16:32:09Z</time>
      </trkpt>
      <trkpt lat="49.35587" lon="1.04983">
        <ele>97</ele>
        <time>2010-04-27T16:32:12Z</time>
      </trkpt>
      <trkpt lat="49.35603" lon="1.04994">
        <ele>96</ele>
        <time>2010-04-27T16:32:15Z</time>
      </trkpt>
      <trkpt lat="49.3562" lon="1.05006">
        <ele>96</ele>
        <time>2010-04-27T16:32:18Z</time>
      </trkpt>
      <trkpt lat="49.35635" lon="1.05018">
        <ele>96</ele>
        <time>2010-04-27T16:32:21Z</time>
      </trkpt>
      <trkpt lat="49.35652" lon="1.0503">
        <ele>96</ele>
        <time>2010-04-27T16:32:24Z</time>
      </trkpt>
      <trkpt lat="49.35668" lon="1.05042">
        <ele>95</ele>
        <time>2010-04-27T16:32:27Z</time>
      </trkpt>
      <trkpt lat="49.35685" lon="1.05054">
        <ele>95</ele>
        <time>2010-04-27T16:32:30Z</time>
      </trkpt>
      <trkpt lat="49.35702" lon="1.05066">
        <ele>94</ele>
        <time>2010-04-27T16:32:33Z</time>
      </trkpt>
      <trkpt lat="49.35718" lon="1.05078">
        <ele>94</ele>
        <time>2010-04-27T16:32:36Z</time>
      </trkpt>
      <trkpt lat="49.35735" lon="1.05089">
        <ele>94</ele>
        <time>2010-04-27T16:32:39Z</time>
      </trkpt>
      <trkpt lat="49.35751" lon="1.05101">
        <ele>94</ele>
        <time>2010-04-27T16:32:42Z</time>
      </trkpt>
      <trkpt lat="49.35768" lon="1.05113">
        <ele>93</ele>
        <time>2010-04-27T16:32:45Z</time>
      </trkpt>
      <trkpt lat="49.35784" lon="1.05125">
        <ele>93</ele>
        <time>2010-04-27T16:32:48Z</time>
      </trkpt>
      <trkpt lat="49.358" lon="1.05136">
        <ele>92</ele>
        <time>2010-04-27T16:32:51Z</time>
      </trkpt>
      <trkpt lat="49.35816" lon="1.05147">
        <ele>91</ele>
        <time>2010-04-27T16:32:54Z</time>
      </trkpt>
      <trkpt lat="49.35832" lon="1.05159">
        <ele>91</ele>
        <time>2010-04-27T16:32:57Z</time>
      </trkpt>
      <trkpt lat="49.35848" lon="1.0517">
        <ele>90</ele>
        <time>2010-04-27T16:33:00Z</time>
      </trkpt>
      <trkpt lat="49.35864" lon="1.05182">
        <ele>88</ele>
        <time>2010-04-27T16:33:03Z</time>
      </trkpt>
      <trkpt lat="49.3588" lon="1.05194">
        <ele>88</ele>
        <time>2010-04-27T16:33:06Z</time>
      </trkpt>
      <trkpt lat="49.35897" lon="1.05206">
        <ele>88</ele>
        <time>2010-04-27T16:33:09Z</time>
      </trkpt>
      <trkpt lat="49.35914" lon="1.05219">
        <ele>88</ele>
        <time>2010-04-27T16:33:12Z</time>
      </trkpt>
      <trkpt lat="49.3593" lon="1.05231">
        <ele>88</ele>
        <time>2010-04-27T16:33:15Z</time>
      </trkpt>
      <trkpt lat="49.35947" lon="1.05243">
        <ele>87</ele>
        <time>2010-04-27T16:33:18Z</time>
      </trkpt>
      <trkpt lat="49.35964" lon="1.05255">
        <ele>87</ele>
        <time>2010-04-27T16:33:21Z</time>
      </trkpt>
      <trkpt lat="49.35981" lon="1.05268">
        <ele>86</ele>
        <time>2010-04-27T16:33:24Z</time>
      </trkpt>
      <trkpt lat="49.35999" lon="1.05281">
        <ele>85</ele>
        <time>2010-04-27T16:33:27Z</time>
      </trkpt>
      <trkpt lat="49.36017" lon="1.05293">
        <ele>84</ele>
        <time>2010-04-27T16:33:30Z</time>
      </trkpt>
      <trkpt lat="49.36035" lon="1.05305">
        <ele>84</ele>
        <time>2010-04-27T16:33:33Z</time>
      </trkpt>
      <trkpt lat="49.36052" lon="1.05318">
        <ele>83</ele>
        <time>2010-04-27T16:33:36Z</time>
      </trkpt>
      <trkpt lat="49.36069" lon="1.05329">
        <ele>83</ele>
        <time>2010-04-27T16:33:39Z</time>
      </trkpt>
      <trkpt lat="49.36086" lon="1.05341">
        <ele>83</ele>
        <time>2010-04-27T16:33:42Z</time>
      </trkpt>
      <trkpt lat="49.36102" lon="1.05352">
        <ele>83</ele>
        <time>2010-04-27T16:33:45Z</time>
      </trkpt>
      <trkpt lat="49.36118" lon="1.05363">
        <ele>83</ele>
        <time>2010-04-27T16:33:48Z</time>
      </trkpt>
      <trkpt lat="49.36134" lon="1.05375">
        <ele>82</ele>
        <time>2010-04-27T16:33:51Z</time>
      </trkpt>
      <trkpt lat="49.36149" lon="1.05387">
        <ele>82</ele>
        <time>2010-04-27T16:33:54Z</time>
      </trkpt>
      <trkpt lat="49.36165" lon="1.05399">
        <ele>82</ele>
        <time>2010-04-27T16:33:57Z</time>
      </trkpt>
      <trkpt lat="49.36181" lon="1.0541">
        <ele>82</ele>
        <time>2010-04-27T16:34:00Z</time>
      </trkpt>
      <trkpt lat="49.36196" lon="1.05421">
        <ele>82</ele>
        <time>2010-04-27T16:34:03Z</time>
      </trkpt>
      <trkpt lat="49.36212" lon="1.05432">
        <ele>81</ele>
        <time>2010-04-27T16:34:06Z</time>
      </trkpt>
      <trkpt lat="49.36227" lon="1.05443">
        <ele>80</ele>
        <time>2010-04-27T16:34:09Z</time>
      </trkpt>
      <trkpt lat="49.36243" lon="1.05455">
        <ele>79</ele>
        <time>2010-04-27T16:34:12Z</time>
      </trkpt>
      <trkpt lat="49.36258" lon="1.05465">
        <ele>79</ele>
        <time>2010-04-27T16:34:15Z</time>
      </trkpt>
      <trkpt lat="49.36274" lon="1.05477">
        <ele>79</ele>
        <time>2010-04-27T16:34:18Z</time>
      </trkpt>
      <trkpt lat="49.3629" lon="1.05488">
        <ele>79</ele>
        <time>2010-04-27T16:34:21Z</time>
      </trkpt>
      <trkpt lat="49.36307" lon="1.055">
        <ele>78</ele>
        <time>2010-04-27T16:34:24Z</time>
      </trkpt>
      <trkpt lat="49.36323" lon="1.05511">
        <ele>77</ele>
        <time>2010-04-27T16:34:27Z</time>
      </trkpt>
      <trkpt lat="49.36339" lon="1.05523">
        <ele>77</ele>
        <time>2010-04-27T16:34:30Z</time>
      </trkpt>
      <trkpt lat="49.36354" lon="1.05535">
        <ele>76</ele>
        <time>2010-04-27T16:34:33Z</time>
      </trkpt>
      <trkpt lat="49.3637" lon="1.05547">
        <ele>76</ele>
        <time>2010-04-27T16:34:36Z</time>
      </trkpt>
      <trkpt lat="49.36387" lon="1.0556">
        <ele>76</ele>
        <time>2010-04-27T16:34:39Z</time>
      </trkpt>
      <trkpt lat="49.36404" lon="1.05573">
        <ele>76</ele>
        <time>2010-04-27T16:34:42Z</time>
      </trkpt>
      <trkpt lat="49.36422" lon="1.05586">
        <ele>76</ele>
        <time>2010-04-27T16:34:45Z</time>
      </trkpt>
      <trkpt lat="49.36439" lon="1.05598">
        <ele>76</ele>
        <time>2010-04-27T16:34:48Z</time>
      </trkpt>
      <trkpt lat="49.36456" lon="1.0561">
        <ele>76</ele>
        <time>2010-04-27T16:34:51Z</time>
      </trkpt>
      <trkpt lat="49.36473" lon="1.05623">
        <ele>76</ele>
        <time>2010-04-27T16:34:54Z</time>
      </trkpt>
      <trkpt lat="49.3649" lon="1.05637">
        <ele>76</ele>
        <time>2010-04-27T16:34:57Z</time>
      </trkpt>
      <trkpt lat="49.36507" lon="1.0565">
        <ele>77</ele>
        <time>2010-04-27T16:35:00Z</time>
      </trkpt>
      <trkpt lat="49.36524" lon="1.05662">
        <ele>78</ele>
        <time>2010-04-27T16:35:03Z</time>
      </trkpt>
      <trkpt lat="49.3654" lon="1.05674">
        <ele>78</ele>
        <time>2010-04-27T16:35:06Z</time>
      </trkpt>
      <trkpt lat="49.36556" lon="1.05685">
        <ele>78</ele>
        <time>2010-04-27T16:35:09Z</time>
      </trkpt>
      <trkpt lat="49.36571" lon="1.05693">
        <ele>78</ele>
        <time>2010-04-27T16:35:12Z</time>
      </trkpt>
      <trkpt lat="49.36585" lon="1.05704">
        <ele>78</ele>
        <time>2010-04-27T16:35:15Z</time>
      </trkpt>
      <trkpt lat="49.36599" lon="1.05714">
        <ele>78</ele>
        <time>2010-04-27T16:35:18Z</time>
      </trkpt>
      <trkpt lat="49.36616" lon="1.05726">
        <ele>78</ele>
        <time>2010-04-27T16:35:21Z</time>
      </trkpt>
      <trkpt lat="49.36632" lon="1.05738">
        <ele>78</ele>
        <time>2010-04-27T16:35:24Z</time>
      </trkpt>
      <trkpt lat="49.36648" lon="1.0575">
        <ele>78</ele>
        <time>2010-04-27T16:35:27Z</time>
      </trkpt>
      <trkpt lat="49.36665" lon="1.05763">
        <ele>78</ele>
        <time>2010-04-27T16:35:30Z</time>
      </trkpt>
      <trkpt lat="49.36683" lon="1.05774">
        <ele>78</ele>
        <time>2010-04-27T16:35:33Z</time>
      </trkpt>
      <trkpt lat="49.367" lon="1.05787">
        <ele>78</ele>
        <time>2010-04-27T16:35:36Z</time>
      </trkpt>
      <trkpt lat="49.36718" lon="1.058">
        <ele>78</ele>
        <time>2010-04-27T16:35:39Z</time>
      </trkpt>
      <trkpt lat="49.36736" lon="1.05813">
        <ele>78</ele>
        <time>2010-04-27T16:35:42Z</time>
      </trkpt>
      <trkpt lat="49.36755" lon="1.05827">
        <ele>78</ele>
        <time>2010-04-27T16:35:45Z</time>
      </trkpt>
      <trkpt lat="49.36774" lon="1.05841">
        <ele>78</ele>
        <time>2010-04-27T16:35:48Z</time>
      </trkpt>
      <trkpt lat="49.36793" lon="1.05855">
        <ele>78</ele>
        <time>2010-04-27T16:35:51Z</time>
      </trkpt>
      <trkpt lat="49.36811" lon="1.05867">
        <ele>78</ele>
        <time>2010-04-27T16:35:54Z</time>
      </trkpt>
      <trkpt lat="49.36828" lon="1.0588">
        <ele>78</ele>
        <time>2010-04-27T16:35:57Z</time>
      </trkpt>
      <trkpt lat="49.36846" lon="1.05893">
        <ele>78</ele>
        <time>2010-04-27T16:36:00Z</time>
      </trkpt>
      <trkpt lat="49.36864" lon="1.05906">
        <ele>78</ele>
        <time>2010-04-27T16:36:03Z</time>
      </trkpt>
      <trkpt lat="49.36882" lon="1.05918">
        <ele>78</ele>
        <time>2010-04-27T16:36:06Z</time>
      </trkpt>
      <trkpt lat="49.36899" lon="1.0593">
        <ele>78</ele>
        <time>2010-04-27T16:36:09Z</time>
      </trkpt>
      <trkpt lat="49.36916" lon="1.05942">
        <ele>78</ele>
        <time>2010-04-27T16:36:12Z</time>
      </trkpt>
      <trkpt lat="49.36933" lon="1.05954">
        <ele>78</ele>
        <time>2010-04-27T16:36:15Z</time>
      </trkpt>
      <trkpt lat="49.36949" lon="1.05966">
        <ele>78</ele>
        <time>2010-04-27T16:36:18Z</time>
      </trkpt>
      <trkpt lat="49.36966" lon="1.05978">
        <ele>78</ele>
        <time>2010-04-27T16:36:21Z</time>
      </trkpt>
      <trkpt lat="49.36983" lon="1.0599">
        <ele>78</ele>
        <time>2010-04-27T16:36:24Z</time>
      </trkpt>
      <trkpt lat="49.37" lon="1.06002">
        <ele>77</ele>
        <time>2010-04-27T16:36:27Z</time>
      </trkpt>
      <trkpt lat="49.37017" lon="1.06013">
        <ele>75</ele>
        <time>2010-04-27T16:36:30Z</time>
      </trkpt>
      <trkpt lat="49.37034" lon="1.06025">
        <ele>74</ele>
        <time>2010-04-27T16:36:33Z</time>
      </trkpt>
      <trkpt lat="49.37051" lon="1.06037">
        <ele>72</ele>
        <time>2010-04-27T16:36:36Z</time>
      </trkpt>
      <trkpt lat="49.37069" lon="1.06049">
        <ele>70</ele>
        <time>2010-04-27T16:36:39Z</time>
      </trkpt>
      <trkpt lat="49.37085" lon="1.06062">
        <ele>69</ele>
        <time>2010-04-27T16:36:42Z</time>
      </trkpt>
      <trkpt lat="49.37103" lon="1.06074">
        <ele>69</ele>
        <time>2010-04-27T16:36:45Z</time>
      </trkpt>
      <trkpt lat="49.3712" lon="1.06087">
        <ele>68</ele>
        <time>2010-04-27T16:36:48Z</time>
      </trkpt>
      <trkpt lat="49.37136" lon="1.06098">
        <ele>68</ele>
        <time>2010-04-27T16:36:51Z</time>
      </trkpt>
      <trkpt lat="49.37152" lon="1.0611">
        <ele>68</ele>
        <time>2010-04-27T16:36:54Z</time>
      </trkpt>
      <trkpt lat="49.37167" lon="1.06121">
        <ele>68</ele>
        <time>2010-04-27T16:36:57Z</time>
      </trkpt>
      <trkpt lat="49.37182" lon="1.06133">
        <ele>68</ele>
        <time>2010-04-27T16:37:00Z</time>
      </trkpt>
      <trkpt lat="49.37197" lon="1.06143">
        <ele>68</ele>
        <time>2010-04-27T16:37:03Z</time>
      </trkpt>
      <trkpt lat="49.37211" lon="1.06153">
        <ele>68</ele>
        <time>2010-04-27T16:37:06Z</time>
      </trkpt>
      <trkpt lat="49.37225" lon="1.06163">
        <ele>68</ele>
        <time>2010-04-27T16:37:09Z</time>
      </trkpt>
      <trkpt lat="49.37238" lon="1.06173">
        <ele>69</ele>
        <time>2010-04-27T16:37:12Z</time>
      </trkpt>
      <trkpt lat="49.37251" lon="1.06183">
        <ele>69</ele>
        <time>2010-04-27T16:37:15Z</time>
      </trkpt>
      <trkpt lat="49.37264" lon="1.06192">
        <ele>69</ele>
        <time>2010-04-27T16:37:18Z</time>
      </trkpt>
      <trkpt lat="49.37278" lon="1.06202">
        <ele>69</ele>
        <time>2010-04-27T16:37:21Z</time>
      </trkpt>
      <trkpt lat="49.37291" lon="1.06212">
        <ele>69</ele>
        <time>2010-04-27T16:37:24Z</time>
      </trkpt>
      <trkpt lat="49.37305" lon="1.06222">
        <ele>69</ele>
        <time>2010-04-27T16:37:27Z</time>
      </trkpt>
      <trkpt lat="49.37318" lon="1.06231">
        <ele>69</ele>
        <time>2010-04-27T16:37:30Z</time>
      </trkpt>
      <trkpt lat="49.37332" lon="1.0624">
        <ele>69</ele>
        <time>2010-04-27T16:37:33Z</time>
      </trkpt>
      <trkpt lat="49.37346" lon="1.06251">
        <ele>69</ele>
        <time>2010-04-27T16:37:36Z</time>
      </trkpt>
      <trkpt lat="49.3736" lon="1.06262">
        <ele>69</ele>
        <time>2010-04-27T16:37:39Z</time>
      </trkpt>
      <trkpt lat="49.37375" lon="1.06273">
        <ele>69</ele>
        <time>2010-04-27T16:37:42Z</time>
      </trkpt>
      <trkpt lat="49.3739" lon="1.06283">
        <ele>69</ele>
        <time>2010-04-27T16:37:45Z</time>
      </trkpt>
      <trkpt lat="49.37405" lon="1.06294">
        <ele>69</ele>
        <time>2010-04-27T16:37:48Z</time>
      </trkpt>
      <trkpt lat="49.37421" lon="1.06305">
        <ele>69</ele>
        <time>2010-04-27T16:37:51Z</time>
      </trkpt>
      <trkpt lat="49.37437" lon="1.06316">
        <ele>69</ele>
        <time>2010-04-27T16:37:54Z</time>
      </trkpt>
      <trkpt lat="49.37453" lon="1.06327">
        <ele>69</ele>
        <time>2010-04-27T16:37:57Z</time>
      </trkpt>
      <trkpt lat="49.3747" lon="1.06338">
        <ele>69</ele>
        <time>2010-04-27T16:38:00Z</time>
      </trkpt>
      <trkpt lat="49.37482" lon="1.06355">
        <ele>69</ele>
        <time>2010-04-27T16:38:03Z</time>
      </trkpt>
      <trkpt lat="49.37492" lon="1.06372">
        <ele>69</ele>
        <time>2010-04-27T16:38:06Z</time>
      </trkpt>
      <trkpt lat="49.37506" lon="1.06373">
        <ele>69</ele>
        <time>2010-04-27T16:38:09Z</time>
      </trkpt>
      <trkpt lat="49.37517" lon="1.0636">
        <ele>69</ele>
        <time>2010-04-27T16:38:12Z</time>
      </trkpt>
      <trkpt lat="49.3753" lon="1.06353">
        <ele>69</ele>
        <time>2010-04-27T16:38:15Z</time>
      </trkpt>
      <trkpt lat="49.37542" lon="1.06349">
        <ele>69</ele>
        <time>2010-04-27T16:38:18Z</time>
      </trkpt>
      <trkpt lat="49.37556" lon="1.06346">
        <ele>69</ele>
        <time>2010-04-27T16:38:21Z</time>
      </trkpt>
      <trkpt lat="49.3757" lon="1.06341">
        <ele>69</ele>
        <time>2010-04-27T16:38:24Z</time>
      </trkpt>
      <trkpt lat="49.37583" lon="1.06336">
        <ele>69</ele>
        <time>2010-04-27T16:38:27Z</time>
      </trkpt>
      <trkpt lat="49.37596" lon="1.06332">
        <ele>69</ele>
        <time>2010-04-27T16:38:30Z</time>
      </trkpt>
      <trkpt lat="49.37609" lon="1.06329">
        <ele>69</ele>
        <time>2010-04-27T16:38:33Z</time>
      </trkpt>
      <trkpt lat="49.37623" lon="1.06324">
        <ele>69</ele>
        <time>2010-04-27T16:38:36Z</time>
      </trkpt>
      <trkpt lat="49.37637" lon="1.06318">
        <ele>69</ele>
        <time>2010-04-27T16:38:39Z</time>
      </trkpt>
      <trkpt lat="49.37653" lon="1.06313">
        <ele>69</ele>
        <time>2010-04-27T16:38:42Z</time>
      </trkpt>
      <trkpt lat="49.37669" lon="1.06308">
        <ele>69</ele>
        <time>2010-04-27T16:38:45Z</time>
      </trkpt>
      <trkpt lat="49.37685" lon="1.06303">
        <ele>69</ele>
        <time>2010-04-27T16:38:48Z</time>
      </trkpt>
      <trkpt lat="49.37699" lon="1.063">
        <ele>69</ele>
        <time>2010-04-27T16:38:51Z</time>
      </trkpt>
      <trkpt lat="49.37714" lon="1.06295">
        <ele>69</ele>
        <time>2010-04-27T16:38:54Z</time>
      </trkpt>
      <trkpt lat="49.37729" lon="1.06291">
        <ele>69</ele>
        <time>2010-04-27T16:38:57Z</time>
      </trkpt>
      <trkpt lat="49.37745" lon="1.06286">
        <ele>69</ele>
        <time>2010-04-27T16:39:00Z</time>
      </trkpt>
      <trkpt lat="49.37761" lon="1.06281">
        <ele>69</ele>
        <time>2010-04-27T16:39:03Z</time>
      </trkpt>
      <trkpt lat="49.37774" lon="1.06278">
        <ele>69</ele>
        <time>2010-04-27T16:39:06Z</time>
      </trkpt>
      <trkpt lat="49.37789" lon="1.06274">
        <ele>69</ele>
        <time>2010-04-27T16:39:09Z</time>
      </trkpt>
      <trkpt lat="49.37803" lon="1.0627">
        <ele>69</ele>
        <time>2010-04-27T16:39:12Z</time>
      </trkpt>
      <trkpt lat="49.37817" lon="1.06266">
        <ele>69</ele>
        <time>2010-04-27T16:39:15Z</time>
      </trkpt>
      <trkpt lat="49.37828" lon="1.06262">
        <ele>69</ele>
        <time>2010-04-27T16:39:18Z</time>
      </trkpt>
      <trkpt lat="49.3784" lon="1.06259">
        <ele>69</ele>
        <time>2010-04-27T16:39:21Z</time>
      </trkpt>
      <trkpt lat="49.37856" lon="1.06254">
        <ele>69</ele>
        <time>2010-04-27T16:39:24Z</time>
      </trkpt>
      <trkpt lat="49.37869" lon="1.06249">
        <ele>69</ele>
        <time>2010-04-27T16:39:27Z</time>
      </trkpt>
      <trkpt lat="49.3788" lon="1.06243">
        <ele>69</ele>
        <time>2010-04-27T16:39:30Z</time>
      </trkpt>
      <trkpt lat="49.37892" lon="1.06239">
        <ele>69</ele>
        <time>2010-04-27T16:39:33Z</time>
      </trkpt>
      <trkpt lat="49.37905" lon="1.06235">
        <ele>69</ele>
        <time>2010-04-27T16:39:36Z</time>
      </trkpt>
      <trkpt lat="49.3792" lon="1.06231">
        <ele>69</ele>
        <time>2010-04-27T16:39:39Z</time>
      </trkpt>
      <trkpt lat="49.37933" lon="1.06227">
        <ele>69</ele>
        <time>2010-04-27T16:39:42Z</time>
      </trkpt>
      <trkpt lat="49.37949" lon="1.06223">
        <ele>69</ele>
        <time>2010-04-27T16:39:45Z</time>
      </trkpt>
      <trkpt lat="49.37962" lon="1.06217">
        <ele>69</ele>
        <time>2010-04-27T16:39:48Z</time>
      </trkpt>
      <trkpt lat="49.37971" lon="1.06212">
        <ele>70</ele>
        <time>2010-04-27T16:39:51Z</time>
      </trkpt>
      <trkpt lat="49.37984" lon="1.06209">
        <ele>70</ele>
        <time>2010-04-27T16:39:54Z</time>
      </trkpt>
      <trkpt lat="49.38001" lon="1.06207">
        <ele>70</ele>
        <time>2010-04-27T16:39:57Z</time>
      </trkpt>
      <trkpt lat="49.38017" lon="1.06203">
        <ele>70</ele>
        <time>2010-04-27T16:40:00Z</time>
      </trkpt>
      <trkpt lat="49.38032" lon="1.06199">
        <ele>70</ele>
        <time>2010-04-27T16:40:03Z</time>
      </trkpt>
      <trkpt lat="49.38047" lon="1.06195">
        <ele>70</ele>
        <time>2010-04-27T16:40:06Z</time>
      </trkpt>
      <trkpt lat="49.3806" lon="1.06192">
        <ele>70</ele>
        <time>2010-04-27T16:40:09Z</time>
      </trkpt>
      <trkpt lat="49.38074" lon="1.06189">
        <ele>70</ele>
        <time>2010-04-27T16:40:12Z</time>
      </trkpt>
      <trkpt lat="49.38089" lon="1.06184">
        <ele>70</ele>
        <time>2010-04-27T16:40:15Z</time>
      </trkpt>
      <trkpt lat="49.38103" lon="1.0618">
        <ele>70</ele>
        <time>2010-04-27T16:40:18Z</time>
      </trkpt>
      <trkpt lat="49.38117" lon="1.06175">
        <ele>70</ele>
        <time>2010-04-27T16:40:21Z</time>
      </trkpt>
      <trkpt lat="49.38129" lon="1.06171">
        <ele>70</ele>
        <time>2010-04-27T16:40:24Z</time>
      </trkpt>
      <trkpt lat="49.38142" lon="1.06167">
        <ele>70</ele>
        <time>2010-04-27T16:40:27Z</time>
      </trkpt>
      <trkpt lat="49.38158" lon="1.06162">
        <ele>70</ele>
        <time>2010-04-27T16:40:30Z</time>
      </trkpt>
      <trkpt lat="49.38173" lon="1.06157">
        <ele>70</ele>
        <time>2010-04-27T16:40:33Z</time>
      </trkpt>
      <trkpt lat="49.38189" lon="1.06152">
        <ele>70</ele>
        <time>2010-04-27T16:40:36Z</time>
      </trkpt>
      <trkpt lat="49.38204" lon="1.06147">
        <ele>70</ele>
        <time>2010-04-27T16:40:39Z</time>
      </trkpt>
      <trkpt lat="49.3822" lon="1.06146">
        <ele>70</ele>
        <time>2010-04-27T16:40:42Z</time>
      </trkpt>
      <trkpt lat="49.38234" lon="1.06142">
        <ele>70</ele>
        <time>2010-04-27T16:40:45Z</time>
      </trkpt>
      <trkpt lat="49.38248" lon="1.06137">
        <ele>70</ele>
        <time>2010-04-27T16:40:48Z</time>
      </trkpt>
      <trkpt lat="49.38263" lon="1.06132">
        <ele>70</ele>
        <time>2010-04-27T16:40:51Z</time>
      </trkpt>
      <trkpt lat="49.38273" lon="1.0613">
        <ele>70</ele>
        <time>2010-04-27T16:40:54Z</time>
      </trkpt>
      <trkpt lat="49.38281" lon="1.06127">
        <ele>70</ele>
        <time>2010-04-27T16:40:57Z</time>
      </trkpt>
      <trkpt lat="49.38295" lon="1.06122">
        <ele>70</ele>
        <time>2010-04-27T16:41:00Z</time>
      </trkpt>
      <trkpt lat="49.38306" lon="1.0612">
        <ele>70</ele>
        <time>2010-04-27T16:41:03Z</time>
      </trkpt>
      <trkpt lat="49.38318" lon="1.06117">
        <ele>70</ele>
        <time>2010-04-27T16:41:06Z</time>
      </trkpt>
      <trkpt lat="49.38329" lon="1.06114">
        <ele>70</ele>
        <time>2010-04-27T16:41:09Z</time>
      </trkpt>
      <trkpt lat="49.38338" lon="1.06111">
        <ele>70</ele>
        <time>2010-04-27T16:41:12Z</time>
      </trkpt>
      <trkpt lat="49.38347" lon="1.06108">
        <ele>70</ele>
        <time>2010-04-27T16:41:15Z</time>
      </trkpt>
      <trkpt lat="49.38355" lon="1.06104">
        <ele>70</ele>
        <time>2010-04-27T16:41:18Z</time>
      </trkpt>
      <trkpt lat="49.38363" lon="1.06102">
        <ele>70</ele>
        <time>2010-04-27T16:41:21Z</time>
      </trkpt>
      <trkpt lat="49.38371" lon="1.061">
        <ele>69</ele>
        <time>2010-04-27T16:41:24Z</time>
      </trkpt>
      <trkpt lat="49.38381" lon="1.06096">
        <ele>69</ele>
        <time>2010-04-27T16:41:27Z</time>
      </trkpt>
      <trkpt lat="49.38396" lon="1.06091">
        <ele>69</ele>
        <time>2010-04-27T16:41:30Z</time>
      </trkpt>
      <trkpt lat="49.3841" lon="1.06087">
        <ele>69</ele>
        <time>2010-04-27T16:41:33Z</time>
      </trkpt>
      <trkpt lat="49.38424" lon="1.06082">
        <ele>69</ele>
        <time>2010-04-27T16:41:36Z</time>
      </trkpt>
      <trkpt lat="49.38437" lon="1.06079">
        <ele>69</ele>
        <time>2010-04-27T16:41:39Z</time>
      </trkpt>
      <trkpt lat="49.38453" lon="1.06076">
        <ele>69</ele>
        <time>2010-04-27T16:41:42Z</time>
      </trkpt>
      <trkpt lat="49.38467" lon="1.06071">
        <ele>69</ele>
        <time>2010-04-27T16:41:45Z</time>
      </trkpt>
      <trkpt lat="49.38481" lon="1.06067">
        <ele>69</ele>
        <time>2010-04-27T16:41:48Z</time>
      </trkpt>
      <trkpt lat="49.38496" lon="1.06063">
        <ele>69</ele>
        <time>2010-04-27T16:41:51Z</time>
      </trkpt>
      <trkpt lat="49.3851" lon="1.06059">
        <ele>69</ele>
        <time>2010-04-27T16:41:54Z</time>
      </trkpt>
      <trkpt lat="49.38524" lon="1.06056">
        <ele>69</ele>
        <time>2010-04-27T16:41:57Z</time>
      </trkpt>
      <trkpt lat="49.38539" lon="1.06052">
        <ele>69</ele>
        <time>2010-04-27T16:42:00Z</time>
      </trkpt>
      <trkpt lat="49.38553" lon="1.06048">
        <ele>69</ele>
        <time>2010-04-27T16:42:03Z</time>
      </trkpt>
      <trkpt lat="49.38566" lon="1.06044">
        <ele>69</ele>
        <time>2010-04-27T16:42:06Z</time>
      </trkpt>
      <trkpt lat="49.38581" lon="1.0604">
        <ele>69</ele>
        <time>2010-04-27T16:42:09Z</time>
      </trkpt>
      <trkpt lat="49.38596" lon="1.06034">
        <ele>69</ele>
        <time>2010-04-27T16:42:12Z</time>
      </trkpt>
      <trkpt lat="49.38611" lon="1.0603">
        <ele>69</ele>
        <time>2010-04-27T16:42:15Z</time>
      </trkpt>
      <trkpt lat="49.38625" lon="1.06025">
        <ele>69</ele>
        <time>2010-04-27T16:42:18Z</time>
      </trkpt>
      <trkpt lat="49.38639" lon="1.0602">
        <ele>69</ele>
        <time>2010-04-27T16:42:21Z</time>
      </trkpt>
      <trkpt lat="49.38654" lon="1.06016">
        <ele>69</ele>
        <time>2010-04-27T16:42:24Z</time>
      </trkpt>
      <trkpt lat="49.3867" lon="1.06012">
        <ele>69</ele>
        <time>2010-04-27T16:42:27Z</time>
      </trkpt>
      <trkpt lat="49.38686" lon="1.06008">
        <ele>69</ele>
        <time>2010-04-27T16:42:30Z</time>
      </trkpt>
      <trkpt lat="49.38701" lon="1.06003">
        <ele>69</ele>
        <time>2010-04-27T16:42:33Z</time>
      </trkpt>
      <trkpt lat="49.38718" lon="1.05998">
        <ele>69</ele>
        <time>2010-04-27T16:42:36Z</time>
      </trkpt>
      <trkpt lat="49.38733" lon="1.05993">
        <ele>69</ele>
        <time>2010-04-27T16:42:39Z</time>
      </trkpt>
      <trkpt lat="49.38749" lon="1.05989">
        <ele>68</ele>
        <time>2010-04-27T16:42:42Z</time>
      </trkpt>
      <trkpt lat="49.38764" lon="1.05985">
        <ele>68</ele>
        <time>2010-04-27T16:42:45Z</time>
      </trkpt>
      <trkpt lat="49.38779" lon="1.0598">
        <ele>68</ele>
        <time>2010-04-27T16:42:48Z</time>
      </trkpt>
      <trkpt lat="49.38789" lon="1.05976">
        <ele>68</ele>
        <time>2010-04-27T16:42:51Z</time>
      </trkpt>
      <trkpt lat="49.38798" lon="1.05973">
        <ele>68</ele>
        <time>2010-04-27T16:42:54Z</time>
      </trkpt>
      <trkpt lat="49.38807" lon="1.05971">
        <ele>67</ele>
        <time>2010-04-27T16:42:57Z</time>
      </trkpt>
      <trkpt lat="49.38818" lon="1.05967">
        <ele>67</ele>
        <time>2010-04-27T16:43:00Z</time>
      </trkpt>
      <trkpt lat="49.38825" lon="1.05965">
        <ele>67</ele>
        <time>2010-04-27T16:43:03Z</time>
      </trkpt>
      <trkpt lat="49.38832" lon="1.0597">
        <ele>67</ele>
        <time>2010-04-27T16:43:06Z</time>
      </trkpt>
      <trkpt lat="49.38837" lon="1.05985">
        <ele>67</ele>
        <time>2010-04-27T16:43:09Z</time>
      </trkpt>
      <trkpt lat="49.38836" lon="1.06004">
        <ele>66</ele>
        <time>2010-04-27T16:43:12Z</time>
      </trkpt>
      <trkpt lat="49.38831" lon="1.06022">
        <ele>65</ele>
        <time>2010-04-27T16:43:15Z</time>
      </trkpt>
      <trkpt lat="49.38826" lon="1.0604">
        <ele>63</ele>
        <time>2010-04-27T16:43:18Z</time>
      </trkpt>
      <trkpt lat="49.3882" lon="1.06058">
        <ele>62</ele>
        <time>2010-04-27T16:43:21Z</time>
      </trkpt>
      <trkpt lat="49.38815" lon="1.06077">
        <ele>61</ele>
        <time>2010-04-27T16:43:24Z</time>
      </trkpt>
      <trkpt lat="49.3881" lon="1.06095">
        <ele>61</ele>
        <time>2010-04-27T16:43:27Z</time>
      </trkpt>
      <trkpt lat="49.38808" lon="1.06115">
        <ele>61</ele>
        <time>2010-04-27T16:43:30Z</time>
      </trkpt>
      <trkpt lat="49.38804" lon="1.06136">
        <ele>61</ele>
        <time>2010-04-27T16:43:33Z</time>
      </trkpt>
      <trkpt lat="49.38793" lon="1.06152">
        <ele>61</ele>
        <time>2010-04-27T16:43:36Z</time>
      </trkpt>
      <trkpt lat="49.38788" lon="1.06171">
        <ele>61</ele>
        <time>2010-04-27T16:43:39Z</time>
      </trkpt>
      <trkpt lat="49.38786" lon="1.06192">
        <ele>61</ele>
        <time>2010-04-27T16:43:42Z</time>
      </trkpt>
      <trkpt lat="49.38779" lon="1.06211">
        <ele>61</ele>
        <time>2010-04-27T16:43:45Z</time>
      </trkpt>
      <trkpt lat="49.38773" lon="1.0623">
        <ele>61</ele>
        <time>2010-04-27T16:43:48Z</time>
      </trkpt>
      <trkpt lat="49.38768" lon="1.06249">
        <ele>61</ele>
        <time>2010-04-27T16:43:51Z</time>
      </trkpt>
      <trkpt lat="49.38762" lon="1.06268">
        <ele>61</ele>
        <time>2010-04-27T16:43:54Z</time>
      </trkpt>
      <trkpt lat="49.38756" lon="1.06287">
        <ele>61</ele>
        <time>2010-04-27T16:43:57Z</time>
      </trkpt>
      <trkpt lat="49.3875" lon="1.06307">
        <ele>61</ele>
        <time>2010-04-27T16:44:00Z</time>
      </trkpt>
      <trkpt lat="49.38743" lon="1.06326">
        <ele>61</ele>
        <time>2010-04-27T16:44:03Z</time>
      </trkpt>
      <trkpt lat="49.38737" lon="1.06345">
        <ele>61</ele>
        <time>2010-04-27T16:44:06Z</time>
      </trkpt>
      <trkpt lat="49.38731" lon="1.06364">
        <ele>61</ele>
        <time>2010-04-27T16:44:09Z</time>
      </trkpt>
      <trkpt lat="49.38725" lon="1.06383">
        <ele>61</ele>
        <time>2010-04-27T16:44:12Z</time>
      </trkpt>
      <trkpt lat="49.38719" lon="1.06398">
        <ele>61</ele>
        <time>2010-04-27T16:44:15Z</time>
      </trkpt>
      <trkpt lat="49.38713" lon="1.06415">
        <ele>61</ele>
        <time>2010-04-27T16:44:18Z</time>
      </trkpt>
      <trkpt lat="49.3871" lon="1.06436">
        <ele>61</ele>
        <time>2010-04-27T16:44:21Z</time>
      </trkpt>
      <trkpt lat="49.38706" lon="1.06459">
        <ele>63</ele>
        <time>2010-04-27T16:44:24Z</time>
      </trkpt>
      <trkpt lat="49.387" lon="1.0648">
        <ele>64</ele>
        <time>2010-04-27T16:44:27Z</time>
      </trkpt>
      <trkpt lat="49.38694" lon="1.06501">
        <ele>65</ele>
        <time>2010-04-27T16:44:30Z</time>
      </trkpt>
      <trkpt lat="49.38688" lon="1.06521">
        <ele>65</ele>
        <time>2010-04-27T16:44:33Z</time>
      </trkpt>
      <trkpt lat="49.38683" lon="1.06541">
        <ele>65</ele>
        <time>2010-04-27T16:44:36Z</time>
      </trkpt>
      <trkpt lat="49.38677" lon="1.06562">
        <ele>65</ele>
        <time>2010-04-27T16:44:39Z</time>
      </trkpt>
      <trkpt lat="49.38672" lon="1.06583">
        <ele>66</ele>
        <time>2010-04-27T16:44:42Z</time>
      </trkpt>
      <trkpt lat="49.38666" lon="1.06604">
        <ele>66</ele>
        <time>2010-04-27T16:44:45Z</time>
      </trkpt>
      <trkpt lat="49.38659" lon="1.06624">
        <ele>66</ele>
        <time>2010-04-27T16:44:48Z</time>
      </trkpt>
      <trkpt lat="49.38653" lon="1.06646">
        <ele>66</ele>
        <time>2010-04-27T16:44:51Z</time>
      </trkpt>
      <trkpt lat="49.38646" lon="1.06667">
        <ele>66</ele>
        <time>2010-04-27T16:44:54Z</time>
      </trkpt>
      <trkpt lat="49.38639" lon="1.06688">
        <ele>66</ele>
        <time>2010-04-27T16:44:57Z</time>
      </trkpt>
      <trkpt lat="49.38633" lon="1.0671">
        <ele>66</ele>
        <time>2010-04-27T16:45:00Z</time>
      </trkpt>
      <trkpt lat="49.38626" lon="1.0673">
        <ele>66</ele>
        <time>2010-04-27T16:45:03Z</time>
      </trkpt>
      <trkpt lat="49.3862" lon="1.0675">
        <ele>66</ele>
        <time>2010-04-27T16:45:06Z</time>
      </trkpt>
      <trkpt lat="49.38614" lon="1.0677">
        <ele>66</ele>
        <time>2010-04-27T16:45:09Z</time>
      </trkpt>
      <trkpt lat="49.38608" lon="1.0679">
        <ele>66</ele>
        <time>2010-04-27T16:45:12Z</time>
      </trkpt>
      <trkpt lat="49.38602" lon="1.06808">
        <ele>66</ele>
        <time>2010-04-27T16:45:15Z</time>
      </trkpt>
      <trkpt lat="49.38594" lon="1.06824">
        <ele>66</ele>
        <time>2010-04-27T16:45:18Z</time>
      </trkpt>
      <trkpt lat="49.3859" lon="1.06842">
        <ele>66</ele>
        <time>2010-04-27T16:45:21Z</time>
      </trkpt>
      <trkpt lat="49.3859" lon="1.06863">
        <ele>66</ele>
        <time>2010-04-27T16:45:24Z</time>
      </trkpt>
      <trkpt lat="49.38583" lon="1.0688">
        <ele>66</ele>
        <time>2010-04-27T16:45:27Z</time>
      </trkpt>
      <trkpt lat="49.38577" lon="1.069">
        <ele>66</ele>
        <time>2010-04-27T16:45:30Z</time>
      </trkpt>
      <trkpt lat="49.38571" lon="1.06921">
        <ele>66</ele>
        <time>2010-04-27T16:45:33Z</time>
      </trkpt>
      <trkpt lat="49.38565" lon="1.06942">
        <ele>66</ele>
        <time>2010-04-27T16:45:36Z</time>
      </trkpt>
      <trkpt lat="49.38558" lon="1.06962">
        <ele>66</ele>
        <time>2010-04-27T16:45:39Z</time>
      </trkpt>
      <trkpt lat="49.3855" lon="1.06981">
        <ele>66</ele>
        <time>2010-04-27T16:45:42Z</time>
      </trkpt>
      <trkpt lat="49.38545" lon="1.07001">
        <ele>66</ele>
        <time>2010-04-27T16:45:45Z</time>
      </trkpt>
      <trkpt lat="49.38542" lon="1.07022">
        <ele>66</ele>
        <time>2010-04-27T16:45:48Z</time>
      </trkpt>
      <trkpt lat="49.38535" lon="1.07041">
        <ele>65</ele>
        <time>2010-04-27T16:45:51Z</time>
      </trkpt>
      <trkpt lat="49.38525" lon="1.07055">
        <ele>65</ele>
        <time>2010-04-27T16:45:54Z</time>
      </trkpt>
      <trkpt lat="49.38513" lon="1.07067">
        <ele>65</ele>
        <time>2010-04-27T16:45:57Z</time>
      </trkpt>
      <trkpt lat="49.38509" lon="1.07086">
        <ele>65</ele>
        <time>2010-04-27T16:46:00Z</time>
      </trkpt>
      <trkpt lat="49.38515" lon="1.07104">
        <ele>65</ele>
        <time>2010-04-27T16:46:03Z</time>
      </trkpt>
      <trkpt lat="49.3852" lon="1.07123">
        <ele>64</ele>
        <time>2010-04-27T16:46:06Z</time>
      </trkpt>
      <trkpt lat="49.38519" lon="1.07146">
        <ele>64</ele>
        <time>2010-04-27T16:46:09Z</time>
      </trkpt>
      <trkpt lat="49.38519" lon="1.0717">
        <ele>64</ele>
        <time>2010-04-27T16:46:12Z</time>
      </trkpt>
      <trkpt lat="49.3852" lon="1.07196">
        <ele>64</ele>
        <time>2010-04-27T16:46:15Z</time>
      </trkpt>
      <trkpt lat="49.3852" lon="1.07222">
        <ele>64</ele>
        <time>2010-04-27T16:46:18Z</time>
      </trkpt>
      <trkpt lat="49.3852" lon="1.07248">
        <ele>64</ele>
        <time>2010-04-27T16:46:21Z</time>
      </trkpt>
      <trkpt lat="49.38519" lon="1.07274">
        <ele>62</ele>
        <time>2010-04-27T16:46:24Z</time>
      </trkpt>
      <trkpt lat="49.38519" lon="1.07301">
        <ele>61</ele>
        <time>2010-04-27T16:46:27Z</time>
      </trkpt>
      <trkpt lat="49.38518" lon="1.07328">
        <ele>59</ele>
        <time>2010-04-27T16:46:30Z</time>
      </trkpt>
      <trkpt lat="49.38518" lon="1.07357">
        <ele>57</ele>
        <time>2010-04-27T16:46:33Z</time>
      </trkpt>
      <trkpt lat="49.38517" lon="1.07384">
        <ele>55</ele>
        <time>2010-04-27T16:46:36Z</time>
      </trkpt>
      <trkpt lat="49.38517" lon="1.07411">
        <ele>53</ele>
        <time>2010-04-27T16:46:39Z</time>
      </trkpt>
      <trkpt lat="49.38515" lon="1.07438">
        <ele>52</ele>
        <time>2010-04-27T16:46:42Z</time>
      </trkpt>
      <trkpt lat="49.38511" lon="1.07464">
        <ele>50</ele>
        <time>2010-04-27T16:46:45Z</time>
      </trkpt>
      <trkpt lat="49.38504" lon="1.07489">
        <ele>50</ele>
        <time>2010-04-27T16:46:48Z</time>
      </trkpt>
      <trkpt lat="49.38495" lon="1.07514">
        <ele>50</ele>
        <time>2010-04-27T16:46:51Z</time>
      </trkpt>
      <trkpt lat="49.38486" lon="1.0754">
        <ele>49</ele>
        <time>2010-04-27T16:46:54Z</time>
      </trkpt>
      <trkpt lat="49.38478" lon="1.07564">
        <ele>48</ele>
        <time>2010-04-27T16:46:57Z</time>
      </trkpt>
      <trkpt lat="49.3847" lon="1.07589">
        <ele>47</ele>
        <time>2010-04-27T16:47:00Z</time>
      </trkpt>
      <trkpt lat="49.38465" lon="1.07616">
        <ele>46</ele>
        <time>2010-04-27T16:47:03Z</time>
      </trkpt>
      <trkpt lat="49.38459" lon="1.07638">
        <ele>47</ele>
        <time>2010-04-27T16:47:06Z</time>
      </trkpt>
      <trkpt lat="49.38453" lon="1.07659">
        <ele>49</ele>
        <time>2010-04-27T16:47:09Z</time>
      </trkpt>
      <trkpt lat="49.38446" lon="1.07682">
        <ele>49</ele>
        <time>2010-04-27T16:47:12Z</time>
      </trkpt>
      <trkpt lat="49.38438" lon="1.07706">
        <ele>49</ele>
        <time>2010-04-27T16:47:15Z</time>
      </trkpt>
      <trkpt lat="49.38429" lon="1.07731">
        <ele>49</ele>
        <time>2010-04-27T16:47:18Z</time>
      </trkpt>
      <trkpt lat="49.38419" lon="1.07761">
        <ele>49</ele>
        <time>2010-04-27T16:47:22Z</time>
      </trkpt>
      <trkpt lat="49.38412" lon="1.07783">
        <ele>49</ele>
        <time>2010-04-27T16:47:25Z</time>
      </trkpt>
      <trkpt lat="49.38405" lon="1.07806">
        <ele>49</ele>
        <time>2010-04-27T16:47:28Z</time>
      </trkpt>
      <trkpt lat="49.38398" lon="1.07831">
        <ele>49</ele>
        <time>2010-04-27T16:47:31Z</time>
      </trkpt>
      <trkpt lat="49.38389" lon="1.07854">
        <ele>49</ele>
        <time>2010-04-27T16:47:34Z</time>
      </trkpt>
      <trkpt lat="49.3837" lon="1.07864">
        <ele>49</ele>
        <time>2010-04-27T16:47:38Z</time>
      </trkpt>
      <trkpt lat="49.38362" lon="1.07876">
        <ele>49</ele>
        <time>2010-04-27T16:47:41Z</time>
      </trkpt>
      <trkpt lat="49.38365" lon="1.07893">
        <ele>49</ele>
        <time>2010-04-27T16:47:44Z</time>
      </trkpt>
      <trkpt lat="49.38371" lon="1.07911">
        <ele>49</ele>
        <time>2010-04-27T16:47:47Z</time>
      </trkpt>
      <trkpt lat="49.38381" lon="1.07922">
        <ele>49</ele>
        <time>2010-04-27T16:47:50Z</time>
      </trkpt>
      <trkpt lat="49.38391" lon="1.07937">
        <ele>49</ele>
        <time>2010-04-27T16:47:53Z</time>
      </trkpt>
      <trkpt lat="49.38396" lon="1.07958">
        <ele>49</ele>
        <time>2010-04-27T16:47:56Z</time>
      </trkpt>
      <trkpt lat="49.38404" lon="1.07978">
        <ele>49</ele>
        <time>2010-04-27T16:47:59Z</time>
      </trkpt>
      <trkpt lat="49.38411" lon="1.07996">
        <ele>48</ele>
        <time>2010-04-27T16:48:02Z</time>
      </trkpt>
      <trkpt lat="49.38424" lon="1.08012">
        <ele>48</ele>
        <time>2010-04-27T16:48:05Z</time>
      </trkpt>
      <trkpt lat="49.38435" lon="1.08026">
        <ele>48</ele>
        <time>2010-04-27T16:48:08Z</time>
      </trkpt>
      <trkpt lat="49.38447" lon="1.08038">
        <ele>48</ele>
        <time>2010-04-27T16:48:11Z</time>
      </trkpt>
      <trkpt lat="49.3846" lon="1.08049">
        <ele>48</ele>
        <time>2010-04-27T16:48:14Z</time>
      </trkpt>
      <trkpt lat="49.38477" lon="1.08066">
        <ele>48</ele>
        <time>2010-04-27T16:48:18Z</time>
      </trkpt>
      <trkpt lat="49.38489" lon="1.08078">
        <ele>48</ele>
        <time>2010-04-27T16:48:21Z</time>
      </trkpt>
      <trkpt lat="49.38501" lon="1.0809">
        <ele>48</ele>
        <time>2010-04-27T16:48:24Z</time>
      </trkpt>
      <trkpt lat="49.38513" lon="1.08101">
        <ele>48</ele>
        <time>2010-04-27T16:48:27Z</time>
      </trkpt>
      <trkpt lat="49.38526" lon="1.08114">
        <ele>48</ele>
        <time>2010-04-27T16:48:30Z</time>
      </trkpt>
      <trkpt lat="49.38538" lon="1.08126">
        <ele>48</ele>
        <time>2010-04-27T16:48:33Z</time>
      </trkpt>
      <trkpt lat="49.3855" lon="1.08141">
        <ele>48</ele>
        <time>2010-04-27T16:48:36Z</time>
      </trkpt>
      <trkpt lat="49.38563" lon="1.08157">
        <ele>48</ele>
        <time>2010-04-27T16:48:39Z</time>
      </trkpt>
      <trkpt lat="49.38576" lon="1.08173">
        <ele>48</ele>
        <time>2010-04-27T16:48:42Z</time>
      </trkpt>
      <trkpt lat="49.38589" lon="1.08191">
        <ele>48</ele>
        <time>2010-04-27T16:48:45Z</time>
      </trkpt>
      <trkpt lat="49.38601" lon="1.08209">
        <ele>47</ele>
        <time>2010-04-27T16:48:48Z</time>
      </trkpt>
      <trkpt lat="49.38613" lon="1.08229">
        <ele>46</ele>
        <time>2010-04-27T16:48:51Z</time>
      </trkpt>
      <trkpt lat="49.38624" lon="1.0825">
        <ele>46</ele>
        <time>2010-04-27T16:48:54Z</time>
      </trkpt>
      <trkpt lat="49.38633" lon="1.08272">
        <ele>45</ele>
        <time>2010-04-27T16:48:57Z</time>
      </trkpt>
      <trkpt lat="49.38643" lon="1.08294">
        <ele>45</ele>
        <time>2010-04-27T16:49:00Z</time>
      </trkpt>
      <trkpt lat="49.38653" lon="1.08317">
        <ele>44</ele>
        <time>2010-04-27T16:49:03Z</time>
      </trkpt>
      <trkpt lat="49.38663" lon="1.0834">
        <ele>43</ele>
        <time>2010-04-27T16:49:06Z</time>
      </trkpt>
      <trkpt lat="49.38674" lon="1.08362">
        <ele>43</ele>
        <time>2010-04-27T16:49:09Z</time>
      </trkpt>
      <trkpt lat="49.3868" lon="1.0838">
        <ele>42</ele>
        <time>2010-04-27T16:49:12Z</time>
      </trkpt>
      <trkpt lat="49.38678" lon="1.08396">
        <ele>41</ele>
        <time>2010-04-27T16:49:15Z</time>
      </trkpt>
      <trkpt lat="49.38677" lon="1.08413">
        <ele>40</ele>
        <time>2010-04-27T16:49:18Z</time>
      </trkpt>
      <trkpt lat="49.38671" lon="1.08432">
        <ele>39</ele>
        <time>2010-04-27T16:49:22Z</time>
      </trkpt>
      <trkpt lat="49.38664" lon="1.08446">
        <ele>39</ele>
        <time>2010-04-27T16:49:25Z</time>
      </trkpt>
      <trkpt lat="49.38656" lon="1.08458">
        <ele>39</ele>
        <time>2010-04-27T16:49:28Z</time>
      </trkpt>
      <trkpt lat="49.38649" lon="1.08472">
        <ele>39</ele>
        <time>2010-04-27T16:49:31Z</time>
      </trkpt>
      <trkpt lat="49.38643" lon="1.08487">
        <ele>39</ele>
        <time>2010-04-27T16:49:34Z</time>
      </trkpt>
      <trkpt lat="49.38637" lon="1.08502">
        <ele>39</ele>
        <time>2010-04-27T16:49:37Z</time>
      </trkpt>
      <trkpt lat="49.38631" lon="1.08516">
        <ele>40</ele>
        <time>2010-04-27T16:49:40Z</time>
      </trkpt>
      <trkpt lat="49.38625" lon="1.0853">
        <ele>40</ele>
        <time>2010-04-27T16:49:43Z</time>
      </trkpt>
      <trkpt lat="49.3862" lon="1.08545">
        <ele>41</ele>
        <time>2010-04-27T16:49:46Z</time>
      </trkpt>
      <trkpt lat="49.38614" lon="1.08561">
        <ele>42</ele>
        <time>2010-04-27T16:49:49Z</time>
      </trkpt>
      <trkpt lat="49.38608" lon="1.08577">
        <ele>42</ele>
        <time>2010-04-27T16:49:52Z</time>
      </trkpt>
      <trkpt lat="49.38602" lon="1.08593">
        <ele>43</ele>
        <time>2010-04-27T16:49:55Z</time>
      </trkpt>
      <trkpt lat="49.38596" lon="1.08611">
        <ele>43</ele>
        <time>2010-04-27T16:49:58Z</time>
      </trkpt>
      <trkpt lat="49.38589" lon="1.08629">
        <ele>43</ele>
        <time>2010-04-27T16:50:01Z</time>
      </trkpt>
      <trkpt lat="49.38583" lon="1.08644">
        <ele>43</ele>
        <time>2010-04-27T16:50:04Z</time>
      </trkpt>
      <trkpt lat="49.38581" lon="1.08653">
        <ele>43</ele>
        <time>2010-04-27T16:50:07Z</time>
      </trkpt>
      <trkpt lat="49.38588" lon="1.08659">
        <ele>43</ele>
        <time>2010-04-27T16:50:10Z</time>
      </trkpt>
      <trkpt lat="49.38599" lon="1.08668">
        <ele>43</ele>
        <time>2010-04-27T16:50:13Z</time>
      </trkpt>
      <trkpt lat="49.38608" lon="1.08684">
        <ele>43</ele>
        <time>2010-04-27T16:50:16Z</time>
      </trkpt>
      <trkpt lat="49.38617" lon="1.08701">
        <ele>43</ele>
        <time>2010-04-27T16:50:19Z</time>
      </trkpt>
      <trkpt lat="49.38628" lon="1.08717">
        <ele>43</ele>
        <time>2010-04-27T16:50:22Z</time>
      </trkpt>
      <trkpt lat="49.38634" lon="1.08736">
        <ele>43</ele>
        <time>2010-04-27T16:50:25Z</time>
      </trkpt>
      <trkpt lat="49.38634" lon="1.08761">
        <ele>43</ele>
        <time>2010-04-27T16:50:28Z</time>
      </trkpt>
      <trkpt lat="49.38634" lon="1.08787">
        <ele>41</ele>
        <time>2010-04-27T16:50:31Z</time>
      </trkpt>
      <trkpt lat="49.38634" lon="1.08813">
        <ele>39</ele>
        <time>2010-04-27T16:50:34Z</time>
      </trkpt>
      <trkpt lat="49.38635" lon="1.08838">
        <ele>37</ele>
        <time>2010-04-27T16:50:37Z</time>
      </trkpt>
      <trkpt lat="49.38628" lon="1.08854">
        <ele>36</ele>
        <time>2010-04-27T16:50:40Z</time>
      </trkpt>
      <trkpt lat="49.38623" lon="1.08872">
        <ele>35</ele>
        <time>2010-04-27T16:50:43Z</time>
      </trkpt>
      <trkpt lat="49.38623" lon="1.08896">
        <ele>34</ele>
        <time>2010-04-27T16:50:46Z</time>
      </trkpt>
      <trkpt lat="49.38623" lon="1.08924">
        <ele>34</ele>
        <time>2010-04-27T16:50:49Z</time>
      </trkpt>
      <trkpt lat="49.38624" lon="1.08954">
        <ele>33</ele>
        <time>2010-04-27T16:50:52Z</time>
      </trkpt>
      <trkpt lat="49.38625" lon="1.08985">
        <ele>31</ele>
        <time>2010-04-27T16:50:55Z</time>
      </trkpt>
      <trkpt lat="49.38629" lon="1.09018">
        <ele>29</ele>
        <time>2010-04-27T16:50:58Z</time>
      </trkpt>
      <trkpt lat="49.38636" lon="1.09053">
        <ele>29</ele>
        <time>2010-04-27T16:51:01Z</time>
      </trkpt>
      <trkpt lat="49.38646" lon="1.09082">
        <ele>28</ele>
        <time>2010-04-27T16:51:04Z</time>
      </trkpt>
      <trkpt lat="49.38656" lon="1.0911">
        <ele>27</ele>
        <time>2010-04-27T16:51:07Z</time>
      </trkpt>
      <trkpt lat="49.38667" lon="1.09138">
        <ele>27</ele>
        <time>2010-04-27T16:51:10Z</time>
      </trkpt>
      <trkpt lat="49.38676" lon="1.09163">
        <ele>27</ele>
        <time>2010-04-27T16:51:13Z</time>
      </trkpt>
      <trkpt lat="49.3869" lon="1.09185">
        <ele>27</ele>
        <time>2010-04-27T16:51:16Z</time>
      </trkpt>
      <trkpt lat="49.38707" lon="1.09194">
        <ele>27</ele>
        <time>2010-04-27T16:51:19Z</time>
      </trkpt>
      <trkpt lat="49.38724" lon="1.09198">
        <ele>27</ele>
        <time>2010-04-27T16:51:22Z</time>
      </trkpt>
      <trkpt lat="49.38738" lon="1.09214">
        <ele>27</ele>
        <time>2010-04-27T16:51:25Z</time>
      </trkpt>
      <trkpt lat="49.38747" lon="1.09236">
        <ele>27</ele>
        <time>2010-04-27T16:51:28Z</time>
      </trkpt>
      <trkpt lat="49.38756" lon="1.09259">
        <ele>27</ele>
        <time>2010-04-27T16:51:31Z</time>
      </trkpt>
      <trkpt lat="49.38764" lon="1.09281">
        <ele>27</ele>
        <time>2010-04-27T16:51:34Z</time>
      </trkpt>
      <trkpt lat="49.38772" lon="1.09302">
        <ele>27</ele>
        <time>2010-04-27T16:51:37Z</time>
      </trkpt>
      <trkpt lat="49.38778" lon="1.09317">
        <ele>27</ele>
        <time>2010-04-27T16:51:40Z</time>
      </trkpt>
      <trkpt lat="49.38784" lon="1.09332">
        <ele>27</ele>
        <time>2010-04-27T16:51:43Z</time>
      </trkpt>
      <trkpt lat="49.3879" lon="1.09349">
        <ele>26</ele>
        <time>2010-04-27T16:51:46Z</time>
      </trkpt>
      <trkpt lat="49.38797" lon="1.09367">
        <ele>26</ele>
        <time>2010-04-27T16:51:49Z</time>
      </trkpt>
      <trkpt lat="49.38803" lon="1.09384">
        <ele>26</ele>
        <time>2010-04-27T16:51:52Z</time>
      </trkpt>
      <trkpt lat="49.3881" lon="1.09403">
        <ele>26</ele>
        <time>2010-04-27T16:51:55Z</time>
      </trkpt>
      <trkpt lat="49.38817" lon="1.09421">
        <ele>26</ele>
        <time>2010-04-27T16:51:58Z</time>
      </trkpt>
      <trkpt lat="49.38823" lon="1.0944">
        <ele>26</ele>
        <time>2010-04-27T16:52:01Z</time>
      </trkpt>
      <trkpt lat="49.38827" lon="1.09459">
        <ele>26</ele>
        <time>2010-04-27T16:52:04Z</time>
      </trkpt>
      <trkpt lat="49.3883" lon="1.09481">
        <ele>26</ele>
        <time>2010-04-27T16:52:07Z</time>
      </trkpt>
      <trkpt lat="49.3883" lon="1.09502">
        <ele>25</ele>
        <time>2010-04-27T16:52:10Z</time>
      </trkpt>
      <trkpt lat="49.38828" lon="1.0952">
        <ele>24</ele>
        <time>2010-04-27T16:52:13Z</time>
      </trkpt>
      <trkpt lat="49.38834" lon="1.09531">
        <ele>24</ele>
        <time>2010-04-27T16:52:16Z</time>
      </trkpt>
      <trkpt lat="49.38846" lon="1.09534">
        <ele>23</ele>
        <time>2010-04-27T16:52:19Z</time>
      </trkpt>
      <trkpt lat="49.38861" lon="1.09536">
        <ele>22</ele>
        <time>2010-04-27T16:52:22Z</time>
      </trkpt>
      <trkpt lat="49.38877" lon="1.09537">
        <ele>22</ele>
        <time>2010-04-27T16:52:25Z</time>
      </trkpt>
      <trkpt lat="49.38893" lon="1.09537">
        <ele>22</ele>
        <time>2010-04-27T16:52:28Z</time>
      </trkpt>
      <trkpt lat="49.38909" lon="1.09537">
        <ele>22</ele>
        <time>2010-04-27T16:52:31Z</time>
      </trkpt>
      <trkpt lat="49.38925" lon="1.09538">
        <ele>21</ele>
        <time>2010-04-27T16:52:34Z</time>
      </trkpt>
      <trkpt lat="49.38942" lon="1.09537">
        <ele>21</ele>
        <time>2010-04-27T16:52:37Z</time>
      </trkpt>
      <trkpt lat="49.3896" lon="1.09537">
        <ele>21</ele>
        <time>2010-04-27T16:52:40Z</time>
      </trkpt>
      <trkpt lat="49.38977" lon="1.09538">
        <ele>21</ele>
        <time>2010-04-27T16:52:43Z</time>
      </trkpt>
      <trkpt lat="49.38989" lon="1.09539">
        <ele>21</ele>
        <time>2010-04-27T16:52:46Z</time>
      </trkpt>
      <trkpt lat="49.38998" lon="1.09539">
        <ele>21</ele>
        <time>2010-04-27T16:52:49Z</time>
      </trkpt>
      <trkpt lat="49.3901" lon="1.0954">
        <ele>20</ele>
        <time>2010-04-27T16:52:52Z</time>
      </trkpt>
      <trkpt lat="49.39023" lon="1.09544">
        <ele>19</ele>
        <time>2010-04-27T16:52:55Z</time>
      </trkpt>
      <trkpt lat="49.39033" lon="1.09558">
        <ele>19</ele>
        <time>2010-04-27T16:52:58Z</time>
      </trkpt>
      <trkpt lat="49.39038" lon="1.09576">
        <ele>18</ele>
        <time>2010-04-27T16:53:01Z</time>
      </trkpt>
      <trkpt lat="49.39042" lon="1.09596">
        <ele>17</ele>
        <time>2010-04-27T16:53:04Z</time>
      </trkpt>
      <trkpt lat="49.39045" lon="1.09612">
        <ele>16</ele>
        <time>2010-04-27T16:53:07Z</time>
      </trkpt>
      <trkpt lat="49.3905" lon="1.09621">
        <ele>15</ele>
        <time>2010-04-27T16:53:10Z</time>
      </trkpt>
      <trkpt lat="49.39069" lon="1.09617">
        <ele>14</ele>
        <time>2010-04-27T16:53:14Z</time>
      </trkpt>
      <trkpt lat="49.39083" lon="1.09612">
        <ele>14</ele>
        <time>2010-04-27T16:53:17Z</time>
      </trkpt>
      <trkpt lat="49.39096" lon="1.09609">
        <ele>14</ele>
        <time>2010-04-27T16:53:20Z</time>
      </trkpt>
      <trkpt lat="49.39109" lon="1.09607">
        <ele>14</ele>
        <time>2010-04-27T16:53:23Z</time>
      </trkpt>
      <trkpt lat="49.39121" lon="1.09608">
        <ele>14</ele>
        <time>2010-04-27T16:53:26Z</time>
      </trkpt>
      <trkpt lat="49.39133" lon="1.0961">
        <ele>14</ele>
        <time>2010-04-27T16:53:29Z</time>
      </trkpt>
      <trkpt lat="49.39145" lon="1.09614">
        <ele>14</ele>
        <time>2010-04-27T16:53:32Z</time>
      </trkpt>
      <trkpt lat="49.39156" lon="1.09619">
        <ele>14</ele>
        <time>2010-04-27T16:53:35Z</time>
      </trkpt>
      <trkpt lat="49.39164" lon="1.09624">
        <ele>14</ele>
        <time>2010-04-27T16:53:38Z</time>
      </trkpt>
      <trkpt lat="49.39174" lon="1.0963">
        <ele>15</ele>
        <time>2010-04-27T16:53:42Z</time>
      </trkpt>
      <trkpt lat="49.39185" lon="1.09637">
        <ele>15</ele>
        <time>2010-04-27T16:53:45Z</time>
      </trkpt>
      <trkpt lat="49.39196" lon="1.09643">
        <ele>16</ele>
        <time>2010-04-27T16:53:48Z</time>
      </trkpt>
      <trkpt lat="49.39208" lon="1.09651">
        <ele>17</ele>
        <time>2010-04-27T16:53:51Z</time>
      </trkpt>
      <trkpt lat="49.3922" lon="1.09657">
        <ele>17</ele>
        <time>2010-04-27T16:53:54Z</time>
      </trkpt>
      <trkpt lat="49.39231" lon="1.09664">
        <ele>17</ele>
        <time>2010-04-27T16:53:57Z</time>
      </trkpt>
      <trkpt lat="49.39241" lon="1.09669">
        <ele>17</ele>
        <time>2010-04-27T16:54:00Z</time>
      </trkpt>
      <trkpt lat="49.3925" lon="1.09673">
        <ele>17</ele>
        <time>2010-04-27T16:54:03Z</time>
      </trkpt>
      <trkpt lat="49.3925" lon="1.09666">
        <ele>17</ele>
        <time>2010-04-27T16:54:08Z</time>
      </trkpt>
      <trkpt lat="49.3925" lon="1.09665">
        <ele>17</ele>
        <time>2010-04-27T16:54:11Z</time>
      </trkpt>
      <trkpt lat="49.39249" lon="1.09666">
        <ele>17</ele>
        <time>2010-04-27T16:54:15Z</time>
      </trkpt>
      <trkpt lat="49.39247" lon="1.09667">
        <ele>17</ele>
        <time>2010-04-27T16:54:19Z</time>
      </trkpt>
      <trkpt lat="49.39243" lon="1.09664">
        <ele>18</ele>
        <time>2010-04-27T16:54:28Z</time>
      </trkpt>
    </trkseg>
  </trk>
</gpx>